<?xml version="1.0" encoding="UTF-8" standalone="no" ?>
<gpx xmlns="http://www.topografix.com/GPX/1/1" xmlns:xsi="http://www.w3.org/2001/XMLSchema-instance" xsi:schemaLocation="http://www.topografix.com/GPX/1/1 http://www.topografix.com/GPX/1/1/gpx.xsd" version="1.1" creator="VisuGPX - https://www.visugpx.com">
  <metadata>
    <name>Lons Arbois</name>
    <desc><![CDATA[Lons arbois par les GR ]]></desc>
  </metadata>
  <trk>
    <name><![CDATA[Lons Arbois_1]]></name>
    <trkseg>
      <trkpt lat="46.67018" lon="5.55144">
        <ele>294.78137207031</ele>
        <time>2012-05-16T08:02:30Z</time>
      </trkpt>
      <trkpt lat="46.67022" lon="5.55142">
        <ele>298.14611816406</ele>
        <time>2012-05-16T08:02:31Z</time>
      </trkpt>
      <trkpt lat="46.67031" lon="5.5514">
        <ele>304.87524414062</ele>
        <time>2012-05-16T08:02:34Z</time>
      </trkpt>
      <trkpt lat="46.67028" lon="5.55145">
        <ele>301.99133300781</ele>
        <time>2012-05-16T08:02:36Z</time>
      </trkpt>
      <trkpt lat="46.67031" lon="5.55153">
        <ele>305.35595703125</ele>
        <time>2012-05-16T08:02:40Z</time>
      </trkpt>
      <trkpt lat="46.67031" lon="5.55158">
        <ele>304.87524414062</ele>
        <time>2012-05-16T08:02:42Z</time>
      </trkpt>
      <trkpt lat="46.67033" lon="5.55163">
        <ele>298.14611816406</ele>
        <time>2012-05-16T08:02:47Z</time>
      </trkpt>
      <trkpt lat="46.67052" lon="5.55151">
        <ele>276.9970703125</ele>
        <time>2012-05-16T08:02:53Z</time>
      </trkpt>
      <trkpt lat="46.67065" lon="5.55145">
        <ele>271.70971679688</ele>
        <time>2012-05-16T08:02:57Z</time>
      </trkpt>
      <trkpt lat="46.67072" lon="5.55149">
        <ele>272.67114257812</ele>
        <time>2012-05-16T08:03:02Z</time>
      </trkpt>
      <trkpt lat="46.67072" lon="5.55157">
        <ele>278.43896484375</ele>
        <time>2012-05-16T08:03:07Z</time>
      </trkpt>
      <trkpt lat="46.67075" lon="5.55158">
        <ele>278.91967773438</ele>
        <time>2012-05-16T08:03:10Z</time>
      </trkpt>
      <trkpt lat="46.67091" lon="5.55155">
        <ele>276.51635742188</ele>
        <time>2012-05-16T08:03:16Z</time>
      </trkpt>
      <trkpt lat="46.67096" lon="5.55155">
        <ele>276.03564453125</ele>
        <time>2012-05-16T08:03:20Z</time>
      </trkpt>
      <trkpt lat="46.67106" lon="5.55157">
        <ele>276.9970703125</ele>
        <time>2012-05-16T08:03:27Z</time>
      </trkpt>
      <trkpt lat="46.67116" lon="5.55163">
        <ele>274.59375</ele>
        <time>2012-05-16T08:03:32Z</time>
      </trkpt>
      <trkpt lat="46.67118" lon="5.55164">
        <ele>274.11303710938</ele>
        <time>2012-05-16T08:03:33Z</time>
      </trkpt>
      <trkpt lat="46.67126" lon="5.55173">
        <ele>286.61022949219</ele>
        <time>2012-05-16T08:03:39Z</time>
      </trkpt>
      <trkpt lat="46.67135" lon="5.55179">
        <ele>290.93615722656</ele>
        <time>2012-05-16T08:03:43Z</time>
      </trkpt>
      <trkpt lat="46.67147" lon="5.55182">
        <ele>287.57141113281</ele>
        <time>2012-05-16T08:03:48Z</time>
      </trkpt>
      <trkpt lat="46.67163" lon="5.55183">
        <ele>272.67114257812</ele>
        <time>2012-05-16T08:03:54Z</time>
      </trkpt>
      <trkpt lat="46.6717" lon="5.55183">
        <ele>267.38391113281</ele>
        <time>2012-05-16T08:03:58Z</time>
      </trkpt>
      <trkpt lat="46.67177" lon="5.55183">
        <ele>264.98059082031</ele>
        <time>2012-05-16T08:04:02Z</time>
      </trkpt>
      <trkpt lat="46.67188" lon="5.55186">
        <ele>264.49987792969</ele>
        <time>2012-05-16T08:04:09Z</time>
      </trkpt>
      <trkpt lat="46.67193" lon="5.55187">
        <ele>262.09655761719</ele>
        <time>2012-05-16T08:04:12Z</time>
      </trkpt>
      <trkpt lat="46.67194" lon="5.55203">
        <ele>258.25134277344</ele>
        <time>2012-05-16T08:04:19Z</time>
      </trkpt>
      <trkpt lat="46.67203" lon="5.55214">
        <ele>255.36730957031</ele>
        <time>2012-05-16T08:04:24Z</time>
      </trkpt>
      <trkpt lat="46.6721" lon="5.55229">
        <ele>261.13525390625</ele>
        <time>2012-05-16T08:04:28Z</time>
      </trkpt>
      <trkpt lat="46.67208" lon="5.55237">
        <ele>265.46130371094</ele>
        <time>2012-05-16T08:04:29Z</time>
      </trkpt>
      <trkpt lat="46.672" lon="5.55274">
        <ele>274.11303710938</ele>
        <time>2012-05-16T08:04:37Z</time>
      </trkpt>
      <trkpt lat="46.67196" lon="5.5529">
        <ele>276.03564453125</ele>
        <time>2012-05-16T08:04:41Z</time>
      </trkpt>
      <trkpt lat="46.67196" lon="5.55307">
        <ele>275.55505371094</ele>
        <time>2012-05-16T08:04:46Z</time>
      </trkpt>
      <trkpt lat="46.67195" lon="5.55323">
        <ele>276.03564453125</ele>
        <time>2012-05-16T08:04:50Z</time>
      </trkpt>
      <trkpt lat="46.67195" lon="5.5534">
        <ele>275.55505371094</ele>
        <time>2012-05-16T08:04:55Z</time>
      </trkpt>
      <trkpt lat="46.67194" lon="5.55356">
        <ele>271.70971679688</ele>
        <time>2012-05-16T08:05:00Z</time>
      </trkpt>
      <trkpt lat="46.67192" lon="5.55367">
        <ele>267.38391113281</ele>
        <time>2012-05-16T08:05:04Z</time>
      </trkpt>
      <trkpt lat="46.67194" lon="5.55379">
        <ele>262.5771484375</ele>
        <time>2012-05-16T08:05:09Z</time>
      </trkpt>
      <trkpt lat="46.67192" lon="5.55399">
        <ele>265.94189453125</ele>
        <time>2012-05-16T08:05:14Z</time>
      </trkpt>
      <trkpt lat="46.67192" lon="5.55414">
        <ele>265.94189453125</ele>
        <time>2012-05-16T08:05:18Z</time>
      </trkpt>
      <trkpt lat="46.67194" lon="5.55429">
        <ele>264.01928710938</ele>
        <time>2012-05-16T08:05:22Z</time>
      </trkpt>
      <trkpt lat="46.67198" lon="5.55437">
        <ele>259.693359375</ele>
        <time>2012-05-16T08:05:26Z</time>
      </trkpt>
      <trkpt lat="46.67192" lon="5.55458">
        <ele>267.38391113281</ele>
        <time>2012-05-16T08:05:33Z</time>
      </trkpt>
      <trkpt lat="46.67184" lon="5.55473">
        <ele>264.49987792969</ele>
        <time>2012-05-16T08:05:41Z</time>
      </trkpt>
      <trkpt lat="46.6718" lon="5.55483">
        <ele>261.61596679688</ele>
        <time>2012-05-16T08:05:46Z</time>
      </trkpt>
      <trkpt lat="46.67179" lon="5.55499">
        <ele>258.25134277344</ele>
        <time>2012-05-16T08:05:51Z</time>
      </trkpt>
      <trkpt lat="46.67176" lon="5.55512">
        <ele>255.84802246094</ele>
        <time>2012-05-16T08:05:55Z</time>
      </trkpt>
      <trkpt lat="46.67173" lon="5.55532">
        <ele>258.25134277344</ele>
        <time>2012-05-16T08:06:00Z</time>
      </trkpt>
      <trkpt lat="46.67173" lon="5.55544">
        <ele>257.77075195312</ele>
        <time>2012-05-16T08:06:04Z</time>
      </trkpt>
      <trkpt lat="46.67172" lon="5.55553">
        <ele>256.80932617188</ele>
        <time>2012-05-16T08:06:07Z</time>
      </trkpt>
      <trkpt lat="46.67168" lon="5.55571">
        <ele>255.36730957031</ele>
        <time>2012-05-16T08:06:13Z</time>
      </trkpt>
      <trkpt lat="46.67166" lon="5.55584">
        <ele>254.40600585938</ele>
        <time>2012-05-16T08:06:19Z</time>
      </trkpt>
      <trkpt lat="46.67163" lon="5.55599">
        <ele>256.80932617188</ele>
        <time>2012-05-16T08:06:26Z</time>
      </trkpt>
      <trkpt lat="46.67161" lon="5.55614">
        <ele>258.25134277344</ele>
        <time>2012-05-16T08:06:34Z</time>
      </trkpt>
      <trkpt lat="46.6716" lon="5.55618">
        <ele>258.25134277344</ele>
        <time>2012-05-16T08:06:37Z</time>
      </trkpt>
      <trkpt lat="46.6716" lon="5.5562">
        <ele>260.65454101562</ele>
        <time>2012-05-16T08:06:48Z</time>
      </trkpt>
      <trkpt lat="46.6716" lon="5.55621">
        <ele>260.65454101562</ele>
        <time>2012-05-16T08:06:49Z</time>
      </trkpt>
      <trkpt lat="46.67159" lon="5.5563">
        <ele>260.17395019531</ele>
        <time>2012-05-16T08:06:54Z</time>
      </trkpt>
      <trkpt lat="46.67159" lon="5.55635">
        <ele>259.693359375</ele>
        <time>2012-05-16T08:06:57Z</time>
      </trkpt>
      <trkpt lat="46.6716" lon="5.5564">
        <ele>259.21264648438</ele>
        <time>2012-05-16T08:07:03Z</time>
      </trkpt>
      <trkpt lat="46.67161" lon="5.55641">
        <ele>258.73193359375</ele>
        <time>2012-05-16T08:07:09Z</time>
      </trkpt>
      <trkpt lat="46.67165" lon="5.55642">
        <ele>258.73193359375</ele>
        <time>2012-05-16T08:07:14Z</time>
      </trkpt>
      <trkpt lat="46.67168" lon="5.55643">
        <ele>258.25134277344</ele>
        <time>2012-05-16T08:07:17Z</time>
      </trkpt>
      <trkpt lat="46.67174" lon="5.55642">
        <ele>259.693359375</ele>
        <time>2012-05-16T08:07:21Z</time>
      </trkpt>
      <trkpt lat="46.67187" lon="5.55646">
        <ele>260.17395019531</ele>
        <time>2012-05-16T08:07:26Z</time>
      </trkpt>
      <trkpt lat="46.67192" lon="5.5565">
        <ele>260.65454101562</ele>
        <time>2012-05-16T08:07:29Z</time>
      </trkpt>
      <trkpt lat="46.67202" lon="5.55655">
        <ele>262.09655761719</ele>
        <time>2012-05-16T08:07:34Z</time>
      </trkpt>
      <trkpt lat="46.67209" lon="5.5566">
        <ele>263.05786132812</ele>
        <time>2012-05-16T08:07:37Z</time>
      </trkpt>
      <trkpt lat="46.67223" lon="5.55662">
        <ele>259.693359375</ele>
        <time>2012-05-16T08:07:43Z</time>
      </trkpt>
      <trkpt lat="46.67227" lon="5.55665">
        <ele>258.73193359375</ele>
        <time>2012-05-16T08:07:45Z</time>
      </trkpt>
      <trkpt lat="46.67242" lon="5.55673">
        <ele>258.73193359375</ele>
        <time>2012-05-16T08:07:51Z</time>
      </trkpt>
      <trkpt lat="46.67255" lon="5.55681">
        <ele>253.92541503906</ele>
        <time>2012-05-16T08:07:56Z</time>
      </trkpt>
      <trkpt lat="46.67274" lon="5.55687">
        <ele>255.36730957031</ele>
        <time>2012-05-16T08:08:02Z</time>
      </trkpt>
      <trkpt lat="46.6729" lon="5.55698">
        <ele>259.21264648438</ele>
        <time>2012-05-16T08:08:06Z</time>
      </trkpt>
      <trkpt lat="46.67291" lon="5.55701">
        <ele>259.693359375</ele>
        <time>2012-05-16T08:08:07Z</time>
      </trkpt>
      <trkpt lat="46.67288" lon="5.55727">
        <ele>268.34509277344</ele>
        <time>2012-05-16T08:08:12Z</time>
      </trkpt>
      <trkpt lat="46.67286" lon="5.55734">
        <ele>268.82580566406</ele>
        <time>2012-05-16T08:08:14Z</time>
      </trkpt>
      <trkpt lat="46.6728" lon="5.55757">
        <ele>269.787109375</ele>
        <time>2012-05-16T08:08:20Z</time>
      </trkpt>
      <trkpt lat="46.67278" lon="5.55774">
        <ele>268.34509277344</ele>
        <time>2012-05-16T08:08:25Z</time>
      </trkpt>
      <trkpt lat="46.67276" lon="5.5579">
        <ele>268.82580566406</ele>
        <time>2012-05-16T08:08:29Z</time>
      </trkpt>
      <trkpt lat="46.67275" lon="5.55804">
        <ele>268.82580566406</ele>
        <time>2012-05-16T08:08:33Z</time>
      </trkpt>
      <trkpt lat="46.67274" lon="5.55824">
        <ele>265.46130371094</ele>
        <time>2012-05-16T08:08:39Z</time>
      </trkpt>
      <trkpt lat="46.67274" lon="5.55839">
        <ele>262.09655761719</ele>
        <time>2012-05-16T08:08:44Z</time>
      </trkpt>
      <trkpt lat="46.67276" lon="5.55857">
        <ele>260.65454101562</ele>
        <time>2012-05-16T08:08:50Z</time>
      </trkpt>
      <trkpt lat="46.67274" lon="5.55869">
        <ele>266.90319824219</ele>
        <time>2012-05-16T08:08:54Z</time>
      </trkpt>
      <trkpt lat="46.67268" lon="5.5588">
        <ele>270.26770019531</ele>
        <time>2012-05-16T08:08:59Z</time>
      </trkpt>
      <trkpt lat="46.67258" lon="5.55898">
        <ele>278.91967773438</ele>
        <time>2012-05-16T08:09:07Z</time>
      </trkpt>
      <trkpt lat="46.67252" lon="5.5591">
        <ele>270.74841308594</ele>
        <time>2012-05-16T08:09:13Z</time>
      </trkpt>
      <trkpt lat="46.67252" lon="5.5591">
        <ele>270.26770019531</ele>
        <time>2012-05-16T08:09:14Z</time>
      </trkpt>
      <trkpt lat="46.67255" lon="5.55922">
        <ele>267.38391113281</ele>
        <time>2012-05-16T08:09:19Z</time>
      </trkpt>
      <trkpt lat="46.67258" lon="5.55927">
        <ele>267.38391113281</ele>
        <time>2012-05-16T08:09:21Z</time>
      </trkpt>
      <trkpt lat="46.67268" lon="5.55941">
        <ele>265.46130371094</ele>
        <time>2012-05-16T08:09:27Z</time>
      </trkpt>
      <trkpt lat="46.6727" lon="5.5596">
        <ele>264.98059082031</ele>
        <time>2012-05-16T08:09:32Z</time>
      </trkpt>
      <trkpt lat="46.67272" lon="5.55973">
        <ele>264.49987792969</ele>
        <time>2012-05-16T08:09:36Z</time>
      </trkpt>
      <trkpt lat="46.67273" lon="5.55988">
        <ele>264.49987792969</ele>
        <time>2012-05-16T08:09:41Z</time>
      </trkpt>
      <trkpt lat="46.67274" lon="5.56001">
        <ele>263.53857421875</ele>
        <time>2012-05-16T08:09:45Z</time>
      </trkpt>
      <trkpt lat="46.67279" lon="5.56016">
        <ele>262.09655761719</ele>
        <time>2012-05-16T08:09:50Z</time>
      </trkpt>
      <trkpt lat="46.67276" lon="5.56039">
        <ele>260.65454101562</ele>
        <time>2012-05-16T08:09:56Z</time>
      </trkpt>
      <trkpt lat="46.67271" lon="5.56057">
        <ele>257.77075195312</ele>
        <time>2012-05-16T08:10:02Z</time>
      </trkpt>
      <trkpt lat="46.67268" lon="5.56072">
        <ele>255.84802246094</ele>
        <time>2012-05-16T08:10:07Z</time>
      </trkpt>
      <trkpt lat="46.67267" lon="5.5608">
        <ele>255.36730957031</ele>
        <time>2012-05-16T08:10:10Z</time>
      </trkpt>
      <trkpt lat="46.67269" lon="5.56099">
        <ele>257.77075195312</ele>
        <time>2012-05-16T08:10:16Z</time>
      </trkpt>
      <trkpt lat="46.67267" lon="5.56116">
        <ele>257.77075195312</ele>
        <time>2012-05-16T08:10:21Z</time>
      </trkpt>
      <trkpt lat="46.67267" lon="5.56125">
        <ele>256.32873535156</ele>
        <time>2012-05-16T08:10:24Z</time>
      </trkpt>
      <trkpt lat="46.67264" lon="5.56145">
        <ele>259.21264648438</ele>
        <time>2012-05-16T08:10:29Z</time>
      </trkpt>
      <trkpt lat="46.67265" lon="5.56162">
        <ele>263.53857421875</ele>
        <time>2012-05-16T08:10:34Z</time>
      </trkpt>
      <trkpt lat="46.67263" lon="5.56177">
        <ele>265.94189453125</ele>
        <time>2012-05-16T08:10:38Z</time>
      </trkpt>
      <trkpt lat="46.6726" lon="5.56197">
        <ele>267.38391113281</ele>
        <time>2012-05-16T08:10:43Z</time>
      </trkpt>
      <trkpt lat="46.6726" lon="5.56204">
        <ele>266.42248535156</ele>
        <time>2012-05-16T08:10:45Z</time>
      </trkpt>
      <trkpt lat="46.67256" lon="5.56227">
        <ele>266.42248535156</ele>
        <time>2012-05-16T08:10:52Z</time>
      </trkpt>
      <trkpt lat="46.6725" lon="5.56246">
        <ele>266.90319824219</ele>
        <time>2012-05-16T08:10:57Z</time>
      </trkpt>
      <trkpt lat="46.67247" lon="5.56262">
        <ele>266.42248535156</ele>
        <time>2012-05-16T08:11:01Z</time>
      </trkpt>
      <trkpt lat="46.67247" lon="5.56265">
        <ele>266.42248535156</ele>
        <time>2012-05-16T08:11:02Z</time>
      </trkpt>
      <trkpt lat="46.67245" lon="5.56286">
        <ele>267.38391113281</ele>
        <time>2012-05-16T08:11:08Z</time>
      </trkpt>
      <trkpt lat="46.67241" lon="5.56302">
        <ele>265.46130371094</ele>
        <time>2012-05-16T08:11:13Z</time>
      </trkpt>
      <trkpt lat="46.67241" lon="5.56318">
        <ele>265.46130371094</ele>
        <time>2012-05-16T08:11:17Z</time>
      </trkpt>
      <trkpt lat="46.67242" lon="5.56332">
        <ele>265.46130371094</ele>
        <time>2012-05-16T08:11:21Z</time>
      </trkpt>
      <trkpt lat="46.67241" lon="5.56339">
        <ele>265.46130371094</ele>
        <time>2012-05-16T08:11:23Z</time>
      </trkpt>
      <trkpt lat="46.67239" lon="5.56357">
        <ele>264.98059082031</ele>
        <time>2012-05-16T08:11:28Z</time>
      </trkpt>
      <trkpt lat="46.67238" lon="5.56369">
        <ele>263.53857421875</ele>
        <time>2012-05-16T08:11:32Z</time>
      </trkpt>
      <trkpt lat="46.67237" lon="5.56384">
        <ele>264.49987792969</ele>
        <time>2012-05-16T08:11:37Z</time>
      </trkpt>
      <trkpt lat="46.67229" lon="5.56407">
        <ele>264.49987792969</ele>
        <time>2012-05-16T08:11:44Z</time>
      </trkpt>
      <trkpt lat="46.67225" lon="5.56419">
        <ele>264.98059082031</ele>
        <time>2012-05-16T08:11:48Z</time>
      </trkpt>
      <trkpt lat="46.6722" lon="5.56433">
        <ele>266.42248535156</ele>
        <time>2012-05-16T08:11:52Z</time>
      </trkpt>
      <trkpt lat="46.6721" lon="5.56452">
        <ele>266.42248535156</ele>
        <time>2012-05-16T08:11:58Z</time>
      </trkpt>
      <trkpt lat="46.67201" lon="5.56464">
        <ele>266.42248535156</ele>
        <time>2012-05-16T08:12:03Z</time>
      </trkpt>
      <trkpt lat="46.67192" lon="5.56474">
        <ele>266.42248535156</ele>
        <time>2012-05-16T08:12:08Z</time>
      </trkpt>
      <trkpt lat="46.67183" lon="5.56486">
        <ele>267.38391113281</ele>
        <time>2012-05-16T08:12:13Z</time>
      </trkpt>
      <trkpt lat="46.67175" lon="5.56497">
        <ele>269.30651855469</ele>
        <time>2012-05-16T08:12:18Z</time>
      </trkpt>
      <trkpt lat="46.67166" lon="5.56513">
        <ele>271.70971679688</ele>
        <time>2012-05-16T08:12:24Z</time>
      </trkpt>
      <trkpt lat="46.67157" lon="5.56524">
        <ele>269.787109375</ele>
        <time>2012-05-16T08:12:29Z</time>
      </trkpt>
      <trkpt lat="46.67152" lon="5.56533">
        <ele>269.30651855469</ele>
        <time>2012-05-16T08:12:33Z</time>
      </trkpt>
      <trkpt lat="46.67147" lon="5.56543">
        <ele>267.86450195312</ele>
        <time>2012-05-16T08:12:37Z</time>
      </trkpt>
      <trkpt lat="46.67139" lon="5.56562">
        <ele>268.34509277344</ele>
        <time>2012-05-16T08:12:43Z</time>
      </trkpt>
      <trkpt lat="46.67135" lon="5.56576">
        <ele>270.26770019531</ele>
        <time>2012-05-16T08:12:47Z</time>
      </trkpt>
      <trkpt lat="46.67131" lon="5.56592">
        <ele>271.22912597656</ele>
        <time>2012-05-16T08:12:52Z</time>
      </trkpt>
      <trkpt lat="46.67129" lon="5.56603">
        <ele>273.15185546875</ele>
        <time>2012-05-16T08:12:55Z</time>
      </trkpt>
      <trkpt lat="46.67128" lon="5.56619">
        <ele>274.11303710938</ele>
        <time>2012-05-16T08:13:01Z</time>
      </trkpt>
      <trkpt lat="46.67123" lon="5.56636">
        <ele>274.11303710938</ele>
        <time>2012-05-16T08:13:05Z</time>
      </trkpt>
      <trkpt lat="46.67115" lon="5.56659">
        <ele>274.59375</ele>
        <time>2012-05-16T08:13:11Z</time>
      </trkpt>
      <trkpt lat="46.67107" lon="5.56671">
        <ele>272.1904296875</ele>
        <time>2012-05-16T08:13:17Z</time>
      </trkpt>
      <trkpt lat="46.67099" lon="5.56684">
        <ele>273.63244628906</ele>
        <time>2012-05-16T08:13:22Z</time>
      </trkpt>
      <trkpt lat="46.67093" lon="5.56702">
        <ele>273.15185546875</ele>
        <time>2012-05-16T08:13:27Z</time>
      </trkpt>
      <trkpt lat="46.67091" lon="5.5671">
        <ele>271.70971679688</ele>
        <time>2012-05-16T08:13:30Z</time>
      </trkpt>
      <trkpt lat="46.67086" lon="5.56723">
        <ele>270.74841308594</ele>
        <time>2012-05-16T08:13:35Z</time>
      </trkpt>
      <trkpt lat="46.67078" lon="5.56737">
        <ele>269.787109375</ele>
        <time>2012-05-16T08:13:40Z</time>
      </trkpt>
      <trkpt lat="46.67072" lon="5.56748">
        <ele>270.74841308594</ele>
        <time>2012-05-16T08:13:44Z</time>
      </trkpt>
      <trkpt lat="46.67058" lon="5.5676">
        <ele>272.1904296875</ele>
        <time>2012-05-16T08:13:50Z</time>
      </trkpt>
      <trkpt lat="46.67047" lon="5.56771">
        <ele>271.22912597656</ele>
        <time>2012-05-16T08:13:55Z</time>
      </trkpt>
      <trkpt lat="46.67039" lon="5.56778">
        <ele>271.22912597656</ele>
        <time>2012-05-16T08:13:59Z</time>
      </trkpt>
      <trkpt lat="46.67028" lon="5.5679">
        <ele>270.26770019531</ele>
        <time>2012-05-16T08:14:04Z</time>
      </trkpt>
      <trkpt lat="46.67021" lon="5.56797">
        <ele>269.30651855469</ele>
        <time>2012-05-16T08:14:08Z</time>
      </trkpt>
      <trkpt lat="46.67014" lon="5.56804">
        <ele>268.82580566406</ele>
        <time>2012-05-16T08:14:12Z</time>
      </trkpt>
      <trkpt lat="46.67007" lon="5.56814">
        <ele>269.787109375</ele>
        <time>2012-05-16T08:14:17Z</time>
      </trkpt>
      <trkpt lat="46.67005" lon="5.56819">
        <ele>270.26770019531</ele>
        <time>2012-05-16T08:14:20Z</time>
      </trkpt>
      <trkpt lat="46.67009" lon="5.56822">
        <ele>269.787109375</ele>
        <time>2012-05-16T08:14:26Z</time>
      </trkpt>
      <trkpt lat="46.6701" lon="5.56822">
        <ele>269.787109375</ele>
        <time>2012-05-16T08:14:32Z</time>
      </trkpt>
      <trkpt lat="46.6701" lon="5.56821">
        <ele>269.787109375</ele>
        <time>2012-05-16T08:14:40Z</time>
      </trkpt>
      <trkpt lat="46.6701" lon="5.56821">
        <ele>270.74841308594</ele>
        <time>2012-05-16T08:14:57Z</time>
      </trkpt>
      <trkpt lat="46.67012" lon="5.56822">
        <ele>271.70971679688</ele>
        <time>2012-05-16T08:15:09Z</time>
      </trkpt>
      <trkpt lat="46.67016" lon="5.56827">
        <ele>271.22912597656</ele>
        <time>2012-05-16T08:15:14Z</time>
      </trkpt>
      <trkpt lat="46.67017" lon="5.56827">
        <ele>271.22912597656</ele>
        <time>2012-05-16T08:15:15Z</time>
      </trkpt>
      <trkpt lat="46.67019" lon="5.56839">
        <ele>269.787109375</ele>
        <time>2012-05-16T08:15:21Z</time>
      </trkpt>
      <trkpt lat="46.67015" lon="5.5685">
        <ele>270.26770019531</ele>
        <time>2012-05-16T08:15:28Z</time>
      </trkpt>
      <trkpt lat="46.67008" lon="5.56862">
        <ele>269.787109375</ele>
        <time>2012-05-16T08:15:33Z</time>
      </trkpt>
      <trkpt lat="46.67" lon="5.56883">
        <ele>273.15185546875</ele>
        <time>2012-05-16T08:15:39Z</time>
      </trkpt>
      <trkpt lat="46.66994" lon="5.56899">
        <ele>274.11303710938</ele>
        <time>2012-05-16T08:15:44Z</time>
      </trkpt>
      <trkpt lat="46.66989" lon="5.56911">
        <ele>274.11303710938</ele>
        <time>2012-05-16T08:15:51Z</time>
      </trkpt>
      <trkpt lat="46.66989" lon="5.56913">
        <ele>274.11303710938</ele>
        <time>2012-05-16T08:15:52Z</time>
      </trkpt>
      <trkpt lat="46.66986" lon="5.56922">
        <ele>275.07446289062</ele>
        <time>2012-05-16T08:15:57Z</time>
      </trkpt>
      <trkpt lat="46.66982" lon="5.56934">
        <ele>275.55505371094</ele>
        <time>2012-05-16T08:16:04Z</time>
      </trkpt>
      <trkpt lat="46.66982" lon="5.56935">
        <ele>275.55505371094</ele>
        <time>2012-05-16T08:16:05Z</time>
      </trkpt>
      <trkpt lat="46.66975" lon="5.5695">
        <ele>276.03564453125</ele>
        <time>2012-05-16T08:16:11Z</time>
      </trkpt>
      <trkpt lat="46.66969" lon="5.56963">
        <ele>276.51635742188</ele>
        <time>2012-05-16T08:16:15Z</time>
      </trkpt>
      <trkpt lat="46.66964" lon="5.56972">
        <ele>276.9970703125</ele>
        <time>2012-05-16T08:16:18Z</time>
      </trkpt>
      <trkpt lat="46.66957" lon="5.56982">
        <ele>277.95825195312</ele>
        <time>2012-05-16T08:16:22Z</time>
      </trkpt>
      <trkpt lat="46.66958" lon="5.56997">
        <ele>280.84240722656</ele>
        <time>2012-05-16T08:16:28Z</time>
      </trkpt>
      <trkpt lat="46.66961" lon="5.57007">
        <ele>281.80358886719</ele>
        <time>2012-05-16T08:16:31Z</time>
      </trkpt>
      <trkpt lat="46.66931" lon="5.57002">
        <ele>277.95825195312</ele>
        <time>2012-05-16T08:16:35Z</time>
      </trkpt>
      <trkpt lat="46.66915" lon="5.57015">
        <ele>277.95825195312</ele>
        <time>2012-05-16T08:16:42Z</time>
      </trkpt>
      <trkpt lat="46.66911" lon="5.57035">
        <ele>274.11303710938</ele>
        <time>2012-05-16T08:16:47Z</time>
      </trkpt>
      <trkpt lat="46.66905" lon="5.57052">
        <ele>273.15185546875</ele>
        <time>2012-05-16T08:16:52Z</time>
      </trkpt>
      <trkpt lat="46.66896" lon="5.57066">
        <ele>274.11303710938</ele>
        <time>2012-05-16T08:16:57Z</time>
      </trkpt>
      <trkpt lat="46.66887" lon="5.57078">
        <ele>275.55505371094</ele>
        <time>2012-05-16T08:17:02Z</time>
      </trkpt>
      <trkpt lat="46.66881" lon="5.57089">
        <ele>276.51635742188</ele>
        <time>2012-05-16T08:17:06Z</time>
      </trkpt>
      <trkpt lat="46.66871" lon="5.57107">
        <ele>277.95825195312</ele>
        <time>2012-05-16T08:17:12Z</time>
      </trkpt>
      <trkpt lat="46.66866" lon="5.57119">
        <ele>276.51635742188</ele>
        <time>2012-05-16T08:17:16Z</time>
      </trkpt>
      <trkpt lat="46.66858" lon="5.57136">
        <ele>276.03564453125</ele>
        <time>2012-05-16T08:17:22Z</time>
      </trkpt>
      <trkpt lat="46.66853" lon="5.57151">
        <ele>275.55505371094</ele>
        <time>2012-05-16T08:17:27Z</time>
      </trkpt>
      <trkpt lat="46.66847" lon="5.5717">
        <ele>275.55505371094</ele>
        <time>2012-05-16T08:17:33Z</time>
      </trkpt>
      <trkpt lat="46.66843" lon="5.57178">
        <ele>276.51635742188</ele>
        <time>2012-05-16T08:17:36Z</time>
      </trkpt>
      <trkpt lat="46.66837" lon="5.57175">
        <ele>277.47766113281</ele>
        <time>2012-05-16T08:17:40Z</time>
      </trkpt>
      <trkpt lat="46.6683" lon="5.57158">
        <ele>277.47766113281</ele>
        <time>2012-05-16T08:17:45Z</time>
      </trkpt>
      <trkpt lat="46.66826" lon="5.5714">
        <ele>277.47766113281</ele>
        <time>2012-05-16T08:17:50Z</time>
      </trkpt>
      <trkpt lat="46.66821" lon="5.57126">
        <ele>277.95825195312</ele>
        <time>2012-05-16T08:17:54Z</time>
      </trkpt>
      <trkpt lat="46.66815" lon="5.57109">
        <ele>276.9970703125</ele>
        <time>2012-05-16T08:17:59Z</time>
      </trkpt>
      <trkpt lat="46.6681" lon="5.57098">
        <ele>276.9970703125</ele>
        <time>2012-05-16T08:18:03Z</time>
      </trkpt>
      <trkpt lat="46.66808" lon="5.57096">
        <ele>276.51635742188</ele>
        <time>2012-05-16T08:18:04Z</time>
      </trkpt>
      <trkpt lat="46.66798" lon="5.57083">
        <ele>276.03564453125</ele>
        <time>2012-05-16T08:18:10Z</time>
      </trkpt>
      <trkpt lat="46.66792" lon="5.57071">
        <ele>275.07446289062</ele>
        <time>2012-05-16T08:18:15Z</time>
      </trkpt>
      <trkpt lat="46.66785" lon="5.57061">
        <ele>275.07446289062</ele>
        <time>2012-05-16T08:18:20Z</time>
      </trkpt>
      <trkpt lat="46.66782" lon="5.57056">
        <ele>276.51635742188</ele>
        <time>2012-05-16T08:18:23Z</time>
      </trkpt>
      <trkpt lat="46.6677" lon="5.5704">
        <ele>278.43896484375</ele>
        <time>2012-05-16T08:18:34Z</time>
      </trkpt>
      <trkpt lat="46.66759" lon="5.57028">
        <ele>279.40026855469</ele>
        <time>2012-05-16T08:18:43Z</time>
      </trkpt>
      <trkpt lat="46.66758" lon="5.57027">
        <ele>279.40026855469</ele>
        <time>2012-05-16T08:18:44Z</time>
      </trkpt>
      <trkpt lat="46.6675" lon="5.57028">
        <ele>280.36169433594</ele>
        <time>2012-05-16T08:18:50Z</time>
      </trkpt>
      <trkpt lat="46.66742" lon="5.57029">
        <ele>280.36169433594</ele>
        <time>2012-05-16T08:18:55Z</time>
      </trkpt>
      <trkpt lat="46.66734" lon="5.57032">
        <ele>281.80358886719</ele>
        <time>2012-05-16T08:19:01Z</time>
      </trkpt>
      <trkpt lat="46.66727" lon="5.57039">
        <ele>283.72619628906</ele>
        <time>2012-05-16T08:19:06Z</time>
      </trkpt>
      <trkpt lat="46.66721" lon="5.57049">
        <ele>284.68762207031</ele>
        <time>2012-05-16T08:19:12Z</time>
      </trkpt>
      <trkpt lat="46.66715" lon="5.57061">
        <ele>286.12951660156</ele>
        <time>2012-05-16T08:19:17Z</time>
      </trkpt>
      <trkpt lat="46.66711" lon="5.5707">
        <ele>285.64880371094</ele>
        <time>2012-05-16T08:19:20Z</time>
      </trkpt>
      <trkpt lat="46.66705" lon="5.57087">
        <ele>284.68762207031</ele>
        <time>2012-05-16T08:19:25Z</time>
      </trkpt>
      <trkpt lat="46.66698" lon="5.57105">
        <ele>283.72619628906</ele>
        <time>2012-05-16T08:19:31Z</time>
      </trkpt>
      <trkpt lat="46.66693" lon="5.57115">
        <ele>283.72619628906</ele>
        <time>2012-05-16T08:19:34Z</time>
      </trkpt>
      <trkpt lat="46.6669" lon="5.57133">
        <ele>283.24560546875</ele>
        <time>2012-05-16T08:19:39Z</time>
      </trkpt>
      <trkpt lat="46.66692" lon="5.57154">
        <ele>280.36169433594</ele>
        <time>2012-05-16T08:19:45Z</time>
      </trkpt>
      <trkpt lat="46.66695" lon="5.57159">
        <ele>277.95825195312</ele>
        <time>2012-05-16T08:19:48Z</time>
      </trkpt>
      <trkpt lat="46.667" lon="5.57167">
        <ele>276.9970703125</ele>
        <time>2012-05-16T08:19:51Z</time>
      </trkpt>
      <trkpt lat="46.66709" lon="5.57178">
        <ele>270.26770019531</ele>
        <time>2012-05-16T08:19:56Z</time>
      </trkpt>
      <trkpt lat="46.66711" lon="5.57196">
        <ele>275.07446289062</ele>
        <time>2012-05-16T08:20:00Z</time>
      </trkpt>
      <trkpt lat="46.66712" lon="5.57209">
        <ele>277.95825195312</ele>
        <time>2012-05-16T08:20:03Z</time>
      </trkpt>
      <trkpt lat="46.66724" lon="5.57225">
        <ele>279.40026855469</ele>
        <time>2012-05-16T08:20:08Z</time>
      </trkpt>
      <trkpt lat="46.66729" lon="5.57231">
        <ele>280.84240722656</ele>
        <time>2012-05-16T08:20:10Z</time>
      </trkpt>
      <trkpt lat="46.66723" lon="5.57246">
        <ele>282.28430175781</ele>
        <time>2012-05-16T08:20:14Z</time>
      </trkpt>
      <trkpt lat="46.66713" lon="5.57274">
        <ele>284.68762207031</ele>
        <time>2012-05-16T08:20:22Z</time>
      </trkpt>
      <trkpt lat="46.66708" lon="5.57289">
        <ele>286.12951660156</ele>
        <time>2012-05-16T08:20:26Z</time>
      </trkpt>
      <trkpt lat="46.66703" lon="5.57303">
        <ele>286.12951660156</ele>
        <time>2012-05-16T08:20:30Z</time>
      </trkpt>
      <trkpt lat="46.66697" lon="5.57319">
        <ele>286.12951660156</ele>
        <time>2012-05-16T08:20:35Z</time>
      </trkpt>
      <trkpt lat="46.66692" lon="5.57337">
        <ele>285.64880371094</ele>
        <time>2012-05-16T08:20:40Z</time>
      </trkpt>
      <trkpt lat="46.6669" lon="5.57351">
        <ele>285.64880371094</ele>
        <time>2012-05-16T08:20:44Z</time>
      </trkpt>
      <trkpt lat="46.66689" lon="5.5737">
        <ele>285.64880371094</ele>
        <time>2012-05-16T08:20:49Z</time>
      </trkpt>
      <trkpt lat="46.66687" lon="5.57388">
        <ele>284.20690917969</ele>
        <time>2012-05-16T08:20:54Z</time>
      </trkpt>
      <trkpt lat="46.66682" lon="5.57412">
        <ele>283.24560546875</ele>
        <time>2012-05-16T08:21:01Z</time>
      </trkpt>
      <trkpt lat="46.66681" lon="5.57418">
        <ele>283.24560546875</ele>
        <time>2012-05-16T08:21:03Z</time>
      </trkpt>
      <trkpt lat="46.66679" lon="5.57434">
        <ele>282.76501464844</ele>
        <time>2012-05-16T08:21:08Z</time>
      </trkpt>
      <trkpt lat="46.66675" lon="5.57452">
        <ele>282.28430175781</ele>
        <time>2012-05-16T08:21:14Z</time>
      </trkpt>
      <trkpt lat="46.66673" lon="5.57465">
        <ele>282.76501464844</ele>
        <time>2012-05-16T08:21:18Z</time>
      </trkpt>
      <trkpt lat="46.66673" lon="5.57478">
        <ele>282.28430175781</ele>
        <time>2012-05-16T08:21:21Z</time>
      </trkpt>
      <trkpt lat="46.6667" lon="5.57495">
        <ele>281.32299804688</ele>
        <time>2012-05-16T08:21:25Z</time>
      </trkpt>
      <trkpt lat="46.66668" lon="5.57508">
        <ele>279.880859375</ele>
        <time>2012-05-16T08:21:29Z</time>
      </trkpt>
      <trkpt lat="46.66665" lon="5.57527">
        <ele>279.880859375</ele>
        <time>2012-05-16T08:21:35Z</time>
      </trkpt>
      <trkpt lat="46.66661" lon="5.57543">
        <ele>280.84240722656</ele>
        <time>2012-05-16T08:21:40Z</time>
      </trkpt>
      <trkpt lat="46.6666" lon="5.57552">
        <ele>280.36169433594</ele>
        <time>2012-05-16T08:21:43Z</time>
      </trkpt>
      <trkpt lat="46.66657" lon="5.57564">
        <ele>281.32299804688</ele>
        <time>2012-05-16T08:21:47Z</time>
      </trkpt>
      <trkpt lat="46.66653" lon="5.57579">
        <ele>280.36169433594</ele>
        <time>2012-05-16T08:21:52Z</time>
      </trkpt>
      <trkpt lat="46.66652" lon="5.57586">
        <ele>279.880859375</ele>
        <time>2012-05-16T08:21:54Z</time>
      </trkpt>
      <trkpt lat="46.66648" lon="5.57606">
        <ele>280.36169433594</ele>
        <time>2012-05-16T08:22:00Z</time>
      </trkpt>
      <trkpt lat="46.66646" lon="5.57621">
        <ele>280.84240722656</ele>
        <time>2012-05-16T08:22:05Z</time>
      </trkpt>
      <trkpt lat="46.66644" lon="5.57625">
        <ele>280.84240722656</ele>
        <time>2012-05-16T08:22:06Z</time>
      </trkpt>
      <trkpt lat="46.66641" lon="5.57639">
        <ele>281.80358886719</ele>
        <time>2012-05-16T08:22:10Z</time>
      </trkpt>
      <trkpt lat="46.66636" lon="5.5766">
        <ele>283.72619628906</ele>
        <time>2012-05-16T08:22:16Z</time>
      </trkpt>
      <trkpt lat="46.6663" lon="5.57676">
        <ele>283.72619628906</ele>
        <time>2012-05-16T08:22:21Z</time>
      </trkpt>
      <trkpt lat="46.66622" lon="5.57695">
        <ele>283.72619628906</ele>
        <time>2012-05-16T08:22:27Z</time>
      </trkpt>
      <trkpt lat="46.66618" lon="5.57711">
        <ele>283.24560546875</ele>
        <time>2012-05-16T08:22:32Z</time>
      </trkpt>
      <trkpt lat="46.66618" lon="5.57725">
        <ele>283.24560546875</ele>
        <time>2012-05-16T08:22:36Z</time>
      </trkpt>
      <trkpt lat="46.6662" lon="5.57737">
        <ele>283.72619628906</ele>
        <time>2012-05-16T08:22:40Z</time>
      </trkpt>
      <trkpt lat="46.66624" lon="5.57749">
        <ele>283.72619628906</ele>
        <time>2012-05-16T08:22:44Z</time>
      </trkpt>
      <trkpt lat="46.66621" lon="5.57763">
        <ele>283.72619628906</ele>
        <time>2012-05-16T08:22:48Z</time>
      </trkpt>
      <trkpt lat="46.66618" lon="5.5777">
        <ele>283.72619628906</ele>
        <time>2012-05-16T08:22:50Z</time>
      </trkpt>
      <trkpt lat="46.66609" lon="5.57793">
        <ele>285.16821289062</ele>
        <time>2012-05-16T08:22:57Z</time>
      </trkpt>
      <trkpt lat="46.66603" lon="5.57812">
        <ele>284.20690917969</ele>
        <time>2012-05-16T08:23:03Z</time>
      </trkpt>
      <trkpt lat="46.66596" lon="5.5783">
        <ele>285.16821289062</ele>
        <time>2012-05-16T08:23:09Z</time>
      </trkpt>
      <trkpt lat="46.66594" lon="5.57837">
        <ele>285.16821289062</ele>
        <time>2012-05-16T08:23:11Z</time>
      </trkpt>
      <trkpt lat="46.6659" lon="5.57852">
        <ele>283.72619628906</ele>
        <time>2012-05-16T08:23:16Z</time>
      </trkpt>
      <trkpt lat="46.66582" lon="5.57868">
        <ele>283.24560546875</ele>
        <time>2012-05-16T08:23:22Z</time>
      </trkpt>
      <trkpt lat="46.66573" lon="5.57885">
        <ele>282.76501464844</ele>
        <time>2012-05-16T08:23:28Z</time>
      </trkpt>
      <trkpt lat="46.66565" lon="5.57901">
        <ele>284.68762207031</ele>
        <time>2012-05-16T08:23:34Z</time>
      </trkpt>
      <trkpt lat="46.66558" lon="5.57918">
        <ele>286.12951660156</ele>
        <time>2012-05-16T08:23:40Z</time>
      </trkpt>
      <trkpt lat="46.66548" lon="5.57938">
        <ele>286.61022949219</ele>
        <time>2012-05-16T08:23:47Z</time>
      </trkpt>
      <trkpt lat="46.66538" lon="5.57957">
        <ele>286.61022949219</ele>
        <time>2012-05-16T08:23:54Z</time>
      </trkpt>
      <trkpt lat="46.66527" lon="5.57976">
        <ele>286.12951660156</ele>
        <time>2012-05-16T08:24:01Z</time>
      </trkpt>
      <trkpt lat="46.6652" lon="5.57988">
        <ele>286.12951660156</ele>
        <time>2012-05-16T08:24:06Z</time>
      </trkpt>
      <trkpt lat="46.6651" lon="5.58006">
        <ele>286.12951660156</ele>
        <time>2012-05-16T08:24:13Z</time>
      </trkpt>
      <trkpt lat="46.66502" lon="5.58018">
        <ele>286.61022949219</ele>
        <time>2012-05-16T08:24:18Z</time>
      </trkpt>
      <trkpt lat="46.66496" lon="5.58028">
        <ele>286.61022949219</ele>
        <time>2012-05-16T08:24:22Z</time>
      </trkpt>
      <trkpt lat="46.66488" lon="5.58041">
        <ele>285.16821289062</ele>
        <time>2012-05-16T08:24:27Z</time>
      </trkpt>
      <trkpt lat="46.66479" lon="5.58056">
        <ele>284.20690917969</ele>
        <time>2012-05-16T08:24:33Z</time>
      </trkpt>
      <trkpt lat="46.66469" lon="5.58066">
        <ele>284.68762207031</ele>
        <time>2012-05-16T08:24:38Z</time>
      </trkpt>
      <trkpt lat="46.6646" lon="5.5808">
        <ele>285.64880371094</ele>
        <time>2012-05-16T08:24:43Z</time>
      </trkpt>
      <trkpt lat="46.6645" lon="5.58093">
        <ele>288.05224609375</ele>
        <time>2012-05-16T08:24:49Z</time>
      </trkpt>
      <trkpt lat="46.66441" lon="5.58102">
        <ele>290.45556640625</ele>
        <time>2012-05-16T08:24:54Z</time>
      </trkpt>
      <trkpt lat="46.66434" lon="5.58108">
        <ele>289.97485351562</ele>
        <time>2012-05-16T08:25:00Z</time>
      </trkpt>
      <trkpt lat="46.66426" lon="5.58117">
        <ele>289.97485351562</ele>
        <time>2012-05-16T08:25:08Z</time>
      </trkpt>
      <trkpt lat="46.66426" lon="5.58116">
        <ele>290.45556640625</ele>
        <time>2012-05-16T08:25:12Z</time>
      </trkpt>
      <trkpt lat="46.66426" lon="5.58115">
        <ele>290.45556640625</ele>
        <time>2012-05-16T08:25:17Z</time>
      </trkpt>
      <trkpt lat="46.66423" lon="5.58117">
        <ele>290.93615722656</ele>
        <time>2012-05-16T08:25:38Z</time>
      </trkpt>
      <trkpt lat="46.66425" lon="5.58123">
        <ele>289.97485351562</ele>
        <time>2012-05-16T08:25:42Z</time>
      </trkpt>
      <trkpt lat="46.66436" lon="5.58134">
        <ele>289.97485351562</ele>
        <time>2012-05-16T08:25:47Z</time>
      </trkpt>
      <trkpt lat="46.66448" lon="5.58142">
        <ele>289.01354980469</ele>
        <time>2012-05-16T08:25:52Z</time>
      </trkpt>
      <trkpt lat="46.66457" lon="5.58147">
        <ele>289.01354980469</ele>
        <time>2012-05-16T08:25:56Z</time>
      </trkpt>
      <trkpt lat="46.66473" lon="5.58155">
        <ele>288.53295898438</ele>
        <time>2012-05-16T08:26:02Z</time>
      </trkpt>
      <trkpt lat="46.66487" lon="5.58164">
        <ele>288.05224609375</ele>
        <time>2012-05-16T08:26:08Z</time>
      </trkpt>
      <trkpt lat="46.66498" lon="5.58171">
        <ele>288.05224609375</ele>
        <time>2012-05-16T08:26:13Z</time>
      </trkpt>
      <trkpt lat="46.66515" lon="5.58182">
        <ele>288.05224609375</ele>
        <time>2012-05-16T08:26:20Z</time>
      </trkpt>
      <trkpt lat="46.66524" lon="5.5819">
        <ele>289.01354980469</ele>
        <time>2012-05-16T08:26:25Z</time>
      </trkpt>
      <trkpt lat="46.66529" lon="5.58194">
        <ele>289.01354980469</ele>
        <time>2012-05-16T08:26:28Z</time>
      </trkpt>
      <trkpt lat="46.6653" lon="5.58199">
        <ele>288.05224609375</ele>
        <time>2012-05-16T08:26:33Z</time>
      </trkpt>
      <trkpt lat="46.66538" lon="5.58202">
        <ele>290.45556640625</ele>
        <time>2012-05-16T08:26:39Z</time>
      </trkpt>
      <trkpt lat="46.66546" lon="5.58202">
        <ele>291.8974609375</ele>
        <time>2012-05-16T08:26:44Z</time>
      </trkpt>
      <trkpt lat="46.66558" lon="5.58207">
        <ele>294.30078125</ele>
        <time>2012-05-16T08:26:52Z</time>
      </trkpt>
      <trkpt lat="46.66564" lon="5.58212">
        <ele>294.78137207031</ele>
        <time>2012-05-16T08:26:57Z</time>
      </trkpt>
      <trkpt lat="46.66572" lon="5.5822">
        <ele>294.30078125</ele>
        <time>2012-05-16T08:27:04Z</time>
      </trkpt>
      <trkpt lat="46.66578" lon="5.58222">
        <ele>295.26196289062</ele>
        <time>2012-05-16T08:27:08Z</time>
      </trkpt>
      <trkpt lat="46.66587" lon="5.58231">
        <ele>295.26196289062</ele>
        <time>2012-05-16T08:27:15Z</time>
      </trkpt>
      <trkpt lat="46.66598" lon="5.58236">
        <ele>297.66540527344</ele>
        <time>2012-05-16T08:27:22Z</time>
      </trkpt>
      <trkpt lat="46.66613" lon="5.58238">
        <ele>300.06872558594</ele>
        <time>2012-05-16T08:27:32Z</time>
      </trkpt>
      <trkpt lat="46.66626" lon="5.58241">
        <ele>301.02990722656</ele>
        <time>2012-05-16T08:27:41Z</time>
      </trkpt>
      <trkpt lat="46.66635" lon="5.58243">
        <ele>302.47192382812</ele>
        <time>2012-05-16T08:27:47Z</time>
      </trkpt>
      <trkpt lat="46.66642" lon="5.58244">
        <ele>302.95251464844</ele>
        <time>2012-05-16T08:27:52Z</time>
      </trkpt>
      <trkpt lat="46.66654" lon="5.5825">
        <ele>307.75927734375</ele>
        <time>2012-05-16T08:27:58Z</time>
      </trkpt>
      <trkpt lat="46.66671" lon="5.58253">
        <ele>307.27856445312</ele>
        <time>2012-05-16T08:28:05Z</time>
      </trkpt>
      <trkpt lat="46.66674" lon="5.58254">
        <ele>307.27856445312</ele>
        <time>2012-05-16T08:28:06Z</time>
      </trkpt>
      <trkpt lat="46.6668" lon="5.5826">
        <ele>307.27856445312</ele>
        <time>2012-05-16T08:28:10Z</time>
      </trkpt>
      <trkpt lat="46.66692" lon="5.58269">
        <ele>306.31726074219</ele>
        <time>2012-05-16T08:28:16Z</time>
      </trkpt>
      <trkpt lat="46.66698" lon="5.58283">
        <ele>303.43322753906</ele>
        <time>2012-05-16T08:28:22Z</time>
      </trkpt>
      <trkpt lat="46.66699" lon="5.58285">
        <ele>302.95251464844</ele>
        <time>2012-05-16T08:28:23Z</time>
      </trkpt>
      <trkpt lat="46.66706" lon="5.583">
        <ele>303.91394042969</ele>
        <time>2012-05-16T08:28:29Z</time>
      </trkpt>
      <trkpt lat="46.66713" lon="5.58312">
        <ele>304.87524414062</ele>
        <time>2012-05-16T08:28:34Z</time>
      </trkpt>
      <trkpt lat="46.66716" lon="5.58319">
        <ele>305.35595703125</ele>
        <time>2012-05-16T08:28:38Z</time>
      </trkpt>
      <trkpt lat="46.66718" lon="5.5832">
        <ele>305.35595703125</ele>
        <time>2012-05-16T08:28:39Z</time>
      </trkpt>
      <trkpt lat="46.66721" lon="5.58324">
        <ele>305.35595703125</ele>
        <time>2012-05-16T08:28:42Z</time>
      </trkpt>
      <trkpt lat="46.66727" lon="5.58327">
        <ele>307.27856445312</ele>
        <time>2012-05-16T08:28:46Z</time>
      </trkpt>
      <trkpt lat="46.66735" lon="5.58329">
        <ele>309.201171875</ele>
        <time>2012-05-16T08:28:51Z</time>
      </trkpt>
      <trkpt lat="46.66746" lon="5.58333">
        <ele>309.68188476562</ele>
        <time>2012-05-16T08:28:59Z</time>
      </trkpt>
      <trkpt lat="46.6676" lon="5.58337">
        <ele>312.08520507812</ele>
        <time>2012-05-16T08:29:09Z</time>
      </trkpt>
      <trkpt lat="46.66771" lon="5.58341">
        <ele>315.44982910156</ele>
        <time>2012-05-16T08:29:17Z</time>
      </trkpt>
      <trkpt lat="46.66781" lon="5.58344">
        <ele>316.41101074219</ele>
        <time>2012-05-16T08:29:24Z</time>
      </trkpt>
      <trkpt lat="46.66794" lon="5.58347">
        <ele>317.85302734375</ele>
        <time>2012-05-16T08:29:32Z</time>
      </trkpt>
      <trkpt lat="46.66804" lon="5.58351">
        <ele>316.89172363281</ele>
        <time>2012-05-16T08:29:39Z</time>
      </trkpt>
      <trkpt lat="46.66813" lon="5.58356">
        <ele>314.96911621094</ele>
        <time>2012-05-16T08:29:45Z</time>
      </trkpt>
      <trkpt lat="46.66821" lon="5.58369">
        <ele>313.04650878906</ele>
        <time>2012-05-16T08:29:53Z</time>
      </trkpt>
      <trkpt lat="46.6683" lon="5.58381">
        <ele>313.52722167969</ele>
        <time>2012-05-16T08:30:01Z</time>
      </trkpt>
      <trkpt lat="46.66839" lon="5.58389">
        <ele>313.04650878906</ele>
        <time>2012-05-16T08:30:05Z</time>
      </trkpt>
      <trkpt lat="46.66851" lon="5.58399">
        <ele>314.96911621094</ele>
        <time>2012-05-16T08:30:11Z</time>
      </trkpt>
      <trkpt lat="46.66858" lon="5.58407">
        <ele>315.44982910156</ele>
        <time>2012-05-16T08:30:15Z</time>
      </trkpt>
      <trkpt lat="46.66866" lon="5.58417">
        <ele>312.56579589844</ele>
        <time>2012-05-16T08:30:20Z</time>
      </trkpt>
      <trkpt lat="46.66872" lon="5.58432">
        <ele>313.04650878906</ele>
        <time>2012-05-16T08:30:28Z</time>
      </trkpt>
      <trkpt lat="46.66876" lon="5.58446">
        <ele>314.96911621094</ele>
        <time>2012-05-16T08:30:35Z</time>
      </trkpt>
      <trkpt lat="46.6688" lon="5.58455">
        <ele>315.44982910156</ele>
        <time>2012-05-16T08:30:40Z</time>
      </trkpt>
      <trkpt lat="46.6688" lon="5.58459">
        <ele>315.93041992188</ele>
        <time>2012-05-16T08:30:42Z</time>
      </trkpt>
      <trkpt lat="46.66884" lon="5.58471">
        <ele>316.41101074219</ele>
        <time>2012-05-16T08:30:48Z</time>
      </trkpt>
      <trkpt lat="46.66884" lon="5.58473">
        <ele>316.41101074219</ele>
        <time>2012-05-16T08:30:49Z</time>
      </trkpt>
      <trkpt lat="46.66888" lon="5.58488">
        <ele>320.73706054688</ele>
        <time>2012-05-16T08:30:57Z</time>
      </trkpt>
      <trkpt lat="46.66888" lon="5.585">
        <ele>322.65966796875</ele>
        <time>2012-05-16T08:31:02Z</time>
      </trkpt>
      <trkpt lat="46.66891" lon="5.58513">
        <ele>323.14038085938</ele>
        <time>2012-05-16T08:31:08Z</time>
      </trkpt>
      <trkpt lat="46.66893" lon="5.58528">
        <ele>323.14038085938</ele>
        <time>2012-05-16T08:31:15Z</time>
      </trkpt>
      <trkpt lat="46.66893" lon="5.5853">
        <ele>323.14038085938</ele>
        <time>2012-05-16T08:31:16Z</time>
      </trkpt>
      <trkpt lat="46.66895" lon="5.58549">
        <ele>323.62097167969</ele>
        <time>2012-05-16T08:31:25Z</time>
      </trkpt>
      <trkpt lat="46.66896" lon="5.58562">
        <ele>324.1015625</ele>
        <time>2012-05-16T08:31:31Z</time>
      </trkpt>
      <trkpt lat="46.66896" lon="5.58571">
        <ele>324.58227539062</ele>
        <time>2012-05-16T08:31:35Z</time>
      </trkpt>
      <trkpt lat="46.66901" lon="5.58587">
        <ele>325.06298828125</ele>
        <time>2012-05-16T08:31:44Z</time>
      </trkpt>
      <trkpt lat="46.66909" lon="5.586">
        <ele>326.98559570312</ele>
        <time>2012-05-16T08:31:52Z</time>
      </trkpt>
      <trkpt lat="46.66918" lon="5.58607">
        <ele>328.90832519531</ele>
        <time>2012-05-16T08:31:59Z</time>
      </trkpt>
      <trkpt lat="46.6693" lon="5.5861">
        <ele>329.38891601562</ele>
        <time>2012-05-16T08:32:07Z</time>
      </trkpt>
      <trkpt lat="46.66938" lon="5.58609">
        <ele>329.86950683594</ele>
        <time>2012-05-16T08:32:13Z</time>
      </trkpt>
      <trkpt lat="46.6695" lon="5.5861">
        <ele>330.35021972656</ele>
        <time>2012-05-16T08:32:21Z</time>
      </trkpt>
      <trkpt lat="46.66955" lon="5.5861">
        <ele>330.83093261719</ele>
        <time>2012-05-16T08:32:24Z</time>
      </trkpt>
      <trkpt lat="46.66968" lon="5.58611">
        <ele>332.75354003906</ele>
        <time>2012-05-16T08:32:32Z</time>
      </trkpt>
      <trkpt lat="46.6697" lon="5.58612">
        <ele>333.23413085938</ele>
        <time>2012-05-16T08:32:34Z</time>
      </trkpt>
      <trkpt lat="46.66971" lon="5.58623">
        <ele>333.71472167969</ele>
        <time>2012-05-16T08:32:40Z</time>
      </trkpt>
      <trkpt lat="46.66966" lon="5.5863">
        <ele>334.19543457031</ele>
        <time>2012-05-16T08:32:45Z</time>
      </trkpt>
      <trkpt lat="46.66962" lon="5.58636">
        <ele>335.63732910156</ele>
        <time>2012-05-16T08:32:50Z</time>
      </trkpt>
      <trkpt lat="46.66955" lon="5.58645">
        <ele>338.04077148438</ele>
        <time>2012-05-16T08:32:56Z</time>
      </trkpt>
      <trkpt lat="46.66953" lon="5.58649">
        <ele>338.521484375</ele>
        <time>2012-05-16T08:32:58Z</time>
      </trkpt>
      <trkpt lat="46.66947" lon="5.58659">
        <ele>339.96337890625</ele>
        <time>2012-05-16T08:33:05Z</time>
      </trkpt>
      <trkpt lat="46.66944" lon="5.58665">
        <ele>340.44409179688</ele>
        <time>2012-05-16T08:33:08Z</time>
      </trkpt>
      <trkpt lat="46.66938" lon="5.58674">
        <ele>341.88598632812</ele>
        <time>2012-05-16T08:33:14Z</time>
      </trkpt>
      <trkpt lat="46.66937" lon="5.58677">
        <ele>341.88598632812</ele>
        <time>2012-05-16T08:33:16Z</time>
      </trkpt>
      <trkpt lat="46.66931" lon="5.58687">
        <ele>343.80859375</ele>
        <time>2012-05-16T08:33:22Z</time>
      </trkpt>
      <trkpt lat="46.66928" lon="5.58691">
        <ele>344.77001953125</ele>
        <time>2012-05-16T08:33:25Z</time>
      </trkpt>
      <trkpt lat="46.66923" lon="5.58702">
        <ele>347.65393066406</ele>
        <time>2012-05-16T08:33:32Z</time>
      </trkpt>
      <trkpt lat="46.66923" lon="5.58712">
        <ele>347.17321777344</ele>
        <time>2012-05-16T08:33:37Z</time>
      </trkpt>
      <trkpt lat="46.66927" lon="5.5872">
        <ele>347.17321777344</ele>
        <time>2012-05-16T08:33:42Z</time>
      </trkpt>
      <trkpt lat="46.66935" lon="5.5873">
        <ele>347.65393066406</ele>
        <time>2012-05-16T08:33:50Z</time>
      </trkpt>
      <trkpt lat="46.6694" lon="5.58736">
        <ele>347.65393066406</ele>
        <time>2012-05-16T08:33:55Z</time>
      </trkpt>
      <trkpt lat="46.66952" lon="5.58744">
        <ele>349.57653808594</ele>
        <time>2012-05-16T08:34:05Z</time>
      </trkpt>
      <trkpt lat="46.6696" lon="5.58751">
        <ele>350.05725097656</ele>
        <time>2012-05-16T08:34:12Z</time>
      </trkpt>
      <trkpt lat="46.66969" lon="5.58756">
        <ele>351.01843261719</ele>
        <time>2012-05-16T08:34:20Z</time>
      </trkpt>
      <trkpt lat="46.66977" lon="5.58762">
        <ele>351.01843261719</ele>
        <time>2012-05-16T08:34:27Z</time>
      </trkpt>
      <trkpt lat="46.66984" lon="5.58768">
        <ele>351.49914550781</ele>
        <time>2012-05-16T08:34:34Z</time>
      </trkpt>
      <trkpt lat="46.66993" lon="5.58775">
        <ele>353.90258789062</ele>
        <time>2012-05-16T08:34:42Z</time>
      </trkpt>
      <trkpt lat="46.66998" lon="5.58783">
        <ele>356.30578613281</ele>
        <time>2012-05-16T08:34:48Z</time>
      </trkpt>
      <trkpt lat="46.67003" lon="5.58789">
        <ele>357.74780273438</ele>
        <time>2012-05-16T08:34:52Z</time>
      </trkpt>
      <trkpt lat="46.67005" lon="5.58798">
        <ele>357.74780273438</ele>
        <time>2012-05-16T08:34:57Z</time>
      </trkpt>
      <trkpt lat="46.67005" lon="5.58799">
        <ele>358.22839355469</ele>
        <time>2012-05-16T08:34:58Z</time>
      </trkpt>
      <trkpt lat="46.67007" lon="5.58806">
        <ele>359.18969726562</ele>
        <time>2012-05-16T08:35:03Z</time>
      </trkpt>
      <trkpt lat="46.6701" lon="5.5881">
        <ele>359.67041015625</ele>
        <time>2012-05-16T08:35:06Z</time>
      </trkpt>
      <trkpt lat="46.67011" lon="5.58814">
        <ele>359.67041015625</ele>
        <time>2012-05-16T08:35:09Z</time>
      </trkpt>
      <trkpt lat="46.67014" lon="5.58821">
        <ele>361.11242675781</ele>
        <time>2012-05-16T08:35:13Z</time>
      </trkpt>
      <trkpt lat="46.67018" lon="5.58826">
        <ele>363.99633789062</ele>
        <time>2012-05-16T08:35:18Z</time>
      </trkpt>
      <trkpt lat="46.67025" lon="5.58836">
        <ele>366.39953613281</ele>
        <time>2012-05-16T08:35:25Z</time>
      </trkpt>
      <trkpt lat="46.6703" lon="5.58849">
        <ele>368.80297851562</ele>
        <time>2012-05-16T08:35:33Z</time>
      </trkpt>
      <trkpt lat="46.67034" lon="5.58858">
        <ele>370.24487304688</ele>
        <time>2012-05-16T08:35:39Z</time>
      </trkpt>
      <trkpt lat="46.67038" lon="5.58867">
        <ele>371.68688964844</ele>
        <time>2012-05-16T08:35:45Z</time>
      </trkpt>
      <trkpt lat="46.67039" lon="5.58871">
        <ele>372.16748046875</ele>
        <time>2012-05-16T08:35:47Z</time>
      </trkpt>
      <trkpt lat="46.67042" lon="5.58882">
        <ele>372.16748046875</ele>
        <time>2012-05-16T08:35:54Z</time>
      </trkpt>
      <trkpt lat="46.67044" lon="5.58892">
        <ele>374.09008789062</ele>
        <time>2012-05-16T08:36:00Z</time>
      </trkpt>
      <trkpt lat="46.67047" lon="5.58897">
        <ele>374.57080078125</ele>
        <time>2012-05-16T08:36:03Z</time>
      </trkpt>
      <trkpt lat="46.67048" lon="5.58904">
        <ele>375.53210449219</ele>
        <time>2012-05-16T08:36:07Z</time>
      </trkpt>
      <trkpt lat="46.67051" lon="5.58911">
        <ele>376.49353027344</ele>
        <time>2012-05-16T08:36:11Z</time>
      </trkpt>
      <trkpt lat="46.67055" lon="5.58921">
        <ele>379.37744140625</ele>
        <time>2012-05-16T08:36:17Z</time>
      </trkpt>
      <trkpt lat="46.67056" lon="5.58924">
        <ele>380.81945800781</ele>
        <time>2012-05-16T08:36:19Z</time>
      </trkpt>
      <trkpt lat="46.67059" lon="5.58935">
        <ele>382.26135253906</ele>
        <time>2012-05-16T08:36:26Z</time>
      </trkpt>
      <trkpt lat="46.67063" lon="5.58944">
        <ele>384.66479492188</ele>
        <time>2012-05-16T08:36:32Z</time>
      </trkpt>
      <trkpt lat="46.67067" lon="5.58954">
        <ele>385.14538574219</ele>
        <time>2012-05-16T08:36:38Z</time>
      </trkpt>
      <trkpt lat="46.67068" lon="5.58962">
        <ele>387.06799316406</ele>
        <time>2012-05-16T08:36:43Z</time>
      </trkpt>
      <trkpt lat="46.6707" lon="5.5897">
        <ele>386.10668945312</ele>
        <time>2012-05-16T08:36:48Z</time>
      </trkpt>
      <trkpt lat="46.67073" lon="5.58979">
        <ele>386.10668945312</ele>
        <time>2012-05-16T08:36:53Z</time>
      </trkpt>
      <trkpt lat="46.67075" lon="5.58986">
        <ele>385.6259765625</ele>
        <time>2012-05-16T08:36:58Z</time>
      </trkpt>
      <trkpt lat="46.67079" lon="5.58995">
        <ele>387.54858398438</ele>
        <time>2012-05-16T08:37:04Z</time>
      </trkpt>
      <trkpt lat="46.67081" lon="5.59004">
        <ele>389.47119140625</ele>
        <time>2012-05-16T08:37:09Z</time>
      </trkpt>
      <trkpt lat="46.67082" lon="5.59013">
        <ele>389.95190429688</ele>
        <time>2012-05-16T08:37:14Z</time>
      </trkpt>
      <trkpt lat="46.67083" lon="5.59014">
        <ele>389.95190429688</ele>
        <time>2012-05-16T08:37:15Z</time>
      </trkpt>
      <trkpt lat="46.67088" lon="5.59027">
        <ele>392.35534667969</ele>
        <time>2012-05-16T08:37:23Z</time>
      </trkpt>
      <trkpt lat="46.6709" lon="5.59036">
        <ele>393.79724121094</ele>
        <time>2012-05-16T08:37:28Z</time>
      </trkpt>
      <trkpt lat="46.67094" lon="5.59044">
        <ele>397.16174316406</ele>
        <time>2012-05-16T08:37:33Z</time>
      </trkpt>
      <trkpt lat="46.67096" lon="5.59054">
        <ele>397.16174316406</ele>
        <time>2012-05-16T08:37:38Z</time>
      </trkpt>
      <trkpt lat="46.67098" lon="5.59065">
        <ele>397.64245605469</ele>
        <time>2012-05-16T08:37:45Z</time>
      </trkpt>
      <trkpt lat="46.67101" lon="5.59072">
        <ele>399.08435058594</ele>
        <time>2012-05-16T08:37:50Z</time>
      </trkpt>
      <trkpt lat="46.67105" lon="5.59081">
        <ele>400.52648925781</ele>
        <time>2012-05-16T08:37:57Z</time>
      </trkpt>
      <trkpt lat="46.6711" lon="5.59086">
        <ele>403.89111328125</ele>
        <time>2012-05-16T08:38:01Z</time>
      </trkpt>
      <trkpt lat="46.67115" lon="5.59094">
        <ele>406.29431152344</ele>
        <time>2012-05-16T08:38:07Z</time>
      </trkpt>
      <trkpt lat="46.67118" lon="5.59101">
        <ele>408.69763183594</ele>
        <time>2012-05-16T08:38:12Z</time>
      </trkpt>
      <trkpt lat="46.67122" lon="5.59112">
        <ele>413.50427246094</ele>
        <time>2012-05-16T08:38:20Z</time>
      </trkpt>
      <trkpt lat="46.67122" lon="5.59114">
        <ele>413.98486328125</ele>
        <time>2012-05-16T08:38:21Z</time>
      </trkpt>
      <trkpt lat="46.67126" lon="5.59123">
        <ele>415.42687988281</ele>
        <time>2012-05-16T08:38:27Z</time>
      </trkpt>
      <trkpt lat="46.67128" lon="5.59127">
        <ele>415.90747070312</ele>
        <time>2012-05-16T08:38:30Z</time>
      </trkpt>
      <trkpt lat="46.6713" lon="5.5913">
        <ele>418.31079101562</ele>
        <time>2012-05-16T08:38:33Z</time>
      </trkpt>
      <trkpt lat="46.67133" lon="5.59139">
        <ele>422.63671875</ele>
        <time>2012-05-16T08:38:39Z</time>
      </trkpt>
      <trkpt lat="46.67136" lon="5.59144">
        <ele>423.59802246094</ele>
        <time>2012-05-16T08:38:44Z</time>
      </trkpt>
      <trkpt lat="46.67138" lon="5.59147">
        <ele>424.55944824219</ele>
        <time>2012-05-16T08:38:46Z</time>
      </trkpt>
      <trkpt lat="46.67138" lon="5.59155">
        <ele>424.07873535156</ele>
        <time>2012-05-16T08:38:51Z</time>
      </trkpt>
      <trkpt lat="46.67142" lon="5.59165">
        <ele>425.52075195312</ele>
        <time>2012-05-16T08:38:58Z</time>
      </trkpt>
      <trkpt lat="46.67146" lon="5.59172">
        <ele>425.04016113281</ele>
        <time>2012-05-16T08:39:04Z</time>
      </trkpt>
      <trkpt lat="46.67149" lon="5.59181">
        <ele>425.52075195312</ele>
        <time>2012-05-16T08:39:11Z</time>
      </trkpt>
      <trkpt lat="46.67149" lon="5.59183">
        <ele>425.52075195312</ele>
        <time>2012-05-16T08:39:12Z</time>
      </trkpt>
      <trkpt lat="46.67151" lon="5.59188">
        <ele>424.07873535156</ele>
        <time>2012-05-16T08:39:16Z</time>
      </trkpt>
      <trkpt lat="46.67152" lon="5.59191">
        <ele>423.59802246094</ele>
        <time>2012-05-16T08:39:18Z</time>
      </trkpt>
      <trkpt lat="46.67155" lon="5.59193">
        <ele>425.52075195312</ele>
        <time>2012-05-16T08:39:21Z</time>
      </trkpt>
      <trkpt lat="46.67157" lon="5.59198">
        <ele>428.88537597656</ele>
        <time>2012-05-16T08:39:25Z</time>
      </trkpt>
      <trkpt lat="46.67159" lon="5.59202">
        <ele>429.84655761719</ele>
        <time>2012-05-16T08:39:30Z</time>
      </trkpt>
      <trkpt lat="46.67163" lon="5.59209">
        <ele>429.84655761719</ele>
        <time>2012-05-16T08:39:37Z</time>
      </trkpt>
      <trkpt lat="46.67165" lon="5.59216">
        <ele>426.96276855469</ele>
        <time>2012-05-16T08:39:42Z</time>
      </trkpt>
      <trkpt lat="46.67167" lon="5.59218">
        <ele>426.48205566406</ele>
        <time>2012-05-16T08:39:44Z</time>
      </trkpt>
      <trkpt lat="46.67167" lon="5.59226">
        <ele>427.92395019531</ele>
        <time>2012-05-16T08:39:50Z</time>
      </trkpt>
      <trkpt lat="46.6717" lon="5.59232">
        <ele>428.88537597656</ele>
        <time>2012-05-16T08:39:55Z</time>
      </trkpt>
      <trkpt lat="46.67172" lon="5.59238">
        <ele>431.76916503906</ele>
        <time>2012-05-16T08:40:00Z</time>
      </trkpt>
      <trkpt lat="46.67175" lon="5.59239">
        <ele>437.537109375</ele>
        <time>2012-05-16T08:40:04Z</time>
      </trkpt>
      <trkpt lat="46.67178" lon="5.59245">
        <ele>438.01782226562</ele>
        <time>2012-05-16T08:40:09Z</time>
      </trkpt>
      <trkpt lat="46.67181" lon="5.5925">
        <ele>435.13391113281</ele>
        <time>2012-05-16T08:40:14Z</time>
      </trkpt>
      <trkpt lat="46.67189" lon="5.59254">
        <ele>434.6533203125</ele>
        <time>2012-05-16T08:40:20Z</time>
      </trkpt>
      <trkpt lat="46.67193" lon="5.59258">
        <ele>435.13391113281</ele>
        <time>2012-05-16T08:40:25Z</time>
      </trkpt>
      <trkpt lat="46.67195" lon="5.5926">
        <ele>434.6533203125</ele>
        <time>2012-05-16T08:40:27Z</time>
      </trkpt>
      <trkpt lat="46.672" lon="5.59263">
        <ele>434.17260742188</ele>
        <time>2012-05-16T08:40:33Z</time>
      </trkpt>
      <trkpt lat="46.67207" lon="5.59268">
        <ele>434.6533203125</ele>
        <time>2012-05-16T08:40:39Z</time>
      </trkpt>
      <trkpt lat="46.67211" lon="5.59272">
        <ele>432.73071289062</ele>
        <time>2012-05-16T08:40:44Z</time>
      </trkpt>
      <trkpt lat="46.67212" lon="5.59273">
        <ele>432.25</ele>
        <time>2012-05-16T08:40:45Z</time>
      </trkpt>
      <trkpt lat="46.67217" lon="5.59276">
        <ele>432.73071289062</ele>
        <time>2012-05-16T08:40:50Z</time>
      </trkpt>
      <trkpt lat="46.67229" lon="5.59284">
        <ele>435.13391113281</ele>
        <time>2012-05-16T08:41:00Z</time>
      </trkpt>
      <trkpt lat="46.67233" lon="5.59286">
        <ele>436.09521484375</ele>
        <time>2012-05-16T08:41:04Z</time>
      </trkpt>
      <trkpt lat="46.67237" lon="5.59289">
        <ele>440.90185546875</ele>
        <time>2012-05-16T08:41:09Z</time>
      </trkpt>
      <trkpt lat="46.67242" lon="5.59292">
        <ele>442.34387207031</ele>
        <time>2012-05-16T08:41:14Z</time>
      </trkpt>
      <trkpt lat="46.67249" lon="5.59295">
        <ele>445.70837402344</ele>
        <time>2012-05-16T08:41:21Z</time>
      </trkpt>
      <trkpt lat="46.67254" lon="5.59302">
        <ele>443.30505371094</ele>
        <time>2012-05-16T08:41:26Z</time>
      </trkpt>
      <trkpt lat="46.67256" lon="5.59304">
        <ele>443.30505371094</ele>
        <time>2012-05-16T08:41:31Z</time>
      </trkpt>
      <trkpt lat="46.67258" lon="5.59301">
        <ele>447.63098144531</ele>
        <time>2012-05-16T08:41:35Z</time>
      </trkpt>
      <trkpt lat="46.67263" lon="5.59303">
        <ele>448.59240722656</ele>
        <time>2012-05-16T08:41:41Z</time>
      </trkpt>
      <trkpt lat="46.67264" lon="5.59305">
        <ele>450.51501464844</ele>
        <time>2012-05-16T08:41:45Z</time>
      </trkpt>
      <trkpt lat="46.67268" lon="5.59307">
        <ele>450.51501464844</ele>
        <time>2012-05-16T08:41:48Z</time>
      </trkpt>
      <trkpt lat="46.67271" lon="5.59305">
        <ele>451.47631835938</ele>
        <time>2012-05-16T08:41:56Z</time>
      </trkpt>
      <trkpt lat="46.67275" lon="5.5931">
        <ele>454.36022949219</ele>
        <time>2012-05-16T08:42:09Z</time>
      </trkpt>
      <trkpt lat="46.67276" lon="5.59311">
        <ele>457.24426269531</ele>
        <time>2012-05-16T08:42:20Z</time>
      </trkpt>
      <trkpt lat="46.67273" lon="5.59312">
        <ele>453.87963867188</ele>
        <time>2012-05-16T08:42:28Z</time>
      </trkpt>
      <trkpt lat="46.67273" lon="5.59312">
        <ele>453.87963867188</ele>
        <time>2012-05-16T08:42:28Z</time>
      </trkpt>
      <trkpt lat="46.67273" lon="5.5931">
        <ele>453.87963867188</ele>
        <time>2012-05-16T08:42:42Z</time>
      </trkpt>
      <trkpt lat="46.6727" lon="5.59312">
        <ele>453.39892578125</ele>
        <time>2012-05-16T08:42:55Z</time>
      </trkpt>
      <trkpt lat="46.6727" lon="5.59312">
        <ele>451.95703125</ele>
        <time>2012-05-16T08:43:03Z</time>
      </trkpt>
      <trkpt lat="46.67268" lon="5.59314">
        <ele>450.51501464844</ele>
        <time>2012-05-16T08:43:15Z</time>
      </trkpt>
      <trkpt lat="46.67268" lon="5.59322">
        <ele>454.8408203125</ele>
        <time>2012-05-16T08:43:51Z</time>
      </trkpt>
      <trkpt lat="46.67269" lon="5.59322">
        <ele>453.87963867188</ele>
        <time>2012-05-16T08:43:54Z</time>
      </trkpt>
      <trkpt lat="46.6727" lon="5.59318">
        <ele>451.95703125</ele>
        <time>2012-05-16T08:44:01Z</time>
      </trkpt>
      <trkpt lat="46.67273" lon="5.59317">
        <ele>448.59240722656</ele>
        <time>2012-05-16T08:44:08Z</time>
      </trkpt>
      <trkpt lat="46.6727" lon="5.5931">
        <ele>454.36022949219</ele>
        <time>2012-05-16T08:44:20Z</time>
      </trkpt>
      <trkpt lat="46.67269" lon="5.59309">
        <ele>455.80224609375</ele>
        <time>2012-05-16T08:44:27Z</time>
      </trkpt>
      <trkpt lat="46.67268" lon="5.59306">
        <ele>460.12817382812</ele>
        <time>2012-05-16T08:44:33Z</time>
      </trkpt>
      <trkpt lat="46.67259" lon="5.59322">
        <ele>465.89611816406</ele>
        <time>2012-05-16T08:45:12Z</time>
      </trkpt>
      <trkpt lat="46.67268" lon="5.59315">
        <ele>456.28295898438</ele>
        <time>2012-05-16T08:45:26Z</time>
      </trkpt>
      <trkpt lat="46.67272" lon="5.59305">
        <ele>458.68615722656</ele>
        <time>2012-05-16T08:45:45Z</time>
      </trkpt>
      <trkpt lat="46.67276" lon="5.59304">
        <ele>459.64758300781</ele>
        <time>2012-05-16T08:45:58Z</time>
      </trkpt>
      <trkpt lat="46.67279" lon="5.59306">
        <ele>458.68615722656</ele>
        <time>2012-05-16T08:46:03Z</time>
      </trkpt>
      <trkpt lat="46.67282" lon="5.59307">
        <ele>459.16687011719</ele>
        <time>2012-05-16T08:46:05Z</time>
      </trkpt>
      <trkpt lat="46.67291" lon="5.59314">
        <ele>456.76354980469</ele>
        <time>2012-05-16T08:46:12Z</time>
      </trkpt>
      <trkpt lat="46.67299" lon="5.59316">
        <ele>457.72497558594</ele>
        <time>2012-05-16T08:46:18Z</time>
      </trkpt>
      <trkpt lat="46.67302" lon="5.59317">
        <ele>458.68615722656</ele>
        <time>2012-05-16T08:46:23Z</time>
      </trkpt>
      <trkpt lat="46.67306" lon="5.59318">
        <ele>458.68615722656</ele>
        <time>2012-05-16T08:46:27Z</time>
      </trkpt>
      <trkpt lat="46.67311" lon="5.59322">
        <ele>457.24426269531</ele>
        <time>2012-05-16T08:46:32Z</time>
      </trkpt>
      <trkpt lat="46.67314" lon="5.59323">
        <ele>457.24426269531</ele>
        <time>2012-05-16T08:46:33Z</time>
      </trkpt>
      <trkpt lat="46.67324" lon="5.59326">
        <ele>458.20556640625</ele>
        <time>2012-05-16T08:46:40Z</time>
      </trkpt>
      <trkpt lat="46.67334" lon="5.59325">
        <ele>462.05078125</ele>
        <time>2012-05-16T08:46:46Z</time>
      </trkpt>
      <trkpt lat="46.67338" lon="5.59324">
        <ele>464.4541015625</ele>
        <time>2012-05-16T08:46:49Z</time>
      </trkpt>
      <trkpt lat="46.67348" lon="5.59323">
        <ele>463.49279785156</ele>
        <time>2012-05-16T08:46:56Z</time>
      </trkpt>
      <trkpt lat="46.67355" lon="5.59321">
        <ele>464.4541015625</ele>
        <time>2012-05-16T08:47:02Z</time>
      </trkpt>
      <trkpt lat="46.67364" lon="5.59317">
        <ele>465.89611816406</ele>
        <time>2012-05-16T08:47:08Z</time>
      </trkpt>
      <trkpt lat="46.67367" lon="5.59316">
        <ele>464.93481445312</ele>
        <time>2012-05-16T08:47:10Z</time>
      </trkpt>
      <trkpt lat="46.67374" lon="5.59313">
        <ele>464.93481445312</ele>
        <time>2012-05-16T08:47:15Z</time>
      </trkpt>
      <trkpt lat="46.67377" lon="5.59311">
        <ele>464.4541015625</ele>
        <time>2012-05-16T08:47:18Z</time>
      </trkpt>
      <trkpt lat="46.67386" lon="5.59307">
        <ele>462.53137207031</ele>
        <time>2012-05-16T08:47:25Z</time>
      </trkpt>
      <trkpt lat="46.6739" lon="5.59303">
        <ele>464.4541015625</ele>
        <time>2012-05-16T08:47:28Z</time>
      </trkpt>
      <trkpt lat="46.67399" lon="5.59299">
        <ele>467.33813476562</ele>
        <time>2012-05-16T08:47:34Z</time>
      </trkpt>
      <trkpt lat="46.67403" lon="5.59299">
        <ele>465.89611816406</ele>
        <time>2012-05-16T08:47:37Z</time>
      </trkpt>
      <trkpt lat="46.67411" lon="5.59299">
        <ele>466.37670898438</ele>
        <time>2012-05-16T08:47:43Z</time>
      </trkpt>
      <trkpt lat="46.67422" lon="5.59297">
        <ele>469.74133300781</ele>
        <time>2012-05-16T08:47:50Z</time>
      </trkpt>
      <trkpt lat="46.67432" lon="5.59298">
        <ele>470.22192382812</ele>
        <time>2012-05-16T08:47:57Z</time>
      </trkpt>
      <trkpt lat="46.6744" lon="5.59298">
        <ele>473.10607910156</ele>
        <time>2012-05-16T08:48:03Z</time>
      </trkpt>
      <trkpt lat="46.67449" lon="5.59303">
        <ele>471.18334960938</ele>
        <time>2012-05-16T08:48:09Z</time>
      </trkpt>
      <trkpt lat="46.67455" lon="5.59308">
        <ele>467.33813476562</ele>
        <time>2012-05-16T08:48:13Z</time>
      </trkpt>
      <trkpt lat="46.67463" lon="5.59314">
        <ele>464.4541015625</ele>
        <time>2012-05-16T08:48:19Z</time>
      </trkpt>
      <trkpt lat="46.67464" lon="5.59315">
        <ele>463.97338867188</ele>
        <time>2012-05-16T08:48:20Z</time>
      </trkpt>
      <trkpt lat="46.67475" lon="5.59321">
        <ele>464.4541015625</ele>
        <time>2012-05-16T08:48:28Z</time>
      </trkpt>
      <trkpt lat="46.67485" lon="5.59325">
        <ele>466.37670898438</ele>
        <time>2012-05-16T08:48:35Z</time>
      </trkpt>
      <trkpt lat="46.67494" lon="5.59325">
        <ele>470.22192382812</ele>
        <time>2012-05-16T08:48:41Z</time>
      </trkpt>
      <trkpt lat="46.67501" lon="5.59327">
        <ele>471.66394042969</ele>
        <time>2012-05-16T08:48:46Z</time>
      </trkpt>
      <trkpt lat="46.67504" lon="5.59328">
        <ele>471.18334960938</ele>
        <time>2012-05-16T08:48:48Z</time>
      </trkpt>
      <trkpt lat="46.67508" lon="5.59331">
        <ele>469.2607421875</ele>
        <time>2012-05-16T08:48:51Z</time>
      </trkpt>
      <trkpt lat="46.67517" lon="5.59334">
        <ele>469.74133300781</ele>
        <time>2012-05-16T08:48:57Z</time>
      </trkpt>
      <trkpt lat="46.6752" lon="5.59334">
        <ele>470.70263671875</ele>
        <time>2012-05-16T08:48:59Z</time>
      </trkpt>
      <trkpt lat="46.67525" lon="5.59336">
        <ele>469.2607421875</ele>
        <time>2012-05-16T08:49:04Z</time>
      </trkpt>
      <trkpt lat="46.67533" lon="5.5934">
        <ele>470.70263671875</ele>
        <time>2012-05-16T08:49:10Z</time>
      </trkpt>
      <trkpt lat="46.67543" lon="5.59342">
        <ele>474.06726074219</ele>
        <time>2012-05-16T08:49:15Z</time>
      </trkpt>
      <trkpt lat="46.67552" lon="5.59345">
        <ele>475.02868652344</ele>
        <time>2012-05-16T08:49:22Z</time>
      </trkpt>
      <trkpt lat="46.67557" lon="5.59349">
        <ele>474.06726074219</ele>
        <time>2012-05-16T08:49:28Z</time>
      </trkpt>
      <trkpt lat="46.67562" lon="5.5935">
        <ele>475.02868652344</ele>
        <time>2012-05-16T08:49:34Z</time>
      </trkpt>
      <trkpt lat="46.6757" lon="5.5935">
        <ele>475.98986816406</ele>
        <time>2012-05-16T08:49:39Z</time>
      </trkpt>
      <trkpt lat="46.67579" lon="5.59351">
        <ele>475.98986816406</ele>
        <time>2012-05-16T08:49:45Z</time>
      </trkpt>
      <trkpt lat="46.67587" lon="5.59352">
        <ele>476.47058105469</ele>
        <time>2012-05-16T08:49:50Z</time>
      </trkpt>
      <trkpt lat="46.67593" lon="5.59354">
        <ele>475.98986816406</ele>
        <time>2012-05-16T08:49:54Z</time>
      </trkpt>
      <trkpt lat="46.67597" lon="5.59356">
        <ele>476.47058105469</ele>
        <time>2012-05-16T08:49:58Z</time>
      </trkpt>
      <trkpt lat="46.67607" lon="5.59357">
        <ele>481.27722167969</ele>
        <time>2012-05-16T08:50:05Z</time>
      </trkpt>
      <trkpt lat="46.67613" lon="5.59357">
        <ele>484.64184570312</ele>
        <time>2012-05-16T08:50:09Z</time>
      </trkpt>
      <trkpt lat="46.6762" lon="5.59358">
        <ele>486.08374023438</ele>
        <time>2012-05-16T08:50:14Z</time>
      </trkpt>
      <trkpt lat="46.6763" lon="5.5936">
        <ele>488.48718261719</ele>
        <time>2012-05-16T08:50:21Z</time>
      </trkpt>
      <trkpt lat="46.6764" lon="5.5936">
        <ele>490.40979003906</ele>
        <time>2012-05-16T08:50:27Z</time>
      </trkpt>
      <trkpt lat="46.67649" lon="5.59361">
        <ele>490.89038085938</ele>
        <time>2012-05-16T08:50:33Z</time>
      </trkpt>
      <trkpt lat="46.67658" lon="5.59362">
        <ele>492.81298828125</ele>
        <time>2012-05-16T08:50:39Z</time>
      </trkpt>
      <trkpt lat="46.67667" lon="5.5937">
        <ele>491.85168457031</ele>
        <time>2012-05-16T08:50:46Z</time>
      </trkpt>
      <trkpt lat="46.67678" lon="5.5938">
        <ele>490.40979003906</ele>
        <time>2012-05-16T08:50:54Z</time>
      </trkpt>
      <trkpt lat="46.67686" lon="5.59389">
        <ele>490.89038085938</ele>
        <time>2012-05-16T08:51:01Z</time>
      </trkpt>
      <trkpt lat="46.67692" lon="5.59398">
        <ele>489.92907714844</ele>
        <time>2012-05-16T08:51:07Z</time>
      </trkpt>
      <trkpt lat="46.67697" lon="5.59405">
        <ele>490.40979003906</ele>
        <time>2012-05-16T08:51:12Z</time>
      </trkpt>
      <trkpt lat="46.67702" lon="5.59417">
        <ele>492.81298828125</ele>
        <time>2012-05-16T08:51:19Z</time>
      </trkpt>
      <trkpt lat="46.67707" lon="5.59426">
        <ele>493.29357910156</ele>
        <time>2012-05-16T08:51:25Z</time>
      </trkpt>
      <trkpt lat="46.67712" lon="5.59422">
        <ele>493.77429199219</ele>
        <time>2012-05-16T08:51:30Z</time>
      </trkpt>
      <trkpt lat="46.6772" lon="5.5941">
        <ele>493.29357910156</ele>
        <time>2012-05-16T08:51:38Z</time>
      </trkpt>
      <trkpt lat="46.67724" lon="5.59406">
        <ele>492.81298828125</ele>
        <time>2012-05-16T08:51:46Z</time>
      </trkpt>
      <trkpt lat="46.67723" lon="5.59405">
        <ele>492.81298828125</ele>
        <time>2012-05-16T08:51:55Z</time>
      </trkpt>
      <trkpt lat="46.67723" lon="5.59407">
        <ele>489.44836425781</ele>
        <time>2012-05-16T08:52:20Z</time>
      </trkpt>
      <trkpt lat="46.67723" lon="5.59407">
        <ele>489.44836425781</ele>
        <time>2012-05-16T08:53:06Z</time>
      </trkpt>
      <trkpt lat="46.67722" lon="5.59406">
        <ele>487.52563476562</ele>
        <time>2012-05-16T08:53:12Z</time>
      </trkpt>
      <trkpt lat="46.67722" lon="5.59407">
        <ele>486.564453125</ele>
        <time>2012-05-16T08:53:17Z</time>
      </trkpt>
      <trkpt lat="46.67717" lon="5.59416">
        <ele>485.60302734375</ele>
        <time>2012-05-16T08:53:23Z</time>
      </trkpt>
      <trkpt lat="46.67709" lon="5.59426">
        <ele>485.12243652344</ele>
        <time>2012-05-16T08:53:28Z</time>
      </trkpt>
      <trkpt lat="46.67702" lon="5.59437">
        <ele>485.60302734375</ele>
        <time>2012-05-16T08:53:33Z</time>
      </trkpt>
      <trkpt lat="46.677" lon="5.59441">
        <ele>487.04504394531</ele>
        <time>2012-05-16T08:53:36Z</time>
      </trkpt>
      <trkpt lat="46.67695" lon="5.59449">
        <ele>488.00646972656</ele>
        <time>2012-05-16T08:53:42Z</time>
      </trkpt>
      <trkpt lat="46.67693" lon="5.59455">
        <ele>487.52563476562</ele>
        <time>2012-05-16T08:53:45Z</time>
      </trkpt>
      <trkpt lat="46.67689" lon="5.59469">
        <ele>488.9677734375</ele>
        <time>2012-05-16T08:53:51Z</time>
      </trkpt>
      <trkpt lat="46.67688" lon="5.59474">
        <ele>489.44836425781</ele>
        <time>2012-05-16T08:53:53Z</time>
      </trkpt>
      <trkpt lat="46.67686" lon="5.59479">
        <ele>489.92907714844</ele>
        <time>2012-05-16T08:53:56Z</time>
      </trkpt>
      <trkpt lat="46.67685" lon="5.59485">
        <ele>493.77429199219</ele>
        <time>2012-05-16T08:54:01Z</time>
      </trkpt>
      <trkpt lat="46.67681" lon="5.59496">
        <ele>493.29357910156</ele>
        <time>2012-05-16T08:54:07Z</time>
      </trkpt>
      <trkpt lat="46.67682" lon="5.59497">
        <ele>492.81298828125</ele>
        <time>2012-05-16T08:54:09Z</time>
      </trkpt>
      <trkpt lat="46.6769" lon="5.59494">
        <ele>492.81298828125</ele>
        <time>2012-05-16T08:54:14Z</time>
      </trkpt>
      <trkpt lat="46.67702" lon="5.59502">
        <ele>488.9677734375</ele>
        <time>2012-05-16T08:54:19Z</time>
      </trkpt>
      <trkpt lat="46.67706" lon="5.59504">
        <ele>488.48718261719</ele>
        <time>2012-05-16T08:54:21Z</time>
      </trkpt>
      <trkpt lat="46.6772" lon="5.59515">
        <ele>488.9677734375</ele>
        <time>2012-05-16T08:54:28Z</time>
      </trkpt>
      <trkpt lat="46.67731" lon="5.59526">
        <ele>489.92907714844</ele>
        <time>2012-05-16T08:54:34Z</time>
      </trkpt>
      <trkpt lat="46.67743" lon="5.59538">
        <ele>492.33239746094</ele>
        <time>2012-05-16T08:54:39Z</time>
      </trkpt>
      <trkpt lat="46.67752" lon="5.59552">
        <ele>491.37097167969</ele>
        <time>2012-05-16T08:54:44Z</time>
      </trkpt>
      <trkpt lat="46.67755" lon="5.59566">
        <ele>490.40979003906</ele>
        <time>2012-05-16T08:54:48Z</time>
      </trkpt>
      <trkpt lat="46.67757" lon="5.5958">
        <ele>490.89038085938</ele>
        <time>2012-05-16T08:54:52Z</time>
      </trkpt>
      <trkpt lat="46.67761" lon="5.59601">
        <ele>493.29357910156</ele>
        <time>2012-05-16T08:54:57Z</time>
      </trkpt>
      <trkpt lat="46.67764" lon="5.59615">
        <ele>492.81298828125</ele>
        <time>2012-05-16T08:55:01Z</time>
      </trkpt>
      <trkpt lat="46.67768" lon="5.59619">
        <ele>493.77429199219</ele>
        <time>2012-05-16T08:55:03Z</time>
      </trkpt>
      <trkpt lat="46.67775" lon="5.59625">
        <ele>494.73559570312</ele>
        <time>2012-05-16T08:55:07Z</time>
      </trkpt>
      <trkpt lat="46.67781" lon="5.59629">
        <ele>494.25500488281</ele>
        <time>2012-05-16T08:55:10Z</time>
      </trkpt>
      <trkpt lat="46.67795" lon="5.59635">
        <ele>494.73559570312</ele>
        <time>2012-05-16T08:55:16Z</time>
      </trkpt>
      <trkpt lat="46.67806" lon="5.5964">
        <ele>495.21618652344</ele>
        <time>2012-05-16T08:55:21Z</time>
      </trkpt>
      <trkpt lat="46.67812" lon="5.59642">
        <ele>495.21618652344</ele>
        <time>2012-05-16T08:55:23Z</time>
      </trkpt>
      <trkpt lat="46.67825" lon="5.59649">
        <ele>492.81298828125</ele>
        <time>2012-05-16T08:55:29Z</time>
      </trkpt>
      <trkpt lat="46.67836" lon="5.59652">
        <ele>492.33239746094</ele>
        <time>2012-05-16T08:55:34Z</time>
      </trkpt>
      <trkpt lat="46.67843" lon="5.59655">
        <ele>493.77429199219</ele>
        <time>2012-05-16T08:55:38Z</time>
      </trkpt>
      <trkpt lat="46.67862" lon="5.59662">
        <ele>498.58093261719</ele>
        <time>2012-05-16T08:55:46Z</time>
      </trkpt>
      <trkpt lat="46.67875" lon="5.59667">
        <ele>499.54223632812</ele>
        <time>2012-05-16T08:55:51Z</time>
      </trkpt>
      <trkpt lat="46.67888" lon="5.59672">
        <ele>500.02294921875</ele>
        <time>2012-05-16T08:55:56Z</time>
      </trkpt>
      <trkpt lat="46.679" lon="5.59679">
        <ele>499.54223632812</ele>
        <time>2012-05-16T08:56:01Z</time>
      </trkpt>
      <trkpt lat="46.67912" lon="5.59687">
        <ele>498.10034179688</ele>
        <time>2012-05-16T08:56:06Z</time>
      </trkpt>
      <trkpt lat="46.67915" lon="5.59688">
        <ele>497.61962890625</ele>
        <time>2012-05-16T08:56:08Z</time>
      </trkpt>
      <trkpt lat="46.67926" lon="5.59693">
        <ele>497.61962890625</ele>
        <time>2012-05-16T08:56:15Z</time>
      </trkpt>
      <trkpt lat="46.6793" lon="5.59694">
        <ele>499.0615234375</ele>
        <time>2012-05-16T08:56:19Z</time>
      </trkpt>
      <trkpt lat="46.67935" lon="5.59696">
        <ele>500.02294921875</ele>
        <time>2012-05-16T08:56:22Z</time>
      </trkpt>
      <trkpt lat="46.67941" lon="5.59699">
        <ele>500.02294921875</ele>
        <time>2012-05-16T08:56:26Z</time>
      </trkpt>
      <trkpt lat="46.67949" lon="5.59705">
        <ele>497.61962890625</ele>
        <time>2012-05-16T08:56:33Z</time>
      </trkpt>
      <trkpt lat="46.67955" lon="5.59707">
        <ele>500.02294921875</ele>
        <time>2012-05-16T08:56:38Z</time>
      </trkpt>
      <trkpt lat="46.67957" lon="5.59708">
        <ele>501.46484375</ele>
        <time>2012-05-16T08:56:40Z</time>
      </trkpt>
      <trkpt lat="46.67966" lon="5.59714">
        <ele>501.46484375</ele>
        <time>2012-05-16T08:56:48Z</time>
      </trkpt>
      <trkpt lat="46.67974" lon="5.59717">
        <ele>506.75207519531</ele>
        <time>2012-05-16T08:56:55Z</time>
      </trkpt>
      <trkpt lat="46.67978" lon="5.59718">
        <ele>506.271484375</ele>
        <time>2012-05-16T08:56:57Z</time>
      </trkpt>
      <trkpt lat="46.6799" lon="5.59723">
        <ele>502.42614746094</ele>
        <time>2012-05-16T08:57:05Z</time>
      </trkpt>
      <trkpt lat="46.68" lon="5.59726">
        <ele>503.8681640625</ele>
        <time>2012-05-16T08:57:12Z</time>
      </trkpt>
      <trkpt lat="46.6801" lon="5.59734">
        <ele>503.8681640625</ele>
        <time>2012-05-16T08:57:20Z</time>
      </trkpt>
      <trkpt lat="46.68019" lon="5.5974">
        <ele>504.34887695312</ele>
        <time>2012-05-16T08:57:27Z</time>
      </trkpt>
      <trkpt lat="46.68028" lon="5.59746">
        <ele>504.82946777344</ele>
        <time>2012-05-16T08:57:33Z</time>
      </trkpt>
      <trkpt lat="46.68038" lon="5.59748">
        <ele>505.79089355469</ele>
        <time>2012-05-16T08:57:39Z</time>
      </trkpt>
      <trkpt lat="46.6805" lon="5.59755">
        <ele>506.75207519531</ele>
        <time>2012-05-16T08:57:45Z</time>
      </trkpt>
      <trkpt lat="46.68058" lon="5.5976">
        <ele>508.19409179688</ele>
        <time>2012-05-16T08:57:50Z</time>
      </trkpt>
      <trkpt lat="46.68071" lon="5.59764">
        <ele>512.03942871094</ele>
        <time>2012-05-16T08:57:55Z</time>
      </trkpt>
      <trkpt lat="46.68083" lon="5.59767">
        <ele>515.40405273438</ele>
        <time>2012-05-16T08:58:01Z</time>
      </trkpt>
      <trkpt lat="46.68093" lon="5.59772">
        <ele>516.84594726562</ele>
        <time>2012-05-16T08:58:09Z</time>
      </trkpt>
      <trkpt lat="46.68102" lon="5.59773">
        <ele>517.32666015625</ele>
        <time>2012-05-16T08:58:16Z</time>
      </trkpt>
      <trkpt lat="46.68107" lon="5.59774">
        <ele>519.24926757812</ele>
        <time>2012-05-16T08:58:21Z</time>
      </trkpt>
      <trkpt lat="46.68116" lon="5.59781">
        <ele>518.7685546875</ele>
        <time>2012-05-16T08:58:28Z</time>
      </trkpt>
      <trkpt lat="46.68127" lon="5.59784">
        <ele>518.7685546875</ele>
        <time>2012-05-16T08:58:36Z</time>
      </trkpt>
      <trkpt lat="46.68137" lon="5.59789">
        <ele>519.24926757812</ele>
        <time>2012-05-16T08:58:43Z</time>
      </trkpt>
      <trkpt lat="46.68146" lon="5.59794">
        <ele>518.7685546875</ele>
        <time>2012-05-16T08:58:49Z</time>
      </trkpt>
      <trkpt lat="46.68154" lon="5.59798">
        <ele>517.80725097656</ele>
        <time>2012-05-16T08:58:55Z</time>
      </trkpt>
      <trkpt lat="46.68166" lon="5.59802">
        <ele>517.32666015625</ele>
        <time>2012-05-16T08:59:00Z</time>
      </trkpt>
      <trkpt lat="46.68176" lon="5.59805">
        <ele>518.28784179688</ele>
        <time>2012-05-16T08:59:04Z</time>
      </trkpt>
      <trkpt lat="46.68189" lon="5.59811">
        <ele>517.80725097656</ele>
        <time>2012-05-16T08:59:09Z</time>
      </trkpt>
      <trkpt lat="46.68201" lon="5.59817">
        <ele>520.21057128906</ele>
        <time>2012-05-16T08:59:14Z</time>
      </trkpt>
      <trkpt lat="46.68213" lon="5.59823">
        <ele>518.28784179688</ele>
        <time>2012-05-16T08:59:19Z</time>
      </trkpt>
      <trkpt lat="46.68229" lon="5.59829">
        <ele>517.32666015625</ele>
        <time>2012-05-16T08:59:25Z</time>
      </trkpt>
      <trkpt lat="46.68239" lon="5.59834">
        <ele>516.365234375</ele>
        <time>2012-05-16T08:59:29Z</time>
      </trkpt>
      <trkpt lat="46.68248" lon="5.59839">
        <ele>515.40405273438</ele>
        <time>2012-05-16T08:59:33Z</time>
      </trkpt>
      <trkpt lat="46.68262" lon="5.59846">
        <ele>513.4814453125</ele>
        <time>2012-05-16T08:59:39Z</time>
      </trkpt>
      <trkpt lat="46.68274" lon="5.59851">
        <ele>514.92333984375</ele>
        <time>2012-05-16T08:59:44Z</time>
      </trkpt>
      <trkpt lat="46.68285" lon="5.59856">
        <ele>515.40405273438</ele>
        <time>2012-05-16T08:59:49Z</time>
      </trkpt>
      <trkpt lat="46.68297" lon="5.59861">
        <ele>517.80725097656</ele>
        <time>2012-05-16T08:59:55Z</time>
      </trkpt>
      <trkpt lat="46.68309" lon="5.59865">
        <ele>517.32666015625</ele>
        <time>2012-05-16T09:00:00Z</time>
      </trkpt>
      <trkpt lat="46.68319" lon="5.59871">
        <ele>515.88464355469</ele>
        <time>2012-05-16T09:00:04Z</time>
      </trkpt>
      <trkpt lat="46.6833" lon="5.59876">
        <ele>517.32666015625</ele>
        <time>2012-05-16T09:00:10Z</time>
      </trkpt>
      <trkpt lat="46.6834" lon="5.59879">
        <ele>518.28784179688</ele>
        <time>2012-05-16T09:00:14Z</time>
      </trkpt>
      <trkpt lat="46.68352" lon="5.59889">
        <ele>516.365234375</ele>
        <time>2012-05-16T09:00:19Z</time>
      </trkpt>
      <trkpt lat="46.68361" lon="5.59895">
        <ele>515.40405273438</ele>
        <time>2012-05-16T09:00:23Z</time>
      </trkpt>
      <trkpt lat="46.68373" lon="5.59901">
        <ele>513.4814453125</ele>
        <time>2012-05-16T09:00:28Z</time>
      </trkpt>
      <trkpt lat="46.68386" lon="5.59909">
        <ele>512.03942871094</ele>
        <time>2012-05-16T09:00:33Z</time>
      </trkpt>
      <trkpt lat="46.68398" lon="5.59914">
        <ele>514.44262695312</ele>
        <time>2012-05-16T09:00:38Z</time>
      </trkpt>
      <trkpt lat="46.68408" lon="5.59918">
        <ele>512.03942871094</ele>
        <time>2012-05-16T09:00:42Z</time>
      </trkpt>
      <trkpt lat="46.68416" lon="5.59922">
        <ele>512.03942871094</ele>
        <time>2012-05-16T09:00:46Z</time>
      </trkpt>
      <trkpt lat="46.68416" lon="5.59919">
        <ele>513.00073242188</ele>
        <time>2012-05-16T09:00:50Z</time>
      </trkpt>
      <trkpt lat="46.6842" lon="5.59917">
        <ele>510.11669921875</ele>
        <time>2012-05-16T09:01:03Z</time>
      </trkpt>
      <trkpt lat="46.6843" lon="5.59924">
        <ele>513.00073242188</ele>
        <time>2012-05-16T09:01:08Z</time>
      </trkpt>
      <trkpt lat="46.68444" lon="5.59931">
        <ele>513.00073242188</ele>
        <time>2012-05-16T09:01:14Z</time>
      </trkpt>
      <trkpt lat="46.68457" lon="5.59937">
        <ele>512.52001953125</ele>
        <time>2012-05-16T09:01:19Z</time>
      </trkpt>
      <trkpt lat="46.6847" lon="5.59941">
        <ele>511.55871582031</ele>
        <time>2012-05-16T09:01:24Z</time>
      </trkpt>
      <trkpt lat="46.6848" lon="5.59949">
        <ele>511.07800292969</ele>
        <time>2012-05-16T09:01:28Z</time>
      </trkpt>
      <trkpt lat="46.68491" lon="5.59954">
        <ele>511.07800292969</ele>
        <time>2012-05-16T09:01:33Z</time>
      </trkpt>
      <trkpt lat="46.68501" lon="5.5996">
        <ele>508.19409179688</ele>
        <time>2012-05-16T09:01:37Z</time>
      </trkpt>
      <trkpt lat="46.68513" lon="5.59966">
        <ele>508.67468261719</ele>
        <time>2012-05-16T09:01:42Z</time>
      </trkpt>
      <trkpt lat="46.68523" lon="5.59971">
        <ele>509.15539550781</ele>
        <time>2012-05-16T09:01:46Z</time>
      </trkpt>
      <trkpt lat="46.68534" lon="5.59975">
        <ele>510.11669921875</ele>
        <time>2012-05-16T09:01:50Z</time>
      </trkpt>
      <trkpt lat="46.68544" lon="5.59981">
        <ele>511.55871582031</ele>
        <time>2012-05-16T09:01:55Z</time>
      </trkpt>
      <trkpt lat="46.68555" lon="5.59985">
        <ele>511.55871582031</ele>
        <time>2012-05-16T09:01:59Z</time>
      </trkpt>
      <trkpt lat="46.68567" lon="5.5999">
        <ele>510.11669921875</ele>
        <time>2012-05-16T09:02:04Z</time>
      </trkpt>
      <trkpt lat="46.68578" lon="5.59997">
        <ele>509.15539550781</ele>
        <time>2012-05-16T09:02:09Z</time>
      </trkpt>
      <trkpt lat="46.68591" lon="5.60002">
        <ele>508.19409179688</ele>
        <time>2012-05-16T09:02:15Z</time>
      </trkpt>
      <trkpt lat="46.68601" lon="5.60007">
        <ele>507.71350097656</ele>
        <time>2012-05-16T09:02:19Z</time>
      </trkpt>
      <trkpt lat="46.68613" lon="5.60012">
        <ele>506.75207519531</ele>
        <time>2012-05-16T09:02:24Z</time>
      </trkpt>
      <trkpt lat="46.68618" lon="5.60014">
        <ele>504.82946777344</ele>
        <time>2012-05-16T09:02:26Z</time>
      </trkpt>
      <trkpt lat="46.68627" lon="5.60019">
        <ele>504.82946777344</ele>
        <time>2012-05-16T09:02:30Z</time>
      </trkpt>
      <trkpt lat="46.68642" lon="5.6003">
        <ele>503.38745117188</ele>
        <time>2012-05-16T09:02:36Z</time>
      </trkpt>
      <trkpt lat="46.68653" lon="5.60033">
        <ele>504.82946777344</ele>
        <time>2012-05-16T09:02:40Z</time>
      </trkpt>
      <trkpt lat="46.68665" lon="5.60039">
        <ele>503.38745117188</ele>
        <time>2012-05-16T09:02:45Z</time>
      </trkpt>
      <trkpt lat="46.68666" lon="5.60038">
        <ele>504.34887695312</ele>
        <time>2012-05-16T09:02:46Z</time>
      </trkpt>
      <trkpt lat="46.68675" lon="5.60042">
        <ele>502.42614746094</ele>
        <time>2012-05-16T09:02:50Z</time>
      </trkpt>
      <trkpt lat="46.68693" lon="5.6005">
        <ele>502.90673828125</ele>
        <time>2012-05-16T09:02:56Z</time>
      </trkpt>
      <trkpt lat="46.68706" lon="5.60055">
        <ele>502.42614746094</ele>
        <time>2012-05-16T09:03:01Z</time>
      </trkpt>
      <trkpt lat="46.68718" lon="5.6006">
        <ele>500.98413085938</ele>
        <time>2012-05-16T09:03:06Z</time>
      </trkpt>
      <trkpt lat="46.68728" lon="5.60067">
        <ele>500.50354003906</ele>
        <time>2012-05-16T09:03:11Z</time>
      </trkpt>
      <trkpt lat="46.68737" lon="5.60073">
        <ele>500.02294921875</ele>
        <time>2012-05-16T09:03:15Z</time>
      </trkpt>
      <trkpt lat="46.68749" lon="5.60076">
        <ele>498.58093261719</ele>
        <time>2012-05-16T09:03:20Z</time>
      </trkpt>
      <trkpt lat="46.6876" lon="5.60081">
        <ele>498.10034179688</ele>
        <time>2012-05-16T09:03:24Z</time>
      </trkpt>
      <trkpt lat="46.68772" lon="5.60088">
        <ele>497.13891601562</ele>
        <time>2012-05-16T09:03:29Z</time>
      </trkpt>
      <trkpt lat="46.68782" lon="5.60092">
        <ele>497.13891601562</ele>
        <time>2012-05-16T09:03:33Z</time>
      </trkpt>
      <trkpt lat="46.68795" lon="5.60098">
        <ele>494.73559570312</ele>
        <time>2012-05-16T09:03:38Z</time>
      </trkpt>
      <trkpt lat="46.68806" lon="5.60103">
        <ele>492.81298828125</ele>
        <time>2012-05-16T09:03:43Z</time>
      </trkpt>
      <trkpt lat="46.68819" lon="5.60111">
        <ele>489.44836425781</ele>
        <time>2012-05-16T09:03:49Z</time>
      </trkpt>
      <trkpt lat="46.6883" lon="5.60119">
        <ele>487.04504394531</ele>
        <time>2012-05-16T09:03:54Z</time>
      </trkpt>
      <trkpt lat="46.68841" lon="5.60122">
        <ele>490.40979003906</ele>
        <time>2012-05-16T09:03:59Z</time>
      </trkpt>
      <trkpt lat="46.68858" lon="5.60128">
        <ele>492.33239746094</ele>
        <time>2012-05-16T09:04:06Z</time>
      </trkpt>
      <trkpt lat="46.68872" lon="5.60133">
        <ele>491.85168457031</ele>
        <time>2012-05-16T09:04:11Z</time>
      </trkpt>
      <trkpt lat="46.68885" lon="5.60136">
        <ele>491.85168457031</ele>
        <time>2012-05-16T09:04:16Z</time>
      </trkpt>
      <trkpt lat="46.68896" lon="5.60143">
        <ele>489.92907714844</ele>
        <time>2012-05-16T09:04:21Z</time>
      </trkpt>
      <trkpt lat="46.68903" lon="5.60146">
        <ele>489.44836425781</ele>
        <time>2012-05-16T09:04:24Z</time>
      </trkpt>
      <trkpt lat="46.68912" lon="5.60151">
        <ele>490.89038085938</ele>
        <time>2012-05-16T09:04:28Z</time>
      </trkpt>
      <trkpt lat="46.68931" lon="5.60159">
        <ele>491.37097167969</ele>
        <time>2012-05-16T09:04:36Z</time>
      </trkpt>
      <trkpt lat="46.68946" lon="5.60167">
        <ele>491.37097167969</ele>
        <time>2012-05-16T09:04:42Z</time>
      </trkpt>
      <trkpt lat="46.68957" lon="5.60173">
        <ele>491.37097167969</ele>
        <time>2012-05-16T09:04:47Z</time>
      </trkpt>
      <trkpt lat="46.68967" lon="5.60179">
        <ele>491.85168457031</ele>
        <time>2012-05-16T09:04:51Z</time>
      </trkpt>
      <trkpt lat="46.68983" lon="5.60186">
        <ele>492.33239746094</ele>
        <time>2012-05-16T09:04:57Z</time>
      </trkpt>
      <trkpt lat="46.68999" lon="5.60192">
        <ele>489.44836425781</ele>
        <time>2012-05-16T09:05:03Z</time>
      </trkpt>
      <trkpt lat="46.69002" lon="5.60193">
        <ele>489.92907714844</ele>
        <time>2012-05-16T09:05:04Z</time>
      </trkpt>
      <trkpt lat="46.69016" lon="5.60199">
        <ele>489.44836425781</ele>
        <time>2012-05-16T09:05:10Z</time>
      </trkpt>
      <trkpt lat="46.69026" lon="5.60202">
        <ele>489.44836425781</ele>
        <time>2012-05-16T09:05:14Z</time>
      </trkpt>
      <trkpt lat="46.69037" lon="5.60208">
        <ele>490.40979003906</ele>
        <time>2012-05-16T09:05:19Z</time>
      </trkpt>
      <trkpt lat="46.6905" lon="5.60214">
        <ele>491.37097167969</ele>
        <time>2012-05-16T09:05:25Z</time>
      </trkpt>
      <trkpt lat="46.69061" lon="5.60221">
        <ele>491.85168457031</ele>
        <time>2012-05-16T09:05:31Z</time>
      </trkpt>
      <trkpt lat="46.69068" lon="5.60226">
        <ele>492.33239746094</ele>
        <time>2012-05-16T09:05:35Z</time>
      </trkpt>
      <trkpt lat="46.6908" lon="5.60233">
        <ele>493.29357910156</ele>
        <time>2012-05-16T09:05:40Z</time>
      </trkpt>
      <trkpt lat="46.69091" lon="5.60235">
        <ele>494.73559570312</ele>
        <time>2012-05-16T09:05:45Z</time>
      </trkpt>
      <trkpt lat="46.69104" lon="5.60239">
        <ele>496.65832519531</ele>
        <time>2012-05-16T09:05:51Z</time>
      </trkpt>
      <trkpt lat="46.69116" lon="5.60244">
        <ele>499.54223632812</ele>
        <time>2012-05-16T09:05:56Z</time>
      </trkpt>
      <trkpt lat="46.69125" lon="5.60246">
        <ele>500.50354003906</ele>
        <time>2012-05-16T09:06:00Z</time>
      </trkpt>
      <trkpt lat="46.69133" lon="5.60249">
        <ele>501.94555664062</ele>
        <time>2012-05-16T09:06:04Z</time>
      </trkpt>
      <trkpt lat="46.69147" lon="5.60259">
        <ele>500.98413085938</ele>
        <time>2012-05-16T09:06:10Z</time>
      </trkpt>
      <trkpt lat="46.69162" lon="5.60268">
        <ele>499.0615234375</ele>
        <time>2012-05-16T09:06:16Z</time>
      </trkpt>
      <trkpt lat="46.69174" lon="5.60271">
        <ele>497.61962890625</ele>
        <time>2012-05-16T09:06:21Z</time>
      </trkpt>
      <trkpt lat="46.69184" lon="5.60277">
        <ele>496.177734375</ele>
        <time>2012-05-16T09:06:25Z</time>
      </trkpt>
      <trkpt lat="46.69198" lon="5.6028">
        <ele>494.25500488281</ele>
        <time>2012-05-16T09:06:30Z</time>
      </trkpt>
      <trkpt lat="46.69208" lon="5.60282">
        <ele>494.73559570312</ele>
        <time>2012-05-16T09:06:34Z</time>
      </trkpt>
      <trkpt lat="46.69218" lon="5.60282">
        <ele>493.29357910156</ele>
        <time>2012-05-16T09:06:39Z</time>
      </trkpt>
      <trkpt lat="46.69231" lon="5.60282">
        <ele>491.85168457031</ele>
        <time>2012-05-16T09:06:44Z</time>
      </trkpt>
      <trkpt lat="46.69245" lon="5.60279">
        <ele>491.37097167969</ele>
        <time>2012-05-16T09:06:50Z</time>
      </trkpt>
      <trkpt lat="46.69261" lon="5.6028">
        <ele>488.48718261719</ele>
        <time>2012-05-16T09:06:56Z</time>
      </trkpt>
      <trkpt lat="46.69273" lon="5.6028">
        <ele>488.48718261719</ele>
        <time>2012-05-16T09:07:00Z</time>
      </trkpt>
      <trkpt lat="46.69289" lon="5.6028">
        <ele>484.1611328125</ele>
        <time>2012-05-16T09:07:07Z</time>
      </trkpt>
      <trkpt lat="46.69302" lon="5.60272">
        <ele>486.08374023438</ele>
        <time>2012-05-16T09:07:13Z</time>
      </trkpt>
      <trkpt lat="46.69312" lon="5.60269">
        <ele>485.12243652344</ele>
        <time>2012-05-16T09:07:17Z</time>
      </trkpt>
      <trkpt lat="46.69324" lon="5.60264">
        <ele>485.12243652344</ele>
        <time>2012-05-16T09:07:22Z</time>
      </trkpt>
      <trkpt lat="46.69337" lon="5.60263">
        <ele>482.23852539062</ele>
        <time>2012-05-16T09:07:27Z</time>
      </trkpt>
      <trkpt lat="46.69346" lon="5.60261">
        <ele>480.31591796875</ele>
        <time>2012-05-16T09:07:31Z</time>
      </trkpt>
      <trkpt lat="46.69356" lon="5.60261">
        <ele>478.87390136719</ele>
        <time>2012-05-16T09:07:35Z</time>
      </trkpt>
      <trkpt lat="46.69366" lon="5.60261">
        <ele>477.91247558594</ele>
        <time>2012-05-16T09:07:39Z</time>
      </trkpt>
      <trkpt lat="46.69374" lon="5.60262">
        <ele>477.43188476562</ele>
        <time>2012-05-16T09:07:43Z</time>
      </trkpt>
      <trkpt lat="46.69387" lon="5.60259">
        <ele>477.43188476562</ele>
        <time>2012-05-16T09:07:47Z</time>
      </trkpt>
      <trkpt lat="46.69401" lon="5.60255">
        <ele>476.95129394531</ele>
        <time>2012-05-16T09:07:52Z</time>
      </trkpt>
      <trkpt lat="46.69411" lon="5.60254">
        <ele>475.98986816406</ele>
        <time>2012-05-16T09:07:56Z</time>
      </trkpt>
      <trkpt lat="46.69421" lon="5.60256">
        <ele>477.91247558594</ele>
        <time>2012-05-16T09:08:00Z</time>
      </trkpt>
      <trkpt lat="46.69431" lon="5.60255">
        <ele>479.3544921875</ele>
        <time>2012-05-16T09:08:05Z</time>
      </trkpt>
      <trkpt lat="46.69443" lon="5.60254">
        <ele>478.39318847656</ele>
        <time>2012-05-16T09:08:11Z</time>
      </trkpt>
      <trkpt lat="46.69455" lon="5.60258">
        <ele>471.66394042969</ele>
        <time>2012-05-16T09:08:17Z</time>
      </trkpt>
      <trkpt lat="46.69467" lon="5.60259">
        <ele>465.89611816406</ele>
        <time>2012-05-16T09:08:22Z</time>
      </trkpt>
      <trkpt lat="46.69473" lon="5.60259">
        <ele>462.05078125</ele>
        <time>2012-05-16T09:08:25Z</time>
      </trkpt>
      <trkpt lat="46.69484" lon="5.60265">
        <ele>459.64758300781</ele>
        <time>2012-05-16T09:08:30Z</time>
      </trkpt>
      <trkpt lat="46.69497" lon="5.60269">
        <ele>457.24426269531</ele>
        <time>2012-05-16T09:08:36Z</time>
      </trkpt>
      <trkpt lat="46.6951" lon="5.60275">
        <ele>460.60876464844</ele>
        <time>2012-05-16T09:08:42Z</time>
      </trkpt>
      <trkpt lat="46.69511" lon="5.60276">
        <ele>461.57019042969</ele>
        <time>2012-05-16T09:08:43Z</time>
      </trkpt>
      <trkpt lat="46.69519" lon="5.60284">
        <ele>455.32153320312</ele>
        <time>2012-05-16T09:08:49Z</time>
      </trkpt>
      <trkpt lat="46.69523" lon="5.60294">
        <ele>453.87963867188</ele>
        <time>2012-05-16T09:08:54Z</time>
      </trkpt>
      <trkpt lat="46.69524" lon="5.603">
        <ele>454.36022949219</ele>
        <time>2012-05-16T09:08:58Z</time>
      </trkpt>
      <trkpt lat="46.69524" lon="5.60306">
        <ele>457.24426269531</ele>
        <time>2012-05-16T09:09:03Z</time>
      </trkpt>
      <trkpt lat="46.69523" lon="5.60317">
        <ele>458.68615722656</ele>
        <time>2012-05-16T09:09:09Z</time>
      </trkpt>
      <trkpt lat="46.69521" lon="5.60321">
        <ele>461.08947753906</ele>
        <time>2012-05-16T09:09:12Z</time>
      </trkpt>
      <trkpt lat="46.69521" lon="5.60333">
        <ele>461.08947753906</ele>
        <time>2012-05-16T09:09:18Z</time>
      </trkpt>
      <trkpt lat="46.69519" lon="5.60345">
        <ele>460.12817382812</ele>
        <time>2012-05-16T09:09:24Z</time>
      </trkpt>
      <trkpt lat="46.69517" lon="5.60361">
        <ele>460.12817382812</ele>
        <time>2012-05-16T09:09:31Z</time>
      </trkpt>
      <trkpt lat="46.69515" lon="5.60374">
        <ele>463.01208496094</ele>
        <time>2012-05-16T09:09:37Z</time>
      </trkpt>
      <trkpt lat="46.6951" lon="5.60384">
        <ele>464.4541015625</ele>
        <time>2012-05-16T09:09:43Z</time>
      </trkpt>
      <trkpt lat="46.69511" lon="5.60391">
        <ele>464.4541015625</ele>
        <time>2012-05-16T09:09:47Z</time>
      </trkpt>
      <trkpt lat="46.6951" lon="5.60398">
        <ele>464.4541015625</ele>
        <time>2012-05-16T09:09:50Z</time>
      </trkpt>
      <trkpt lat="46.69509" lon="5.60407">
        <ele>466.37670898438</ele>
        <time>2012-05-16T09:09:55Z</time>
      </trkpt>
      <trkpt lat="46.6951" lon="5.60427">
        <ele>464.93481445312</ele>
        <time>2012-05-16T09:10:04Z</time>
      </trkpt>
      <trkpt lat="46.69509" lon="5.60432">
        <ele>464.4541015625</ele>
        <time>2012-05-16T09:10:07Z</time>
      </trkpt>
      <trkpt lat="46.69514" lon="5.60445">
        <ele>463.97338867188</ele>
        <time>2012-05-16T09:10:14Z</time>
      </trkpt>
      <trkpt lat="46.69515" lon="5.60449">
        <ele>464.4541015625</ele>
        <time>2012-05-16T09:10:16Z</time>
      </trkpt>
      <trkpt lat="46.69518" lon="5.60462">
        <ele>464.93481445312</ele>
        <time>2012-05-16T09:10:22Z</time>
      </trkpt>
      <trkpt lat="46.69517" lon="5.60482">
        <ele>465.89611816406</ele>
        <time>2012-05-16T09:10:29Z</time>
      </trkpt>
      <trkpt lat="46.69519" lon="5.60499">
        <ele>467.33813476562</ele>
        <time>2012-05-16T09:10:34Z</time>
      </trkpt>
      <trkpt lat="46.69522" lon="5.60521">
        <ele>466.857421875</ele>
        <time>2012-05-16T09:10:40Z</time>
      </trkpt>
      <trkpt lat="46.69525" lon="5.6054">
        <ele>466.857421875</ele>
        <time>2012-05-16T09:10:46Z</time>
      </trkpt>
      <trkpt lat="46.69526" lon="5.60543">
        <ele>467.33813476562</ele>
        <time>2012-05-16T09:10:47Z</time>
      </trkpt>
      <trkpt lat="46.69529" lon="5.60558">
        <ele>469.2607421875</ele>
        <time>2012-05-16T09:10:52Z</time>
      </trkpt>
      <trkpt lat="46.69533" lon="5.6057">
        <ele>471.18334960938</ele>
        <time>2012-05-16T09:10:56Z</time>
      </trkpt>
      <trkpt lat="46.69534" lon="5.60578">
        <ele>472.14465332031</ele>
        <time>2012-05-16T09:11:00Z</time>
      </trkpt>
      <trkpt lat="46.69534" lon="5.60582">
        <ele>472.62536621094</ele>
        <time>2012-05-16T09:11:02Z</time>
      </trkpt>
      <trkpt lat="46.69533" lon="5.60594">
        <ele>475.50927734375</ele>
        <time>2012-05-16T09:11:09Z</time>
      </trkpt>
      <trkpt lat="46.69528" lon="5.60614">
        <ele>477.91247558594</ele>
        <time>2012-05-16T09:11:18Z</time>
      </trkpt>
      <trkpt lat="46.69524" lon="5.60625">
        <ele>478.87390136719</ele>
        <time>2012-05-16T09:11:24Z</time>
      </trkpt>
      <trkpt lat="46.69519" lon="5.60636">
        <ele>479.3544921875</ele>
        <time>2012-05-16T09:11:30Z</time>
      </trkpt>
      <trkpt lat="46.69516" lon="5.60642">
        <ele>480.79663085938</ele>
        <time>2012-05-16T09:11:34Z</time>
      </trkpt>
      <trkpt lat="46.6951" lon="5.6065">
        <ele>481.7578125</ele>
        <time>2012-05-16T09:11:40Z</time>
      </trkpt>
      <trkpt lat="46.69502" lon="5.6066">
        <ele>482.23852539062</ele>
        <time>2012-05-16T09:11:47Z</time>
      </trkpt>
      <trkpt lat="46.69499" lon="5.60663">
        <ele>482.23852539062</ele>
        <time>2012-05-16T09:11:50Z</time>
      </trkpt>
      <trkpt lat="46.69493" lon="5.60669">
        <ele>483.19982910156</ele>
        <time>2012-05-16T09:11:55Z</time>
      </trkpt>
      <trkpt lat="46.69487" lon="5.60675">
        <ele>484.64184570312</ele>
        <time>2012-05-16T09:12:00Z</time>
      </trkpt>
      <trkpt lat="46.6948" lon="5.60681">
        <ele>486.564453125</ele>
        <time>2012-05-16T09:12:06Z</time>
      </trkpt>
      <trkpt lat="46.69479" lon="5.60682">
        <ele>487.04504394531</ele>
        <time>2012-05-16T09:12:07Z</time>
      </trkpt>
      <trkpt lat="46.69472" lon="5.60688">
        <ele>488.00646972656</ele>
        <time>2012-05-16T09:12:13Z</time>
      </trkpt>
      <trkpt lat="46.69463" lon="5.60696">
        <ele>489.92907714844</ele>
        <time>2012-05-16T09:12:20Z</time>
      </trkpt>
      <trkpt lat="46.69456" lon="5.60703">
        <ele>489.92907714844</ele>
        <time>2012-05-16T09:12:26Z</time>
      </trkpt>
      <trkpt lat="46.69451" lon="5.60706">
        <ele>489.44836425781</ele>
        <time>2012-05-16T09:12:31Z</time>
      </trkpt>
      <trkpt lat="46.69444" lon="5.60714">
        <ele>488.48718261719</ele>
        <time>2012-05-16T09:12:37Z</time>
      </trkpt>
      <trkpt lat="46.69431" lon="5.60726">
        <ele>486.08374023438</ele>
        <time>2012-05-16T09:12:43Z</time>
      </trkpt>
      <trkpt lat="46.69423" lon="5.60733">
        <ele>484.64184570312</ele>
        <time>2012-05-16T09:12:47Z</time>
      </trkpt>
      <trkpt lat="46.69411" lon="5.60743">
        <ele>483.68041992188</ele>
        <time>2012-05-16T09:12:53Z</time>
      </trkpt>
      <trkpt lat="46.69402" lon="5.60751">
        <ele>481.7578125</ele>
        <time>2012-05-16T09:12:57Z</time>
      </trkpt>
      <trkpt lat="46.6939" lon="5.6076">
        <ele>479.83508300781</ele>
        <time>2012-05-16T09:13:02Z</time>
      </trkpt>
      <trkpt lat="46.6938" lon="5.60769">
        <ele>477.91247558594</ele>
        <time>2012-05-16T09:13:07Z</time>
      </trkpt>
      <trkpt lat="46.6937" lon="5.60777">
        <ele>475.02868652344</ele>
        <time>2012-05-16T09:13:12Z</time>
      </trkpt>
      <trkpt lat="46.6936" lon="5.60786">
        <ele>474.06726074219</ele>
        <time>2012-05-16T09:13:16Z</time>
      </trkpt>
      <trkpt lat="46.69351" lon="5.60792">
        <ele>472.62536621094</ele>
        <time>2012-05-16T09:13:20Z</time>
      </trkpt>
      <trkpt lat="46.69345" lon="5.60799">
        <ele>474.06726074219</ele>
        <time>2012-05-16T09:13:25Z</time>
      </trkpt>
      <trkpt lat="46.69339" lon="5.60807">
        <ele>474.54797363281</ele>
        <time>2012-05-16T09:13:31Z</time>
      </trkpt>
      <trkpt lat="46.69337" lon="5.60808">
        <ele>474.54797363281</ele>
        <time>2012-05-16T09:13:32Z</time>
      </trkpt>
      <trkpt lat="46.69335" lon="5.60811">
        <ele>474.54797363281</ele>
        <time>2012-05-16T09:13:34Z</time>
      </trkpt>
      <trkpt lat="46.6933" lon="5.60817">
        <ele>475.02868652344</ele>
        <time>2012-05-16T09:13:39Z</time>
      </trkpt>
      <trkpt lat="46.69329" lon="5.6082">
        <ele>475.02868652344</ele>
        <time>2012-05-16T09:13:40Z</time>
      </trkpt>
      <trkpt lat="46.69324" lon="5.60835">
        <ele>474.06726074219</ele>
        <time>2012-05-16T09:13:45Z</time>
      </trkpt>
      <trkpt lat="46.69324" lon="5.6084">
        <ele>473.58666992188</ele>
        <time>2012-05-16T09:13:50Z</time>
      </trkpt>
      <trkpt lat="46.69324" lon="5.6084">
        <ele>473.58666992188</ele>
        <time>2012-05-16T09:13:51Z</time>
      </trkpt>
      <trkpt lat="46.69331" lon="5.6084">
        <ele>473.58666992188</ele>
        <time>2012-05-16T09:13:56Z</time>
      </trkpt>
      <trkpt lat="46.69343" lon="5.60836">
        <ele>474.54797363281</ele>
        <time>2012-05-16T09:14:02Z</time>
      </trkpt>
      <trkpt lat="46.6936" lon="5.60831">
        <ele>475.50927734375</ele>
        <time>2012-05-16T09:14:09Z</time>
      </trkpt>
      <trkpt lat="46.69364" lon="5.60833">
        <ele>475.50927734375</ele>
        <time>2012-05-16T09:14:11Z</time>
      </trkpt>
      <trkpt lat="46.69376" lon="5.60833">
        <ele>474.54797363281</ele>
        <time>2012-05-16T09:14:16Z</time>
      </trkpt>
      <trkpt lat="46.69383" lon="5.60831">
        <ele>476.47058105469</ele>
        <time>2012-05-16T09:14:19Z</time>
      </trkpt>
      <trkpt lat="46.69398" lon="5.60826">
        <ele>478.39318847656</ele>
        <time>2012-05-16T09:14:25Z</time>
      </trkpt>
      <trkpt lat="46.69405" lon="5.60824">
        <ele>477.43188476562</ele>
        <time>2012-05-16T09:14:28Z</time>
      </trkpt>
      <trkpt lat="46.69411" lon="5.60823">
        <ele>476.95129394531</ele>
        <time>2012-05-16T09:14:32Z</time>
      </trkpt>
      <trkpt lat="46.69415" lon="5.60822">
        <ele>476.47058105469</ele>
        <time>2012-05-16T09:14:34Z</time>
      </trkpt>
      <trkpt lat="46.69424" lon="5.60822">
        <ele>475.98986816406</ele>
        <time>2012-05-16T09:14:38Z</time>
      </trkpt>
      <trkpt lat="46.69436" lon="5.60815">
        <ele>476.47058105469</ele>
        <time>2012-05-16T09:14:44Z</time>
      </trkpt>
      <trkpt lat="46.69439" lon="5.60813">
        <ele>477.43188476562</ele>
        <time>2012-05-16T09:14:46Z</time>
      </trkpt>
      <trkpt lat="46.69447" lon="5.60813">
        <ele>474.54797363281</ele>
        <time>2012-05-16T09:14:51Z</time>
      </trkpt>
      <trkpt lat="46.69452" lon="5.60809">
        <ele>474.06726074219</ele>
        <time>2012-05-16T09:14:55Z</time>
      </trkpt>
      <trkpt lat="46.69463" lon="5.60801">
        <ele>473.58666992188</ele>
        <time>2012-05-16T09:15:02Z</time>
      </trkpt>
      <trkpt lat="46.69465" lon="5.608">
        <ele>473.58666992188</ele>
        <time>2012-05-16T09:15:03Z</time>
      </trkpt>
      <trkpt lat="46.69476" lon="5.60792">
        <ele>476.47058105469</ele>
        <time>2012-05-16T09:15:09Z</time>
      </trkpt>
      <trkpt lat="46.69482" lon="5.60778">
        <ele>485.12243652344</ele>
        <time>2012-05-16T09:15:14Z</time>
      </trkpt>
      <trkpt lat="46.69492" lon="5.6077">
        <ele>487.52563476562</ele>
        <time>2012-05-16T09:15:19Z</time>
      </trkpt>
      <trkpt lat="46.69503" lon="5.60762">
        <ele>488.00646972656</ele>
        <time>2012-05-16T09:15:26Z</time>
      </trkpt>
      <trkpt lat="46.69506" lon="5.6076">
        <ele>489.92907714844</ele>
        <time>2012-05-16T09:15:28Z</time>
      </trkpt>
      <trkpt lat="46.69515" lon="5.6075">
        <ele>495.69689941406</ele>
        <time>2012-05-16T09:15:35Z</time>
      </trkpt>
      <trkpt lat="46.69522" lon="5.60749">
        <ele>494.25500488281</ele>
        <time>2012-05-16T09:15:39Z</time>
      </trkpt>
      <trkpt lat="46.69531" lon="5.60746">
        <ele>484.64184570312</ele>
        <time>2012-05-16T09:15:47Z</time>
      </trkpt>
      <trkpt lat="46.69534" lon="5.60745">
        <ele>483.19982910156</ele>
        <time>2012-05-16T09:15:50Z</time>
      </trkpt>
      <trkpt lat="46.69547" lon="5.60738">
        <ele>485.60302734375</ele>
        <time>2012-05-16T09:15:58Z</time>
      </trkpt>
      <trkpt lat="46.69555" lon="5.60734">
        <ele>479.83508300781</ele>
        <time>2012-05-16T09:16:03Z</time>
      </trkpt>
      <trkpt lat="46.69564" lon="5.60731">
        <ele>472.14465332031</ele>
        <time>2012-05-16T09:16:09Z</time>
      </trkpt>
      <trkpt lat="46.69575" lon="5.60734">
        <ele>470.22192382812</ele>
        <time>2012-05-16T09:16:14Z</time>
      </trkpt>
      <trkpt lat="46.69582" lon="5.60735">
        <ele>465.89611816406</ele>
        <time>2012-05-16T09:16:17Z</time>
      </trkpt>
      <trkpt lat="46.69595" lon="5.6073">
        <ele>466.857421875</ele>
        <time>2012-05-16T09:16:24Z</time>
      </trkpt>
      <trkpt lat="46.69606" lon="5.60724">
        <ele>468.78002929688</ele>
        <time>2012-05-16T09:16:29Z</time>
      </trkpt>
      <trkpt lat="46.69615" lon="5.6072">
        <ele>467.33813476562</ele>
        <time>2012-05-16T09:16:33Z</time>
      </trkpt>
      <trkpt lat="46.6962" lon="5.60717">
        <ele>470.70263671875</ele>
        <time>2012-05-16T09:16:35Z</time>
      </trkpt>
      <trkpt lat="46.69628" lon="5.60707">
        <ele>474.06726074219</ele>
        <time>2012-05-16T09:16:40Z</time>
      </trkpt>
      <trkpt lat="46.69637" lon="5.60699">
        <ele>474.54797363281</ele>
        <time>2012-05-16T09:16:45Z</time>
      </trkpt>
      <trkpt lat="46.69651" lon="5.60693">
        <ele>465.41552734375</ele>
        <time>2012-05-16T09:16:52Z</time>
      </trkpt>
      <trkpt lat="46.69656" lon="5.60691">
        <ele>460.60876464844</ele>
        <time>2012-05-16T09:16:55Z</time>
      </trkpt>
      <trkpt lat="46.69666" lon="5.60685">
        <ele>450.03442382812</ele>
        <time>2012-05-16T09:17:00Z</time>
      </trkpt>
      <trkpt lat="46.69676" lon="5.60675">
        <ele>441.86315917969</ele>
        <time>2012-05-16T09:17:07Z</time>
      </trkpt>
      <trkpt lat="46.69682" lon="5.60669">
        <ele>435.61450195312</ele>
        <time>2012-05-16T09:17:11Z</time>
      </trkpt>
      <trkpt lat="46.69689" lon="5.60655">
        <ele>437.05651855469</ele>
        <time>2012-05-16T09:17:17Z</time>
      </trkpt>
      <trkpt lat="46.69696" lon="5.60642">
        <ele>436.09521484375</ele>
        <time>2012-05-16T09:17:23Z</time>
      </trkpt>
      <trkpt lat="46.69703" lon="5.60632">
        <ele>436.57592773438</ele>
        <time>2012-05-16T09:17:27Z</time>
      </trkpt>
      <trkpt lat="46.69712" lon="5.60616">
        <ele>441.38244628906</ele>
        <time>2012-05-16T09:17:33Z</time>
      </trkpt>
      <trkpt lat="46.69721" lon="5.60601">
        <ele>444.7470703125</ele>
        <time>2012-05-16T09:17:38Z</time>
      </trkpt>
      <trkpt lat="46.69726" lon="5.60592">
        <ele>446.18908691406</ele>
        <time>2012-05-16T09:17:42Z</time>
      </trkpt>
      <trkpt lat="46.69732" lon="5.60578">
        <ele>445.70837402344</ele>
        <time>2012-05-16T09:17:46Z</time>
      </trkpt>
      <trkpt lat="46.69742" lon="5.60566">
        <ele>444.26647949219</ele>
        <time>2012-05-16T09:17:51Z</time>
      </trkpt>
      <trkpt lat="46.69757" lon="5.60558">
        <ele>438.01782226562</ele>
        <time>2012-05-16T09:17:57Z</time>
      </trkpt>
      <trkpt lat="46.69767" lon="5.60548">
        <ele>440.90185546875</ele>
        <time>2012-05-16T09:18:02Z</time>
      </trkpt>
      <trkpt lat="46.69777" lon="5.60543">
        <ele>438.97912597656</ele>
        <time>2012-05-16T09:18:07Z</time>
      </trkpt>
      <trkpt lat="46.6978" lon="5.60538">
        <ele>438.01782226562</ele>
        <time>2012-05-16T09:18:09Z</time>
      </trkpt>
      <trkpt lat="46.69793" lon="5.6053">
        <ele>435.13391113281</ele>
        <time>2012-05-16T09:18:16Z</time>
      </trkpt>
      <trkpt lat="46.69807" lon="5.60524">
        <ele>431.28857421875</ele>
        <time>2012-05-16T09:18:22Z</time>
      </trkpt>
      <trkpt lat="46.69817" lon="5.60517">
        <ele>437.05651855469</ele>
        <time>2012-05-16T09:18:26Z</time>
      </trkpt>
      <trkpt lat="46.69827" lon="5.60506">
        <ele>438.01782226562</ele>
        <time>2012-05-16T09:18:30Z</time>
      </trkpt>
      <trkpt lat="46.69836" lon="5.60495">
        <ele>441.86315917969</ele>
        <time>2012-05-16T09:18:34Z</time>
      </trkpt>
      <trkpt lat="46.69847" lon="5.60491">
        <ele>441.86315917969</ele>
        <time>2012-05-16T09:18:39Z</time>
      </trkpt>
      <trkpt lat="46.69852" lon="5.6049">
        <ele>443.78576660156</ele>
        <time>2012-05-16T09:18:41Z</time>
      </trkpt>
      <trkpt lat="46.69862" lon="5.60476">
        <ele>445.22766113281</ele>
        <time>2012-05-16T09:18:47Z</time>
      </trkpt>
      <trkpt lat="46.69875" lon="5.6047">
        <ele>451.95703125</ele>
        <time>2012-05-16T09:18:52Z</time>
      </trkpt>
      <trkpt lat="46.6988" lon="5.60462">
        <ele>448.59240722656</ele>
        <time>2012-05-16T09:18:56Z</time>
      </trkpt>
      <trkpt lat="46.69887" lon="5.60459">
        <ele>440.42126464844</ele>
        <time>2012-05-16T09:19:00Z</time>
      </trkpt>
      <trkpt lat="46.69896" lon="5.60453">
        <ele>437.05651855469</ele>
        <time>2012-05-16T09:19:04Z</time>
      </trkpt>
      <trkpt lat="46.69904" lon="5.60433">
        <ele>435.61450195312</ele>
        <time>2012-05-16T09:19:10Z</time>
      </trkpt>
      <trkpt lat="46.69917" lon="5.60428">
        <ele>438.01782226562</ele>
        <time>2012-05-16T09:19:15Z</time>
      </trkpt>
      <trkpt lat="46.69926" lon="5.60421">
        <ele>434.6533203125</ele>
        <time>2012-05-16T09:19:20Z</time>
      </trkpt>
      <trkpt lat="46.69936" lon="5.60412">
        <ele>435.13391113281</ele>
        <time>2012-05-16T09:19:25Z</time>
      </trkpt>
      <trkpt lat="46.69942" lon="5.60405">
        <ele>426.96276855469</ele>
        <time>2012-05-16T09:19:30Z</time>
      </trkpt>
      <trkpt lat="46.69947" lon="5.604">
        <ele>422.15600585938</ele>
        <time>2012-05-16T09:19:34Z</time>
      </trkpt>
      <trkpt lat="46.69954" lon="5.60394">
        <ele>415.42687988281</ele>
        <time>2012-05-16T09:19:38Z</time>
      </trkpt>
      <trkpt lat="46.6996" lon="5.60386">
        <ele>409.17834472656</ele>
        <time>2012-05-16T09:19:42Z</time>
      </trkpt>
      <trkpt lat="46.69963" lon="5.60382">
        <ele>406.77490234375</ele>
        <time>2012-05-16T09:19:44Z</time>
      </trkpt>
      <trkpt lat="46.69973" lon="5.60369">
        <ele>398.12316894531</ele>
        <time>2012-05-16T09:19:50Z</time>
      </trkpt>
      <trkpt lat="46.6998" lon="5.60362">
        <ele>389.47119140625</ele>
        <time>2012-05-16T09:19:54Z</time>
      </trkpt>
      <trkpt lat="46.69988" lon="5.60349">
        <ele>384.66479492188</ele>
        <time>2012-05-16T09:19:59Z</time>
      </trkpt>
      <trkpt lat="46.70001" lon="5.60341">
        <ele>378.41613769531</ele>
        <time>2012-05-16T09:20:05Z</time>
      </trkpt>
      <trkpt lat="46.70012" lon="5.60333">
        <ele>376.97424316406</ele>
        <time>2012-05-16T09:20:10Z</time>
      </trkpt>
      <trkpt lat="46.7002" lon="5.60326">
        <ele>374.57080078125</ele>
        <time>2012-05-16T09:20:14Z</time>
      </trkpt>
      <trkpt lat="46.70032" lon="5.60314">
        <ele>373.60949707031</ele>
        <time>2012-05-16T09:20:20Z</time>
      </trkpt>
      <trkpt lat="46.70046" lon="5.60306">
        <ele>373.12890625</ele>
        <time>2012-05-16T09:20:26Z</time>
      </trkpt>
      <trkpt lat="46.70054" lon="5.60299">
        <ele>373.12890625</ele>
        <time>2012-05-16T09:20:30Z</time>
      </trkpt>
      <trkpt lat="46.70056" lon="5.60298">
        <ele>372.64819335938</ele>
        <time>2012-05-16T09:20:31Z</time>
      </trkpt>
      <trkpt lat="46.70063" lon="5.60287">
        <ele>372.64819335938</ele>
        <time>2012-05-16T09:20:35Z</time>
      </trkpt>
      <trkpt lat="46.70073" lon="5.6027">
        <ele>369.76428222656</ele>
        <time>2012-05-16T09:20:42Z</time>
      </trkpt>
      <trkpt lat="46.70079" lon="5.6026">
        <ele>367.84155273438</ele>
        <time>2012-05-16T09:20:46Z</time>
      </trkpt>
      <trkpt lat="46.70088" lon="5.60247">
        <ele>363.99633789062</ele>
        <time>2012-05-16T09:20:52Z</time>
      </trkpt>
      <trkpt lat="46.70094" lon="5.60235">
        <ele>362.55432128906</ele>
        <time>2012-05-16T09:20:57Z</time>
      </trkpt>
      <trkpt lat="46.70101" lon="5.60227">
        <ele>360.15112304688</ele>
        <time>2012-05-16T09:21:01Z</time>
      </trkpt>
      <trkpt lat="46.70107" lon="5.60216">
        <ele>358.708984375</ele>
        <time>2012-05-16T09:21:05Z</time>
      </trkpt>
      <trkpt lat="46.70115" lon="5.60207">
        <ele>360.15112304688</ele>
        <time>2012-05-16T09:21:09Z</time>
      </trkpt>
      <trkpt lat="46.70131" lon="5.60194">
        <ele>360.15112304688</ele>
        <time>2012-05-16T09:21:16Z</time>
      </trkpt>
      <trkpt lat="46.70142" lon="5.60179">
        <ele>361.59313964844</ele>
        <time>2012-05-16T09:21:22Z</time>
      </trkpt>
      <trkpt lat="46.70151" lon="5.60167">
        <ele>363.51574707031</ele>
        <time>2012-05-16T09:21:27Z</time>
      </trkpt>
      <trkpt lat="46.70164" lon="5.60153">
        <ele>364.47692871094</ele>
        <time>2012-05-16T09:21:33Z</time>
      </trkpt>
      <trkpt lat="46.70176" lon="5.60148">
        <ele>365.9189453125</ele>
        <time>2012-05-16T09:21:38Z</time>
      </trkpt>
      <trkpt lat="46.70188" lon="5.60138">
        <ele>366.88024902344</ele>
        <time>2012-05-16T09:21:43Z</time>
      </trkpt>
      <trkpt lat="46.70202" lon="5.60126">
        <ele>366.39953613281</ele>
        <time>2012-05-16T09:21:49Z</time>
      </trkpt>
      <trkpt lat="46.70215" lon="5.60112">
        <ele>367.36096191406</ele>
        <time>2012-05-16T09:21:55Z</time>
      </trkpt>
      <trkpt lat="46.70229" lon="5.60101">
        <ele>367.36096191406</ele>
        <time>2012-05-16T09:22:01Z</time>
      </trkpt>
      <trkpt lat="46.70241" lon="5.60092">
        <ele>367.36096191406</ele>
        <time>2012-05-16T09:22:06Z</time>
      </trkpt>
      <trkpt lat="46.70255" lon="5.60083">
        <ele>365.9189453125</ele>
        <time>2012-05-16T09:22:12Z</time>
      </trkpt>
      <trkpt lat="46.70269" lon="5.60073">
        <ele>365.43835449219</ele>
        <time>2012-05-16T09:22:18Z</time>
      </trkpt>
      <trkpt lat="46.70279" lon="5.60063">
        <ele>364.95764160156</ele>
        <time>2012-05-16T09:22:23Z</time>
      </trkpt>
      <trkpt lat="46.70293" lon="5.60051">
        <ele>363.99633789062</ele>
        <time>2012-05-16T09:22:29Z</time>
      </trkpt>
      <trkpt lat="46.70303" lon="5.60042">
        <ele>363.51574707031</ele>
        <time>2012-05-16T09:22:34Z</time>
      </trkpt>
      <trkpt lat="46.70314" lon="5.60031">
        <ele>363.51574707031</ele>
        <time>2012-05-16T09:22:39Z</time>
      </trkpt>
      <trkpt lat="46.70316" lon="5.60028">
        <ele>363.51574707031</ele>
        <time>2012-05-16T09:22:40Z</time>
      </trkpt>
      <trkpt lat="46.70324" lon="5.60021">
        <ele>363.51574707031</ele>
        <time>2012-05-16T09:22:44Z</time>
      </trkpt>
      <trkpt lat="46.70337" lon="5.60011">
        <ele>362.07373046875</ele>
        <time>2012-05-16T09:22:50Z</time>
      </trkpt>
      <trkpt lat="46.70349" lon="5.59997">
        <ele>362.07373046875</ele>
        <time>2012-05-16T09:22:56Z</time>
      </trkpt>
      <trkpt lat="46.70363" lon="5.59981">
        <ele>361.59313964844</ele>
        <time>2012-05-16T09:23:03Z</time>
      </trkpt>
      <trkpt lat="46.70373" lon="5.59969">
        <ele>360.63171386719</ele>
        <time>2012-05-16T09:23:08Z</time>
      </trkpt>
      <trkpt lat="46.70387" lon="5.59954">
        <ele>360.63171386719</ele>
        <time>2012-05-16T09:23:15Z</time>
      </trkpt>
      <trkpt lat="46.70399" lon="5.59941">
        <ele>360.63171386719</ele>
        <time>2012-05-16T09:23:21Z</time>
      </trkpt>
      <trkpt lat="46.70409" lon="5.59931">
        <ele>361.11242675781</ele>
        <time>2012-05-16T09:23:26Z</time>
      </trkpt>
      <trkpt lat="46.70423" lon="5.59921">
        <ele>360.15112304688</ele>
        <time>2012-05-16T09:23:32Z</time>
      </trkpt>
      <trkpt lat="46.70435" lon="5.59914">
        <ele>357.74780273438</ele>
        <time>2012-05-16T09:23:37Z</time>
      </trkpt>
      <trkpt lat="46.7045" lon="5.5991">
        <ele>354.86376953125</ele>
        <time>2012-05-16T09:23:43Z</time>
      </trkpt>
      <trkpt lat="46.70463" lon="5.59903">
        <ele>351.97985839844</ele>
        <time>2012-05-16T09:23:49Z</time>
      </trkpt>
      <trkpt lat="46.70473" lon="5.59894">
        <ele>351.49914550781</ele>
        <time>2012-05-16T09:23:54Z</time>
      </trkpt>
      <trkpt lat="46.70483" lon="5.59881">
        <ele>351.49914550781</ele>
        <time>2012-05-16T09:23:59Z</time>
      </trkpt>
      <trkpt lat="46.70491" lon="5.59868">
        <ele>351.49914550781</ele>
        <time>2012-05-16T09:24:04Z</time>
      </trkpt>
      <trkpt lat="46.70499" lon="5.59854">
        <ele>353.421875</ele>
        <time>2012-05-16T09:24:09Z</time>
      </trkpt>
      <trkpt lat="46.70509" lon="5.59843">
        <ele>353.90258789062</ele>
        <time>2012-05-16T09:24:14Z</time>
      </trkpt>
      <trkpt lat="46.70517" lon="5.59835">
        <ele>353.90258789062</ele>
        <time>2012-05-16T09:24:18Z</time>
      </trkpt>
      <trkpt lat="46.70527" lon="5.59825">
        <ele>355.34448242188</ele>
        <time>2012-05-16T09:24:23Z</time>
      </trkpt>
      <trkpt lat="46.70539" lon="5.59822">
        <ele>355.34448242188</ele>
        <time>2012-05-16T09:24:28Z</time>
      </trkpt>
      <trkpt lat="46.7055" lon="5.59824">
        <ele>356.78637695312</ele>
        <time>2012-05-16T09:24:34Z</time>
      </trkpt>
      <trkpt lat="46.70554" lon="5.59826">
        <ele>357.74780273438</ele>
        <time>2012-05-16T09:24:38Z</time>
      </trkpt>
      <trkpt lat="46.70565" lon="5.5983">
        <ele>359.18969726562</ele>
        <time>2012-05-16T09:24:47Z</time>
      </trkpt>
      <trkpt lat="46.70573" lon="5.5983">
        <ele>358.708984375</ele>
        <time>2012-05-16T09:24:52Z</time>
      </trkpt>
      <trkpt lat="46.70581" lon="5.5983">
        <ele>358.22839355469</ele>
        <time>2012-05-16T09:24:58Z</time>
      </trkpt>
      <trkpt lat="46.70584" lon="5.59829">
        <ele>358.22839355469</ele>
        <time>2012-05-16T09:25:01Z</time>
      </trkpt>
      <trkpt lat="46.70591" lon="5.59828">
        <ele>358.22839355469</ele>
        <time>2012-05-16T09:25:06Z</time>
      </trkpt>
      <trkpt lat="46.70593" lon="5.59827">
        <ele>357.74780273438</ele>
        <time>2012-05-16T09:25:08Z</time>
      </trkpt>
      <trkpt lat="46.70598" lon="5.59827">
        <ele>357.26708984375</ele>
        <time>2012-05-16T09:25:13Z</time>
      </trkpt>
      <trkpt lat="46.70601" lon="5.59825">
        <ele>356.30578613281</ele>
        <time>2012-05-16T09:25:20Z</time>
      </trkpt>
      <trkpt lat="46.70603" lon="5.59826">
        <ele>356.30578613281</ele>
        <time>2012-05-16T09:25:21Z</time>
      </trkpt>
      <trkpt lat="46.70609" lon="5.59826">
        <ele>355.34448242188</ele>
        <time>2012-05-16T09:25:25Z</time>
      </trkpt>
      <trkpt lat="46.70621" lon="5.59825">
        <ele>353.90258789062</ele>
        <time>2012-05-16T09:25:31Z</time>
      </trkpt>
      <trkpt lat="46.70636" lon="5.59829">
        <ele>352.94116210938</ele>
        <time>2012-05-16T09:25:37Z</time>
      </trkpt>
      <trkpt lat="46.70648" lon="5.59834">
        <ele>351.97985839844</ele>
        <time>2012-05-16T09:25:42Z</time>
      </trkpt>
      <trkpt lat="46.70658" lon="5.59838">
        <ele>351.01843261719</ele>
        <time>2012-05-16T09:25:46Z</time>
      </trkpt>
      <trkpt lat="46.70669" lon="5.59841">
        <ele>350.53784179688</ele>
        <time>2012-05-16T09:25:51Z</time>
      </trkpt>
      <trkpt lat="46.70681" lon="5.59846">
        <ele>351.49914550781</ele>
        <time>2012-05-16T09:25:56Z</time>
      </trkpt>
      <trkpt lat="46.70694" lon="5.59852">
        <ele>353.421875</ele>
        <time>2012-05-16T09:26:02Z</time>
      </trkpt>
      <trkpt lat="46.70708" lon="5.59859">
        <ele>354.38317871094</ele>
        <time>2012-05-16T09:26:08Z</time>
      </trkpt>
      <trkpt lat="46.70724" lon="5.59861">
        <ele>355.34448242188</ele>
        <time>2012-05-16T09:26:14Z</time>
      </trkpt>
      <trkpt lat="46.70735" lon="5.59858">
        <ele>356.30578613281</ele>
        <time>2012-05-16T09:26:19Z</time>
      </trkpt>
      <trkpt lat="46.70747" lon="5.59853">
        <ele>355.34448242188</ele>
        <time>2012-05-16T09:26:24Z</time>
      </trkpt>
      <trkpt lat="46.70761" lon="5.59846">
        <ele>354.38317871094</ele>
        <time>2012-05-16T09:26:30Z</time>
      </trkpt>
      <trkpt lat="46.70773" lon="5.59837">
        <ele>354.86376953125</ele>
        <time>2012-05-16T09:26:35Z</time>
      </trkpt>
      <trkpt lat="46.70786" lon="5.59831">
        <ele>354.38317871094</ele>
        <time>2012-05-16T09:26:40Z</time>
      </trkpt>
      <trkpt lat="46.70797" lon="5.59824">
        <ele>353.90258789062</ele>
        <time>2012-05-16T09:26:45Z</time>
      </trkpt>
      <trkpt lat="46.70808" lon="5.59817">
        <ele>354.38317871094</ele>
        <time>2012-05-16T09:26:50Z</time>
      </trkpt>
      <trkpt lat="46.70816" lon="5.59811">
        <ele>353.421875</ele>
        <time>2012-05-16T09:26:54Z</time>
      </trkpt>
      <trkpt lat="46.70829" lon="5.59804">
        <ele>352.94116210938</ele>
        <time>2012-05-16T09:26:59Z</time>
      </trkpt>
      <trkpt lat="46.7084" lon="5.59797">
        <ele>353.421875</ele>
        <time>2012-05-16T09:27:04Z</time>
      </trkpt>
      <trkpt lat="46.7085" lon="5.59791">
        <ele>352.94116210938</ele>
        <time>2012-05-16T09:27:08Z</time>
      </trkpt>
      <trkpt lat="46.70861" lon="5.59783">
        <ele>351.97985839844</ele>
        <time>2012-05-16T09:27:13Z</time>
      </trkpt>
      <trkpt lat="46.70871" lon="5.59774">
        <ele>351.49914550781</ele>
        <time>2012-05-16T09:27:18Z</time>
      </trkpt>
      <trkpt lat="46.7088" lon="5.59762">
        <ele>351.49914550781</ele>
        <time>2012-05-16T09:27:23Z</time>
      </trkpt>
      <trkpt lat="46.7089" lon="5.59749">
        <ele>351.97985839844</ele>
        <time>2012-05-16T09:27:28Z</time>
      </trkpt>
      <trkpt lat="46.70897" lon="5.59738">
        <ele>353.421875</ele>
        <time>2012-05-16T09:27:32Z</time>
      </trkpt>
      <trkpt lat="46.70899" lon="5.59736">
        <ele>353.421875</ele>
        <time>2012-05-16T09:27:33Z</time>
      </trkpt>
      <trkpt lat="46.70907" lon="5.59725">
        <ele>354.86376953125</ele>
        <time>2012-05-16T09:27:37Z</time>
      </trkpt>
      <trkpt lat="46.70918" lon="5.59711">
        <ele>357.74780273438</ele>
        <time>2012-05-16T09:27:43Z</time>
      </trkpt>
      <trkpt lat="46.70921" lon="5.59708">
        <ele>358.22839355469</ele>
        <time>2012-05-16T09:27:45Z</time>
      </trkpt>
      <trkpt lat="46.70932" lon="5.59703">
        <ele>357.26708984375</ele>
        <time>2012-05-16T09:27:50Z</time>
      </trkpt>
      <trkpt lat="46.70948" lon="5.59698">
        <ele>353.90258789062</ele>
        <time>2012-05-16T09:27:57Z</time>
      </trkpt>
      <trkpt lat="46.70958" lon="5.5969">
        <ele>351.97985839844</ele>
        <time>2012-05-16T09:28:01Z</time>
      </trkpt>
      <trkpt lat="46.70965" lon="5.59683">
        <ele>351.97985839844</ele>
        <time>2012-05-16T09:28:05Z</time>
      </trkpt>
      <trkpt lat="46.70974" lon="5.59677">
        <ele>351.49914550781</ele>
        <time>2012-05-16T09:28:09Z</time>
      </trkpt>
      <trkpt lat="46.70985" lon="5.5967">
        <ele>351.01843261719</ele>
        <time>2012-05-16T09:28:14Z</time>
      </trkpt>
      <trkpt lat="46.70997" lon="5.59666">
        <ele>350.05725097656</ele>
        <time>2012-05-16T09:28:19Z</time>
      </trkpt>
      <trkpt lat="46.71009" lon="5.5966">
        <ele>348.615234375</ele>
        <time>2012-05-16T09:28:24Z</time>
      </trkpt>
      <trkpt lat="46.71016" lon="5.59659">
        <ele>347.17321777344</ele>
        <time>2012-05-16T09:28:27Z</time>
      </trkpt>
      <trkpt lat="46.71025" lon="5.59657">
        <ele>346.69262695312</ele>
        <time>2012-05-16T09:28:33Z</time>
      </trkpt>
      <trkpt lat="46.71033" lon="5.59654">
        <ele>348.13464355469</ele>
        <time>2012-05-16T09:28:39Z</time>
      </trkpt>
      <trkpt lat="46.71042" lon="5.59656">
        <ele>347.65393066406</ele>
        <time>2012-05-16T09:28:46Z</time>
      </trkpt>
      <trkpt lat="46.7105" lon="5.59659">
        <ele>349.09582519531</ele>
        <time>2012-05-16T09:28:52Z</time>
      </trkpt>
      <trkpt lat="46.71057" lon="5.59664">
        <ele>349.57653808594</ele>
        <time>2012-05-16T09:28:57Z</time>
      </trkpt>
      <trkpt lat="46.71057" lon="5.59672">
        <ele>350.53784179688</ele>
        <time>2012-05-16T09:29:03Z</time>
      </trkpt>
      <trkpt lat="46.71058" lon="5.59674">
        <ele>350.05725097656</ele>
        <time>2012-05-16T09:29:10Z</time>
      </trkpt>
      <trkpt lat="46.71053" lon="5.59677">
        <ele>351.49914550781</ele>
        <time>2012-05-16T09:29:17Z</time>
      </trkpt>
      <trkpt lat="46.7105" lon="5.59679">
        <ele>351.97985839844</ele>
        <time>2012-05-16T09:29:19Z</time>
      </trkpt>
      <trkpt lat="46.71046" lon="5.59686">
        <ele>353.421875</ele>
        <time>2012-05-16T09:29:24Z</time>
      </trkpt>
      <trkpt lat="46.71043" lon="5.597">
        <ele>354.38317871094</ele>
        <time>2012-05-16T09:29:33Z</time>
      </trkpt>
      <trkpt lat="46.71042" lon="5.59703">
        <ele>354.86376953125</ele>
        <time>2012-05-16T09:29:35Z</time>
      </trkpt>
      <trkpt lat="46.71043" lon="5.59711">
        <ele>354.38317871094</ele>
        <time>2012-05-16T09:29:39Z</time>
      </trkpt>
      <trkpt lat="46.71043" lon="5.59714">
        <ele>354.38317871094</ele>
        <time>2012-05-16T09:29:41Z</time>
      </trkpt>
      <trkpt lat="46.71042" lon="5.59724">
        <ele>356.78637695312</ele>
        <time>2012-05-16T09:29:47Z</time>
      </trkpt>
      <trkpt lat="46.71043" lon="5.5973">
        <ele>358.22839355469</ele>
        <time>2012-05-16T09:29:50Z</time>
      </trkpt>
      <trkpt lat="46.71046" lon="5.59742">
        <ele>358.708984375</ele>
        <time>2012-05-16T09:29:57Z</time>
      </trkpt>
      <trkpt lat="46.71049" lon="5.59752">
        <ele>358.708984375</ele>
        <time>2012-05-16T09:30:03Z</time>
      </trkpt>
      <trkpt lat="46.71053" lon="5.59767">
        <ele>359.67041015625</ele>
        <time>2012-05-16T09:30:11Z</time>
      </trkpt>
      <trkpt lat="46.71055" lon="5.59776">
        <ele>361.11242675781</ele>
        <time>2012-05-16T09:30:17Z</time>
      </trkpt>
      <trkpt lat="46.71059" lon="5.59784">
        <ele>362.55432128906</ele>
        <time>2012-05-16T09:30:22Z</time>
      </trkpt>
      <trkpt lat="46.71063" lon="5.59791">
        <ele>362.55432128906</ele>
        <time>2012-05-16T09:30:27Z</time>
      </trkpt>
      <trkpt lat="46.71072" lon="5.598">
        <ele>363.99633789062</ele>
        <time>2012-05-16T09:30:35Z</time>
      </trkpt>
      <trkpt lat="46.71082" lon="5.59807">
        <ele>366.88024902344</ele>
        <time>2012-05-16T09:30:42Z</time>
      </trkpt>
      <trkpt lat="46.71088" lon="5.5981">
        <ele>367.84155273438</ele>
        <time>2012-05-16T09:30:47Z</time>
      </trkpt>
      <trkpt lat="46.71098" lon="5.59815">
        <ele>368.322265625</ele>
        <time>2012-05-16T09:30:54Z</time>
      </trkpt>
      <trkpt lat="46.71108" lon="5.5982">
        <ele>370.24487304688</ele>
        <time>2012-05-16T09:31:01Z</time>
      </trkpt>
      <trkpt lat="46.71116" lon="5.59822">
        <ele>371.20629882812</ele>
        <time>2012-05-16T09:31:06Z</time>
      </trkpt>
      <trkpt lat="46.71124" lon="5.59824">
        <ele>371.20629882812</ele>
        <time>2012-05-16T09:31:12Z</time>
      </trkpt>
      <trkpt lat="46.71132" lon="5.59824">
        <ele>369.76428222656</ele>
        <time>2012-05-16T09:31:17Z</time>
      </trkpt>
      <trkpt lat="46.71141" lon="5.59825">
        <ele>369.76428222656</ele>
        <time>2012-05-16T09:31:23Z</time>
      </trkpt>
      <trkpt lat="46.71146" lon="5.59825">
        <ele>368.80297851562</ele>
        <time>2012-05-16T09:31:27Z</time>
      </trkpt>
      <trkpt lat="46.71157" lon="5.59826">
        <ele>370.24487304688</ele>
        <time>2012-05-16T09:31:35Z</time>
      </trkpt>
      <trkpt lat="46.71166" lon="5.59828">
        <ele>370.24487304688</ele>
        <time>2012-05-16T09:31:41Z</time>
      </trkpt>
      <trkpt lat="46.71178" lon="5.59833">
        <ele>370.7255859375</ele>
        <time>2012-05-16T09:31:49Z</time>
      </trkpt>
      <trkpt lat="46.71181" lon="5.59834">
        <ele>370.24487304688</ele>
        <time>2012-05-16T09:31:51Z</time>
      </trkpt>
      <trkpt lat="46.71191" lon="5.59836">
        <ele>369.76428222656</ele>
        <time>2012-05-16T09:31:58Z</time>
      </trkpt>
      <trkpt lat="46.71198" lon="5.59839">
        <ele>369.28369140625</ele>
        <time>2012-05-16T09:32:03Z</time>
      </trkpt>
      <trkpt lat="46.71206" lon="5.59842">
        <ele>369.76428222656</ele>
        <time>2012-05-16T09:32:09Z</time>
      </trkpt>
      <trkpt lat="46.71209" lon="5.59843">
        <ele>369.28369140625</ele>
        <time>2012-05-16T09:32:11Z</time>
      </trkpt>
      <trkpt lat="46.71216" lon="5.59844">
        <ele>370.7255859375</ele>
        <time>2012-05-16T09:32:16Z</time>
      </trkpt>
      <trkpt lat="46.71224" lon="5.59845">
        <ele>370.24487304688</ele>
        <time>2012-05-16T09:32:20Z</time>
      </trkpt>
      <trkpt lat="46.71244" lon="5.59851">
        <ele>369.28369140625</ele>
        <time>2012-05-16T09:32:28Z</time>
      </trkpt>
      <trkpt lat="46.71251" lon="5.59854">
        <ele>369.76428222656</ele>
        <time>2012-05-16T09:32:31Z</time>
      </trkpt>
      <trkpt lat="46.7126" lon="5.59858">
        <ele>370.24487304688</ele>
        <time>2012-05-16T09:32:36Z</time>
      </trkpt>
      <trkpt lat="46.71274" lon="5.59862">
        <ele>370.7255859375</ele>
        <time>2012-05-16T09:32:42Z</time>
      </trkpt>
      <trkpt lat="46.71287" lon="5.59865">
        <ele>370.7255859375</ele>
        <time>2012-05-16T09:32:47Z</time>
      </trkpt>
      <trkpt lat="46.71301" lon="5.59866">
        <ele>369.76428222656</ele>
        <time>2012-05-16T09:32:53Z</time>
      </trkpt>
      <trkpt lat="46.7131" lon="5.59867">
        <ele>369.76428222656</ele>
        <time>2012-05-16T09:32:57Z</time>
      </trkpt>
      <trkpt lat="46.71322" lon="5.5987">
        <ele>368.80297851562</ele>
        <time>2012-05-16T09:33:02Z</time>
      </trkpt>
      <trkpt lat="46.71335" lon="5.59872">
        <ele>367.36096191406</ele>
        <time>2012-05-16T09:33:07Z</time>
      </trkpt>
      <trkpt lat="46.71347" lon="5.59869">
        <ele>365.43835449219</ele>
        <time>2012-05-16T09:33:12Z</time>
      </trkpt>
      <trkpt lat="46.71354" lon="5.59864">
        <ele>364.95764160156</ele>
        <time>2012-05-16T09:33:15Z</time>
      </trkpt>
      <trkpt lat="46.71361" lon="5.59867">
        <ele>363.99633789062</ele>
        <time>2012-05-16T09:33:19Z</time>
      </trkpt>
      <trkpt lat="46.71365" lon="5.59879">
        <ele>363.51574707031</ele>
        <time>2012-05-16T09:33:26Z</time>
      </trkpt>
      <trkpt lat="46.71367" lon="5.59886">
        <ele>364.47692871094</ele>
        <time>2012-05-16T09:33:30Z</time>
      </trkpt>
      <trkpt lat="46.71369" lon="5.59893">
        <ele>363.99633789062</ele>
        <time>2012-05-16T09:33:34Z</time>
      </trkpt>
      <trkpt lat="46.71371" lon="5.59896">
        <ele>363.03503417969</ele>
        <time>2012-05-16T09:33:36Z</time>
      </trkpt>
      <trkpt lat="46.71375" lon="5.59904">
        <ele>363.99633789062</ele>
        <time>2012-05-16T09:33:41Z</time>
      </trkpt>
      <trkpt lat="46.71381" lon="5.5992">
        <ele>364.95764160156</ele>
        <time>2012-05-16T09:33:49Z</time>
      </trkpt>
      <trkpt lat="46.71387" lon="5.59933">
        <ele>367.84155273438</ele>
        <time>2012-05-16T09:33:56Z</time>
      </trkpt>
      <trkpt lat="46.71393" lon="5.59949">
        <ele>368.80297851562</ele>
        <time>2012-05-16T09:34:05Z</time>
      </trkpt>
      <trkpt lat="46.71397" lon="5.5996">
        <ele>369.76428222656</ele>
        <time>2012-05-16T09:34:11Z</time>
      </trkpt>
      <trkpt lat="46.71403" lon="5.59972">
        <ele>372.64819335938</ele>
        <time>2012-05-16T09:34:18Z</time>
      </trkpt>
      <trkpt lat="46.71409" lon="5.59982">
        <ele>376.01281738281</ele>
        <time>2012-05-16T09:34:25Z</time>
      </trkpt>
      <trkpt lat="46.71415" lon="5.59991">
        <ele>380.33874511719</ele>
        <time>2012-05-16T09:34:33Z</time>
      </trkpt>
      <trkpt lat="46.71421" lon="5.6">
        <ele>382.74206542969</ele>
        <time>2012-05-16T09:34:40Z</time>
      </trkpt>
      <trkpt lat="46.71431" lon="5.6001">
        <ele>385.14538574219</ele>
        <time>2012-05-16T09:34:48Z</time>
      </trkpt>
      <trkpt lat="46.71438" lon="5.60021">
        <ele>387.54858398438</ele>
        <time>2012-05-16T09:34:56Z</time>
      </trkpt>
      <trkpt lat="46.71439" lon="5.60023">
        <ele>387.54858398438</ele>
        <time>2012-05-16T09:34:57Z</time>
      </trkpt>
      <trkpt lat="46.71444" lon="5.60031">
        <ele>390.4326171875</ele>
        <time>2012-05-16T09:35:03Z</time>
      </trkpt>
      <trkpt lat="46.7145" lon="5.60037">
        <ele>391.87451171875</ele>
        <time>2012-05-16T09:35:08Z</time>
      </trkpt>
      <trkpt lat="46.71458" lon="5.60052">
        <ele>387.54858398438</ele>
        <time>2012-05-16T09:35:17Z</time>
      </trkpt>
      <trkpt lat="46.71464" lon="5.60061">
        <ele>389.47119140625</ele>
        <time>2012-05-16T09:35:23Z</time>
      </trkpt>
      <trkpt lat="46.71465" lon="5.60062">
        <ele>389.47119140625</ele>
        <time>2012-05-16T09:35:24Z</time>
      </trkpt>
      <trkpt lat="46.71467" lon="5.60068">
        <ele>391.39379882812</ele>
        <time>2012-05-16T09:35:28Z</time>
      </trkpt>
      <trkpt lat="46.71472" lon="5.60077">
        <ele>393.79724121094</ele>
        <time>2012-05-16T09:35:33Z</time>
      </trkpt>
      <trkpt lat="46.71475" lon="5.60082">
        <ele>391.87451171875</ele>
        <time>2012-05-16T09:35:36Z</time>
      </trkpt>
      <trkpt lat="46.71479" lon="5.60092">
        <ele>392.8359375</ele>
        <time>2012-05-16T09:35:42Z</time>
      </trkpt>
      <trkpt lat="46.71483" lon="5.60097">
        <ele>393.31652832031</ele>
        <time>2012-05-16T09:35:46Z</time>
      </trkpt>
      <trkpt lat="46.71487" lon="5.60102">
        <ele>392.8359375</ele>
        <time>2012-05-16T09:35:50Z</time>
      </trkpt>
      <trkpt lat="46.71491" lon="5.60113">
        <ele>390.91320800781</ele>
        <time>2012-05-16T09:35:56Z</time>
      </trkpt>
      <trkpt lat="46.71495" lon="5.60123">
        <ele>393.31652832031</ele>
        <time>2012-05-16T09:36:02Z</time>
      </trkpt>
      <trkpt lat="46.71499" lon="5.60133">
        <ele>389.47119140625</ele>
        <time>2012-05-16T09:36:08Z</time>
      </trkpt>
      <trkpt lat="46.71503" lon="5.60144">
        <ele>390.4326171875</ele>
        <time>2012-05-16T09:36:14Z</time>
      </trkpt>
      <trkpt lat="46.71504" lon="5.60145">
        <ele>390.91320800781</ele>
        <time>2012-05-16T09:36:15Z</time>
      </trkpt>
      <trkpt lat="46.71509" lon="5.60154">
        <ele>390.91320800781</ele>
        <time>2012-05-16T09:36:21Z</time>
      </trkpt>
      <trkpt lat="46.71513" lon="5.60163">
        <ele>396.68115234375</ele>
        <time>2012-05-16T09:36:27Z</time>
      </trkpt>
      <trkpt lat="46.71515" lon="5.60167">
        <ele>399.56506347656</ele>
        <time>2012-05-16T09:36:29Z</time>
      </trkpt>
      <trkpt lat="46.71518" lon="5.60173">
        <ele>401.96850585938</ele>
        <time>2012-05-16T09:36:33Z</time>
      </trkpt>
      <trkpt lat="46.71523" lon="5.60183">
        <ele>403.89111328125</ele>
        <time>2012-05-16T09:36:39Z</time>
      </trkpt>
      <trkpt lat="46.71527" lon="5.60189">
        <ele>403.41040039062</ele>
        <time>2012-05-16T09:36:44Z</time>
      </trkpt>
      <trkpt lat="46.71532" lon="5.60196">
        <ele>403.89111328125</ele>
        <time>2012-05-16T09:36:49Z</time>
      </trkpt>
      <trkpt lat="46.7154" lon="5.60208">
        <ele>406.29431152344</ele>
        <time>2012-05-16T09:36:57Z</time>
      </trkpt>
      <trkpt lat="46.71544" lon="5.60212">
        <ele>406.77490234375</ele>
        <time>2012-05-16T09:37:00Z</time>
      </trkpt>
      <trkpt lat="46.7155" lon="5.60224">
        <ele>406.77490234375</ele>
        <time>2012-05-16T09:37:07Z</time>
      </trkpt>
      <trkpt lat="46.71557" lon="5.60233">
        <ele>408.21704101562</ele>
        <time>2012-05-16T09:37:14Z</time>
      </trkpt>
      <trkpt lat="46.71563" lon="5.60242">
        <ele>410.1396484375</ele>
        <time>2012-05-16T09:37:20Z</time>
      </trkpt>
      <trkpt lat="46.71568" lon="5.60247">
        <ele>409.65905761719</ele>
        <time>2012-05-16T09:37:25Z</time>
      </trkpt>
      <trkpt lat="46.71576" lon="5.60255">
        <ele>412.54284667969</ele>
        <time>2012-05-16T09:37:32Z</time>
      </trkpt>
      <trkpt lat="46.71582" lon="5.60262">
        <ele>416.38818359375</ele>
        <time>2012-05-16T09:37:38Z</time>
      </trkpt>
      <trkpt lat="46.71589" lon="5.60268">
        <ele>416.86889648438</ele>
        <time>2012-05-16T09:37:43Z</time>
      </trkpt>
      <trkpt lat="46.71596" lon="5.60275">
        <ele>415.90747070312</ele>
        <time>2012-05-16T09:37:49Z</time>
      </trkpt>
      <trkpt lat="46.71599" lon="5.60277">
        <ele>415.90747070312</ele>
        <time>2012-05-16T09:37:51Z</time>
      </trkpt>
      <trkpt lat="46.71607" lon="5.6028">
        <ele>417.83020019531</ele>
        <time>2012-05-16T09:37:56Z</time>
      </trkpt>
      <trkpt lat="46.71616" lon="5.60284">
        <ele>417.83020019531</ele>
        <time>2012-05-16T09:38:03Z</time>
      </trkpt>
      <trkpt lat="46.71621" lon="5.60289">
        <ele>418.31079101562</ele>
        <time>2012-05-16T09:38:07Z</time>
      </trkpt>
      <trkpt lat="46.71626" lon="5.60292">
        <ele>418.79150390625</ele>
        <time>2012-05-16T09:38:12Z</time>
      </trkpt>
      <trkpt lat="46.71634" lon="5.60295">
        <ele>417.83020019531</ele>
        <time>2012-05-16T09:38:19Z</time>
      </trkpt>
      <trkpt lat="46.71635" lon="5.60296">
        <ele>417.83020019531</ele>
        <time>2012-05-16T09:38:20Z</time>
      </trkpt>
      <trkpt lat="46.71646" lon="5.60302">
        <ele>416.38818359375</ele>
        <time>2012-05-16T09:38:26Z</time>
      </trkpt>
      <trkpt lat="46.71656" lon="5.60305">
        <ele>417.349609375</ele>
        <time>2012-05-16T09:38:30Z</time>
      </trkpt>
      <trkpt lat="46.71668" lon="5.60308">
        <ele>415.90747070312</ele>
        <time>2012-05-16T09:38:35Z</time>
      </trkpt>
      <trkpt lat="46.71677" lon="5.60311">
        <ele>415.90747070312</ele>
        <time>2012-05-16T09:38:39Z</time>
      </trkpt>
      <trkpt lat="46.71681" lon="5.60312">
        <ele>414.94616699219</ele>
        <time>2012-05-16T09:38:41Z</time>
      </trkpt>
      <trkpt lat="46.71694" lon="5.60315">
        <ele>414.46545410156</ele>
        <time>2012-05-16T09:38:46Z</time>
      </trkpt>
      <trkpt lat="46.71696" lon="5.60316">
        <ele>414.46545410156</ele>
        <time>2012-05-16T09:38:47Z</time>
      </trkpt>
      <trkpt lat="46.7171" lon="5.60318">
        <ele>417.349609375</ele>
        <time>2012-05-16T09:38:53Z</time>
      </trkpt>
      <trkpt lat="46.71717" lon="5.6032">
        <ele>417.83020019531</ele>
        <time>2012-05-16T09:38:56Z</time>
      </trkpt>
      <trkpt lat="46.71728" lon="5.60327">
        <ele>420.71411132812</ele>
        <time>2012-05-16T09:39:02Z</time>
      </trkpt>
      <trkpt lat="46.7174" lon="5.60336">
        <ele>420.71411132812</ele>
        <time>2012-05-16T09:39:08Z</time>
      </trkpt>
      <trkpt lat="46.7175" lon="5.60343">
        <ele>419.75280761719</ele>
        <time>2012-05-16T09:39:13Z</time>
      </trkpt>
      <trkpt lat="46.7176" lon="5.60351">
        <ele>419.75280761719</ele>
        <time>2012-05-16T09:39:18Z</time>
      </trkpt>
      <trkpt lat="46.71764" lon="5.60352">
        <ele>419.75280761719</ele>
        <time>2012-05-16T09:39:20Z</time>
      </trkpt>
      <trkpt lat="46.71773" lon="5.60355">
        <ele>419.27221679688</ele>
        <time>2012-05-16T09:39:24Z</time>
      </trkpt>
      <trkpt lat="46.71783" lon="5.6036">
        <ele>419.27221679688</ele>
        <time>2012-05-16T09:39:29Z</time>
      </trkpt>
      <trkpt lat="46.71796" lon="5.60366">
        <ele>417.83020019531</ele>
        <time>2012-05-16T09:39:35Z</time>
      </trkpt>
      <trkpt lat="46.71807" lon="5.60372">
        <ele>416.86889648438</ele>
        <time>2012-05-16T09:39:40Z</time>
      </trkpt>
      <trkpt lat="46.71819" lon="5.6038">
        <ele>416.86889648438</ele>
        <time>2012-05-16T09:39:45Z</time>
      </trkpt>
      <trkpt lat="46.7183" lon="5.60387">
        <ele>415.42687988281</ele>
        <time>2012-05-16T09:39:50Z</time>
      </trkpt>
      <trkpt lat="46.71841" lon="5.60394">
        <ele>414.94616699219</ele>
        <time>2012-05-16T09:39:55Z</time>
      </trkpt>
      <trkpt lat="46.7185" lon="5.60398">
        <ele>413.50427246094</ele>
        <time>2012-05-16T09:39:59Z</time>
      </trkpt>
      <trkpt lat="46.71862" lon="5.60402">
        <ele>415.90747070312</ele>
        <time>2012-05-16T09:40:04Z</time>
      </trkpt>
      <trkpt lat="46.71871" lon="5.60408">
        <ele>416.38818359375</ele>
        <time>2012-05-16T09:40:08Z</time>
      </trkpt>
      <trkpt lat="46.7188" lon="5.60413">
        <ele>416.38818359375</ele>
        <time>2012-05-16T09:40:12Z</time>
      </trkpt>
      <trkpt lat="46.71891" lon="5.60422">
        <ele>416.86889648438</ele>
        <time>2012-05-16T09:40:18Z</time>
      </trkpt>
      <trkpt lat="46.71899" lon="5.60428">
        <ele>418.79150390625</ele>
        <time>2012-05-16T09:40:23Z</time>
      </trkpt>
      <trkpt lat="46.71909" lon="5.60436">
        <ele>420.2333984375</ele>
        <time>2012-05-16T09:40:28Z</time>
      </trkpt>
      <trkpt lat="46.7192" lon="5.60444">
        <ele>422.15600585938</ele>
        <time>2012-05-16T09:40:33Z</time>
      </trkpt>
      <trkpt lat="46.71931" lon="5.6045">
        <ele>422.15600585938</ele>
        <time>2012-05-16T09:40:38Z</time>
      </trkpt>
      <trkpt lat="46.71933" lon="5.60451">
        <ele>421.67541503906</ele>
        <time>2012-05-16T09:40:39Z</time>
      </trkpt>
      <trkpt lat="46.71946" lon="5.6046">
        <ele>421.19482421875</ele>
        <time>2012-05-16T09:40:45Z</time>
      </trkpt>
      <trkpt lat="46.71948" lon="5.60461">
        <ele>421.19482421875</ele>
        <time>2012-05-16T09:40:46Z</time>
      </trkpt>
      <trkpt lat="46.71955" lon="5.60465">
        <ele>419.75280761719</ele>
        <time>2012-05-16T09:40:49Z</time>
      </trkpt>
      <trkpt lat="46.71963" lon="5.60471">
        <ele>419.27221679688</ele>
        <time>2012-05-16T09:40:53Z</time>
      </trkpt>
      <trkpt lat="46.71974" lon="5.6048">
        <ele>421.19482421875</ele>
        <time>2012-05-16T09:40:58Z</time>
      </trkpt>
      <trkpt lat="46.71984" lon="5.6049">
        <ele>421.67541503906</ele>
        <time>2012-05-16T09:41:03Z</time>
      </trkpt>
      <trkpt lat="46.71994" lon="5.605">
        <ele>423.11743164062</ele>
        <time>2012-05-16T09:41:08Z</time>
      </trkpt>
      <trkpt lat="46.71996" lon="5.60502">
        <ele>423.59802246094</ele>
        <time>2012-05-16T09:41:09Z</time>
      </trkpt>
      <trkpt lat="46.72002" lon="5.60512">
        <ele>425.52075195312</ele>
        <time>2012-05-16T09:41:14Z</time>
      </trkpt>
      <trkpt lat="46.7201" lon="5.60523">
        <ele>424.07873535156</ele>
        <time>2012-05-16T09:41:18Z</time>
      </trkpt>
      <trkpt lat="46.7202" lon="5.60534">
        <ele>424.07873535156</ele>
        <time>2012-05-16T09:41:23Z</time>
      </trkpt>
      <trkpt lat="46.72021" lon="5.60535">
        <ele>424.55944824219</ele>
        <time>2012-05-16T09:41:24Z</time>
      </trkpt>
      <trkpt lat="46.7203" lon="5.60546">
        <ele>425.52075195312</ele>
        <time>2012-05-16T09:41:30Z</time>
      </trkpt>
      <trkpt lat="46.72038" lon="5.60553">
        <ele>423.59802246094</ele>
        <time>2012-05-16T09:41:34Z</time>
      </trkpt>
      <trkpt lat="46.72052" lon="5.60561">
        <ele>422.63671875</ele>
        <time>2012-05-16T09:41:40Z</time>
      </trkpt>
      <trkpt lat="46.72065" lon="5.6057">
        <ele>420.71411132812</ele>
        <time>2012-05-16T09:41:46Z</time>
      </trkpt>
      <trkpt lat="46.72078" lon="5.60575">
        <ele>419.27221679688</ele>
        <time>2012-05-16T09:41:51Z</time>
      </trkpt>
      <trkpt lat="46.72087" lon="5.60578">
        <ele>419.27221679688</ele>
        <time>2012-05-16T09:41:55Z</time>
      </trkpt>
      <trkpt lat="46.72099" lon="5.60581">
        <ele>419.75280761719</ele>
        <time>2012-05-16T09:42:00Z</time>
      </trkpt>
      <trkpt lat="46.72105" lon="5.60585">
        <ele>421.19482421875</ele>
        <time>2012-05-16T09:42:03Z</time>
      </trkpt>
      <trkpt lat="46.72114" lon="5.60594">
        <ele>420.71411132812</ele>
        <time>2012-05-16T09:42:07Z</time>
      </trkpt>
      <trkpt lat="46.72128" lon="5.60605">
        <ele>416.86889648438</ele>
        <time>2012-05-16T09:42:14Z</time>
      </trkpt>
      <trkpt lat="46.72144" lon="5.60606">
        <ele>415.90747070312</ele>
        <time>2012-05-16T09:42:19Z</time>
      </trkpt>
      <trkpt lat="46.72156" lon="5.6061">
        <ele>415.90747070312</ele>
        <time>2012-05-16T09:42:24Z</time>
      </trkpt>
      <trkpt lat="46.72168" lon="5.60612">
        <ele>416.86889648438</ele>
        <time>2012-05-16T09:42:29Z</time>
      </trkpt>
      <trkpt lat="46.72179" lon="5.60616">
        <ele>418.79150390625</ele>
        <time>2012-05-16T09:42:34Z</time>
      </trkpt>
      <trkpt lat="46.72189" lon="5.60622">
        <ele>421.67541503906</ele>
        <time>2012-05-16T09:42:39Z</time>
      </trkpt>
      <trkpt lat="46.722" lon="5.60627">
        <ele>423.11743164062</ele>
        <time>2012-05-16T09:42:44Z</time>
      </trkpt>
      <trkpt lat="46.72202" lon="5.60628">
        <ele>423.59802246094</ele>
        <time>2012-05-16T09:42:45Z</time>
      </trkpt>
      <trkpt lat="46.7221" lon="5.60633">
        <ele>423.59802246094</ele>
        <time>2012-05-16T09:42:49Z</time>
      </trkpt>
      <trkpt lat="46.72224" lon="5.60639">
        <ele>421.19482421875</ele>
        <time>2012-05-16T09:42:55Z</time>
      </trkpt>
      <trkpt lat="46.72235" lon="5.60647">
        <ele>417.349609375</ele>
        <time>2012-05-16T09:43:00Z</time>
      </trkpt>
      <trkpt lat="46.72242" lon="5.60651">
        <ele>416.38818359375</ele>
        <time>2012-05-16T09:43:03Z</time>
      </trkpt>
      <trkpt lat="46.72249" lon="5.60657">
        <ele>415.90747070312</ele>
        <time>2012-05-16T09:43:06Z</time>
      </trkpt>
      <trkpt lat="46.72263" lon="5.60664">
        <ele>413.50427246094</ele>
        <time>2012-05-16T09:43:12Z</time>
      </trkpt>
      <trkpt lat="46.72264" lon="5.60665">
        <ele>413.50427246094</ele>
        <time>2012-05-16T09:43:13Z</time>
      </trkpt>
      <trkpt lat="46.72277" lon="5.60675">
        <ele>412.06225585938</ele>
        <time>2012-05-16T09:43:19Z</time>
      </trkpt>
      <trkpt lat="46.7228" lon="5.60678">
        <ele>412.54284667969</ele>
        <time>2012-05-16T09:43:21Z</time>
      </trkpt>
      <trkpt lat="46.7229" lon="5.6069">
        <ele>418.31079101562</ele>
        <time>2012-05-16T09:43:27Z</time>
      </trkpt>
      <trkpt lat="46.72295" lon="5.60699">
        <ele>419.27221679688</ele>
        <time>2012-05-16T09:43:31Z</time>
      </trkpt>
      <trkpt lat="46.72301" lon="5.60705">
        <ele>421.19482421875</ele>
        <time>2012-05-16T09:43:34Z</time>
      </trkpt>
      <trkpt lat="46.72309" lon="5.60714">
        <ele>426.00134277344</ele>
        <time>2012-05-16T09:43:39Z</time>
      </trkpt>
      <trkpt lat="46.72321" lon="5.60723">
        <ele>429.36596679688</ele>
        <time>2012-05-16T09:43:45Z</time>
      </trkpt>
      <trkpt lat="46.72327" lon="5.6073">
        <ele>428.88537597656</ele>
        <time>2012-05-16T09:43:50Z</time>
      </trkpt>
      <trkpt lat="46.72328" lon="5.60731">
        <ele>428.40466308594</ele>
        <time>2012-05-16T09:43:51Z</time>
      </trkpt>
      <trkpt lat="46.72336" lon="5.60737">
        <ele>428.40466308594</ele>
        <time>2012-05-16T09:43:56Z</time>
      </trkpt>
      <trkpt lat="46.72344" lon="5.60747">
        <ele>426.96276855469</ele>
        <time>2012-05-16T09:44:03Z</time>
      </trkpt>
      <trkpt lat="46.7235" lon="5.60753">
        <ele>428.40466308594</ele>
        <time>2012-05-16T09:44:07Z</time>
      </trkpt>
      <trkpt lat="46.72361" lon="5.60765">
        <ele>433.69189453125</ele>
        <time>2012-05-16T09:44:13Z</time>
      </trkpt>
      <trkpt lat="46.72367" lon="5.60772">
        <ele>435.61450195312</ele>
        <time>2012-05-16T09:44:17Z</time>
      </trkpt>
      <trkpt lat="46.72377" lon="5.60779">
        <ele>436.09521484375</ele>
        <time>2012-05-16T09:44:24Z</time>
      </trkpt>
      <trkpt lat="46.72385" lon="5.60783">
        <ele>436.57592773438</ele>
        <time>2012-05-16T09:44:29Z</time>
      </trkpt>
      <trkpt lat="46.72392" lon="5.60788">
        <ele>433.69189453125</ele>
        <time>2012-05-16T09:44:34Z</time>
      </trkpt>
      <trkpt lat="46.72398" lon="5.60792">
        <ele>432.73071289062</ele>
        <time>2012-05-16T09:44:39Z</time>
      </trkpt>
      <trkpt lat="46.72403" lon="5.60796">
        <ele>431.76916503906</ele>
        <time>2012-05-16T09:44:46Z</time>
      </trkpt>
      <trkpt lat="46.72411" lon="5.60801">
        <ele>432.25</ele>
        <time>2012-05-16T09:44:51Z</time>
      </trkpt>
      <trkpt lat="46.72415" lon="5.60805">
        <ele>432.25</ele>
        <time>2012-05-16T09:44:53Z</time>
      </trkpt>
      <trkpt lat="46.72418" lon="5.60809">
        <ele>432.73071289062</ele>
        <time>2012-05-16T09:44:55Z</time>
      </trkpt>
      <trkpt lat="46.72429" lon="5.60816">
        <ele>432.73071289062</ele>
        <time>2012-05-16T09:45:01Z</time>
      </trkpt>
      <trkpt lat="46.72438" lon="5.60819">
        <ele>433.21130371094</ele>
        <time>2012-05-16T09:45:05Z</time>
      </trkpt>
      <trkpt lat="46.72449" lon="5.60824">
        <ele>434.6533203125</ele>
        <time>2012-05-16T09:45:09Z</time>
      </trkpt>
      <trkpt lat="46.72463" lon="5.60833">
        <ele>438.01782226562</ele>
        <time>2012-05-16T09:45:15Z</time>
      </trkpt>
      <trkpt lat="46.72474" lon="5.6084">
        <ele>438.01782226562</ele>
        <time>2012-05-16T09:45:20Z</time>
      </trkpt>
      <trkpt lat="46.72485" lon="5.60846">
        <ele>438.97912597656</ele>
        <time>2012-05-16T09:45:25Z</time>
      </trkpt>
      <trkpt lat="46.72486" lon="5.60847">
        <ele>439.45971679688</ele>
        <time>2012-05-16T09:45:26Z</time>
      </trkpt>
      <trkpt lat="46.72498" lon="5.60855">
        <ele>437.05651855469</ele>
        <time>2012-05-16T09:45:31Z</time>
      </trkpt>
      <trkpt lat="46.72503" lon="5.60858">
        <ele>436.57592773438</ele>
        <time>2012-05-16T09:45:33Z</time>
      </trkpt>
      <trkpt lat="46.7252" lon="5.60868">
        <ele>435.61450195312</ele>
        <time>2012-05-16T09:45:40Z</time>
      </trkpt>
      <trkpt lat="46.72531" lon="5.60877">
        <ele>435.13391113281</ele>
        <time>2012-05-16T09:45:45Z</time>
      </trkpt>
      <trkpt lat="46.72544" lon="5.6089">
        <ele>432.25</ele>
        <time>2012-05-16T09:45:51Z</time>
      </trkpt>
      <trkpt lat="46.72556" lon="5.609">
        <ele>431.28857421875</ele>
        <time>2012-05-16T09:45:56Z</time>
      </trkpt>
      <trkpt lat="46.72565" lon="5.60907">
        <ele>429.36596679688</ele>
        <time>2012-05-16T09:46:00Z</time>
      </trkpt>
      <trkpt lat="46.72576" lon="5.60916">
        <ele>426.48205566406</ele>
        <time>2012-05-16T09:46:05Z</time>
      </trkpt>
      <trkpt lat="46.72589" lon="5.60924">
        <ele>424.07873535156</ele>
        <time>2012-05-16T09:46:10Z</time>
      </trkpt>
      <trkpt lat="46.72598" lon="5.60932">
        <ele>422.15600585938</ele>
        <time>2012-05-16T09:46:15Z</time>
      </trkpt>
      <trkpt lat="46.7261" lon="5.6094">
        <ele>421.19482421875</ele>
        <time>2012-05-16T09:46:20Z</time>
      </trkpt>
      <trkpt lat="46.72626" lon="5.60951">
        <ele>420.71411132812</ele>
        <time>2012-05-16T09:46:27Z</time>
      </trkpt>
      <trkpt lat="46.72638" lon="5.60959">
        <ele>419.75280761719</ele>
        <time>2012-05-16T09:46:32Z</time>
      </trkpt>
      <trkpt lat="46.72649" lon="5.60966">
        <ele>419.27221679688</ele>
        <time>2012-05-16T09:46:37Z</time>
      </trkpt>
      <trkpt lat="46.72659" lon="5.60975">
        <ele>417.349609375</ele>
        <time>2012-05-16T09:46:42Z</time>
      </trkpt>
      <trkpt lat="46.7267" lon="5.60979">
        <ele>416.86889648438</ele>
        <time>2012-05-16T09:46:46Z</time>
      </trkpt>
      <trkpt lat="46.72681" lon="5.60986">
        <ele>415.90747070312</ele>
        <time>2012-05-16T09:46:51Z</time>
      </trkpt>
      <trkpt lat="46.72692" lon="5.60995">
        <ele>415.42687988281</ele>
        <time>2012-05-16T09:46:56Z</time>
      </trkpt>
      <trkpt lat="46.72703" lon="5.61004">
        <ele>414.46545410156</ele>
        <time>2012-05-16T09:47:01Z</time>
      </trkpt>
      <trkpt lat="46.7271" lon="5.61011">
        <ele>415.90747070312</ele>
        <time>2012-05-16T09:47:05Z</time>
      </trkpt>
      <trkpt lat="46.72724" lon="5.61021">
        <ele>417.349609375</ele>
        <time>2012-05-16T09:47:11Z</time>
      </trkpt>
      <trkpt lat="46.72734" lon="5.6103">
        <ele>417.349609375</ele>
        <time>2012-05-16T09:47:16Z</time>
      </trkpt>
      <trkpt lat="46.72743" lon="5.61039">
        <ele>417.83020019531</ele>
        <time>2012-05-16T09:47:21Z</time>
      </trkpt>
      <trkpt lat="46.72752" lon="5.61045">
        <ele>418.31079101562</ele>
        <time>2012-05-16T09:47:25Z</time>
      </trkpt>
      <trkpt lat="46.72761" lon="5.61054">
        <ele>419.27221679688</ele>
        <time>2012-05-16T09:47:30Z</time>
      </trkpt>
      <trkpt lat="46.72775" lon="5.61065">
        <ele>418.79150390625</ele>
        <time>2012-05-16T09:47:36Z</time>
      </trkpt>
      <trkpt lat="46.72785" lon="5.61072">
        <ele>419.75280761719</ele>
        <time>2012-05-16T09:47:41Z</time>
      </trkpt>
      <trkpt lat="46.72792" lon="5.61078">
        <ele>421.19482421875</ele>
        <time>2012-05-16T09:47:45Z</time>
      </trkpt>
      <trkpt lat="46.72804" lon="5.61089">
        <ele>420.71411132812</ele>
        <time>2012-05-16T09:47:51Z</time>
      </trkpt>
      <trkpt lat="46.72815" lon="5.61101">
        <ele>419.75280761719</ele>
        <time>2012-05-16T09:47:57Z</time>
      </trkpt>
      <trkpt lat="46.72824" lon="5.6111">
        <ele>419.27221679688</ele>
        <time>2012-05-16T09:48:01Z</time>
      </trkpt>
      <trkpt lat="46.72832" lon="5.61115">
        <ele>417.83020019531</ele>
        <time>2012-05-16T09:48:05Z</time>
      </trkpt>
      <trkpt lat="46.72845" lon="5.6112">
        <ele>416.38818359375</ele>
        <time>2012-05-16T09:48:11Z</time>
      </trkpt>
      <trkpt lat="46.7286" lon="5.61124">
        <ele>414.94616699219</ele>
        <time>2012-05-16T09:48:16Z</time>
      </trkpt>
      <trkpt lat="46.72869" lon="5.61127">
        <ele>413.50427246094</ele>
        <time>2012-05-16T09:48:20Z</time>
      </trkpt>
      <trkpt lat="46.72881" lon="5.61135">
        <ele>413.50427246094</ele>
        <time>2012-05-16T09:48:26Z</time>
      </trkpt>
      <trkpt lat="46.7289" lon="5.61144">
        <ele>413.02355957031</ele>
        <time>2012-05-16T09:48:30Z</time>
      </trkpt>
      <trkpt lat="46.72895" lon="5.61151">
        <ele>413.02355957031</ele>
        <time>2012-05-16T09:48:33Z</time>
      </trkpt>
      <trkpt lat="46.72905" lon="5.61159">
        <ele>413.50427246094</ele>
        <time>2012-05-16T09:48:38Z</time>
      </trkpt>
      <trkpt lat="46.7291" lon="5.61162">
        <ele>413.50427246094</ele>
        <time>2012-05-16T09:48:40Z</time>
      </trkpt>
      <trkpt lat="46.72924" lon="5.61169">
        <ele>413.50427246094</ele>
        <time>2012-05-16T09:48:46Z</time>
      </trkpt>
      <trkpt lat="46.72935" lon="5.61175">
        <ele>413.02355957031</ele>
        <time>2012-05-16T09:48:51Z</time>
      </trkpt>
      <trkpt lat="46.7295" lon="5.61183">
        <ele>411.10095214844</ele>
        <time>2012-05-16T09:48:57Z</time>
      </trkpt>
      <trkpt lat="46.72959" lon="5.61186">
        <ele>411.10095214844</ele>
        <time>2012-05-16T09:49:01Z</time>
      </trkpt>
      <trkpt lat="46.72976" lon="5.61193">
        <ele>410.62023925781</ele>
        <time>2012-05-16T09:49:08Z</time>
      </trkpt>
      <trkpt lat="46.7299" lon="5.612">
        <ele>410.1396484375</ele>
        <time>2012-05-16T09:49:14Z</time>
      </trkpt>
      <trkpt lat="46.73003" lon="5.61207">
        <ele>410.1396484375</ele>
        <time>2012-05-16T09:49:20Z</time>
      </trkpt>
      <trkpt lat="46.73013" lon="5.61216">
        <ele>407.736328125</ele>
        <time>2012-05-16T09:49:24Z</time>
      </trkpt>
      <trkpt lat="46.73025" lon="5.61226">
        <ele>405.3330078125</ele>
        <time>2012-05-16T09:49:29Z</time>
      </trkpt>
      <trkpt lat="46.73033" lon="5.61235">
        <ele>403.89111328125</ele>
        <time>2012-05-16T09:49:33Z</time>
      </trkpt>
      <trkpt lat="46.73043" lon="5.61248">
        <ele>401.48779296875</ele>
        <time>2012-05-16T09:49:38Z</time>
      </trkpt>
      <trkpt lat="46.73051" lon="5.61262">
        <ele>400.0458984375</ele>
        <time>2012-05-16T09:49:43Z</time>
      </trkpt>
      <trkpt lat="46.73059" lon="5.61275">
        <ele>399.08435058594</ele>
        <time>2012-05-16T09:49:48Z</time>
      </trkpt>
      <trkpt lat="46.73067" lon="5.61282">
        <ele>398.60375976562</ele>
        <time>2012-05-16T09:49:52Z</time>
      </trkpt>
      <trkpt lat="46.73079" lon="5.61294">
        <ele>398.12316894531</ele>
        <time>2012-05-16T09:49:58Z</time>
      </trkpt>
      <trkpt lat="46.73092" lon="5.61305">
        <ele>399.08435058594</ele>
        <time>2012-05-16T09:50:04Z</time>
      </trkpt>
      <trkpt lat="46.73098" lon="5.61313">
        <ele>398.12316894531</ele>
        <time>2012-05-16T09:50:08Z</time>
      </trkpt>
      <trkpt lat="46.73106" lon="5.61321">
        <ele>401.00708007812</ele>
        <time>2012-05-16T09:50:13Z</time>
      </trkpt>
      <trkpt lat="46.73115" lon="5.61329">
        <ele>402.9296875</ele>
        <time>2012-05-16T09:50:18Z</time>
      </trkpt>
      <trkpt lat="46.73122" lon="5.61333">
        <ele>404.85229492188</ele>
        <time>2012-05-16T09:50:23Z</time>
      </trkpt>
      <trkpt lat="46.73129" lon="5.61341">
        <ele>404.85229492188</ele>
        <time>2012-05-16T09:50:30Z</time>
      </trkpt>
      <trkpt lat="46.73135" lon="5.61346">
        <ele>405.81372070312</ele>
        <time>2012-05-16T09:50:35Z</time>
      </trkpt>
      <trkpt lat="46.73143" lon="5.61355">
        <ele>406.29431152344</ele>
        <time>2012-05-16T09:50:43Z</time>
      </trkpt>
      <trkpt lat="46.7315" lon="5.61362">
        <ele>406.77490234375</ele>
        <time>2012-05-16T09:50:50Z</time>
      </trkpt>
      <trkpt lat="46.73153" lon="5.61365">
        <ele>406.77490234375</ele>
        <time>2012-05-16T09:50:52Z</time>
      </trkpt>
      <trkpt lat="46.73164" lon="5.61376">
        <ele>408.21704101562</ele>
        <time>2012-05-16T09:51:02Z</time>
      </trkpt>
      <trkpt lat="46.73174" lon="5.61388">
        <ele>408.69763183594</ele>
        <time>2012-05-16T09:51:12Z</time>
      </trkpt>
      <trkpt lat="46.73184" lon="5.61398">
        <ele>409.65905761719</ele>
        <time>2012-05-16T09:51:21Z</time>
      </trkpt>
      <trkpt lat="46.73188" lon="5.614">
        <ele>411.10095214844</ele>
        <time>2012-05-16T09:51:24Z</time>
      </trkpt>
      <trkpt lat="46.73191" lon="5.61402">
        <ele>411.58166503906</ele>
        <time>2012-05-16T09:51:30Z</time>
      </trkpt>
      <trkpt lat="46.73196" lon="5.61403">
        <ele>413.50427246094</ele>
        <time>2012-05-16T09:51:59Z</time>
      </trkpt>
      <trkpt lat="46.73207" lon="5.61411">
        <ele>414.94616699219</ele>
        <time>2012-05-16T09:52:08Z</time>
      </trkpt>
      <trkpt lat="46.73214" lon="5.61419">
        <ele>414.94616699219</ele>
        <time>2012-05-16T09:52:14Z</time>
      </trkpt>
      <trkpt lat="46.7322" lon="5.61427">
        <ele>415.42687988281</ele>
        <time>2012-05-16T09:52:20Z</time>
      </trkpt>
      <trkpt lat="46.73225" lon="5.61432">
        <ele>415.42687988281</ele>
        <time>2012-05-16T09:52:24Z</time>
      </trkpt>
      <trkpt lat="46.73233" lon="5.61442">
        <ele>415.42687988281</ele>
        <time>2012-05-16T09:52:31Z</time>
      </trkpt>
      <trkpt lat="46.73243" lon="5.61453">
        <ele>416.38818359375</ele>
        <time>2012-05-16T09:52:37Z</time>
      </trkpt>
      <trkpt lat="46.73252" lon="5.61465">
        <ele>416.38818359375</ele>
        <time>2012-05-16T09:52:43Z</time>
      </trkpt>
      <trkpt lat="46.73262" lon="5.61474">
        <ele>417.349609375</ele>
        <time>2012-05-16T09:52:48Z</time>
      </trkpt>
      <trkpt lat="46.73274" lon="5.61486">
        <ele>419.27221679688</ele>
        <time>2012-05-16T09:52:55Z</time>
      </trkpt>
      <trkpt lat="46.73279" lon="5.61492">
        <ele>419.75280761719</ele>
        <time>2012-05-16T09:52:58Z</time>
      </trkpt>
      <trkpt lat="46.73291" lon="5.61498">
        <ele>421.19482421875</ele>
        <time>2012-05-16T09:53:04Z</time>
      </trkpt>
      <trkpt lat="46.73296" lon="5.61499">
        <ele>420.71411132812</ele>
        <time>2012-05-16T09:53:06Z</time>
      </trkpt>
      <trkpt lat="46.73309" lon="5.61506">
        <ele>421.67541503906</ele>
        <time>2012-05-16T09:53:12Z</time>
      </trkpt>
      <trkpt lat="46.73317" lon="5.61512">
        <ele>422.15600585938</ele>
        <time>2012-05-16T09:53:16Z</time>
      </trkpt>
      <trkpt lat="46.73327" lon="5.6152">
        <ele>423.59802246094</ele>
        <time>2012-05-16T09:53:21Z</time>
      </trkpt>
      <trkpt lat="46.73336" lon="5.6153">
        <ele>424.07873535156</ele>
        <time>2012-05-16T09:53:26Z</time>
      </trkpt>
      <trkpt lat="46.73347" lon="5.61543">
        <ele>424.07873535156</ele>
        <time>2012-05-16T09:53:32Z</time>
      </trkpt>
      <trkpt lat="46.7336" lon="5.61557">
        <ele>424.07873535156</ele>
        <time>2012-05-16T09:53:39Z</time>
      </trkpt>
      <trkpt lat="46.73369" lon="5.61566">
        <ele>424.07873535156</ele>
        <time>2012-05-16T09:53:44Z</time>
      </trkpt>
      <trkpt lat="46.73374" lon="5.61571">
        <ele>424.55944824219</ele>
        <time>2012-05-16T09:53:48Z</time>
      </trkpt>
      <trkpt lat="46.73384" lon="5.61581">
        <ele>425.04016113281</ele>
        <time>2012-05-16T09:53:57Z</time>
      </trkpt>
      <trkpt lat="46.7339" lon="5.61587">
        <ele>426.00134277344</ele>
        <time>2012-05-16T09:54:02Z</time>
      </trkpt>
      <trkpt lat="46.73398" lon="5.61595">
        <ele>427.92395019531</ele>
        <time>2012-05-16T09:54:09Z</time>
      </trkpt>
      <trkpt lat="46.73407" lon="5.61604">
        <ele>429.36596679688</ele>
        <time>2012-05-16T09:54:17Z</time>
      </trkpt>
      <trkpt lat="46.73413" lon="5.6161">
        <ele>429.84655761719</ele>
        <time>2012-05-16T09:54:22Z</time>
      </trkpt>
      <trkpt lat="46.73422" lon="5.61613">
        <ele>431.76916503906</ele>
        <time>2012-05-16T09:54:28Z</time>
      </trkpt>
      <trkpt lat="46.73426" lon="5.61612">
        <ele>432.73071289062</ele>
        <time>2012-05-16T09:54:31Z</time>
      </trkpt>
      <trkpt lat="46.73435" lon="5.61616">
        <ele>432.73071289062</ele>
        <time>2012-05-16T09:54:37Z</time>
      </trkpt>
      <trkpt lat="46.73444" lon="5.61619">
        <ele>433.21130371094</ele>
        <time>2012-05-16T09:54:43Z</time>
      </trkpt>
      <trkpt lat="46.73455" lon="5.61622">
        <ele>433.21130371094</ele>
        <time>2012-05-16T09:54:47Z</time>
      </trkpt>
      <trkpt lat="46.73468" lon="5.61631">
        <ele>433.21130371094</ele>
        <time>2012-05-16T09:54:53Z</time>
      </trkpt>
      <trkpt lat="46.73479" lon="5.61636">
        <ele>433.69189453125</ele>
        <time>2012-05-16T09:54:58Z</time>
      </trkpt>
      <trkpt lat="46.73492" lon="5.6164">
        <ele>436.09521484375</ele>
        <time>2012-05-16T09:55:04Z</time>
      </trkpt>
      <trkpt lat="46.73503" lon="5.61649">
        <ele>437.537109375</ele>
        <time>2012-05-16T09:55:10Z</time>
      </trkpt>
      <trkpt lat="46.73516" lon="5.61656">
        <ele>439.9404296875</ele>
        <time>2012-05-16T09:55:16Z</time>
      </trkpt>
      <trkpt lat="46.73526" lon="5.61661">
        <ele>440.42126464844</ele>
        <time>2012-05-16T09:55:21Z</time>
      </trkpt>
      <trkpt lat="46.73538" lon="5.61668">
        <ele>438.49853515625</ele>
        <time>2012-05-16T09:55:29Z</time>
      </trkpt>
      <trkpt lat="46.73547" lon="5.61673">
        <ele>438.01782226562</ele>
        <time>2012-05-16T09:55:35Z</time>
      </trkpt>
      <trkpt lat="46.73555" lon="5.61674">
        <ele>438.97912597656</ele>
        <time>2012-05-16T09:55:41Z</time>
      </trkpt>
      <trkpt lat="46.73568" lon="5.61677">
        <ele>440.42126464844</ele>
        <time>2012-05-16T09:55:49Z</time>
      </trkpt>
      <trkpt lat="46.73576" lon="5.6168">
        <ele>441.86315917969</ele>
        <time>2012-05-16T09:55:55Z</time>
      </trkpt>
      <trkpt lat="46.73588" lon="5.61683">
        <ele>443.78576660156</ele>
        <time>2012-05-16T09:56:03Z</time>
      </trkpt>
      <trkpt lat="46.73596" lon="5.61685">
        <ele>444.7470703125</ele>
        <time>2012-05-16T09:56:09Z</time>
      </trkpt>
      <trkpt lat="46.73603" lon="5.61687">
        <ele>445.70837402344</ele>
        <time>2012-05-16T09:56:14Z</time>
      </trkpt>
      <trkpt lat="46.73614" lon="5.61691">
        <ele>447.63098144531</ele>
        <time>2012-05-16T09:56:22Z</time>
      </trkpt>
      <trkpt lat="46.73625" lon="5.61696">
        <ele>449.07299804688</ele>
        <time>2012-05-16T09:56:30Z</time>
      </trkpt>
      <trkpt lat="46.73634" lon="5.61701">
        <ele>450.03442382812</ele>
        <time>2012-05-16T09:56:36Z</time>
      </trkpt>
      <trkpt lat="46.73639" lon="5.61704">
        <ele>450.51501464844</ele>
        <time>2012-05-16T09:56:41Z</time>
      </trkpt>
      <trkpt lat="46.7365" lon="5.61709">
        <ele>452.91821289062</ele>
        <time>2012-05-16T09:56:49Z</time>
      </trkpt>
      <trkpt lat="46.73658" lon="5.61712">
        <ele>453.87963867188</ele>
        <time>2012-05-16T09:56:56Z</time>
      </trkpt>
      <trkpt lat="46.73669" lon="5.61715">
        <ele>456.28295898438</ele>
        <time>2012-05-16T09:57:04Z</time>
      </trkpt>
      <trkpt lat="46.73682" lon="5.61717">
        <ele>457.24426269531</ele>
        <time>2012-05-16T09:57:12Z</time>
      </trkpt>
      <trkpt lat="46.7369" lon="5.61717">
        <ele>457.72497558594</ele>
        <time>2012-05-16T09:57:17Z</time>
      </trkpt>
      <trkpt lat="46.73699" lon="5.61719">
        <ele>458.68615722656</ele>
        <time>2012-05-16T09:57:23Z</time>
      </trkpt>
      <trkpt lat="46.73708" lon="5.61724">
        <ele>458.20556640625</ele>
        <time>2012-05-16T09:57:30Z</time>
      </trkpt>
      <trkpt lat="46.73715" lon="5.61729">
        <ele>459.16687011719</ele>
        <time>2012-05-16T09:57:36Z</time>
      </trkpt>
      <trkpt lat="46.73726" lon="5.61735">
        <ele>460.12817382812</ele>
        <time>2012-05-16T09:57:43Z</time>
      </trkpt>
      <trkpt lat="46.7373" lon="5.61737">
        <ele>460.60876464844</ele>
        <time>2012-05-16T09:57:46Z</time>
      </trkpt>
      <trkpt lat="46.73738" lon="5.61741">
        <ele>460.12817382812</ele>
        <time>2012-05-16T09:57:53Z</time>
      </trkpt>
      <trkpt lat="46.73749" lon="5.61746">
        <ele>459.16687011719</ele>
        <time>2012-05-16T09:58:01Z</time>
      </trkpt>
      <trkpt lat="46.73758" lon="5.61746">
        <ele>458.20556640625</ele>
        <time>2012-05-16T09:58:07Z</time>
      </trkpt>
      <trkpt lat="46.73772" lon="5.61748">
        <ele>457.72497558594</ele>
        <time>2012-05-16T09:58:15Z</time>
      </trkpt>
      <trkpt lat="46.7378" lon="5.6174">
        <ele>456.76354980469</ele>
        <time>2012-05-16T09:58:19Z</time>
      </trkpt>
      <trkpt lat="46.73783" lon="5.61719">
        <ele>456.76354980469</ele>
        <time>2012-05-16T09:58:24Z</time>
      </trkpt>
      <trkpt lat="46.73789" lon="5.61701">
        <ele>455.80224609375</ele>
        <time>2012-05-16T09:58:29Z</time>
      </trkpt>
      <trkpt lat="46.73795" lon="5.61677">
        <ele>457.72497558594</ele>
        <time>2012-05-16T09:58:36Z</time>
      </trkpt>
      <trkpt lat="46.73799" lon="5.61661">
        <ele>459.16687011719</ele>
        <time>2012-05-16T09:58:42Z</time>
      </trkpt>
      <trkpt lat="46.73803" lon="5.61652">
        <ele>457.24426269531</ele>
        <time>2012-05-16T09:58:49Z</time>
      </trkpt>
      <trkpt lat="46.73804" lon="5.61652">
        <ele>455.80224609375</ele>
        <time>2012-05-16T09:58:55Z</time>
      </trkpt>
      <trkpt lat="46.73803" lon="5.61661">
        <ele>454.36022949219</ele>
        <time>2012-05-16T09:59:00Z</time>
      </trkpt>
      <trkpt lat="46.73803" lon="5.61663">
        <ele>453.87963867188</ele>
        <time>2012-05-16T09:59:02Z</time>
      </trkpt>
      <trkpt lat="46.73801" lon="5.61667">
        <ele>452.43762207031</ele>
        <time>2012-05-16T09:59:04Z</time>
      </trkpt>
      <trkpt lat="46.738" lon="5.61674">
        <ele>452.91821289062</ele>
        <time>2012-05-16T09:59:08Z</time>
      </trkpt>
      <trkpt lat="46.73796" lon="5.61682">
        <ele>454.36022949219</ele>
        <time>2012-05-16T09:59:12Z</time>
      </trkpt>
      <trkpt lat="46.73792" lon="5.61691">
        <ele>453.39892578125</ele>
        <time>2012-05-16T09:59:17Z</time>
      </trkpt>
      <trkpt lat="46.73791" lon="5.61697">
        <ele>453.39892578125</ele>
        <time>2012-05-16T09:59:21Z</time>
      </trkpt>
      <trkpt lat="46.73789" lon="5.61705">
        <ele>453.87963867188</ele>
        <time>2012-05-16T09:59:25Z</time>
      </trkpt>
      <trkpt lat="46.73787" lon="5.61713">
        <ele>451.95703125</ele>
        <time>2012-05-16T09:59:32Z</time>
      </trkpt>
      <trkpt lat="46.7379" lon="5.61715">
        <ele>450.03442382812</ele>
        <time>2012-05-16T09:59:37Z</time>
      </trkpt>
      <trkpt lat="46.73795" lon="5.61718">
        <ele>447.63098144531</ele>
        <time>2012-05-16T09:59:42Z</time>
      </trkpt>
      <trkpt lat="46.73802" lon="5.61721">
        <ele>445.70837402344</ele>
        <time>2012-05-16T09:59:47Z</time>
      </trkpt>
      <trkpt lat="46.73803" lon="5.61719">
        <ele>444.7470703125</ele>
        <time>2012-05-16T09:59:50Z</time>
      </trkpt>
      <trkpt lat="46.73811" lon="5.61717">
        <ele>442.82446289062</ele>
        <time>2012-05-16T09:59:54Z</time>
      </trkpt>
      <trkpt lat="46.73815" lon="5.61717">
        <ele>441.38244628906</ele>
        <time>2012-05-16T09:59:59Z</time>
      </trkpt>
      <trkpt lat="46.73824" lon="5.61717">
        <ele>439.45971679688</ele>
        <time>2012-05-16T10:00:07Z</time>
      </trkpt>
      <trkpt lat="46.73827" lon="5.61717">
        <ele>439.9404296875</ele>
        <time>2012-05-16T10:00:11Z</time>
      </trkpt>
      <trkpt lat="46.73831" lon="5.61716">
        <ele>438.97912597656</ele>
        <time>2012-05-16T10:00:15Z</time>
      </trkpt>
      <trkpt lat="46.73837" lon="5.61716">
        <ele>440.42126464844</ele>
        <time>2012-05-16T10:00:19Z</time>
      </trkpt>
      <trkpt lat="46.73841" lon="5.61715">
        <ele>440.90185546875</ele>
        <time>2012-05-16T10:00:23Z</time>
      </trkpt>
      <trkpt lat="46.7385" lon="5.61712">
        <ele>443.30505371094</ele>
        <time>2012-05-16T10:00:28Z</time>
      </trkpt>
      <trkpt lat="46.73859" lon="5.61712">
        <ele>442.34387207031</ele>
        <time>2012-05-16T10:00:33Z</time>
      </trkpt>
      <trkpt lat="46.73862" lon="5.61712">
        <ele>442.34387207031</ele>
        <time>2012-05-16T10:00:34Z</time>
      </trkpt>
      <trkpt lat="46.73871" lon="5.61712">
        <ele>443.30505371094</ele>
        <time>2012-05-16T10:00:40Z</time>
      </trkpt>
      <trkpt lat="46.73875" lon="5.61712">
        <ele>443.78576660156</ele>
        <time>2012-05-16T10:00:44Z</time>
      </trkpt>
      <trkpt lat="46.73884" lon="5.6171">
        <ele>439.45971679688</ele>
        <time>2012-05-16T10:00:49Z</time>
      </trkpt>
      <trkpt lat="46.73888" lon="5.61707">
        <ele>435.13391113281</ele>
        <time>2012-05-16T10:00:53Z</time>
      </trkpt>
      <trkpt lat="46.73896" lon="5.61706">
        <ele>433.69189453125</ele>
        <time>2012-05-16T10:00:58Z</time>
      </trkpt>
      <trkpt lat="46.73902" lon="5.61703">
        <ele>432.25</ele>
        <time>2012-05-16T10:01:03Z</time>
      </trkpt>
      <trkpt lat="46.7391" lon="5.617">
        <ele>426.48205566406</ele>
        <time>2012-05-16T10:01:08Z</time>
      </trkpt>
      <trkpt lat="46.73921" lon="5.61697">
        <ele>422.63671875</ele>
        <time>2012-05-16T10:01:14Z</time>
      </trkpt>
      <trkpt lat="46.73931" lon="5.61696">
        <ele>422.15600585938</ele>
        <time>2012-05-16T10:01:19Z</time>
      </trkpt>
      <trkpt lat="46.73943" lon="5.61701">
        <ele>420.2333984375</ele>
        <time>2012-05-16T10:01:27Z</time>
      </trkpt>
      <trkpt lat="46.73949" lon="5.61704">
        <ele>420.2333984375</ele>
        <time>2012-05-16T10:01:30Z</time>
      </trkpt>
      <trkpt lat="46.73959" lon="5.61709">
        <ele>420.2333984375</ele>
        <time>2012-05-16T10:01:37Z</time>
      </trkpt>
      <trkpt lat="46.73964" lon="5.6171">
        <ele>419.27221679688</ele>
        <time>2012-05-16T10:01:40Z</time>
      </trkpt>
      <trkpt lat="46.73976" lon="5.61706">
        <ele>414.94616699219</ele>
        <time>2012-05-16T10:01:46Z</time>
      </trkpt>
      <trkpt lat="46.73978" lon="5.61706">
        <ele>413.50427246094</ele>
        <time>2012-05-16T10:01:47Z</time>
      </trkpt>
      <trkpt lat="46.73985" lon="5.61707">
        <ele>413.50427246094</ele>
        <time>2012-05-16T10:01:52Z</time>
      </trkpt>
      <trkpt lat="46.73995" lon="5.61706">
        <ele>413.98486328125</ele>
        <time>2012-05-16T10:01:57Z</time>
      </trkpt>
      <trkpt lat="46.74004" lon="5.61708">
        <ele>415.90747070312</ele>
        <time>2012-05-16T10:02:01Z</time>
      </trkpt>
      <trkpt lat="46.74014" lon="5.61711">
        <ele>416.38818359375</ele>
        <time>2012-05-16T10:02:05Z</time>
      </trkpt>
      <trkpt lat="46.74024" lon="5.61715">
        <ele>414.46545410156</ele>
        <time>2012-05-16T10:02:11Z</time>
      </trkpt>
      <trkpt lat="46.74035" lon="5.61719">
        <ele>411.10095214844</ele>
        <time>2012-05-16T10:02:16Z</time>
      </trkpt>
      <trkpt lat="46.74039" lon="5.6172">
        <ele>410.1396484375</ele>
        <time>2012-05-16T10:02:18Z</time>
      </trkpt>
      <trkpt lat="46.74052" lon="5.61723">
        <ele>405.3330078125</ele>
        <time>2012-05-16T10:02:24Z</time>
      </trkpt>
      <trkpt lat="46.74059" lon="5.61721">
        <ele>401.96850585938</ele>
        <time>2012-05-16T10:02:29Z</time>
      </trkpt>
      <trkpt lat="46.74056" lon="5.61729">
        <ele>402.44909667969</ele>
        <time>2012-05-16T10:02:43Z</time>
      </trkpt>
      <trkpt lat="46.74055" lon="5.61731">
        <ele>406.77490234375</ele>
        <time>2012-05-16T10:02:48Z</time>
      </trkpt>
      <trkpt lat="46.74065" lon="5.61726">
        <ele>404.85229492188</ele>
        <time>2012-05-16T10:02:56Z</time>
      </trkpt>
      <trkpt lat="46.74066" lon="5.61727">
        <ele>403.89111328125</ele>
        <time>2012-05-16T10:02:57Z</time>
      </trkpt>
      <trkpt lat="46.74076" lon="5.61725">
        <ele>402.9296875</ele>
        <time>2012-05-16T10:03:05Z</time>
      </trkpt>
      <trkpt lat="46.7409" lon="5.61729">
        <ele>404.85229492188</ele>
        <time>2012-05-16T10:03:11Z</time>
      </trkpt>
      <trkpt lat="46.74099" lon="5.61733">
        <ele>405.81372070312</ele>
        <time>2012-05-16T10:03:15Z</time>
      </trkpt>
      <trkpt lat="46.74107" lon="5.6174">
        <ele>406.29431152344</ele>
        <time>2012-05-16T10:03:20Z</time>
      </trkpt>
      <trkpt lat="46.74118" lon="5.61741">
        <ele>404.37170410156</ele>
        <time>2012-05-16T10:03:25Z</time>
      </trkpt>
      <trkpt lat="46.74128" lon="5.61744">
        <ele>401.00708007812</ele>
        <time>2012-05-16T10:03:29Z</time>
      </trkpt>
      <trkpt lat="46.74134" lon="5.61744">
        <ele>400.52648925781</ele>
        <time>2012-05-16T10:03:33Z</time>
      </trkpt>
      <trkpt lat="46.74136" lon="5.61745">
        <ele>399.08435058594</ele>
        <time>2012-05-16T10:03:35Z</time>
      </trkpt>
      <trkpt lat="46.74141" lon="5.61745">
        <ele>397.64245605469</ele>
        <time>2012-05-16T10:03:41Z</time>
      </trkpt>
      <trkpt lat="46.7415" lon="5.61747">
        <ele>399.56506347656</ele>
        <time>2012-05-16T10:03:47Z</time>
      </trkpt>
      <trkpt lat="46.7416" lon="5.61748">
        <ele>398.60375976562</ele>
        <time>2012-05-16T10:03:51Z</time>
      </trkpt>
      <trkpt lat="46.74168" lon="5.61749">
        <ele>397.64245605469</ele>
        <time>2012-05-16T10:03:55Z</time>
      </trkpt>
      <trkpt lat="46.74177" lon="5.61747">
        <ele>393.79724121094</ele>
        <time>2012-05-16T10:04:00Z</time>
      </trkpt>
      <trkpt lat="46.74181" lon="5.61746">
        <ele>393.31652832031</ele>
        <time>2012-05-16T10:04:02Z</time>
      </trkpt>
      <trkpt lat="46.74191" lon="5.61744">
        <ele>393.79724121094</ele>
        <time>2012-05-16T10:04:07Z</time>
      </trkpt>
      <trkpt lat="46.74204" lon="5.61747">
        <ele>389.95190429688</ele>
        <time>2012-05-16T10:04:14Z</time>
      </trkpt>
      <trkpt lat="46.74218" lon="5.61749">
        <ele>387.06799316406</ele>
        <time>2012-05-16T10:04:20Z</time>
      </trkpt>
      <trkpt lat="46.74229" lon="5.6175">
        <ele>385.14538574219</ele>
        <time>2012-05-16T10:04:25Z</time>
      </trkpt>
      <trkpt lat="46.74242" lon="5.61748">
        <ele>383.22265625</ele>
        <time>2012-05-16T10:04:30Z</time>
      </trkpt>
      <trkpt lat="46.74256" lon="5.61747">
        <ele>382.26135253906</ele>
        <time>2012-05-16T10:04:37Z</time>
      </trkpt>
      <trkpt lat="46.74264" lon="5.61745">
        <ele>380.81945800781</ele>
        <time>2012-05-16T10:04:42Z</time>
      </trkpt>
      <trkpt lat="46.74277" lon="5.61745">
        <ele>382.74206542969</ele>
        <time>2012-05-16T10:04:49Z</time>
      </trkpt>
      <trkpt lat="46.74286" lon="5.61745">
        <ele>384.18408203125</ele>
        <time>2012-05-16T10:04:54Z</time>
      </trkpt>
      <trkpt lat="46.74295" lon="5.61743">
        <ele>382.26135253906</ele>
        <time>2012-05-16T10:05:01Z</time>
      </trkpt>
      <trkpt lat="46.74306" lon="5.61738">
        <ele>381.30004882812</ele>
        <time>2012-05-16T10:05:06Z</time>
      </trkpt>
      <trkpt lat="46.74319" lon="5.61732">
        <ele>379.85803222656</ele>
        <time>2012-05-16T10:05:12Z</time>
      </trkpt>
      <trkpt lat="46.74329" lon="5.61726">
        <ele>380.33874511719</ele>
        <time>2012-05-16T10:05:18Z</time>
      </trkpt>
      <trkpt lat="46.7434" lon="5.61718">
        <ele>376.49353027344</ele>
        <time>2012-05-16T10:05:23Z</time>
      </trkpt>
      <trkpt lat="46.74353" lon="5.61707">
        <ele>376.97424316406</ele>
        <time>2012-05-16T10:05:29Z</time>
      </trkpt>
      <trkpt lat="46.74362" lon="5.617">
        <ele>377.93542480469</ele>
        <time>2012-05-16T10:05:33Z</time>
      </trkpt>
      <trkpt lat="46.74371" lon="5.61688">
        <ele>381.30004882812</ele>
        <time>2012-05-16T10:05:39Z</time>
      </trkpt>
      <trkpt lat="46.74376" lon="5.61686">
        <ele>383.22265625</ele>
        <time>2012-05-16T10:05:43Z</time>
      </trkpt>
      <trkpt lat="46.74386" lon="5.61694">
        <ele>379.85803222656</ele>
        <time>2012-05-16T10:05:51Z</time>
      </trkpt>
      <trkpt lat="46.74389" lon="5.61698">
        <ele>378.41613769531</ele>
        <time>2012-05-16T10:05:54Z</time>
      </trkpt>
      <trkpt lat="46.74401" lon="5.61701">
        <ele>379.85803222656</ele>
        <time>2012-05-16T10:05:59Z</time>
      </trkpt>
      <trkpt lat="46.74406" lon="5.61704">
        <ele>381.30004882812</ele>
        <time>2012-05-16T10:06:03Z</time>
      </trkpt>
      <trkpt lat="46.74411" lon="5.61702">
        <ele>384.66479492188</ele>
        <time>2012-05-16T10:06:08Z</time>
      </trkpt>
      <trkpt lat="46.74421" lon="5.617">
        <ele>387.06799316406</ele>
        <time>2012-05-16T10:06:14Z</time>
      </trkpt>
      <trkpt lat="46.74424" lon="5.61699">
        <ele>388.029296875</ele>
        <time>2012-05-16T10:06:16Z</time>
      </trkpt>
      <trkpt lat="46.74431" lon="5.617">
        <ele>391.39379882812</ele>
        <time>2012-05-16T10:06:23Z</time>
      </trkpt>
      <trkpt lat="46.74429" lon="5.61702">
        <ele>388.029296875</ele>
        <time>2012-05-16T10:06:31Z</time>
      </trkpt>
      <trkpt lat="46.74435" lon="5.61702">
        <ele>388.029296875</ele>
        <time>2012-05-16T10:06:40Z</time>
      </trkpt>
      <trkpt lat="46.7444" lon="5.61699">
        <ele>388.029296875</ele>
        <time>2012-05-16T10:06:46Z</time>
      </trkpt>
      <trkpt lat="46.74436" lon="5.61697">
        <ele>385.14538574219</ele>
        <time>2012-05-16T10:06:53Z</time>
      </trkpt>
      <trkpt lat="46.74434" lon="5.61694">
        <ele>384.66479492188</ele>
        <time>2012-05-16T10:07:01Z</time>
      </trkpt>
      <trkpt lat="46.74443" lon="5.61694">
        <ele>378.89685058594</ele>
        <time>2012-05-16T10:07:08Z</time>
      </trkpt>
      <trkpt lat="46.7445" lon="5.61693">
        <ele>376.49353027344</ele>
        <time>2012-05-16T10:07:13Z</time>
      </trkpt>
      <trkpt lat="46.74456" lon="5.61688">
        <ele>373.12890625</ele>
        <time>2012-05-16T10:07:19Z</time>
      </trkpt>
      <trkpt lat="46.74462" lon="5.61684">
        <ele>370.7255859375</ele>
        <time>2012-05-16T10:07:24Z</time>
      </trkpt>
      <trkpt lat="46.74467" lon="5.61678">
        <ele>375.53210449219</ele>
        <time>2012-05-16T10:07:30Z</time>
      </trkpt>
      <trkpt lat="46.74472" lon="5.61673">
        <ele>378.41613769531</ele>
        <time>2012-05-16T10:07:38Z</time>
      </trkpt>
      <trkpt lat="46.7448" lon="5.61666">
        <ele>376.49353027344</ele>
        <time>2012-05-16T10:07:43Z</time>
      </trkpt>
      <trkpt lat="46.74489" lon="5.61659">
        <ele>374.57080078125</ele>
        <time>2012-05-16T10:07:49Z</time>
      </trkpt>
      <trkpt lat="46.74492" lon="5.61657">
        <ele>373.60949707031</ele>
        <time>2012-05-16T10:07:51Z</time>
      </trkpt>
      <trkpt lat="46.745" lon="5.61657">
        <ele>370.24487304688</ele>
        <time>2012-05-16T10:07:56Z</time>
      </trkpt>
      <trkpt lat="46.74506" lon="5.61658">
        <ele>370.24487304688</ele>
        <time>2012-05-16T10:07:59Z</time>
      </trkpt>
      <trkpt lat="46.74517" lon="5.61659">
        <ele>369.28369140625</ele>
        <time>2012-05-16T10:08:05Z</time>
      </trkpt>
      <trkpt lat="46.7453" lon="5.61661">
        <ele>365.43835449219</ele>
        <time>2012-05-16T10:08:11Z</time>
      </trkpt>
      <trkpt lat="46.7454" lon="5.61662">
        <ele>360.15112304688</ele>
        <time>2012-05-16T10:08:17Z</time>
      </trkpt>
      <trkpt lat="46.74543" lon="5.61663">
        <ele>359.18969726562</ele>
        <time>2012-05-16T10:08:19Z</time>
      </trkpt>
      <trkpt lat="46.74553" lon="5.6166">
        <ele>355.8251953125</ele>
        <time>2012-05-16T10:08:26Z</time>
      </trkpt>
      <trkpt lat="46.74562" lon="5.61662">
        <ele>354.38317871094</ele>
        <time>2012-05-16T10:08:31Z</time>
      </trkpt>
      <trkpt lat="46.74569" lon="5.61664">
        <ele>353.90258789062</ele>
        <time>2012-05-16T10:08:35Z</time>
      </trkpt>
      <trkpt lat="46.74572" lon="5.61666">
        <ele>353.421875</ele>
        <time>2012-05-16T10:08:38Z</time>
      </trkpt>
      <trkpt lat="46.74581" lon="5.61668">
        <ele>348.13464355469</ele>
        <time>2012-05-16T10:08:45Z</time>
      </trkpt>
      <trkpt lat="46.7459" lon="5.6167">
        <ele>346.21203613281</ele>
        <time>2012-05-16T10:08:50Z</time>
      </trkpt>
      <trkpt lat="46.74594" lon="5.61671">
        <ele>344.28942871094</ele>
        <time>2012-05-16T10:08:53Z</time>
      </trkpt>
      <trkpt lat="46.74598" lon="5.61675">
        <ele>341.88598632812</ele>
        <time>2012-05-16T10:09:00Z</time>
      </trkpt>
      <trkpt lat="46.74601" lon="5.61673">
        <ele>341.88598632812</ele>
        <time>2012-05-16T10:09:03Z</time>
      </trkpt>
      <trkpt lat="46.7461" lon="5.6167">
        <ele>340.92468261719</ele>
        <time>2012-05-16T10:09:08Z</time>
      </trkpt>
      <trkpt lat="46.74617" lon="5.6167">
        <ele>338.521484375</ele>
        <time>2012-05-16T10:09:12Z</time>
      </trkpt>
      <trkpt lat="46.7463" lon="5.61672">
        <ele>335.15673828125</ele>
        <time>2012-05-16T10:09:18Z</time>
      </trkpt>
      <trkpt lat="46.74639" lon="5.61674">
        <ele>333.23413085938</ele>
        <time>2012-05-16T10:09:22Z</time>
      </trkpt>
      <trkpt lat="46.7465" lon="5.61681">
        <ele>330.83093261719</ele>
        <time>2012-05-16T10:09:27Z</time>
      </trkpt>
      <trkpt lat="46.74662" lon="5.61685">
        <ele>328.42761230469</ele>
        <time>2012-05-16T10:09:31Z</time>
      </trkpt>
      <trkpt lat="46.74674" lon="5.61685">
        <ele>326.5048828125</ele>
        <time>2012-05-16T10:09:36Z</time>
      </trkpt>
      <trkpt lat="46.74675" lon="5.61686">
        <ele>326.02416992188</ele>
        <time>2012-05-16T10:09:37Z</time>
      </trkpt>
      <trkpt lat="46.7469" lon="5.61688">
        <ele>323.62097167969</ele>
        <time>2012-05-16T10:09:44Z</time>
      </trkpt>
      <trkpt lat="46.74701" lon="5.61688">
        <ele>321.2177734375</ele>
        <time>2012-05-16T10:09:49Z</time>
      </trkpt>
      <trkpt lat="46.74702" lon="5.61688">
        <ele>321.2177734375</ele>
        <time>2012-05-16T10:09:50Z</time>
      </trkpt>
      <trkpt lat="46.74704" lon="5.61691">
        <ele>320.25634765625</ele>
        <time>2012-05-16T10:09:53Z</time>
      </trkpt>
      <trkpt lat="46.74702" lon="5.61698">
        <ele>319.77563476562</ele>
        <time>2012-05-16T10:09:58Z</time>
      </trkpt>
      <trkpt lat="46.74691" lon="5.61708">
        <ele>318.81433105469</ele>
        <time>2012-05-16T10:10:06Z</time>
      </trkpt>
      <trkpt lat="46.74678" lon="5.61719">
        <ele>317.37243652344</ele>
        <time>2012-05-16T10:10:12Z</time>
      </trkpt>
      <trkpt lat="46.7467" lon="5.61729">
        <ele>315.44982910156</ele>
        <time>2012-05-16T10:10:17Z</time>
      </trkpt>
      <trkpt lat="46.74659" lon="5.61743">
        <ele>314.0078125</ele>
        <time>2012-05-16T10:10:23Z</time>
      </trkpt>
      <trkpt lat="46.74657" lon="5.61746">
        <ele>313.52722167969</ele>
        <time>2012-05-16T10:10:25Z</time>
      </trkpt>
      <trkpt lat="46.74658" lon="5.61742">
        <ele>313.52722167969</ele>
        <time>2012-05-16T10:10:31Z</time>
      </trkpt>
      <trkpt lat="46.74652" lon="5.61754">
        <ele>313.04650878906</ele>
        <time>2012-05-16T10:10:39Z</time>
      </trkpt>
      <trkpt lat="46.74645" lon="5.61765">
        <ele>311.6044921875</ele>
        <time>2012-05-16T10:10:47Z</time>
      </trkpt>
      <trkpt lat="46.74636" lon="5.61777">
        <ele>310.64306640625</ele>
        <time>2012-05-16T10:10:56Z</time>
      </trkpt>
      <trkpt lat="46.74628" lon="5.61786">
        <ele>309.68188476562</ele>
        <time>2012-05-16T10:11:04Z</time>
      </trkpt>
      <trkpt lat="46.74621" lon="5.61797">
        <ele>307.75927734375</ele>
        <time>2012-05-16T10:11:12Z</time>
      </trkpt>
      <trkpt lat="46.74614" lon="5.61806">
        <ele>307.27856445312</ele>
        <time>2012-05-16T10:11:18Z</time>
      </trkpt>
      <trkpt lat="46.74605" lon="5.61817">
        <ele>306.7978515625</ele>
        <time>2012-05-16T10:11:23Z</time>
      </trkpt>
      <trkpt lat="46.74593" lon="5.61829">
        <ele>305.83666992188</ele>
        <time>2012-05-16T10:11:29Z</time>
      </trkpt>
      <trkpt lat="46.74581" lon="5.6184">
        <ele>305.83666992188</ele>
        <time>2012-05-16T10:11:36Z</time>
      </trkpt>
      <trkpt lat="46.74571" lon="5.61846">
        <ele>306.31726074219</ele>
        <time>2012-05-16T10:11:41Z</time>
      </trkpt>
      <trkpt lat="46.74557" lon="5.61856">
        <ele>305.35595703125</ele>
        <time>2012-05-16T10:11:48Z</time>
      </trkpt>
      <trkpt lat="46.74547" lon="5.61865">
        <ele>306.31726074219</ele>
        <time>2012-05-16T10:11:53Z</time>
      </trkpt>
      <trkpt lat="46.74537" lon="5.61874">
        <ele>307.75927734375</ele>
        <time>2012-05-16T10:11:58Z</time>
      </trkpt>
      <trkpt lat="46.74532" lon="5.61887">
        <ele>309.201171875</ele>
        <time>2012-05-16T10:12:03Z</time>
      </trkpt>
      <trkpt lat="46.74537" lon="5.61902">
        <ele>307.27856445312</ele>
        <time>2012-05-16T10:12:09Z</time>
      </trkpt>
      <trkpt lat="46.74541" lon="5.61907">
        <ele>306.7978515625</ele>
        <time>2012-05-16T10:12:11Z</time>
      </trkpt>
      <trkpt lat="46.74549" lon="5.61923">
        <ele>305.35595703125</ele>
        <time>2012-05-16T10:12:17Z</time>
      </trkpt>
      <trkpt lat="46.74556" lon="5.61935">
        <ele>302.95251464844</ele>
        <time>2012-05-16T10:12:22Z</time>
      </trkpt>
      <trkpt lat="46.74565" lon="5.61952">
        <ele>299.58801269531</ele>
        <time>2012-05-16T10:12:29Z</time>
      </trkpt>
      <trkpt lat="46.74566" lon="5.61954">
        <ele>299.58801269531</ele>
        <time>2012-05-16T10:12:30Z</time>
      </trkpt>
      <trkpt lat="46.74577" lon="5.61971">
        <ele>297.18469238281</ele>
        <time>2012-05-16T10:12:36Z</time>
      </trkpt>
      <trkpt lat="46.74578" lon="5.61984">
        <ele>293.82006835938</ele>
        <time>2012-05-16T10:12:40Z</time>
      </trkpt>
      <trkpt lat="46.74569" lon="5.61994">
        <ele>292.85876464844</ele>
        <time>2012-05-16T10:12:44Z</time>
      </trkpt>
      <trkpt lat="46.74562" lon="5.62">
        <ele>292.85876464844</ele>
        <time>2012-05-16T10:12:47Z</time>
      </trkpt>
      <trkpt lat="46.74547" lon="5.62017">
        <ele>292.37817382812</ele>
        <time>2012-05-16T10:12:54Z</time>
      </trkpt>
      <trkpt lat="46.74537" lon="5.62029">
        <ele>292.37817382812</ele>
        <time>2012-05-16T10:12:59Z</time>
      </trkpt>
      <trkpt lat="46.74534" lon="5.62035">
        <ele>291.8974609375</ele>
        <time>2012-05-16T10:13:01Z</time>
      </trkpt>
      <trkpt lat="46.74526" lon="5.62044">
        <ele>291.8974609375</ele>
        <time>2012-05-16T10:13:05Z</time>
      </trkpt>
      <trkpt lat="46.74518" lon="5.62057">
        <ele>291.8974609375</ele>
        <time>2012-05-16T10:13:10Z</time>
      </trkpt>
      <trkpt lat="46.74512" lon="5.62068">
        <ele>289.97485351562</ele>
        <time>2012-05-16T10:13:14Z</time>
      </trkpt>
      <trkpt lat="46.74502" lon="5.62084">
        <ele>287.57141113281</ele>
        <time>2012-05-16T10:13:20Z</time>
      </trkpt>
      <trkpt lat="46.74492" lon="5.62102">
        <ele>287.0908203125</ele>
        <time>2012-05-16T10:13:26Z</time>
      </trkpt>
      <trkpt lat="46.74482" lon="5.6212">
        <ele>286.12951660156</ele>
        <time>2012-05-16T10:13:32Z</time>
      </trkpt>
      <trkpt lat="46.74477" lon="5.62133">
        <ele>284.68762207031</ele>
        <time>2012-05-16T10:13:36Z</time>
      </trkpt>
      <trkpt lat="46.7447" lon="5.62144">
        <ele>283.24560546875</ele>
        <time>2012-05-16T10:13:41Z</time>
      </trkpt>
      <trkpt lat="46.74461" lon="5.62156">
        <ele>281.32299804688</ele>
        <time>2012-05-16T10:13:46Z</time>
      </trkpt>
      <trkpt lat="46.7445" lon="5.62169">
        <ele>280.84240722656</ele>
        <time>2012-05-16T10:13:52Z</time>
      </trkpt>
      <trkpt lat="46.74436" lon="5.62187">
        <ele>282.76501464844</ele>
        <time>2012-05-16T10:13:59Z</time>
      </trkpt>
      <trkpt lat="46.74423" lon="5.62205">
        <ele>284.20690917969</ele>
        <time>2012-05-16T10:14:06Z</time>
      </trkpt>
      <trkpt lat="46.74416" lon="5.62216">
        <ele>283.72619628906</ele>
        <time>2012-05-16T10:14:10Z</time>
      </trkpt>
      <trkpt lat="46.74412" lon="5.62229">
        <ele>282.28430175781</ele>
        <time>2012-05-16T10:14:14Z</time>
      </trkpt>
      <trkpt lat="46.74411" lon="5.62241">
        <ele>282.76501464844</ele>
        <time>2012-05-16T10:14:18Z</time>
      </trkpt>
      <trkpt lat="46.74412" lon="5.62257">
        <ele>283.24560546875</ele>
        <time>2012-05-16T10:14:23Z</time>
      </trkpt>
      <trkpt lat="46.74412" lon="5.6227">
        <ele>281.80358886719</ele>
        <time>2012-05-16T10:14:27Z</time>
      </trkpt>
      <trkpt lat="46.74409" lon="5.62287">
        <ele>281.32299804688</ele>
        <time>2012-05-16T10:14:32Z</time>
      </trkpt>
      <trkpt lat="46.74408" lon="5.62301">
        <ele>280.84240722656</ele>
        <time>2012-05-16T10:14:36Z</time>
      </trkpt>
      <trkpt lat="46.74406" lon="5.62317">
        <ele>279.40026855469</ele>
        <time>2012-05-16T10:14:41Z</time>
      </trkpt>
      <trkpt lat="46.74403" lon="5.62334">
        <ele>278.43896484375</ele>
        <time>2012-05-16T10:14:46Z</time>
      </trkpt>
      <trkpt lat="46.74399" lon="5.62354">
        <ele>276.51635742188</ele>
        <time>2012-05-16T10:14:52Z</time>
      </trkpt>
      <trkpt lat="46.74395" lon="5.6237">
        <ele>274.11303710938</ele>
        <time>2012-05-16T10:14:57Z</time>
      </trkpt>
      <trkpt lat="46.74393" lon="5.62383">
        <ele>273.63244628906</ele>
        <time>2012-05-16T10:15:01Z</time>
      </trkpt>
      <trkpt lat="46.74391" lon="5.62398">
        <ele>274.11303710938</ele>
        <time>2012-05-16T10:15:05Z</time>
      </trkpt>
      <trkpt lat="46.74389" lon="5.62409">
        <ele>273.63244628906</ele>
        <time>2012-05-16T10:15:10Z</time>
      </trkpt>
      <trkpt lat="46.74379" lon="5.62421">
        <ele>273.63244628906</ele>
        <time>2012-05-16T10:15:18Z</time>
      </trkpt>
      <trkpt lat="46.74377" lon="5.62423">
        <ele>274.11303710938</ele>
        <time>2012-05-16T10:15:20Z</time>
      </trkpt>
      <trkpt lat="46.74374" lon="5.62433">
        <ele>276.03564453125</ele>
        <time>2012-05-16T10:15:25Z</time>
      </trkpt>
      <trkpt lat="46.74371" lon="5.6245">
        <ele>278.43896484375</ele>
        <time>2012-05-16T10:15:33Z</time>
      </trkpt>
      <trkpt lat="46.74369" lon="5.62456">
        <ele>278.43896484375</ele>
        <time>2012-05-16T10:15:36Z</time>
      </trkpt>
      <trkpt lat="46.74368" lon="5.62467">
        <ele>278.91967773438</ele>
        <time>2012-05-16T10:15:42Z</time>
      </trkpt>
      <trkpt lat="46.74374" lon="5.6248">
        <ele>280.84240722656</ele>
        <time>2012-05-16T10:15:49Z</time>
      </trkpt>
      <trkpt lat="46.74376" lon="5.62489">
        <ele>281.80358886719</ele>
        <time>2012-05-16T10:15:53Z</time>
      </trkpt>
      <trkpt lat="46.74377" lon="5.62499">
        <ele>279.880859375</ele>
        <time>2012-05-16T10:15:58Z</time>
      </trkpt>
      <trkpt lat="46.74378" lon="5.62509">
        <ele>279.880859375</ele>
        <time>2012-05-16T10:16:02Z</time>
      </trkpt>
      <trkpt lat="46.74381" lon="5.62526">
        <ele>279.40026855469</ele>
        <time>2012-05-16T10:16:09Z</time>
      </trkpt>
      <trkpt lat="46.74382" lon="5.62533">
        <ele>278.91967773438</ele>
        <time>2012-05-16T10:16:11Z</time>
      </trkpt>
      <trkpt lat="46.74382" lon="5.62554">
        <ele>278.91967773438</ele>
        <time>2012-05-16T10:16:17Z</time>
      </trkpt>
      <trkpt lat="46.74382" lon="5.62569">
        <ele>279.40026855469</ele>
        <time>2012-05-16T10:16:21Z</time>
      </trkpt>
      <trkpt lat="46.74381" lon="5.62586">
        <ele>280.36169433594</ele>
        <time>2012-05-16T10:16:26Z</time>
      </trkpt>
      <trkpt lat="46.74381" lon="5.62606">
        <ele>277.47766113281</ele>
        <time>2012-05-16T10:16:32Z</time>
      </trkpt>
      <trkpt lat="46.74381" lon="5.6261">
        <ele>277.47766113281</ele>
        <time>2012-05-16T10:16:33Z</time>
      </trkpt>
      <trkpt lat="46.74386" lon="5.62624">
        <ele>276.51635742188</ele>
        <time>2012-05-16T10:16:38Z</time>
      </trkpt>
      <trkpt lat="46.74392" lon="5.62631">
        <ele>277.47766113281</ele>
        <time>2012-05-16T10:16:41Z</time>
      </trkpt>
      <trkpt lat="46.74403" lon="5.62639">
        <ele>276.9970703125</ele>
        <time>2012-05-16T10:16:46Z</time>
      </trkpt>
      <trkpt lat="46.74414" lon="5.62643">
        <ele>279.40026855469</ele>
        <time>2012-05-16T10:16:51Z</time>
      </trkpt>
      <trkpt lat="46.74424" lon="5.62647">
        <ele>280.36169433594</ele>
        <time>2012-05-16T10:16:55Z</time>
      </trkpt>
      <trkpt lat="46.74436" lon="5.62647">
        <ele>281.32299804688</ele>
        <time>2012-05-16T10:17:00Z</time>
      </trkpt>
      <trkpt lat="46.74448" lon="5.62646">
        <ele>281.32299804688</ele>
        <time>2012-05-16T10:17:05Z</time>
      </trkpt>
      <trkpt lat="46.74456" lon="5.62645">
        <ele>280.84240722656</ele>
        <time>2012-05-16T10:17:08Z</time>
      </trkpt>
      <trkpt lat="46.74465" lon="5.62647">
        <ele>280.84240722656</ele>
        <time>2012-05-16T10:17:12Z</time>
      </trkpt>
      <trkpt lat="46.7447" lon="5.62648">
        <ele>281.80358886719</ele>
        <time>2012-05-16T10:17:15Z</time>
      </trkpt>
      <trkpt lat="46.74477" lon="5.62652">
        <ele>281.80358886719</ele>
        <time>2012-05-16T10:17:21Z</time>
      </trkpt>
      <trkpt lat="46.74478" lon="5.62654">
        <ele>281.80358886719</ele>
        <time>2012-05-16T10:17:25Z</time>
      </trkpt>
      <trkpt lat="46.74477" lon="5.6266">
        <ele>281.32299804688</ele>
        <time>2012-05-16T10:17:28Z</time>
      </trkpt>
      <trkpt lat="46.74475" lon="5.6267">
        <ele>280.84240722656</ele>
        <time>2012-05-16T10:17:33Z</time>
      </trkpt>
      <trkpt lat="46.74479" lon="5.62678">
        <ele>281.32299804688</ele>
        <time>2012-05-16T10:17:38Z</time>
      </trkpt>
      <trkpt lat="46.74481" lon="5.62682">
        <ele>282.28430175781</ele>
        <time>2012-05-16T10:17:40Z</time>
      </trkpt>
      <trkpt lat="46.74491" lon="5.62691">
        <ele>285.64880371094</ele>
        <time>2012-05-16T10:17:46Z</time>
      </trkpt>
      <trkpt lat="46.74501" lon="5.62698">
        <ele>290.93615722656</ele>
        <time>2012-05-16T10:17:53Z</time>
      </trkpt>
      <trkpt lat="46.74503" lon="5.62699">
        <ele>291.8974609375</ele>
        <time>2012-05-16T10:17:54Z</time>
      </trkpt>
      <trkpt lat="46.74506" lon="5.62705">
        <ele>289.494140625</ele>
        <time>2012-05-16T10:17:59Z</time>
      </trkpt>
      <trkpt lat="46.74511" lon="5.6271">
        <ele>285.64880371094</ele>
        <time>2012-05-16T10:18:05Z</time>
      </trkpt>
      <trkpt lat="46.74512" lon="5.6271">
        <ele>285.64880371094</ele>
        <time>2012-05-16T10:18:06Z</time>
      </trkpt>
      <trkpt lat="46.74515" lon="5.62714">
        <ele>285.16821289062</ele>
        <time>2012-05-16T10:18:09Z</time>
      </trkpt>
      <trkpt lat="46.7452" lon="5.62718">
        <ele>283.24560546875</ele>
        <time>2012-05-16T10:18:14Z</time>
      </trkpt>
      <trkpt lat="46.74527" lon="5.62724">
        <ele>282.28430175781</ele>
        <time>2012-05-16T10:18:21Z</time>
      </trkpt>
      <trkpt lat="46.74535" lon="5.62729">
        <ele>282.76501464844</ele>
        <time>2012-05-16T10:18:28Z</time>
      </trkpt>
      <trkpt lat="46.74536" lon="5.62729">
        <ele>282.76501464844</ele>
        <time>2012-05-16T10:18:29Z</time>
      </trkpt>
      <trkpt lat="46.74545" lon="5.62731">
        <ele>286.12951660156</ele>
        <time>2012-05-16T10:18:37Z</time>
      </trkpt>
      <trkpt lat="46.74554" lon="5.62737">
        <ele>288.53295898438</ele>
        <time>2012-05-16T10:18:45Z</time>
      </trkpt>
      <trkpt lat="46.74559" lon="5.62743">
        <ele>289.97485351562</ele>
        <time>2012-05-16T10:18:51Z</time>
      </trkpt>
      <trkpt lat="46.74561" lon="5.62747">
        <ele>291.41674804688</ele>
        <time>2012-05-16T10:18:56Z</time>
      </trkpt>
      <trkpt lat="46.74565" lon="5.62753">
        <ele>292.85876464844</ele>
        <time>2012-05-16T10:19:04Z</time>
      </trkpt>
      <trkpt lat="46.74571" lon="5.62759">
        <ele>295.26196289062</ele>
        <time>2012-05-16T10:19:14Z</time>
      </trkpt>
      <trkpt lat="46.74574" lon="5.62761">
        <ele>296.22351074219</ele>
        <time>2012-05-16T10:19:20Z</time>
      </trkpt>
      <trkpt lat="46.74577" lon="5.62762">
        <ele>296.7041015625</ele>
        <time>2012-05-16T10:19:26Z</time>
      </trkpt>
      <trkpt lat="46.74581" lon="5.62762">
        <ele>297.66540527344</ele>
        <time>2012-05-16T10:19:30Z</time>
      </trkpt>
      <trkpt lat="46.74585" lon="5.62764">
        <ele>299.58801269531</ele>
        <time>2012-05-16T10:19:35Z</time>
      </trkpt>
      <trkpt lat="46.74589" lon="5.62764">
        <ele>300.06872558594</ele>
        <time>2012-05-16T10:19:39Z</time>
      </trkpt>
      <trkpt lat="46.74593" lon="5.62766">
        <ele>301.51062011719</ele>
        <time>2012-05-16T10:19:44Z</time>
      </trkpt>
      <trkpt lat="46.74597" lon="5.62768">
        <ele>302.95251464844</ele>
        <time>2012-05-16T10:19:49Z</time>
      </trkpt>
      <trkpt lat="46.74601" lon="5.6277">
        <ele>305.83666992188</ele>
        <time>2012-05-16T10:19:55Z</time>
      </trkpt>
      <trkpt lat="46.74604" lon="5.62773">
        <ele>308.23986816406</ele>
        <time>2012-05-16T10:19:59Z</time>
      </trkpt>
      <trkpt lat="46.74609" lon="5.62775">
        <ele>311.12377929688</ele>
        <time>2012-05-16T10:20:04Z</time>
      </trkpt>
      <trkpt lat="46.74611" lon="5.62776">
        <ele>311.6044921875</ele>
        <time>2012-05-16T10:20:06Z</time>
      </trkpt>
      <trkpt lat="46.74615" lon="5.62774">
        <ele>312.08520507812</ele>
        <time>2012-05-16T10:20:10Z</time>
      </trkpt>
      <trkpt lat="46.74619" lon="5.62768">
        <ele>312.56579589844</ele>
        <time>2012-05-16T10:20:14Z</time>
      </trkpt>
      <trkpt lat="46.74624" lon="5.62765">
        <ele>313.04650878906</ele>
        <time>2012-05-16T10:20:18Z</time>
      </trkpt>
      <trkpt lat="46.7463" lon="5.62767">
        <ele>311.6044921875</ele>
        <time>2012-05-16T10:20:24Z</time>
      </trkpt>
      <trkpt lat="46.74634" lon="5.62769">
        <ele>312.56579589844</ele>
        <time>2012-05-16T10:20:29Z</time>
      </trkpt>
      <trkpt lat="46.74638" lon="5.62774">
        <ele>314.0078125</ele>
        <time>2012-05-16T10:20:35Z</time>
      </trkpt>
      <trkpt lat="46.7464" lon="5.62777">
        <ele>314.48840332031</ele>
        <time>2012-05-16T10:20:39Z</time>
      </trkpt>
      <trkpt lat="46.74643" lon="5.62779">
        <ele>316.41101074219</ele>
        <time>2012-05-16T10:20:43Z</time>
      </trkpt>
      <trkpt lat="46.74645" lon="5.62783">
        <ele>317.85302734375</ele>
        <time>2012-05-16T10:20:48Z</time>
      </trkpt>
      <trkpt lat="46.74648" lon="5.62789">
        <ele>319.77563476562</ele>
        <time>2012-05-16T10:20:53Z</time>
      </trkpt>
      <trkpt lat="46.74649" lon="5.62794">
        <ele>320.73706054688</ele>
        <time>2012-05-16T10:20:56Z</time>
      </trkpt>
      <trkpt lat="46.74654" lon="5.62804">
        <ele>322.17895507812</ele>
        <time>2012-05-16T10:21:03Z</time>
      </trkpt>
      <trkpt lat="46.74657" lon="5.62811">
        <ele>324.58227539062</ele>
        <time>2012-05-16T10:21:09Z</time>
      </trkpt>
      <trkpt lat="46.74659" lon="5.62812">
        <ele>325.06298828125</ele>
        <time>2012-05-16T10:21:10Z</time>
      </trkpt>
      <trkpt lat="46.74666" lon="5.62809">
        <ele>326.02416992188</ele>
        <time>2012-05-16T10:21:17Z</time>
      </trkpt>
      <trkpt lat="46.74678" lon="5.62802">
        <ele>328.90832519531</ele>
        <time>2012-05-16T10:21:25Z</time>
      </trkpt>
      <trkpt lat="46.74681" lon="5.62801">
        <ele>329.38891601562</ele>
        <time>2012-05-16T10:21:27Z</time>
      </trkpt>
      <trkpt lat="46.74693" lon="5.62792">
        <ele>331.79211425781</ele>
        <time>2012-05-16T10:21:36Z</time>
      </trkpt>
      <trkpt lat="46.74697" lon="5.6279">
        <ele>332.27282714844</ele>
        <time>2012-05-16T10:21:39Z</time>
      </trkpt>
      <trkpt lat="46.74708" lon="5.62781">
        <ele>333.23413085938</ele>
        <time>2012-05-16T10:21:48Z</time>
      </trkpt>
      <trkpt lat="46.74717" lon="5.62774">
        <ele>334.19543457031</ele>
        <time>2012-05-16T10:21:55Z</time>
      </trkpt>
      <trkpt lat="46.74727" lon="5.62765">
        <ele>334.67614746094</ele>
        <time>2012-05-16T10:22:01Z</time>
      </trkpt>
      <trkpt lat="46.74736" lon="5.62754">
        <ele>334.19543457031</ele>
        <time>2012-05-16T10:22:06Z</time>
      </trkpt>
      <trkpt lat="46.74746" lon="5.62742">
        <ele>333.23413085938</ele>
        <time>2012-05-16T10:22:11Z</time>
      </trkpt>
      <trkpt lat="46.74759" lon="5.62732">
        <ele>333.23413085938</ele>
        <time>2012-05-16T10:22:17Z</time>
      </trkpt>
      <trkpt lat="46.74769" lon="5.62729">
        <ele>334.19543457031</ele>
        <time>2012-05-16T10:22:22Z</time>
      </trkpt>
      <trkpt lat="46.7478" lon="5.62731">
        <ele>335.63732910156</ele>
        <time>2012-05-16T10:22:27Z</time>
      </trkpt>
      <trkpt lat="46.74792" lon="5.62736">
        <ele>337.07946777344</ele>
        <time>2012-05-16T10:22:33Z</time>
      </trkpt>
      <trkpt lat="46.74802" lon="5.62743">
        <ele>337.07946777344</ele>
        <time>2012-05-16T10:22:41Z</time>
      </trkpt>
      <trkpt lat="46.7481" lon="5.62749">
        <ele>337.56005859375</ele>
        <time>2012-05-16T10:22:49Z</time>
      </trkpt>
      <trkpt lat="46.74816" lon="5.6275">
        <ele>338.04077148438</ele>
        <time>2012-05-16T10:22:54Z</time>
      </trkpt>
      <trkpt lat="46.74827" lon="5.62749">
        <ele>339.00207519531</ele>
        <time>2012-05-16T10:23:02Z</time>
      </trkpt>
      <trkpt lat="46.7484" lon="5.62744">
        <ele>341.88598632812</ele>
        <time>2012-05-16T10:23:10Z</time>
      </trkpt>
      <trkpt lat="46.7485" lon="5.62741">
        <ele>343.32788085938</ele>
        <time>2012-05-16T10:23:17Z</time>
      </trkpt>
      <trkpt lat="46.7486" lon="5.62737">
        <ele>346.21203613281</ele>
        <time>2012-05-16T10:23:24Z</time>
      </trkpt>
      <trkpt lat="46.7487" lon="5.62737">
        <ele>346.69262695312</ele>
        <time>2012-05-16T10:23:29Z</time>
      </trkpt>
      <trkpt lat="46.74886" lon="5.62739">
        <ele>346.69262695312</ele>
        <time>2012-05-16T10:23:36Z</time>
      </trkpt>
      <trkpt lat="46.74897" lon="5.62743">
        <ele>347.17321777344</ele>
        <time>2012-05-16T10:23:41Z</time>
      </trkpt>
      <trkpt lat="46.74908" lon="5.62751">
        <ele>347.65393066406</ele>
        <time>2012-05-16T10:23:46Z</time>
      </trkpt>
      <trkpt lat="46.74918" lon="5.6276">
        <ele>347.65393066406</ele>
        <time>2012-05-16T10:23:51Z</time>
      </trkpt>
      <trkpt lat="46.74926" lon="5.62767">
        <ele>347.17321777344</ele>
        <time>2012-05-16T10:23:55Z</time>
      </trkpt>
      <trkpt lat="46.74939" lon="5.62781">
        <ele>346.21203613281</ele>
        <time>2012-05-16T10:24:02Z</time>
      </trkpt>
      <trkpt lat="46.7495" lon="5.62793">
        <ele>346.21203613281</ele>
        <time>2012-05-16T10:24:08Z</time>
      </trkpt>
      <trkpt lat="46.74955" lon="5.62797">
        <ele>346.69262695312</ele>
        <time>2012-05-16T10:24:10Z</time>
      </trkpt>
      <trkpt lat="46.74964" lon="5.62808">
        <ele>347.17321777344</ele>
        <time>2012-05-16T10:24:15Z</time>
      </trkpt>
      <trkpt lat="46.74971" lon="5.62815">
        <ele>347.65393066406</ele>
        <time>2012-05-16T10:24:20Z</time>
      </trkpt>
      <trkpt lat="46.74978" lon="5.62821">
        <ele>347.17321777344</ele>
        <time>2012-05-16T10:24:25Z</time>
      </trkpt>
      <trkpt lat="46.74987" lon="5.62828">
        <ele>346.21203613281</ele>
        <time>2012-05-16T10:24:32Z</time>
      </trkpt>
      <trkpt lat="46.74995" lon="5.62836">
        <ele>345.73132324219</ele>
        <time>2012-05-16T10:24:39Z</time>
      </trkpt>
      <trkpt lat="46.75004" lon="5.62845">
        <ele>346.21203613281</ele>
        <time>2012-05-16T10:24:47Z</time>
      </trkpt>
      <trkpt lat="46.7501" lon="5.62852">
        <ele>346.69262695312</ele>
        <time>2012-05-16T10:24:53Z</time>
      </trkpt>
      <trkpt lat="46.75017" lon="5.6286">
        <ele>346.69262695312</ele>
        <time>2012-05-16T10:24:59Z</time>
      </trkpt>
      <trkpt lat="46.75022" lon="5.62868">
        <ele>346.69262695312</ele>
        <time>2012-05-16T10:25:05Z</time>
      </trkpt>
      <trkpt lat="46.75029" lon="5.62873">
        <ele>348.13464355469</ele>
        <time>2012-05-16T10:25:10Z</time>
      </trkpt>
      <trkpt lat="46.75037" lon="5.62881">
        <ele>349.57653808594</ele>
        <time>2012-05-16T10:25:17Z</time>
      </trkpt>
      <trkpt lat="46.75047" lon="5.62886">
        <ele>350.53784179688</ele>
        <time>2012-05-16T10:25:25Z</time>
      </trkpt>
      <trkpt lat="46.75055" lon="5.62893">
        <ele>350.05725097656</ele>
        <time>2012-05-16T10:25:32Z</time>
      </trkpt>
      <trkpt lat="46.75063" lon="5.629">
        <ele>350.53784179688</ele>
        <time>2012-05-16T10:25:40Z</time>
      </trkpt>
      <trkpt lat="46.75071" lon="5.62906">
        <ele>351.01843261719</ele>
        <time>2012-05-16T10:25:47Z</time>
      </trkpt>
      <trkpt lat="46.75077" lon="5.62911">
        <ele>351.49914550781</ele>
        <time>2012-05-16T10:25:53Z</time>
      </trkpt>
      <trkpt lat="46.75085" lon="5.62916">
        <ele>351.97985839844</ele>
        <time>2012-05-16T10:25:59Z</time>
      </trkpt>
      <trkpt lat="46.75092" lon="5.62922">
        <ele>352.46057128906</ele>
        <time>2012-05-16T10:26:05Z</time>
      </trkpt>
      <trkpt lat="46.75097" lon="5.62924">
        <ele>352.94116210938</ele>
        <time>2012-05-16T10:26:08Z</time>
      </trkpt>
      <trkpt lat="46.75099" lon="5.62926">
        <ele>353.421875</ele>
        <time>2012-05-16T10:26:10Z</time>
      </trkpt>
      <trkpt lat="46.75109" lon="5.62929">
        <ele>355.8251953125</ele>
        <time>2012-05-16T10:26:16Z</time>
      </trkpt>
      <trkpt lat="46.75118" lon="5.62935">
        <ele>360.15112304688</ele>
        <time>2012-05-16T10:26:24Z</time>
      </trkpt>
      <trkpt lat="46.75125" lon="5.62939">
        <ele>363.99633789062</ele>
        <time>2012-05-16T10:26:30Z</time>
      </trkpt>
      <trkpt lat="46.75129" lon="5.62943">
        <ele>367.36096191406</ele>
        <time>2012-05-16T10:26:38Z</time>
      </trkpt>
      <trkpt lat="46.75134" lon="5.62947">
        <ele>365.9189453125</ele>
        <time>2012-05-16T10:26:43Z</time>
      </trkpt>
      <trkpt lat="46.7514" lon="5.62947">
        <ele>365.43835449219</ele>
        <time>2012-05-16T10:26:49Z</time>
      </trkpt>
      <trkpt lat="46.75148" lon="5.62948">
        <ele>363.99633789062</ele>
        <time>2012-05-16T10:26:55Z</time>
      </trkpt>
      <trkpt lat="46.75156" lon="5.62949">
        <ele>363.51574707031</ele>
        <time>2012-05-16T10:27:00Z</time>
      </trkpt>
      <trkpt lat="46.75171" lon="5.62943">
        <ele>365.43835449219</ele>
        <time>2012-05-16T10:27:06Z</time>
      </trkpt>
      <trkpt lat="46.75183" lon="5.62936">
        <ele>368.322265625</ele>
        <time>2012-05-16T10:27:12Z</time>
      </trkpt>
      <trkpt lat="46.75188" lon="5.62923">
        <ele>371.20629882812</ele>
        <time>2012-05-16T10:27:19Z</time>
      </trkpt>
      <trkpt lat="46.75189" lon="5.62921">
        <ele>371.20629882812</ele>
        <time>2012-05-16T10:27:20Z</time>
      </trkpt>
      <trkpt lat="46.75193" lon="5.62911">
        <ele>375.05151367188</ele>
        <time>2012-05-16T10:27:25Z</time>
      </trkpt>
      <trkpt lat="46.75196" lon="5.62904">
        <ele>377.93542480469</ele>
        <time>2012-05-16T10:27:28Z</time>
      </trkpt>
      <trkpt lat="46.75198" lon="5.62897">
        <ele>379.85803222656</ele>
        <time>2012-05-16T10:27:31Z</time>
      </trkpt>
      <trkpt lat="46.752" lon="5.62886">
        <ele>382.26135253906</ele>
        <time>2012-05-16T10:27:37Z</time>
      </trkpt>
      <trkpt lat="46.75201" lon="5.62872">
        <ele>384.18408203125</ele>
        <time>2012-05-16T10:27:44Z</time>
      </trkpt>
      <trkpt lat="46.75202" lon="5.62865">
        <ele>383.70324707031</ele>
        <time>2012-05-16T10:27:48Z</time>
      </trkpt>
      <trkpt lat="46.75206" lon="5.62849">
        <ele>382.74206542969</ele>
        <time>2012-05-16T10:27:56Z</time>
      </trkpt>
      <trkpt lat="46.75208" lon="5.62833">
        <ele>383.22265625</ele>
        <time>2012-05-16T10:28:04Z</time>
      </trkpt>
      <trkpt lat="46.75211" lon="5.62819">
        <ele>382.74206542969</ele>
        <time>2012-05-16T10:28:11Z</time>
      </trkpt>
      <trkpt lat="46.75215" lon="5.62807">
        <ele>383.22265625</ele>
        <time>2012-05-16T10:28:18Z</time>
      </trkpt>
      <trkpt lat="46.75217" lon="5.62792">
        <ele>384.18408203125</ele>
        <time>2012-05-16T10:28:25Z</time>
      </trkpt>
      <trkpt lat="46.75219" lon="5.62777">
        <ele>385.14538574219</ele>
        <time>2012-05-16T10:28:32Z</time>
      </trkpt>
      <trkpt lat="46.75219" lon="5.62761">
        <ele>386.58740234375</ele>
        <time>2012-05-16T10:28:39Z</time>
      </trkpt>
      <trkpt lat="46.75217" lon="5.62746">
        <ele>388.51000976562</ele>
        <time>2012-05-16T10:28:46Z</time>
      </trkpt>
      <trkpt lat="46.75215" lon="5.62729">
        <ele>389.95190429688</ele>
        <time>2012-05-16T10:28:54Z</time>
      </trkpt>
      <trkpt lat="46.75214" lon="5.62715">
        <ele>391.39379882812</ele>
        <time>2012-05-16T10:29:01Z</time>
      </trkpt>
      <trkpt lat="46.75214" lon="5.627">
        <ele>390.4326171875</ele>
        <time>2012-05-16T10:29:07Z</time>
      </trkpt>
      <trkpt lat="46.75214" lon="5.62675">
        <ele>388.029296875</ele>
        <time>2012-05-16T10:29:14Z</time>
      </trkpt>
      <trkpt lat="46.75217" lon="5.62657">
        <ele>388.029296875</ele>
        <time>2012-05-16T10:29:20Z</time>
      </trkpt>
      <trkpt lat="46.75224" lon="5.62644">
        <ele>387.54858398438</ele>
        <time>2012-05-16T10:29:28Z</time>
      </trkpt>
      <trkpt lat="46.75234" lon="5.62631">
        <ele>387.54858398438</ele>
        <time>2012-05-16T10:29:37Z</time>
      </trkpt>
      <trkpt lat="46.7524" lon="5.62622">
        <ele>388.029296875</ele>
        <time>2012-05-16T10:29:43Z</time>
      </trkpt>
      <trkpt lat="46.7525" lon="5.62614">
        <ele>388.99060058594</ele>
        <time>2012-05-16T10:29:51Z</time>
      </trkpt>
      <trkpt lat="46.75261" lon="5.62607">
        <ele>389.95190429688</ele>
        <time>2012-05-16T10:29:59Z</time>
      </trkpt>
      <trkpt lat="46.75267" lon="5.62604">
        <ele>390.91320800781</ele>
        <time>2012-05-16T10:30:04Z</time>
      </trkpt>
      <trkpt lat="46.7527" lon="5.62608">
        <ele>392.8359375</ele>
        <time>2012-05-16T10:30:09Z</time>
      </trkpt>
      <trkpt lat="46.75274" lon="5.62613">
        <ele>395.23913574219</ele>
        <time>2012-05-16T10:30:16Z</time>
      </trkpt>
      <trkpt lat="46.75277" lon="5.62614">
        <ele>396.20056152344</ele>
        <time>2012-05-16T10:30:21Z</time>
      </trkpt>
      <trkpt lat="46.75283" lon="5.62614">
        <ele>399.56506347656</ele>
        <time>2012-05-16T10:30:29Z</time>
      </trkpt>
      <trkpt lat="46.75288" lon="5.62613">
        <ele>402.9296875</ele>
        <time>2012-05-16T10:30:35Z</time>
      </trkpt>
      <trkpt lat="46.75293" lon="5.62611">
        <ele>404.37170410156</ele>
        <time>2012-05-16T10:30:39Z</time>
      </trkpt>
      <trkpt lat="46.75297" lon="5.62604">
        <ele>405.3330078125</ele>
        <time>2012-05-16T10:30:44Z</time>
      </trkpt>
      <trkpt lat="46.75303" lon="5.62602">
        <ele>406.29431152344</ele>
        <time>2012-05-16T10:30:50Z</time>
      </trkpt>
      <trkpt lat="46.75307" lon="5.62603">
        <ele>407.25561523438</ele>
        <time>2012-05-16T10:30:55Z</time>
      </trkpt>
      <trkpt lat="46.7531" lon="5.62604">
        <ele>410.1396484375</ele>
        <time>2012-05-16T10:30:59Z</time>
      </trkpt>
      <trkpt lat="46.75313" lon="5.62605">
        <ele>412.06225585938</ele>
        <time>2012-05-16T10:31:04Z</time>
      </trkpt>
      <trkpt lat="46.75317" lon="5.62607">
        <ele>413.98486328125</ele>
        <time>2012-05-16T10:31:10Z</time>
      </trkpt>
      <trkpt lat="46.75321" lon="5.62607">
        <ele>415.42687988281</ele>
        <time>2012-05-16T10:31:15Z</time>
      </trkpt>
      <trkpt lat="46.75331" lon="5.62607">
        <ele>425.52075195312</ele>
        <time>2012-05-16T10:31:35Z</time>
      </trkpt>
      <trkpt lat="46.75332" lon="5.6261">
        <ele>424.55944824219</ele>
        <time>2012-05-16T10:31:41Z</time>
      </trkpt>
      <trkpt lat="46.75335" lon="5.62611">
        <ele>422.63671875</ele>
        <time>2012-05-16T10:31:48Z</time>
      </trkpt>
      <trkpt lat="46.7534" lon="5.6261">
        <ele>424.07873535156</ele>
        <time>2012-05-16T10:31:52Z</time>
      </trkpt>
      <trkpt lat="46.75342" lon="5.62608">
        <ele>426.00134277344</ele>
        <time>2012-05-16T10:31:56Z</time>
      </trkpt>
      <trkpt lat="46.75344" lon="5.62613">
        <ele>429.84655761719</ele>
        <time>2012-05-16T10:32:03Z</time>
      </trkpt>
      <trkpt lat="46.75346" lon="5.62613">
        <ele>432.25</ele>
        <time>2012-05-16T10:32:08Z</time>
      </trkpt>
      <trkpt lat="46.75352" lon="5.62613">
        <ele>436.09521484375</ele>
        <time>2012-05-16T10:32:15Z</time>
      </trkpt>
      <trkpt lat="46.75363" lon="5.62608">
        <ele>445.70837402344</ele>
        <time>2012-05-16T10:32:29Z</time>
      </trkpt>
      <trkpt lat="46.75367" lon="5.62605">
        <ele>448.59240722656</ele>
        <time>2012-05-16T10:32:33Z</time>
      </trkpt>
      <trkpt lat="46.75372" lon="5.62604">
        <ele>449.5537109375</ele>
        <time>2012-05-16T10:32:39Z</time>
      </trkpt>
      <trkpt lat="46.7538" lon="5.62604">
        <ele>443.30505371094</ele>
        <time>2012-05-16T10:32:46Z</time>
      </trkpt>
      <trkpt lat="46.75383" lon="5.62601">
        <ele>443.30505371094</ele>
        <time>2012-05-16T10:32:50Z</time>
      </trkpt>
      <trkpt lat="46.75387" lon="5.626">
        <ele>444.26647949219</ele>
        <time>2012-05-16T10:32:55Z</time>
      </trkpt>
      <trkpt lat="46.75391" lon="5.62601">
        <ele>441.38244628906</ele>
        <time>2012-05-16T10:33:00Z</time>
      </trkpt>
      <trkpt lat="46.75392" lon="5.62599">
        <ele>441.38244628906</ele>
        <time>2012-05-16T10:33:04Z</time>
      </trkpt>
      <trkpt lat="46.75395" lon="5.62597">
        <ele>440.90185546875</ele>
        <time>2012-05-16T10:33:09Z</time>
      </trkpt>
      <trkpt lat="46.75397" lon="5.6259">
        <ele>440.42126464844</ele>
        <time>2012-05-16T10:33:15Z</time>
      </trkpt>
      <trkpt lat="46.75399" lon="5.62584">
        <ele>440.42126464844</ele>
        <time>2012-05-16T10:33:21Z</time>
      </trkpt>
      <trkpt lat="46.75397" lon="5.62577">
        <ele>441.38244628906</ele>
        <time>2012-05-16T10:33:26Z</time>
      </trkpt>
      <trkpt lat="46.75396" lon="5.62574">
        <ele>441.38244628906</ele>
        <time>2012-05-16T10:33:29Z</time>
      </trkpt>
      <trkpt lat="46.75392" lon="5.62568">
        <ele>442.34387207031</ele>
        <time>2012-05-16T10:33:33Z</time>
      </trkpt>
      <trkpt lat="46.7539" lon="5.62563">
        <ele>443.30505371094</ele>
        <time>2012-05-16T10:33:36Z</time>
      </trkpt>
      <trkpt lat="46.75386" lon="5.62557">
        <ele>444.7470703125</ele>
        <time>2012-05-16T10:33:41Z</time>
      </trkpt>
      <trkpt lat="46.7538" lon="5.62543">
        <ele>447.15026855469</ele>
        <time>2012-05-16T10:33:49Z</time>
      </trkpt>
      <trkpt lat="46.75376" lon="5.62532">
        <ele>450.03442382812</ele>
        <time>2012-05-16T10:33:56Z</time>
      </trkpt>
      <trkpt lat="46.75372" lon="5.62522">
        <ele>452.91821289062</ele>
        <time>2012-05-16T10:34:02Z</time>
      </trkpt>
      <trkpt lat="46.75368" lon="5.62515">
        <ele>454.36022949219</ele>
        <time>2012-05-16T10:34:06Z</time>
      </trkpt>
      <trkpt lat="46.7537" lon="5.62509">
        <ele>456.28295898438</ele>
        <time>2012-05-16T10:34:11Z</time>
      </trkpt>
      <trkpt lat="46.75378" lon="5.62507">
        <ele>457.24426269531</ele>
        <time>2012-05-16T10:34:17Z</time>
      </trkpt>
      <trkpt lat="46.75385" lon="5.62504">
        <ele>459.16687011719</ele>
        <time>2012-05-16T10:34:24Z</time>
      </trkpt>
      <trkpt lat="46.75386" lon="5.62503">
        <ele>460.12817382812</ele>
        <time>2012-05-16T10:34:25Z</time>
      </trkpt>
      <trkpt lat="46.75389" lon="5.62503">
        <ele>463.97338867188</ele>
        <time>2012-05-16T10:34:29Z</time>
      </trkpt>
      <trkpt lat="46.75393" lon="5.625">
        <ele>466.37670898438</ele>
        <time>2012-05-16T10:34:34Z</time>
      </trkpt>
      <trkpt lat="46.75403" lon="5.62492">
        <ele>463.49279785156</ele>
        <time>2012-05-16T10:34:40Z</time>
      </trkpt>
      <trkpt lat="46.75416" lon="5.62488">
        <ele>465.89611816406</ele>
        <time>2012-05-16T10:34:47Z</time>
      </trkpt>
      <trkpt lat="46.75426" lon="5.6249">
        <ele>463.01208496094</ele>
        <time>2012-05-16T10:34:53Z</time>
      </trkpt>
      <trkpt lat="46.75428" lon="5.6249">
        <ele>463.01208496094</ele>
        <time>2012-05-16T10:34:54Z</time>
      </trkpt>
      <trkpt lat="46.75436" lon="5.62496">
        <ele>461.57019042969</ele>
        <time>2012-05-16T10:35:02Z</time>
      </trkpt>
      <trkpt lat="46.75438" lon="5.62506">
        <ele>461.57019042969</ele>
        <time>2012-05-16T10:35:07Z</time>
      </trkpt>
      <trkpt lat="46.75441" lon="5.62511">
        <ele>462.05078125</ele>
        <time>2012-05-16T10:35:10Z</time>
      </trkpt>
      <trkpt lat="46.75445" lon="5.62525">
        <ele>460.60876464844</ele>
        <time>2012-05-16T10:35:17Z</time>
      </trkpt>
      <trkpt lat="46.75449" lon="5.62534">
        <ele>461.08947753906</ele>
        <time>2012-05-16T10:35:23Z</time>
      </trkpt>
      <trkpt lat="46.75455" lon="5.6255">
        <ele>465.41552734375</ele>
        <time>2012-05-16T10:35:30Z</time>
      </trkpt>
      <trkpt lat="46.75461" lon="5.62566">
        <ele>468.78002929688</ele>
        <time>2012-05-16T10:35:38Z</time>
      </trkpt>
      <trkpt lat="46.75465" lon="5.62578">
        <ele>468.29931640625</ele>
        <time>2012-05-16T10:35:44Z</time>
      </trkpt>
      <trkpt lat="46.75468" lon="5.62589">
        <ele>469.2607421875</ele>
        <time>2012-05-16T10:35:50Z</time>
      </trkpt>
      <trkpt lat="46.75468" lon="5.62591">
        <ele>468.78002929688</ele>
        <time>2012-05-16T10:35:51Z</time>
      </trkpt>
      <trkpt lat="46.75474" lon="5.62595">
        <ele>467.81872558594</ele>
        <time>2012-05-16T10:35:56Z</time>
      </trkpt>
      <trkpt lat="46.75483" lon="5.626">
        <ele>468.29931640625</ele>
        <time>2012-05-16T10:36:02Z</time>
      </trkpt>
      <trkpt lat="46.75486" lon="5.62604">
        <ele>468.29931640625</ele>
        <time>2012-05-16T10:36:05Z</time>
      </trkpt>
      <trkpt lat="46.75489" lon="5.62608">
        <ele>468.29931640625</ele>
        <time>2012-05-16T10:36:12Z</time>
      </trkpt>
      <trkpt lat="46.75494" lon="5.6261">
        <ele>468.78002929688</ele>
        <time>2012-05-16T10:36:18Z</time>
      </trkpt>
      <trkpt lat="46.75493" lon="5.62608">
        <ele>467.81872558594</ele>
        <time>2012-05-16T10:36:37Z</time>
      </trkpt>
      <trkpt lat="46.75488" lon="5.62607">
        <ele>469.74133300781</ele>
        <time>2012-05-16T10:36:44Z</time>
      </trkpt>
      <trkpt lat="46.75485" lon="5.62609">
        <ele>469.74133300781</ele>
        <time>2012-05-16T10:36:46Z</time>
      </trkpt>
      <trkpt lat="46.75475" lon="5.62616">
        <ele>473.58666992188</ele>
        <time>2012-05-16T10:36:53Z</time>
      </trkpt>
      <trkpt lat="46.75473" lon="5.62622">
        <ele>466.37670898438</ele>
        <time>2012-05-16T10:37:00Z</time>
      </trkpt>
      <trkpt lat="46.7547" lon="5.62627">
        <ele>463.49279785156</ele>
        <time>2012-05-16T10:37:07Z</time>
      </trkpt>
      <trkpt lat="46.75459" lon="5.62634">
        <ele>467.33813476562</ele>
        <time>2012-05-16T10:37:16Z</time>
      </trkpt>
      <trkpt lat="46.75454" lon="5.62638">
        <ele>468.29931640625</ele>
        <time>2012-05-16T10:37:20Z</time>
      </trkpt>
      <trkpt lat="46.75447" lon="5.6264">
        <ele>467.81872558594</ele>
        <time>2012-05-16T10:37:25Z</time>
      </trkpt>
      <trkpt lat="46.75436" lon="5.62648">
        <ele>467.33813476562</ele>
        <time>2012-05-16T10:37:34Z</time>
      </trkpt>
      <trkpt lat="46.7543" lon="5.62652">
        <ele>467.81872558594</ele>
        <time>2012-05-16T10:37:39Z</time>
      </trkpt>
      <trkpt lat="46.75423" lon="5.62657">
        <ele>467.81872558594</ele>
        <time>2012-05-16T10:37:47Z</time>
      </trkpt>
      <trkpt lat="46.75414" lon="5.62665">
        <ele>467.81872558594</ele>
        <time>2012-05-16T10:37:55Z</time>
      </trkpt>
      <trkpt lat="46.75406" lon="5.62671">
        <ele>469.2607421875</ele>
        <time>2012-05-16T10:38:01Z</time>
      </trkpt>
      <trkpt lat="46.75405" lon="5.62671">
        <ele>469.74133300781</ele>
        <time>2012-05-16T10:38:02Z</time>
      </trkpt>
      <trkpt lat="46.75396" lon="5.62679">
        <ele>471.66394042969</ele>
        <time>2012-05-16T10:38:09Z</time>
      </trkpt>
      <trkpt lat="46.7539" lon="5.62688">
        <ele>472.62536621094</ele>
        <time>2012-05-16T10:38:15Z</time>
      </trkpt>
      <trkpt lat="46.75383" lon="5.62697">
        <ele>473.58666992188</ele>
        <time>2012-05-16T10:38:22Z</time>
      </trkpt>
      <trkpt lat="46.75374" lon="5.62708">
        <ele>472.62536621094</ele>
        <time>2012-05-16T10:38:31Z</time>
      </trkpt>
      <trkpt lat="46.75372" lon="5.6271">
        <ele>473.10607910156</ele>
        <time>2012-05-16T10:38:33Z</time>
      </trkpt>
      <trkpt lat="46.75369" lon="5.62726">
        <ele>469.74133300781</ele>
        <time>2012-05-16T10:38:41Z</time>
      </trkpt>
      <trkpt lat="46.75368" lon="5.62738">
        <ele>471.18334960938</ele>
        <time>2012-05-16T10:38:47Z</time>
      </trkpt>
      <trkpt lat="46.75367" lon="5.62752">
        <ele>470.22192382812</ele>
        <time>2012-05-16T10:38:53Z</time>
      </trkpt>
      <trkpt lat="46.7537" lon="5.62761">
        <ele>470.22192382812</ele>
        <time>2012-05-16T10:38:57Z</time>
      </trkpt>
      <trkpt lat="46.75373" lon="5.62779">
        <ele>471.18334960938</ele>
        <time>2012-05-16T10:39:05Z</time>
      </trkpt>
      <trkpt lat="46.75379" lon="5.62796">
        <ele>473.58666992188</ele>
        <time>2012-05-16T10:39:13Z</time>
      </trkpt>
      <trkpt lat="46.75381" lon="5.62811">
        <ele>474.54797363281</ele>
        <time>2012-05-16T10:39:20Z</time>
      </trkpt>
      <trkpt lat="46.75386" lon="5.62827">
        <ele>475.02868652344</ele>
        <time>2012-05-16T10:39:28Z</time>
      </trkpt>
      <trkpt lat="46.75391" lon="5.62843">
        <ele>475.50927734375</ele>
        <time>2012-05-16T10:39:36Z</time>
      </trkpt>
      <trkpt lat="46.75396" lon="5.62856">
        <ele>477.43188476562</ele>
        <time>2012-05-16T10:39:41Z</time>
      </trkpt>
      <trkpt lat="46.75404" lon="5.62867">
        <ele>478.39318847656</ele>
        <time>2012-05-16T10:39:45Z</time>
      </trkpt>
      <trkpt lat="46.75407" lon="5.62883">
        <ele>476.47058105469</ele>
        <time>2012-05-16T10:39:50Z</time>
      </trkpt>
      <trkpt lat="46.7541" lon="5.62898">
        <ele>473.10607910156</ele>
        <time>2012-05-16T10:39:55Z</time>
      </trkpt>
      <trkpt lat="46.75412" lon="5.62913">
        <ele>471.18334960938</ele>
        <time>2012-05-16T10:39:59Z</time>
      </trkpt>
      <trkpt lat="46.75413" lon="5.62919">
        <ele>469.74133300781</ele>
        <time>2012-05-16T10:40:01Z</time>
      </trkpt>
      <trkpt lat="46.75415" lon="5.62938">
        <ele>468.29931640625</ele>
        <time>2012-05-16T10:40:07Z</time>
      </trkpt>
      <trkpt lat="46.75418" lon="5.62959">
        <ele>468.29931640625</ele>
        <time>2012-05-16T10:40:13Z</time>
      </trkpt>
      <trkpt lat="46.75421" lon="5.6298">
        <ele>469.2607421875</ele>
        <time>2012-05-16T10:40:19Z</time>
      </trkpt>
      <trkpt lat="46.75424" lon="5.6299">
        <ele>469.74133300781</ele>
        <time>2012-05-16T10:40:22Z</time>
      </trkpt>
      <trkpt lat="46.7543" lon="5.63005">
        <ele>470.22192382812</ele>
        <time>2012-05-16T10:40:27Z</time>
      </trkpt>
      <trkpt lat="46.75435" lon="5.63019">
        <ele>470.70263671875</ele>
        <time>2012-05-16T10:40:31Z</time>
      </trkpt>
      <trkpt lat="46.75437" lon="5.63025">
        <ele>470.70263671875</ele>
        <time>2012-05-16T10:40:33Z</time>
      </trkpt>
      <trkpt lat="46.75444" lon="5.6304">
        <ele>471.66394042969</ele>
        <time>2012-05-16T10:40:38Z</time>
      </trkpt>
      <trkpt lat="46.75452" lon="5.63054">
        <ele>471.18334960938</ele>
        <time>2012-05-16T10:40:43Z</time>
      </trkpt>
      <trkpt lat="46.75456" lon="5.63064">
        <ele>471.18334960938</ele>
        <time>2012-05-16T10:40:47Z</time>
      </trkpt>
      <trkpt lat="46.7546" lon="5.63068">
        <ele>471.18334960938</ele>
        <time>2012-05-16T10:40:51Z</time>
      </trkpt>
      <trkpt lat="46.75468" lon="5.63077">
        <ele>471.18334960938</ele>
        <time>2012-05-16T10:40:57Z</time>
      </trkpt>
      <trkpt lat="46.75475" lon="5.63087">
        <ele>470.70263671875</ele>
        <time>2012-05-16T10:41:03Z</time>
      </trkpt>
      <trkpt lat="46.75479" lon="5.63095">
        <ele>471.18334960938</ele>
        <time>2012-05-16T10:41:08Z</time>
      </trkpt>
      <trkpt lat="46.7548" lon="5.63096">
        <ele>471.18334960938</ele>
        <time>2012-05-16T10:41:09Z</time>
      </trkpt>
      <trkpt lat="46.75487" lon="5.63107">
        <ele>471.66394042969</ele>
        <time>2012-05-16T10:41:17Z</time>
      </trkpt>
      <trkpt lat="46.75494" lon="5.63116">
        <ele>471.66394042969</ele>
        <time>2012-05-16T10:41:23Z</time>
      </trkpt>
      <trkpt lat="46.75499" lon="5.63128">
        <ele>471.66394042969</ele>
        <time>2012-05-16T10:41:29Z</time>
      </trkpt>
      <trkpt lat="46.755" lon="5.6313">
        <ele>471.18334960938</ele>
        <time>2012-05-16T10:41:30Z</time>
      </trkpt>
      <trkpt lat="46.75501" lon="5.63141">
        <ele>471.66394042969</ele>
        <time>2012-05-16T10:41:35Z</time>
      </trkpt>
      <trkpt lat="46.75501" lon="5.63159">
        <ele>471.66394042969</ele>
        <time>2012-05-16T10:41:44Z</time>
      </trkpt>
      <trkpt lat="46.75501" lon="5.63172">
        <ele>471.66394042969</ele>
        <time>2012-05-16T10:41:50Z</time>
      </trkpt>
      <trkpt lat="46.75504" lon="5.63185">
        <ele>472.14465332031</ele>
        <time>2012-05-16T10:41:56Z</time>
      </trkpt>
      <trkpt lat="46.75508" lon="5.63197">
        <ele>473.58666992188</ele>
        <time>2012-05-16T10:42:00Z</time>
      </trkpt>
      <trkpt lat="46.75512" lon="5.63213">
        <ele>474.06726074219</ele>
        <time>2012-05-16T10:42:05Z</time>
      </trkpt>
      <trkpt lat="46.75513" lon="5.6322">
        <ele>475.02868652344</ele>
        <time>2012-05-16T10:42:07Z</time>
      </trkpt>
      <trkpt lat="46.75518" lon="5.63237">
        <ele>476.47058105469</ele>
        <time>2012-05-16T10:42:12Z</time>
      </trkpt>
      <trkpt lat="46.75521" lon="5.63253">
        <ele>477.91247558594</ele>
        <time>2012-05-16T10:42:17Z</time>
      </trkpt>
      <trkpt lat="46.75521" lon="5.63267">
        <ele>479.83508300781</ele>
        <time>2012-05-16T10:42:21Z</time>
      </trkpt>
      <trkpt lat="46.75521" lon="5.63293">
        <ele>482.23852539062</ele>
        <time>2012-05-16T10:42:28Z</time>
      </trkpt>
      <trkpt lat="46.75523" lon="5.63311">
        <ele>481.27722167969</ele>
        <time>2012-05-16T10:42:33Z</time>
      </trkpt>
      <trkpt lat="46.7552" lon="5.63329">
        <ele>480.31591796875</ele>
        <time>2012-05-16T10:42:39Z</time>
      </trkpt>
      <trkpt lat="46.75521" lon="5.63349">
        <ele>479.83508300781</ele>
        <time>2012-05-16T10:42:45Z</time>
      </trkpt>
      <trkpt lat="46.75521" lon="5.6337">
        <ele>479.83508300781</ele>
        <time>2012-05-16T10:42:51Z</time>
      </trkpt>
      <trkpt lat="46.75522" lon="5.63388">
        <ele>481.27722167969</ele>
        <time>2012-05-16T10:42:56Z</time>
      </trkpt>
      <trkpt lat="46.75522" lon="5.63408">
        <ele>481.27722167969</ele>
        <time>2012-05-16T10:43:02Z</time>
      </trkpt>
      <trkpt lat="46.75522" lon="5.63425">
        <ele>480.79663085938</ele>
        <time>2012-05-16T10:43:07Z</time>
      </trkpt>
      <trkpt lat="46.75523" lon="5.63446">
        <ele>481.7578125</ele>
        <time>2012-05-16T10:43:13Z</time>
      </trkpt>
      <trkpt lat="46.75523" lon="5.63449">
        <ele>481.7578125</ele>
        <time>2012-05-16T10:43:14Z</time>
      </trkpt>
      <trkpt lat="46.75526" lon="5.63467">
        <ele>481.7578125</ele>
        <time>2012-05-16T10:43:19Z</time>
      </trkpt>
      <trkpt lat="46.75526" lon="5.6347">
        <ele>481.7578125</ele>
        <time>2012-05-16T10:43:20Z</time>
      </trkpt>
      <trkpt lat="46.75528" lon="5.63488">
        <ele>482.71923828125</ele>
        <time>2012-05-16T10:43:25Z</time>
      </trkpt>
      <trkpt lat="46.7553" lon="5.63502">
        <ele>482.71923828125</ele>
        <time>2012-05-16T10:43:29Z</time>
      </trkpt>
      <trkpt lat="46.75531" lon="5.63506">
        <ele>482.71923828125</ele>
        <time>2012-05-16T10:43:30Z</time>
      </trkpt>
      <trkpt lat="46.75532" lon="5.6352">
        <ele>482.71923828125</ele>
        <time>2012-05-16T10:43:34Z</time>
      </trkpt>
      <trkpt lat="46.75535" lon="5.63537">
        <ele>481.27722167969</ele>
        <time>2012-05-16T10:43:39Z</time>
      </trkpt>
      <trkpt lat="46.75536" lon="5.63559">
        <ele>481.7578125</ele>
        <time>2012-05-16T10:43:45Z</time>
      </trkpt>
      <trkpt lat="46.75539" lon="5.63577">
        <ele>481.7578125</ele>
        <time>2012-05-16T10:43:50Z</time>
      </trkpt>
      <trkpt lat="46.7554" lon="5.63587">
        <ele>481.27722167969</ele>
        <time>2012-05-16T10:43:53Z</time>
      </trkpt>
      <trkpt lat="46.75541" lon="5.63605">
        <ele>481.27722167969</ele>
        <time>2012-05-16T10:43:58Z</time>
      </trkpt>
      <trkpt lat="46.75543" lon="5.63626">
        <ele>480.79663085938</ele>
        <time>2012-05-16T10:44:04Z</time>
      </trkpt>
      <trkpt lat="46.75545" lon="5.63638">
        <ele>480.31591796875</ele>
        <time>2012-05-16T10:44:09Z</time>
      </trkpt>
      <trkpt lat="46.75547" lon="5.63647">
        <ele>479.83508300781</ele>
        <time>2012-05-16T10:44:13Z</time>
      </trkpt>
      <trkpt lat="46.75548" lon="5.63656">
        <ele>479.3544921875</ele>
        <time>2012-05-16T10:44:17Z</time>
      </trkpt>
      <trkpt lat="46.75549" lon="5.63669">
        <ele>478.87390136719</ele>
        <time>2012-05-16T10:44:23Z</time>
      </trkpt>
      <trkpt lat="46.75552" lon="5.63685">
        <ele>478.39318847656</ele>
        <time>2012-05-16T10:44:31Z</time>
      </trkpt>
      <trkpt lat="46.75554" lon="5.63694">
        <ele>478.39318847656</ele>
        <time>2012-05-16T10:44:35Z</time>
      </trkpt>
      <trkpt lat="46.75555" lon="5.63705">
        <ele>477.91247558594</ele>
        <time>2012-05-16T10:44:40Z</time>
      </trkpt>
      <trkpt lat="46.75555" lon="5.63707">
        <ele>477.91247558594</ele>
        <time>2012-05-16T10:44:41Z</time>
      </trkpt>
      <trkpt lat="46.75558" lon="5.63718">
        <ele>478.39318847656</ele>
        <time>2012-05-16T10:44:46Z</time>
      </trkpt>
      <trkpt lat="46.75558" lon="5.63725">
        <ele>477.91247558594</ele>
        <time>2012-05-16T10:44:50Z</time>
      </trkpt>
      <trkpt lat="46.75559" lon="5.63731">
        <ele>477.91247558594</ele>
        <time>2012-05-16T10:44:53Z</time>
      </trkpt>
      <trkpt lat="46.75563" lon="5.63748">
        <ele>478.87390136719</ele>
        <time>2012-05-16T10:44:58Z</time>
      </trkpt>
      <trkpt lat="46.75562" lon="5.63756">
        <ele>479.83508300781</ele>
        <time>2012-05-16T10:45:00Z</time>
      </trkpt>
      <trkpt lat="46.75565" lon="5.63773">
        <ele>480.31591796875</ele>
        <time>2012-05-16T10:45:05Z</time>
      </trkpt>
      <trkpt lat="46.75569" lon="5.63789">
        <ele>480.31591796875</ele>
        <time>2012-05-16T10:45:10Z</time>
      </trkpt>
      <trkpt lat="46.75572" lon="5.63802">
        <ele>479.83508300781</ele>
        <time>2012-05-16T10:45:14Z</time>
      </trkpt>
      <trkpt lat="46.75573" lon="5.63806">
        <ele>479.83508300781</ele>
        <time>2012-05-16T10:45:15Z</time>
      </trkpt>
      <trkpt lat="46.75575" lon="5.63823">
        <ele>481.27722167969</ele>
        <time>2012-05-16T10:45:20Z</time>
      </trkpt>
      <trkpt lat="46.75576" lon="5.63836">
        <ele>481.27722167969</ele>
        <time>2012-05-16T10:45:24Z</time>
      </trkpt>
      <trkpt lat="46.75578" lon="5.63853">
        <ele>481.27722167969</ele>
        <time>2012-05-16T10:45:29Z</time>
      </trkpt>
      <trkpt lat="46.75579" lon="5.63862">
        <ele>481.27722167969</ele>
        <time>2012-05-16T10:45:33Z</time>
      </trkpt>
      <trkpt lat="46.75581" lon="5.63877">
        <ele>481.7578125</ele>
        <time>2012-05-16T10:45:40Z</time>
      </trkpt>
      <trkpt lat="46.75581" lon="5.63888">
        <ele>482.23852539062</ele>
        <time>2012-05-16T10:45:46Z</time>
      </trkpt>
      <trkpt lat="46.7558" lon="5.63903">
        <ele>482.23852539062</ele>
        <time>2012-05-16T10:45:53Z</time>
      </trkpt>
      <trkpt lat="46.75579" lon="5.63915">
        <ele>481.7578125</ele>
        <time>2012-05-16T10:45:59Z</time>
      </trkpt>
      <trkpt lat="46.75578" lon="5.6393">
        <ele>481.27722167969</ele>
        <time>2012-05-16T10:46:06Z</time>
      </trkpt>
      <trkpt lat="46.75577" lon="5.63939">
        <ele>480.31591796875</ele>
        <time>2012-05-16T10:46:12Z</time>
      </trkpt>
      <trkpt lat="46.75578" lon="5.63935">
        <ele>479.83508300781</ele>
        <time>2012-05-16T10:46:16Z</time>
      </trkpt>
      <trkpt lat="46.75585" lon="5.6392">
        <ele>479.83508300781</ele>
        <time>2012-05-16T10:46:24Z</time>
      </trkpt>
      <trkpt lat="46.75595" lon="5.63923">
        <ele>480.79663085938</ele>
        <time>2012-05-16T10:46:31Z</time>
      </trkpt>
      <trkpt lat="46.75598" lon="5.63926">
        <ele>481.27722167969</ele>
        <time>2012-05-16T10:46:34Z</time>
      </trkpt>
      <trkpt lat="46.75607" lon="5.63937">
        <ele>481.7578125</ele>
        <time>2012-05-16T10:46:41Z</time>
      </trkpt>
      <trkpt lat="46.75617" lon="5.63952">
        <ele>480.31591796875</ele>
        <time>2012-05-16T10:46:51Z</time>
      </trkpt>
      <trkpt lat="46.75624" lon="5.6396">
        <ele>480.79663085938</ele>
        <time>2012-05-16T10:46:57Z</time>
      </trkpt>
      <trkpt lat="46.75636" lon="5.63973">
        <ele>481.27722167969</ele>
        <time>2012-05-16T10:47:07Z</time>
      </trkpt>
      <trkpt lat="46.75637" lon="5.63975">
        <ele>481.27722167969</ele>
        <time>2012-05-16T10:47:08Z</time>
      </trkpt>
      <trkpt lat="46.75648" lon="5.63986">
        <ele>481.7578125</ele>
        <time>2012-05-16T10:47:17Z</time>
      </trkpt>
      <trkpt lat="46.75656" lon="5.63994">
        <ele>482.71923828125</ele>
        <time>2012-05-16T10:47:24Z</time>
      </trkpt>
      <trkpt lat="46.75663" lon="5.64003">
        <ele>483.68041992188</ele>
        <time>2012-05-16T10:47:29Z</time>
      </trkpt>
      <trkpt lat="46.75665" lon="5.64005">
        <ele>483.68041992188</ele>
        <time>2012-05-16T10:47:30Z</time>
      </trkpt>
      <trkpt lat="46.75681" lon="5.6402">
        <ele>487.04504394531</ele>
        <time>2012-05-16T10:47:38Z</time>
      </trkpt>
      <trkpt lat="46.7569" lon="5.6403">
        <ele>488.48718261719</ele>
        <time>2012-05-16T10:47:43Z</time>
      </trkpt>
      <trkpt lat="46.75694" lon="5.64034">
        <ele>488.9677734375</ele>
        <time>2012-05-16T10:47:45Z</time>
      </trkpt>
      <trkpt lat="46.75705" lon="5.64038">
        <ele>487.52563476562</ele>
        <time>2012-05-16T10:47:50Z</time>
      </trkpt>
      <trkpt lat="46.75716" lon="5.64049">
        <ele>486.564453125</ele>
        <time>2012-05-16T10:47:56Z</time>
      </trkpt>
      <trkpt lat="46.75718" lon="5.64051">
        <ele>486.08374023438</ele>
        <time>2012-05-16T10:47:57Z</time>
      </trkpt>
      <trkpt lat="46.75726" lon="5.64061">
        <ele>484.64184570312</ele>
        <time>2012-05-16T10:48:02Z</time>
      </trkpt>
      <trkpt lat="46.75737" lon="5.64075">
        <ele>484.64184570312</ele>
        <time>2012-05-16T10:48:08Z</time>
      </trkpt>
      <trkpt lat="46.75747" lon="5.64089">
        <ele>486.08374023438</ele>
        <time>2012-05-16T10:48:14Z</time>
      </trkpt>
      <trkpt lat="46.75758" lon="5.64103">
        <ele>485.60302734375</ele>
        <time>2012-05-16T10:48:20Z</time>
      </trkpt>
      <trkpt lat="46.75769" lon="5.64113">
        <ele>486.08374023438</ele>
        <time>2012-05-16T10:48:25Z</time>
      </trkpt>
      <trkpt lat="46.75777" lon="5.64127">
        <ele>487.04504394531</ele>
        <time>2012-05-16T10:48:30Z</time>
      </trkpt>
      <trkpt lat="46.75778" lon="5.6413">
        <ele>487.04504394531</ele>
        <time>2012-05-16T10:48:31Z</time>
      </trkpt>
      <trkpt lat="46.75785" lon="5.64139">
        <ele>487.52563476562</ele>
        <time>2012-05-16T10:48:35Z</time>
      </trkpt>
      <trkpt lat="46.7579" lon="5.64149">
        <ele>488.48718261719</ele>
        <time>2012-05-16T10:48:39Z</time>
      </trkpt>
      <trkpt lat="46.75791" lon="5.64152">
        <ele>488.48718261719</ele>
        <time>2012-05-16T10:48:40Z</time>
      </trkpt>
      <trkpt lat="46.758" lon="5.64161">
        <ele>490.40979003906</ele>
        <time>2012-05-16T10:48:46Z</time>
      </trkpt>
      <trkpt lat="46.75806" lon="5.6417">
        <ele>490.89038085938</ele>
        <time>2012-05-16T10:48:52Z</time>
      </trkpt>
      <trkpt lat="46.75814" lon="5.64182">
        <ele>493.77429199219</ele>
        <time>2012-05-16T10:49:00Z</time>
      </trkpt>
      <trkpt lat="46.7582" lon="5.64193">
        <ele>494.25500488281</ele>
        <time>2012-05-16T10:49:06Z</time>
      </trkpt>
      <trkpt lat="46.75822" lon="5.64202">
        <ele>495.21618652344</ele>
        <time>2012-05-16T10:49:11Z</time>
      </trkpt>
      <trkpt lat="46.75823" lon="5.64205">
        <ele>495.69689941406</ele>
        <time>2012-05-16T10:49:13Z</time>
      </trkpt>
      <trkpt lat="46.75832" lon="5.64222">
        <ele>495.69689941406</ele>
        <time>2012-05-16T10:49:20Z</time>
      </trkpt>
      <trkpt lat="46.75834" lon="5.64228">
        <ele>495.21618652344</ele>
        <time>2012-05-16T10:49:22Z</time>
      </trkpt>
      <trkpt lat="46.75838" lon="5.64239">
        <ele>494.73559570312</ele>
        <time>2012-05-16T10:49:26Z</time>
      </trkpt>
      <trkpt lat="46.75843" lon="5.64247">
        <ele>495.21618652344</ele>
        <time>2012-05-16T10:49:29Z</time>
      </trkpt>
      <trkpt lat="46.75849" lon="5.64262">
        <ele>495.21618652344</ele>
        <time>2012-05-16T10:49:34Z</time>
      </trkpt>
      <trkpt lat="46.7585" lon="5.64266">
        <ele>495.21618652344</ele>
        <time>2012-05-16T10:49:35Z</time>
      </trkpt>
      <trkpt lat="46.75859" lon="5.64276">
        <ele>494.73559570312</ele>
        <time>2012-05-16T10:49:39Z</time>
      </trkpt>
      <trkpt lat="46.75867" lon="5.64287">
        <ele>492.81298828125</ele>
        <time>2012-05-16T10:49:43Z</time>
      </trkpt>
      <trkpt lat="46.75871" lon="5.64296">
        <ele>492.81298828125</ele>
        <time>2012-05-16T10:49:46Z</time>
      </trkpt>
      <trkpt lat="46.75878" lon="5.64309">
        <ele>491.37097167969</ele>
        <time>2012-05-16T10:49:51Z</time>
      </trkpt>
      <trkpt lat="46.75885" lon="5.64324">
        <ele>490.40979003906</ele>
        <time>2012-05-16T10:49:56Z</time>
      </trkpt>
      <trkpt lat="46.75894" lon="5.64342">
        <ele>490.89038085938</ele>
        <time>2012-05-16T10:50:02Z</time>
      </trkpt>
      <trkpt lat="46.75901" lon="5.64356">
        <ele>490.40979003906</ele>
        <time>2012-05-16T10:50:07Z</time>
      </trkpt>
      <trkpt lat="46.75903" lon="5.64359">
        <ele>490.40979003906</ele>
        <time>2012-05-16T10:50:08Z</time>
      </trkpt>
      <trkpt lat="46.7591" lon="5.64372">
        <ele>489.44836425781</ele>
        <time>2012-05-16T10:50:12Z</time>
      </trkpt>
      <trkpt lat="46.75923" lon="5.64394">
        <ele>487.52563476562</ele>
        <time>2012-05-16T10:50:20Z</time>
      </trkpt>
      <trkpt lat="46.75931" lon="5.64408">
        <ele>487.04504394531</ele>
        <time>2012-05-16T10:50:25Z</time>
      </trkpt>
      <trkpt lat="46.75938" lon="5.64422">
        <ele>487.04504394531</ele>
        <time>2012-05-16T10:50:30Z</time>
      </trkpt>
      <trkpt lat="46.75944" lon="5.64438">
        <ele>486.564453125</ele>
        <time>2012-05-16T10:50:35Z</time>
      </trkpt>
      <trkpt lat="46.75945" lon="5.6444">
        <ele>486.564453125</ele>
        <time>2012-05-16T10:50:36Z</time>
      </trkpt>
      <trkpt lat="46.7595" lon="5.64456">
        <ele>486.564453125</ele>
        <time>2012-05-16T10:50:41Z</time>
      </trkpt>
      <trkpt lat="46.75953" lon="5.64462">
        <ele>486.564453125</ele>
        <time>2012-05-16T10:50:43Z</time>
      </trkpt>
      <trkpt lat="46.75961" lon="5.64482">
        <ele>486.564453125</ele>
        <time>2012-05-16T10:50:50Z</time>
      </trkpt>
      <trkpt lat="46.75967" lon="5.64497">
        <ele>486.08374023438</ele>
        <time>2012-05-16T10:50:55Z</time>
      </trkpt>
      <trkpt lat="46.75972" lon="5.64512">
        <ele>484.64184570312</ele>
        <time>2012-05-16T10:51:00Z</time>
      </trkpt>
      <trkpt lat="46.75977" lon="5.64527">
        <ele>485.12243652344</ele>
        <time>2012-05-16T10:51:07Z</time>
      </trkpt>
      <trkpt lat="46.75978" lon="5.6453">
        <ele>484.64184570312</ele>
        <time>2012-05-16T10:51:09Z</time>
      </trkpt>
      <trkpt lat="46.75982" lon="5.64536">
        <ele>485.12243652344</ele>
        <time>2012-05-16T10:51:13Z</time>
      </trkpt>
      <trkpt lat="46.7599" lon="5.64535">
        <ele>485.60302734375</ele>
        <time>2012-05-16T10:51:18Z</time>
      </trkpt>
      <trkpt lat="46.75998" lon="5.6453">
        <ele>486.08374023438</ele>
        <time>2012-05-16T10:51:24Z</time>
      </trkpt>
      <trkpt lat="46.76002" lon="5.64528">
        <ele>486.08374023438</ele>
        <time>2012-05-16T10:51:27Z</time>
      </trkpt>
      <trkpt lat="46.76014" lon="5.64521">
        <ele>486.564453125</ele>
        <time>2012-05-16T10:51:34Z</time>
      </trkpt>
      <trkpt lat="46.76028" lon="5.64514">
        <ele>487.04504394531</ele>
        <time>2012-05-16T10:51:40Z</time>
      </trkpt>
      <trkpt lat="46.7604" lon="5.64508">
        <ele>487.04504394531</ele>
        <time>2012-05-16T10:51:45Z</time>
      </trkpt>
      <trkpt lat="46.76048" lon="5.64508">
        <ele>487.04504394531</ele>
        <time>2012-05-16T10:51:48Z</time>
      </trkpt>
      <trkpt lat="46.76054" lon="5.64517">
        <ele>486.564453125</ele>
        <time>2012-05-16T10:51:52Z</time>
      </trkpt>
      <trkpt lat="46.76059" lon="5.64529">
        <ele>486.08374023438</ele>
        <time>2012-05-16T10:51:59Z</time>
      </trkpt>
      <trkpt lat="46.76059" lon="5.64529">
        <ele>486.08374023438</ele>
        <time>2012-05-16T10:52:03Z</time>
      </trkpt>
      <trkpt lat="46.76054" lon="5.64512">
        <ele>486.564453125</ele>
        <time>2012-05-16T10:52:11Z</time>
      </trkpt>
      <trkpt lat="46.76051" lon="5.64506">
        <ele>486.08374023438</ele>
        <time>2012-05-16T10:52:14Z</time>
      </trkpt>
      <trkpt lat="46.76051" lon="5.64501">
        <ele>486.08374023438</ele>
        <time>2012-05-16T10:52:16Z</time>
      </trkpt>
      <trkpt lat="46.76057" lon="5.64496">
        <ele>485.60302734375</ele>
        <time>2012-05-16T10:52:21Z</time>
      </trkpt>
      <trkpt lat="46.76068" lon="5.6449">
        <ele>484.64184570312</ele>
        <time>2012-05-16T10:52:28Z</time>
      </trkpt>
      <trkpt lat="46.7607" lon="5.64489">
        <ele>484.64184570312</ele>
        <time>2012-05-16T10:52:29Z</time>
      </trkpt>
      <trkpt lat="46.7608" lon="5.64486">
        <ele>484.1611328125</ele>
        <time>2012-05-16T10:52:33Z</time>
      </trkpt>
      <trkpt lat="46.76088" lon="5.64483">
        <ele>485.12243652344</ele>
        <time>2012-05-16T10:52:36Z</time>
      </trkpt>
      <trkpt lat="46.76097" lon="5.64478">
        <ele>485.12243652344</ele>
        <time>2012-05-16T10:52:40Z</time>
      </trkpt>
      <trkpt lat="46.76109" lon="5.64474">
        <ele>485.12243652344</ele>
        <time>2012-05-16T10:52:44Z</time>
      </trkpt>
      <trkpt lat="46.76119" lon="5.64468">
        <ele>486.564453125</ele>
        <time>2012-05-16T10:52:49Z</time>
      </trkpt>
      <trkpt lat="46.7613" lon="5.64463">
        <ele>488.00646972656</ele>
        <time>2012-05-16T10:52:55Z</time>
      </trkpt>
      <trkpt lat="46.76138" lon="5.64461">
        <ele>488.00646972656</ele>
        <time>2012-05-16T10:53:01Z</time>
      </trkpt>
      <trkpt lat="46.76149" lon="5.64457">
        <ele>488.48718261719</ele>
        <time>2012-05-16T10:53:09Z</time>
      </trkpt>
      <trkpt lat="46.7616" lon="5.64454">
        <ele>489.44836425781</ele>
        <time>2012-05-16T10:53:17Z</time>
      </trkpt>
      <trkpt lat="46.7617" lon="5.64453">
        <ele>490.40979003906</ele>
        <time>2012-05-16T10:53:24Z</time>
      </trkpt>
      <trkpt lat="46.76182" lon="5.64455">
        <ele>490.89038085938</ele>
        <time>2012-05-16T10:53:32Z</time>
      </trkpt>
      <trkpt lat="46.76195" lon="5.64456">
        <ele>492.33239746094</ele>
        <time>2012-05-16T10:53:41Z</time>
      </trkpt>
      <trkpt lat="46.76208" lon="5.64457">
        <ele>492.33239746094</ele>
        <time>2012-05-16T10:53:50Z</time>
      </trkpt>
      <trkpt lat="46.7622" lon="5.6446">
        <ele>493.29357910156</ele>
        <time>2012-05-16T10:53:58Z</time>
      </trkpt>
      <trkpt lat="46.76229" lon="5.64461">
        <ele>493.77429199219</ele>
        <time>2012-05-16T10:54:04Z</time>
      </trkpt>
      <trkpt lat="46.76239" lon="5.64464">
        <ele>494.73559570312</ele>
        <time>2012-05-16T10:54:11Z</time>
      </trkpt>
      <trkpt lat="46.76248" lon="5.64465">
        <ele>495.69689941406</ele>
        <time>2012-05-16T10:54:17Z</time>
      </trkpt>
      <trkpt lat="46.7626" lon="5.64467">
        <ele>495.69689941406</ele>
        <time>2012-05-16T10:54:25Z</time>
      </trkpt>
      <trkpt lat="46.76268" lon="5.64469">
        <ele>495.69689941406</ele>
        <time>2012-05-16T10:54:30Z</time>
      </trkpt>
      <trkpt lat="46.7628" lon="5.64472">
        <ele>496.177734375</ele>
        <time>2012-05-16T10:54:38Z</time>
      </trkpt>
      <trkpt lat="46.76292" lon="5.64472">
        <ele>496.65832519531</ele>
        <time>2012-05-16T10:54:46Z</time>
      </trkpt>
      <trkpt lat="46.76301" lon="5.64464">
        <ele>496.65832519531</ele>
        <time>2012-05-16T10:54:53Z</time>
      </trkpt>
      <trkpt lat="46.76303" lon="5.64461">
        <ele>497.13891601562</ele>
        <time>2012-05-16T10:54:55Z</time>
      </trkpt>
      <trkpt lat="46.76307" lon="5.64445">
        <ele>497.13891601562</ele>
        <time>2012-05-16T10:55:01Z</time>
      </trkpt>
      <trkpt lat="46.76314" lon="5.64428">
        <ele>499.0615234375</ele>
        <time>2012-05-16T10:55:07Z</time>
      </trkpt>
      <trkpt lat="46.76317" lon="5.64414">
        <ele>499.54223632812</ele>
        <time>2012-05-16T10:55:11Z</time>
      </trkpt>
      <trkpt lat="46.7632" lon="5.64398">
        <ele>499.0615234375</ele>
        <time>2012-05-16T10:55:15Z</time>
      </trkpt>
      <trkpt lat="46.76322" lon="5.64378">
        <ele>498.58093261719</ele>
        <time>2012-05-16T10:55:20Z</time>
      </trkpt>
      <trkpt lat="46.76327" lon="5.64357">
        <ele>498.10034179688</ele>
        <time>2012-05-16T10:55:26Z</time>
      </trkpt>
      <trkpt lat="46.76331" lon="5.64336">
        <ele>498.10034179688</ele>
        <time>2012-05-16T10:55:32Z</time>
      </trkpt>
      <trkpt lat="46.76332" lon="5.64321">
        <ele>497.61962890625</ele>
        <time>2012-05-16T10:55:36Z</time>
      </trkpt>
      <trkpt lat="46.76336" lon="5.64301">
        <ele>497.61962890625</ele>
        <time>2012-05-16T10:55:42Z</time>
      </trkpt>
      <trkpt lat="46.7634" lon="5.64285">
        <ele>497.13891601562</ele>
        <time>2012-05-16T10:55:47Z</time>
      </trkpt>
      <trkpt lat="46.76343" lon="5.64271">
        <ele>496.177734375</ele>
        <time>2012-05-16T10:55:51Z</time>
      </trkpt>
      <trkpt lat="46.76347" lon="5.64255">
        <ele>497.13891601562</ele>
        <time>2012-05-16T10:55:56Z</time>
      </trkpt>
      <trkpt lat="46.76352" lon="5.64234">
        <ele>497.61962890625</ele>
        <time>2012-05-16T10:56:02Z</time>
      </trkpt>
      <trkpt lat="46.76353" lon="5.64215">
        <ele>497.61962890625</ele>
        <time>2012-05-16T10:56:07Z</time>
      </trkpt>
      <trkpt lat="46.76355" lon="5.64201">
        <ele>496.65832519531</ele>
        <time>2012-05-16T10:56:11Z</time>
      </trkpt>
      <trkpt lat="46.76358" lon="5.64181">
        <ele>496.177734375</ele>
        <time>2012-05-16T10:56:17Z</time>
      </trkpt>
      <trkpt lat="46.76359" lon="5.64178">
        <ele>496.177734375</ele>
        <time>2012-05-16T10:56:18Z</time>
      </trkpt>
      <trkpt lat="46.76365" lon="5.64173">
        <ele>495.69689941406</ele>
        <time>2012-05-16T10:56:23Z</time>
      </trkpt>
      <trkpt lat="46.76375" lon="5.64182">
        <ele>494.25500488281</ele>
        <time>2012-05-16T10:56:30Z</time>
      </trkpt>
      <trkpt lat="46.7638" lon="5.64188">
        <ele>493.77429199219</ele>
        <time>2012-05-16T10:56:35Z</time>
      </trkpt>
      <trkpt lat="46.76388" lon="5.64198">
        <ele>492.81298828125</ele>
        <time>2012-05-16T10:56:42Z</time>
      </trkpt>
      <trkpt lat="46.764" lon="5.64214">
        <ele>491.85168457031</ele>
        <time>2012-05-16T10:56:53Z</time>
      </trkpt>
      <trkpt lat="46.76407" lon="5.64223">
        <ele>491.37097167969</ele>
        <time>2012-05-16T10:56:59Z</time>
      </trkpt>
      <trkpt lat="46.76413" lon="5.64233">
        <ele>490.40979003906</ele>
        <time>2012-05-16T10:57:03Z</time>
      </trkpt>
      <trkpt lat="46.7642" lon="5.64242">
        <ele>491.37097167969</ele>
        <time>2012-05-16T10:57:08Z</time>
      </trkpt>
      <trkpt lat="46.76431" lon="5.64252">
        <ele>492.81298828125</ele>
        <time>2012-05-16T10:57:13Z</time>
      </trkpt>
      <trkpt lat="46.76436" lon="5.64261">
        <ele>494.25500488281</ele>
        <time>2012-05-16T10:57:17Z</time>
      </trkpt>
      <trkpt lat="46.76445" lon="5.6427">
        <ele>497.61962890625</ele>
        <time>2012-05-16T10:57:21Z</time>
      </trkpt>
      <trkpt lat="46.76456" lon="5.64278">
        <ele>500.50354003906</ele>
        <time>2012-05-16T10:57:26Z</time>
      </trkpt>
      <trkpt lat="46.7647" lon="5.64291">
        <ele>500.98413085938</ele>
        <time>2012-05-16T10:57:32Z</time>
      </trkpt>
      <trkpt lat="46.76478" lon="5.64299">
        <ele>500.98413085938</ele>
        <time>2012-05-16T10:57:36Z</time>
      </trkpt>
      <trkpt lat="46.76487" lon="5.64308">
        <ele>502.42614746094</ele>
        <time>2012-05-16T10:57:41Z</time>
      </trkpt>
      <trkpt lat="46.76498" lon="5.64321">
        <ele>502.90673828125</ele>
        <time>2012-05-16T10:57:47Z</time>
      </trkpt>
      <trkpt lat="46.76506" lon="5.64329">
        <ele>502.90673828125</ele>
        <time>2012-05-16T10:57:51Z</time>
      </trkpt>
      <trkpt lat="46.76517" lon="5.64341">
        <ele>501.94555664062</ele>
        <time>2012-05-16T10:57:57Z</time>
      </trkpt>
      <trkpt lat="46.76529" lon="5.64351">
        <ele>500.50354003906</ele>
        <time>2012-05-16T10:58:02Z</time>
      </trkpt>
      <trkpt lat="46.7654" lon="5.64362">
        <ele>500.50354003906</ele>
        <time>2012-05-16T10:58:08Z</time>
      </trkpt>
      <trkpt lat="46.76542" lon="5.64364">
        <ele>500.50354003906</ele>
        <time>2012-05-16T10:58:09Z</time>
      </trkpt>
      <trkpt lat="46.76555" lon="5.64376">
        <ele>499.54223632812</ele>
        <time>2012-05-16T10:58:15Z</time>
      </trkpt>
      <trkpt lat="46.76566" lon="5.64387">
        <ele>499.54223632812</ele>
        <time>2012-05-16T10:58:21Z</time>
      </trkpt>
      <trkpt lat="46.76571" lon="5.64392">
        <ele>500.02294921875</ele>
        <time>2012-05-16T10:58:24Z</time>
      </trkpt>
      <trkpt lat="46.76572" lon="5.64395">
        <ele>500.02294921875</ele>
        <time>2012-05-16T10:58:25Z</time>
      </trkpt>
      <trkpt lat="46.76579" lon="5.64403">
        <ele>500.50354003906</ele>
        <time>2012-05-16T10:58:29Z</time>
      </trkpt>
      <trkpt lat="46.76581" lon="5.64404">
        <ele>500.98413085938</ele>
        <time>2012-05-16T10:58:30Z</time>
      </trkpt>
      <trkpt lat="46.76592" lon="5.64416">
        <ele>500.50354003906</ele>
        <time>2012-05-16T10:58:37Z</time>
      </trkpt>
      <trkpt lat="46.76601" lon="5.64428">
        <ele>498.58093261719</ele>
        <time>2012-05-16T10:58:45Z</time>
      </trkpt>
      <trkpt lat="46.76612" lon="5.64441">
        <ele>498.10034179688</ele>
        <time>2012-05-16T10:58:54Z</time>
      </trkpt>
      <trkpt lat="46.76624" lon="5.64458">
        <ele>497.13891601562</ele>
        <time>2012-05-16T10:59:05Z</time>
      </trkpt>
      <trkpt lat="46.76633" lon="5.6447">
        <ele>497.61962890625</ele>
        <time>2012-05-16T10:59:13Z</time>
      </trkpt>
      <trkpt lat="46.7664" lon="5.6448">
        <ele>498.58093261719</ele>
        <time>2012-05-16T10:59:19Z</time>
      </trkpt>
      <trkpt lat="46.76645" lon="5.64485">
        <ele>499.54223632812</ele>
        <time>2012-05-16T10:59:23Z</time>
      </trkpt>
      <trkpt lat="46.76655" lon="5.64501">
        <ele>498.58093261719</ele>
        <time>2012-05-16T10:59:33Z</time>
      </trkpt>
      <trkpt lat="46.76661" lon="5.64511">
        <ele>498.10034179688</ele>
        <time>2012-05-16T10:59:37Z</time>
      </trkpt>
      <trkpt lat="46.7667" lon="5.64522">
        <ele>499.54223632812</ele>
        <time>2012-05-16T10:59:42Z</time>
      </trkpt>
      <trkpt lat="46.76679" lon="5.64534">
        <ele>501.46484375</ele>
        <time>2012-05-16T10:59:47Z</time>
      </trkpt>
      <trkpt lat="46.76685" lon="5.64541">
        <ele>502.90673828125</ele>
        <time>2012-05-16T10:59:50Z</time>
      </trkpt>
      <trkpt lat="46.76691" lon="5.6455">
        <ele>504.34887695312</ele>
        <time>2012-05-16T10:59:54Z</time>
      </trkpt>
      <trkpt lat="46.76697" lon="5.64561">
        <ele>505.79089355469</ele>
        <time>2012-05-16T10:59:58Z</time>
      </trkpt>
      <trkpt lat="46.76699" lon="5.64564">
        <ele>506.271484375</ele>
        <time>2012-05-16T10:59:59Z</time>
      </trkpt>
      <trkpt lat="46.76708" lon="5.64576">
        <ele>507.23278808594</ele>
        <time>2012-05-16T11:00:04Z</time>
      </trkpt>
      <trkpt lat="46.76714" lon="5.64586">
        <ele>509.15539550781</ele>
        <time>2012-05-16T11:00:08Z</time>
      </trkpt>
      <trkpt lat="46.76717" lon="5.6459">
        <ele>509.63610839844</ele>
        <time>2012-05-16T11:00:10Z</time>
      </trkpt>
      <trkpt lat="46.7672" lon="5.64595">
        <ele>510.11669921875</ele>
        <time>2012-05-16T11:00:12Z</time>
      </trkpt>
      <trkpt lat="46.76726" lon="5.64605">
        <ele>512.03942871094</ele>
        <time>2012-05-16T11:00:16Z</time>
      </trkpt>
      <trkpt lat="46.76735" lon="5.64617">
        <ele>512.52001953125</ele>
        <time>2012-05-16T11:00:21Z</time>
      </trkpt>
      <trkpt lat="46.7674" lon="5.64623">
        <ele>513.00073242188</ele>
        <time>2012-05-16T11:00:24Z</time>
      </trkpt>
      <trkpt lat="46.76745" lon="5.64632">
        <ele>513.00073242188</ele>
        <time>2012-05-16T11:00:30Z</time>
      </trkpt>
      <trkpt lat="46.76753" lon="5.64645">
        <ele>511.55871582031</ele>
        <time>2012-05-16T11:00:38Z</time>
      </trkpt>
      <trkpt lat="46.76759" lon="5.64653">
        <ele>511.55871582031</ele>
        <time>2012-05-16T11:00:44Z</time>
      </trkpt>
      <trkpt lat="46.76763" lon="5.64661">
        <ele>511.07800292969</ele>
        <time>2012-05-16T11:00:49Z</time>
      </trkpt>
      <trkpt lat="46.76768" lon="5.64667">
        <ele>509.63610839844</ele>
        <time>2012-05-16T11:00:53Z</time>
      </trkpt>
      <trkpt lat="46.76774" lon="5.64678">
        <ele>509.15539550781</ele>
        <time>2012-05-16T11:01:00Z</time>
      </trkpt>
      <trkpt lat="46.76781" lon="5.64688">
        <ele>509.63610839844</ele>
        <time>2012-05-16T11:01:07Z</time>
      </trkpt>
      <trkpt lat="46.76788" lon="5.64699">
        <ele>510.11669921875</ele>
        <time>2012-05-16T11:01:14Z</time>
      </trkpt>
      <trkpt lat="46.76798" lon="5.64713">
        <ele>510.59729003906</ele>
        <time>2012-05-16T11:01:24Z</time>
      </trkpt>
      <trkpt lat="46.7681" lon="5.6473">
        <ele>511.07800292969</ele>
        <time>2012-05-16T11:01:35Z</time>
      </trkpt>
      <trkpt lat="46.76821" lon="5.64745">
        <ele>511.07800292969</ele>
        <time>2012-05-16T11:01:45Z</time>
      </trkpt>
      <trkpt lat="46.76832" lon="5.6476">
        <ele>512.52001953125</ele>
        <time>2012-05-16T11:01:55Z</time>
      </trkpt>
      <trkpt lat="46.7684" lon="5.64771">
        <ele>513.4814453125</ele>
        <time>2012-05-16T11:02:03Z</time>
      </trkpt>
      <trkpt lat="46.7685" lon="5.64786">
        <ele>513.96203613281</ele>
        <time>2012-05-16T11:02:12Z</time>
      </trkpt>
      <trkpt lat="46.76859" lon="5.64797">
        <ele>514.44262695312</ele>
        <time>2012-05-16T11:02:20Z</time>
      </trkpt>
      <trkpt lat="46.76867" lon="5.64811">
        <ele>514.92333984375</ele>
        <time>2012-05-16T11:02:27Z</time>
      </trkpt>
      <trkpt lat="46.76875" lon="5.64825">
        <ele>515.40405273438</ele>
        <time>2012-05-16T11:02:32Z</time>
      </trkpt>
      <trkpt lat="46.7688" lon="5.64837">
        <ele>517.32666015625</ele>
        <time>2012-05-16T11:02:36Z</time>
      </trkpt>
      <trkpt lat="46.76884" lon="5.64843">
        <ele>518.28784179688</ele>
        <time>2012-05-16T11:02:38Z</time>
      </trkpt>
      <trkpt lat="46.76894" lon="5.64856">
        <ele>520.21057128906</ele>
        <time>2012-05-16T11:02:43Z</time>
      </trkpt>
      <trkpt lat="46.76902" lon="5.64869">
        <ele>520.21057128906</ele>
        <time>2012-05-16T11:02:48Z</time>
      </trkpt>
      <trkpt lat="46.76907" lon="5.64882">
        <ele>520.69128417969</ele>
        <time>2012-05-16T11:02:52Z</time>
      </trkpt>
      <trkpt lat="46.76909" lon="5.64884">
        <ele>520.69128417969</ele>
        <time>2012-05-16T11:02:53Z</time>
      </trkpt>
      <trkpt lat="46.76921" lon="5.64903">
        <ele>521.65258789062</ele>
        <time>2012-05-16T11:03:00Z</time>
      </trkpt>
      <trkpt lat="46.76928" lon="5.64913">
        <ele>520.69128417969</ele>
        <time>2012-05-16T11:03:04Z</time>
      </trkpt>
      <trkpt lat="46.76934" lon="5.64927">
        <ele>521.17199707031</ele>
        <time>2012-05-16T11:03:09Z</time>
      </trkpt>
      <trkpt lat="46.76944" lon="5.64942">
        <ele>520.21057128906</ele>
        <time>2012-05-16T11:03:16Z</time>
      </trkpt>
      <trkpt lat="46.76953" lon="5.64956">
        <ele>518.7685546875</ele>
        <time>2012-05-16T11:03:25Z</time>
      </trkpt>
      <trkpt lat="46.76958" lon="5.64964">
        <ele>518.28784179688</ele>
        <time>2012-05-16T11:03:30Z</time>
      </trkpt>
      <trkpt lat="46.76969" lon="5.64979">
        <ele>518.28784179688</ele>
        <time>2012-05-16T11:03:40Z</time>
      </trkpt>
      <trkpt lat="46.76977" lon="5.64992">
        <ele>517.32666015625</ele>
        <time>2012-05-16T11:03:48Z</time>
      </trkpt>
      <trkpt lat="46.76984" lon="5.65005">
        <ele>516.365234375</ele>
        <time>2012-05-16T11:03:56Z</time>
      </trkpt>
      <trkpt lat="46.76992" lon="5.65019">
        <ele>515.40405273438</ele>
        <time>2012-05-16T11:04:05Z</time>
      </trkpt>
      <trkpt lat="46.76998" lon="5.65027">
        <ele>514.92333984375</ele>
        <time>2012-05-16T11:04:11Z</time>
      </trkpt>
      <trkpt lat="46.77002" lon="5.65035">
        <ele>513.96203613281</ele>
        <time>2012-05-16T11:04:16Z</time>
      </trkpt>
      <trkpt lat="46.77009" lon="5.65046">
        <ele>513.00073242188</ele>
        <time>2012-05-16T11:04:22Z</time>
      </trkpt>
      <trkpt lat="46.7701" lon="5.65049">
        <ele>512.52001953125</ele>
        <time>2012-05-16T11:04:23Z</time>
      </trkpt>
      <trkpt lat="46.77018" lon="5.65061">
        <ele>511.07800292969</ele>
        <time>2012-05-16T11:04:29Z</time>
      </trkpt>
      <trkpt lat="46.77024" lon="5.65072">
        <ele>509.63610839844</ele>
        <time>2012-05-16T11:04:33Z</time>
      </trkpt>
      <trkpt lat="46.77026" lon="5.65074">
        <ele>509.63610839844</ele>
        <time>2012-05-16T11:04:34Z</time>
      </trkpt>
      <trkpt lat="46.77034" lon="5.65087">
        <ele>510.11669921875</ele>
        <time>2012-05-16T11:04:39Z</time>
      </trkpt>
      <trkpt lat="46.77043" lon="5.65095">
        <ele>510.11669921875</ele>
        <time>2012-05-16T11:04:43Z</time>
      </trkpt>
      <trkpt lat="46.7705" lon="5.65102">
        <ele>509.63610839844</ele>
        <time>2012-05-16T11:04:46Z</time>
      </trkpt>
      <trkpt lat="46.77052" lon="5.65104">
        <ele>509.63610839844</ele>
        <time>2012-05-16T11:04:47Z</time>
      </trkpt>
      <trkpt lat="46.77064" lon="5.65123">
        <ele>509.63610839844</ele>
        <time>2012-05-16T11:04:54Z</time>
      </trkpt>
      <trkpt lat="46.77074" lon="5.65139">
        <ele>509.63610839844</ele>
        <time>2012-05-16T11:05:00Z</time>
      </trkpt>
      <trkpt lat="46.77084" lon="5.65149">
        <ele>510.59729003906</ele>
        <time>2012-05-16T11:05:05Z</time>
      </trkpt>
      <trkpt lat="46.77095" lon="5.65161">
        <ele>512.03942871094</ele>
        <time>2012-05-16T11:05:11Z</time>
      </trkpt>
      <trkpt lat="46.77099" lon="5.65166">
        <ele>513.00073242188</ele>
        <time>2012-05-16T11:05:13Z</time>
      </trkpt>
      <trkpt lat="46.77111" lon="5.65182">
        <ele>513.96203613281</ele>
        <time>2012-05-16T11:05:20Z</time>
      </trkpt>
      <trkpt lat="46.77115" lon="5.65191">
        <ele>515.40405273438</ele>
        <time>2012-05-16T11:05:24Z</time>
      </trkpt>
      <trkpt lat="46.77119" lon="5.65204">
        <ele>517.80725097656</ele>
        <time>2012-05-16T11:05:28Z</time>
      </trkpt>
      <trkpt lat="46.7712" lon="5.65207">
        <ele>518.28784179688</ele>
        <time>2012-05-16T11:05:29Z</time>
      </trkpt>
      <trkpt lat="46.77128" lon="5.65222">
        <ele>520.21057128906</ele>
        <time>2012-05-16T11:05:35Z</time>
      </trkpt>
      <trkpt lat="46.77137" lon="5.65234">
        <ele>521.65258789062</ele>
        <time>2012-05-16T11:05:40Z</time>
      </trkpt>
      <trkpt lat="46.77139" lon="5.65236">
        <ele>522.13317871094</ele>
        <time>2012-05-16T11:05:41Z</time>
      </trkpt>
      <trkpt lat="46.77147" lon="5.65246">
        <ele>522.13317871094</ele>
        <time>2012-05-16T11:05:45Z</time>
      </trkpt>
      <trkpt lat="46.77155" lon="5.65258">
        <ele>522.13317871094</ele>
        <time>2012-05-16T11:05:50Z</time>
      </trkpt>
      <trkpt lat="46.77161" lon="5.65269">
        <ele>521.65258789062</ele>
        <time>2012-05-16T11:05:54Z</time>
      </trkpt>
      <trkpt lat="46.7717" lon="5.65282">
        <ele>520.69128417969</ele>
        <time>2012-05-16T11:05:59Z</time>
      </trkpt>
      <trkpt lat="46.77178" lon="5.65294">
        <ele>519.24926757812</ele>
        <time>2012-05-16T11:06:04Z</time>
      </trkpt>
      <trkpt lat="46.77187" lon="5.65306">
        <ele>517.80725097656</ele>
        <time>2012-05-16T11:06:09Z</time>
      </trkpt>
      <trkpt lat="46.77197" lon="5.6532">
        <ele>516.365234375</ele>
        <time>2012-05-16T11:06:15Z</time>
      </trkpt>
      <trkpt lat="46.77199" lon="5.65322">
        <ele>515.88464355469</ele>
        <time>2012-05-16T11:06:16Z</time>
      </trkpt>
      <trkpt lat="46.77205" lon="5.65328">
        <ele>515.40405273438</ele>
        <time>2012-05-16T11:06:19Z</time>
      </trkpt>
      <trkpt lat="46.77214" lon="5.65344">
        <ele>515.40405273438</ele>
        <time>2012-05-16T11:06:25Z</time>
      </trkpt>
      <trkpt lat="46.77222" lon="5.65357">
        <ele>514.44262695312</ele>
        <time>2012-05-16T11:06:30Z</time>
      </trkpt>
      <trkpt lat="46.77223" lon="5.65359">
        <ele>513.96203613281</ele>
        <time>2012-05-16T11:06:31Z</time>
      </trkpt>
      <trkpt lat="46.77233" lon="5.6537">
        <ele>512.52001953125</ele>
        <time>2012-05-16T11:06:36Z</time>
      </trkpt>
      <trkpt lat="46.77237" lon="5.65377">
        <ele>511.55871582031</ele>
        <time>2012-05-16T11:06:39Z</time>
      </trkpt>
      <trkpt lat="46.77248" lon="5.65393">
        <ele>510.59729003906</ele>
        <time>2012-05-16T11:06:45Z</time>
      </trkpt>
      <trkpt lat="46.77258" lon="5.65408">
        <ele>510.59729003906</ele>
        <time>2012-05-16T11:06:51Z</time>
      </trkpt>
      <trkpt lat="46.77269" lon="5.65425">
        <ele>509.63610839844</ele>
        <time>2012-05-16T11:06:57Z</time>
      </trkpt>
      <trkpt lat="46.77277" lon="5.65435">
        <ele>510.11669921875</ele>
        <time>2012-05-16T11:07:02Z</time>
      </trkpt>
      <trkpt lat="46.77286" lon="5.65445">
        <ele>511.55871582031</ele>
        <time>2012-05-16T11:07:09Z</time>
      </trkpt>
      <trkpt lat="46.77299" lon="5.65459">
        <ele>513.4814453125</ele>
        <time>2012-05-16T11:07:20Z</time>
      </trkpt>
      <trkpt lat="46.77311" lon="5.65473">
        <ele>514.44262695312</ele>
        <time>2012-05-16T11:07:30Z</time>
      </trkpt>
      <trkpt lat="46.7732" lon="5.65485">
        <ele>515.40405273438</ele>
        <time>2012-05-16T11:07:38Z</time>
      </trkpt>
      <trkpt lat="46.77329" lon="5.65497">
        <ele>516.365234375</ele>
        <time>2012-05-16T11:07:46Z</time>
      </trkpt>
      <trkpt lat="46.7734" lon="5.65511">
        <ele>517.80725097656</ele>
        <time>2012-05-16T11:07:56Z</time>
      </trkpt>
      <trkpt lat="46.77345" lon="5.65516">
        <ele>518.28784179688</ele>
        <time>2012-05-16T11:08:00Z</time>
      </trkpt>
      <trkpt lat="46.77351" lon="5.65523">
        <ele>519.24926757812</ele>
        <time>2012-05-16T11:08:05Z</time>
      </trkpt>
      <trkpt lat="46.77363" lon="5.65536">
        <ele>520.69128417969</ele>
        <time>2012-05-16T11:08:15Z</time>
      </trkpt>
      <trkpt lat="46.77372" lon="5.65547">
        <ele>521.65258789062</ele>
        <time>2012-05-16T11:08:23Z</time>
      </trkpt>
      <trkpt lat="46.77381" lon="5.65561">
        <ele>522.61389160156</ele>
        <time>2012-05-16T11:08:32Z</time>
      </trkpt>
      <trkpt lat="46.77393" lon="5.65577">
        <ele>524.53649902344</ele>
        <time>2012-05-16T11:08:43Z</time>
      </trkpt>
      <trkpt lat="46.77402" lon="5.65592">
        <ele>524.05578613281</ele>
        <time>2012-05-16T11:08:52Z</time>
      </trkpt>
      <trkpt lat="46.77409" lon="5.65606">
        <ele>523.5751953125</ele>
        <time>2012-05-16T11:09:00Z</time>
      </trkpt>
      <trkpt lat="46.77417" lon="5.65622">
        <ele>522.61389160156</ele>
        <time>2012-05-16T11:09:09Z</time>
      </trkpt>
      <trkpt lat="46.77424" lon="5.65632">
        <ele>522.61389160156</ele>
        <time>2012-05-16T11:09:14Z</time>
      </trkpt>
      <trkpt lat="46.77433" lon="5.65646">
        <ele>522.61389160156</ele>
        <time>2012-05-16T11:09:20Z</time>
      </trkpt>
      <trkpt lat="46.77444" lon="5.65658">
        <ele>523.09460449219</ele>
        <time>2012-05-16T11:09:26Z</time>
      </trkpt>
      <trkpt lat="46.77456" lon="5.65674">
        <ele>522.61389160156</ele>
        <time>2012-05-16T11:09:33Z</time>
      </trkpt>
      <trkpt lat="46.77466" lon="5.65687">
        <ele>522.61389160156</ele>
        <time>2012-05-16T11:09:39Z</time>
      </trkpt>
      <trkpt lat="46.77472" lon="5.65695">
        <ele>522.61389160156</ele>
        <time>2012-05-16T11:09:43Z</time>
      </trkpt>
      <trkpt lat="46.7748" lon="5.65701">
        <ele>524.53649902344</ele>
        <time>2012-05-16T11:09:48Z</time>
      </trkpt>
      <trkpt lat="46.77489" lon="5.65712">
        <ele>525.01721191406</ele>
        <time>2012-05-16T11:09:56Z</time>
      </trkpt>
      <trkpt lat="46.77497" lon="5.65724">
        <ele>525.97839355469</ele>
        <time>2012-05-16T11:10:04Z</time>
      </trkpt>
      <trkpt lat="46.77505" lon="5.65735">
        <ele>527.42041015625</ele>
        <time>2012-05-16T11:10:12Z</time>
      </trkpt>
      <trkpt lat="46.77513" lon="5.65744">
        <ele>528.3818359375</ele>
        <time>2012-05-16T11:10:19Z</time>
      </trkpt>
      <trkpt lat="46.7752" lon="5.65754">
        <ele>530.30444335938</ele>
        <time>2012-05-16T11:10:26Z</time>
      </trkpt>
      <trkpt lat="46.77525" lon="5.65761">
        <ele>530.78515625</ele>
        <time>2012-05-16T11:10:31Z</time>
      </trkpt>
      <trkpt lat="46.77534" lon="5.65776">
        <ele>532.22705078125</ele>
        <time>2012-05-16T11:10:40Z</time>
      </trkpt>
      <trkpt lat="46.77541" lon="5.65793">
        <ele>532.70776367188</ele>
        <time>2012-05-16T11:10:49Z</time>
      </trkpt>
      <trkpt lat="46.77545" lon="5.65805">
        <ele>533.6689453125</ele>
        <time>2012-05-16T11:10:56Z</time>
      </trkpt>
      <trkpt lat="46.7755" lon="5.65816">
        <ele>534.14965820312</ele>
        <time>2012-05-16T11:11:00Z</time>
      </trkpt>
      <trkpt lat="46.77554" lon="5.65834">
        <ele>534.14965820312</ele>
        <time>2012-05-16T11:11:05Z</time>
      </trkpt>
      <trkpt lat="46.77562" lon="5.65849">
        <ele>534.14965820312</ele>
        <time>2012-05-16T11:11:10Z</time>
      </trkpt>
      <trkpt lat="46.77571" lon="5.65868">
        <ele>532.70776367188</ele>
        <time>2012-05-16T11:11:16Z</time>
      </trkpt>
      <trkpt lat="46.77581" lon="5.65884">
        <ele>532.22705078125</ele>
        <time>2012-05-16T11:11:22Z</time>
      </trkpt>
      <trkpt lat="46.77591" lon="5.65896">
        <ele>531.74633789062</ele>
        <time>2012-05-16T11:11:28Z</time>
      </trkpt>
      <trkpt lat="46.77603" lon="5.65905">
        <ele>534.14965820312</ele>
        <time>2012-05-16T11:11:36Z</time>
      </trkpt>
      <trkpt lat="46.77613" lon="5.65916">
        <ele>535.11096191406</ele>
        <time>2012-05-16T11:11:44Z</time>
      </trkpt>
      <trkpt lat="46.77624" lon="5.65927">
        <ele>536.55310058594</ele>
        <time>2012-05-16T11:11:53Z</time>
      </trkpt>
      <trkpt lat="46.77635" lon="5.65941">
        <ele>537.03369140625</ele>
        <time>2012-05-16T11:12:03Z</time>
      </trkpt>
      <trkpt lat="46.77639" lon="5.65947">
        <ele>537.03369140625</ele>
        <time>2012-05-16T11:12:09Z</time>
      </trkpt>
      <trkpt lat="46.77639" lon="5.65945">
        <ele>537.51428222656</ele>
        <time>2012-05-16T11:12:14Z</time>
      </trkpt>
      <trkpt lat="46.77639" lon="5.65945">
        <ele>536.07238769531</ele>
        <time>2012-05-16T11:12:21Z</time>
      </trkpt>
      <trkpt lat="46.77639" lon="5.65945">
        <ele>536.07238769531</ele>
        <time>2012-05-16T11:12:29Z</time>
      </trkpt>
      <trkpt lat="46.77641" lon="5.65944">
        <ele>536.55310058594</ele>
        <time>2012-05-16T11:12:38Z</time>
      </trkpt>
      <trkpt lat="46.77641" lon="5.65943">
        <ele>536.07238769531</ele>
        <time>2012-05-16T11:12:49Z</time>
      </trkpt>
      <trkpt lat="46.7764" lon="5.65943">
        <ele>535.59155273438</ele>
        <time>2012-05-16T11:13:00Z</time>
      </trkpt>
      <trkpt lat="46.77639" lon="5.65943">
        <ele>536.07238769531</ele>
        <time>2012-05-16T11:13:11Z</time>
      </trkpt>
      <trkpt lat="46.77639" lon="5.65944">
        <ele>535.11096191406</ele>
        <time>2012-05-16T11:13:21Z</time>
      </trkpt>
      <trkpt lat="46.77639" lon="5.65945">
        <ele>534.14965820312</ele>
        <time>2012-05-16T11:13:30Z</time>
      </trkpt>
      <trkpt lat="46.77639" lon="5.65943">
        <ele>535.11096191406</ele>
        <time>2012-05-16T11:13:41Z</time>
      </trkpt>
      <trkpt lat="46.77639" lon="5.65942">
        <ele>536.55310058594</ele>
        <time>2012-05-16T11:13:53Z</time>
      </trkpt>
      <trkpt lat="46.77639" lon="5.65942">
        <ele>536.55310058594</ele>
        <time>2012-05-16T11:14:00Z</time>
      </trkpt>
      <trkpt lat="46.77639" lon="5.65942">
        <ele>537.51428222656</ele>
        <time>2012-05-16T11:14:11Z</time>
      </trkpt>
      <trkpt lat="46.7764" lon="5.65941">
        <ele>537.99499511719</ele>
        <time>2012-05-16T11:14:20Z</time>
      </trkpt>
      <trkpt lat="46.77639" lon="5.65941">
        <ele>538.47570800781</ele>
        <time>2012-05-16T11:14:29Z</time>
      </trkpt>
      <trkpt lat="46.77639" lon="5.65941">
        <ele>537.99499511719</ele>
        <time>2012-05-16T11:14:40Z</time>
      </trkpt>
      <trkpt lat="46.77639" lon="5.65943">
        <ele>537.03369140625</ele>
        <time>2012-05-16T11:14:48Z</time>
      </trkpt>
      <trkpt lat="46.77641" lon="5.65945">
        <ele>536.07238769531</ele>
        <time>2012-05-16T11:14:55Z</time>
      </trkpt>
      <trkpt lat="46.7765" lon="5.65955">
        <ele>536.55310058594</ele>
        <time>2012-05-16T11:15:03Z</time>
      </trkpt>
      <trkpt lat="46.77652" lon="5.65958">
        <ele>537.51428222656</ele>
        <time>2012-05-16T11:15:05Z</time>
      </trkpt>
      <trkpt lat="46.77664" lon="5.6597">
        <ele>539.43688964844</ele>
        <time>2012-05-16T11:15:15Z</time>
      </trkpt>
      <trkpt lat="46.77673" lon="5.6598">
        <ele>540.87890625</ele>
        <time>2012-05-16T11:15:23Z</time>
      </trkpt>
      <trkpt lat="46.77682" lon="5.6599">
        <ele>542.32092285156</ele>
        <time>2012-05-16T11:15:31Z</time>
      </trkpt>
      <trkpt lat="46.7769" lon="5.65999">
        <ele>543.76281738281</ele>
        <time>2012-05-16T11:15:38Z</time>
      </trkpt>
      <trkpt lat="46.77695" lon="5.66006">
        <ele>544.72424316406</ele>
        <time>2012-05-16T11:15:43Z</time>
      </trkpt>
      <trkpt lat="46.777" lon="5.66013">
        <ele>545.685546875</ele>
        <time>2012-05-16T11:15:48Z</time>
      </trkpt>
      <trkpt lat="46.77713" lon="5.66028">
        <ele>547.60815429688</ele>
        <time>2012-05-16T11:15:59Z</time>
      </trkpt>
      <trkpt lat="46.7772" lon="5.66038">
        <ele>548.0888671875</ele>
        <time>2012-05-16T11:16:06Z</time>
      </trkpt>
      <trkpt lat="46.77728" lon="5.66045">
        <ele>549.53076171875</ele>
        <time>2012-05-16T11:16:12Z</time>
      </trkpt>
      <trkpt lat="46.77739" lon="5.66059">
        <ele>549.53076171875</ele>
        <time>2012-05-16T11:16:22Z</time>
      </trkpt>
      <trkpt lat="46.7775" lon="5.66071">
        <ele>550.01147460938</ele>
        <time>2012-05-16T11:16:31Z</time>
      </trkpt>
      <trkpt lat="46.77761" lon="5.66083">
        <ele>550.01147460938</ele>
        <time>2012-05-16T11:16:40Z</time>
      </trkpt>
      <trkpt lat="46.77769" lon="5.66091">
        <ele>550.97265625</ele>
        <time>2012-05-16T11:16:47Z</time>
      </trkpt>
      <trkpt lat="46.77781" lon="5.66104">
        <ele>552.41455078125</ele>
        <time>2012-05-16T11:16:57Z</time>
      </trkpt>
      <trkpt lat="46.77794" lon="5.66119">
        <ele>552.89526367188</ele>
        <time>2012-05-16T11:17:08Z</time>
      </trkpt>
      <trkpt lat="46.77803" lon="5.66131">
        <ele>552.41455078125</ele>
        <time>2012-05-16T11:17:17Z</time>
      </trkpt>
      <trkpt lat="46.77813" lon="5.66143">
        <ele>551.93408203125</ele>
        <time>2012-05-16T11:17:27Z</time>
      </trkpt>
      <trkpt lat="46.77823" lon="5.66155">
        <ele>551.45336914062</ele>
        <time>2012-05-16T11:17:37Z</time>
      </trkpt>
      <trkpt lat="46.77824" lon="5.66156">
        <ele>551.93408203125</ele>
        <time>2012-05-16T11:17:38Z</time>
      </trkpt>
      <trkpt lat="46.7783" lon="5.66163">
        <ele>553.3759765625</ele>
        <time>2012-05-16T11:17:43Z</time>
      </trkpt>
      <trkpt lat="46.77834" lon="5.66167">
        <ele>554.33740234375</ele>
        <time>2012-05-16T11:17:47Z</time>
      </trkpt>
      <trkpt lat="46.77848" lon="5.66183">
        <ele>555.779296875</ele>
        <time>2012-05-16T11:17:59Z</time>
      </trkpt>
      <trkpt lat="46.77855" lon="5.66191">
        <ele>556.26000976562</ele>
        <time>2012-05-16T11:18:05Z</time>
      </trkpt>
      <trkpt lat="46.77861" lon="5.66198">
        <ele>556.74072265625</ele>
        <time>2012-05-16T11:18:11Z</time>
      </trkpt>
      <trkpt lat="46.77874" lon="5.66211">
        <ele>557.7021484375</ele>
        <time>2012-05-16T11:18:21Z</time>
      </trkpt>
      <trkpt lat="46.77885" lon="5.66222">
        <ele>558.18286132812</ele>
        <time>2012-05-16T11:18:30Z</time>
      </trkpt>
      <trkpt lat="46.77896" lon="5.66232">
        <ele>557.7021484375</ele>
        <time>2012-05-16T11:18:39Z</time>
      </trkpt>
      <trkpt lat="46.77905" lon="5.66241">
        <ele>557.22143554688</ele>
        <time>2012-05-16T11:18:46Z</time>
      </trkpt>
      <trkpt lat="46.77918" lon="5.66253">
        <ele>557.7021484375</ele>
        <time>2012-05-16T11:18:56Z</time>
      </trkpt>
      <trkpt lat="46.7793" lon="5.66264">
        <ele>557.22143554688</ele>
        <time>2012-05-16T11:19:06Z</time>
      </trkpt>
      <trkpt lat="46.77939" lon="5.66273">
        <ele>556.26000976562</ele>
        <time>2012-05-16T11:19:14Z</time>
      </trkpt>
      <trkpt lat="46.77947" lon="5.66279">
        <ele>555.29858398438</ele>
        <time>2012-05-16T11:19:20Z</time>
      </trkpt>
      <trkpt lat="46.77957" lon="5.66287">
        <ele>554.81787109375</ele>
        <time>2012-05-16T11:19:27Z</time>
      </trkpt>
      <trkpt lat="46.77966" lon="5.66294">
        <ele>554.81787109375</ele>
        <time>2012-05-16T11:19:34Z</time>
      </trkpt>
      <trkpt lat="46.77975" lon="5.66303">
        <ele>554.33740234375</ele>
        <time>2012-05-16T11:19:39Z</time>
      </trkpt>
      <trkpt lat="46.77983" lon="5.66314">
        <ele>553.3759765625</ele>
        <time>2012-05-16T11:19:44Z</time>
      </trkpt>
      <trkpt lat="46.77986" lon="5.66318">
        <ele>553.3759765625</ele>
        <time>2012-05-16T11:19:46Z</time>
      </trkpt>
      <trkpt lat="46.77994" lon="5.66326">
        <ele>553.3759765625</ele>
        <time>2012-05-16T11:19:51Z</time>
      </trkpt>
      <trkpt lat="46.78007" lon="5.66334">
        <ele>554.33740234375</ele>
        <time>2012-05-16T11:19:59Z</time>
      </trkpt>
      <trkpt lat="46.7802" lon="5.66346">
        <ele>554.33740234375</ele>
        <time>2012-05-16T11:20:08Z</time>
      </trkpt>
      <trkpt lat="46.78029" lon="5.66355">
        <ele>554.81787109375</ele>
        <time>2012-05-16T11:20:15Z</time>
      </trkpt>
      <trkpt lat="46.78039" lon="5.66363">
        <ele>555.29858398438</ele>
        <time>2012-05-16T11:20:22Z</time>
      </trkpt>
      <trkpt lat="46.78049" lon="5.66373">
        <ele>555.779296875</ele>
        <time>2012-05-16T11:20:30Z</time>
      </trkpt>
      <trkpt lat="46.78057" lon="5.6638">
        <ele>555.779296875</ele>
        <time>2012-05-16T11:20:36Z</time>
      </trkpt>
      <trkpt lat="46.78066" lon="5.6639">
        <ele>556.26000976562</ele>
        <time>2012-05-16T11:20:43Z</time>
      </trkpt>
      <trkpt lat="46.78076" lon="5.66399">
        <ele>556.74072265625</ele>
        <time>2012-05-16T11:20:51Z</time>
      </trkpt>
      <trkpt lat="46.78081" lon="5.66404">
        <ele>556.26000976562</ele>
        <time>2012-05-16T11:20:55Z</time>
      </trkpt>
      <trkpt lat="46.78085" lon="5.66411">
        <ele>556.74072265625</ele>
        <time>2012-05-16T11:20:59Z</time>
      </trkpt>
      <trkpt lat="46.78091" lon="5.66418">
        <ele>556.26000976562</ele>
        <time>2012-05-16T11:21:04Z</time>
      </trkpt>
      <trkpt lat="46.78101" lon="5.66425">
        <ele>557.7021484375</ele>
        <time>2012-05-16T11:21:11Z</time>
      </trkpt>
      <trkpt lat="46.78109" lon="5.6643">
        <ele>558.66333007812</ele>
        <time>2012-05-16T11:21:18Z</time>
      </trkpt>
      <trkpt lat="46.78119" lon="5.6644">
        <ele>559.14404296875</ele>
        <time>2012-05-16T11:21:26Z</time>
      </trkpt>
      <trkpt lat="46.78127" lon="5.66446">
        <ele>559.62475585938</ele>
        <time>2012-05-16T11:21:32Z</time>
      </trkpt>
      <trkpt lat="46.78136" lon="5.66455">
        <ele>560.5859375</ele>
        <time>2012-05-16T11:21:39Z</time>
      </trkpt>
      <trkpt lat="46.78143" lon="5.66461">
        <ele>560.5859375</ele>
        <time>2012-05-16T11:21:44Z</time>
      </trkpt>
      <trkpt lat="46.78153" lon="5.66471">
        <ele>561.54736328125</ele>
        <time>2012-05-16T11:21:52Z</time>
      </trkpt>
      <trkpt lat="46.78162" lon="5.66481">
        <ele>561.54736328125</ele>
        <time>2012-05-16T11:22:00Z</time>
      </trkpt>
      <trkpt lat="46.78171" lon="5.66489">
        <ele>562.02807617188</ele>
        <time>2012-05-16T11:22:07Z</time>
      </trkpt>
      <trkpt lat="46.7818" lon="5.66496">
        <ele>562.50854492188</ele>
        <time>2012-05-16T11:22:13Z</time>
      </trkpt>
      <trkpt lat="46.78188" lon="5.66506">
        <ele>562.50854492188</ele>
        <time>2012-05-16T11:22:20Z</time>
      </trkpt>
      <trkpt lat="46.78194" lon="5.6651">
        <ele>562.9892578125</ele>
        <time>2012-05-16T11:22:25Z</time>
      </trkpt>
      <trkpt lat="46.78202" lon="5.6652">
        <ele>563.46997070312</ele>
        <time>2012-05-16T11:22:30Z</time>
      </trkpt>
      <trkpt lat="46.78206" lon="5.66524">
        <ele>563.46997070312</ele>
        <time>2012-05-16T11:22:32Z</time>
      </trkpt>
      <trkpt lat="46.7822" lon="5.6654">
        <ele>562.9892578125</ele>
        <time>2012-05-16T11:22:39Z</time>
      </trkpt>
      <trkpt lat="46.78231" lon="5.66552">
        <ele>562.9892578125</ele>
        <time>2012-05-16T11:22:45Z</time>
      </trkpt>
      <trkpt lat="46.78244" lon="5.66564">
        <ele>563.46997070312</ele>
        <time>2012-05-16T11:22:52Z</time>
      </trkpt>
      <trkpt lat="46.78256" lon="5.66578">
        <ele>562.02807617188</ele>
        <time>2012-05-16T11:22:58Z</time>
      </trkpt>
      <trkpt lat="46.78264" lon="5.66585">
        <ele>562.50854492188</ele>
        <time>2012-05-16T11:23:02Z</time>
      </trkpt>
      <trkpt lat="46.78272" lon="5.6659">
        <ele>562.50854492188</ele>
        <time>2012-05-16T11:23:06Z</time>
      </trkpt>
      <trkpt lat="46.78287" lon="5.66603">
        <ele>562.50854492188</ele>
        <time>2012-05-16T11:23:13Z</time>
      </trkpt>
      <trkpt lat="46.783" lon="5.66615">
        <ele>562.9892578125</ele>
        <time>2012-05-16T11:23:20Z</time>
      </trkpt>
      <trkpt lat="46.78313" lon="5.66628">
        <ele>562.9892578125</ele>
        <time>2012-05-16T11:23:27Z</time>
      </trkpt>
      <trkpt lat="46.78322" lon="5.66636">
        <ele>562.50854492188</ele>
        <time>2012-05-16T11:23:32Z</time>
      </trkpt>
      <trkpt lat="46.78332" lon="5.66646">
        <ele>561.54736328125</ele>
        <time>2012-05-16T11:23:37Z</time>
      </trkpt>
      <trkpt lat="46.78341" lon="5.66653">
        <ele>561.54736328125</ele>
        <time>2012-05-16T11:23:42Z</time>
      </trkpt>
      <trkpt lat="46.78352" lon="5.66661">
        <ele>562.50854492188</ele>
        <time>2012-05-16T11:23:47Z</time>
      </trkpt>
      <trkpt lat="46.78361" lon="5.66667">
        <ele>562.02807617188</ele>
        <time>2012-05-16T11:23:52Z</time>
      </trkpt>
      <trkpt lat="46.78367" lon="5.66672">
        <ele>561.06665039062</ele>
        <time>2012-05-16T11:23:56Z</time>
      </trkpt>
      <trkpt lat="46.78376" lon="5.66681">
        <ele>560.5859375</ele>
        <time>2012-05-16T11:24:02Z</time>
      </trkpt>
      <trkpt lat="46.78386" lon="5.6669">
        <ele>560.10522460938</ele>
        <time>2012-05-16T11:24:07Z</time>
      </trkpt>
      <trkpt lat="46.78398" lon="5.667">
        <ele>560.5859375</ele>
        <time>2012-05-16T11:24:12Z</time>
      </trkpt>
      <trkpt lat="46.78408" lon="5.66708">
        <ele>561.06665039062</ele>
        <time>2012-05-16T11:24:17Z</time>
      </trkpt>
      <trkpt lat="46.78421" lon="5.66719">
        <ele>561.06665039062</ele>
        <time>2012-05-16T11:24:23Z</time>
      </trkpt>
      <trkpt lat="46.78433" lon="5.66728">
        <ele>561.06665039062</ele>
        <time>2012-05-16T11:24:28Z</time>
      </trkpt>
      <trkpt lat="46.78443" lon="5.66738">
        <ele>561.54736328125</ele>
        <time>2012-05-16T11:24:33Z</time>
      </trkpt>
      <trkpt lat="46.78452" lon="5.66745">
        <ele>561.54736328125</ele>
        <time>2012-05-16T11:24:37Z</time>
      </trkpt>
      <trkpt lat="46.78461" lon="5.66754">
        <ele>561.54736328125</ele>
        <time>2012-05-16T11:24:42Z</time>
      </trkpt>
      <trkpt lat="46.78473" lon="5.66762">
        <ele>563.46997070312</ele>
        <time>2012-05-16T11:24:48Z</time>
      </trkpt>
      <trkpt lat="46.78485" lon="5.66772">
        <ele>564.43115234375</ele>
        <time>2012-05-16T11:24:54Z</time>
      </trkpt>
      <trkpt lat="46.78495" lon="5.66781">
        <ele>564.91186523438</ele>
        <time>2012-05-16T11:24:59Z</time>
      </trkpt>
      <trkpt lat="46.78507" lon="5.6679">
        <ele>565.87329101562</ele>
        <time>2012-05-16T11:25:05Z</time>
      </trkpt>
      <trkpt lat="46.78514" lon="5.66798">
        <ele>565.87329101562</ele>
        <time>2012-05-16T11:25:10Z</time>
      </trkpt>
      <trkpt lat="46.78524" lon="5.66807">
        <ele>564.91186523438</ele>
        <time>2012-05-16T11:25:19Z</time>
      </trkpt>
      <trkpt lat="46.7853" lon="5.66813">
        <ele>564.43115234375</ele>
        <time>2012-05-16T11:25:24Z</time>
      </trkpt>
      <trkpt lat="46.78535" lon="5.66818">
        <ele>564.43115234375</ele>
        <time>2012-05-16T11:25:28Z</time>
      </trkpt>
      <trkpt lat="46.78541" lon="5.66821">
        <ele>564.43115234375</ele>
        <time>2012-05-16T11:25:33Z</time>
      </trkpt>
      <trkpt lat="46.7855" lon="5.66829">
        <ele>564.91186523438</ele>
        <time>2012-05-16T11:25:40Z</time>
      </trkpt>
      <trkpt lat="46.78557" lon="5.66836">
        <ele>564.91186523438</ele>
        <time>2012-05-16T11:25:47Z</time>
      </trkpt>
      <trkpt lat="46.78568" lon="5.66843">
        <ele>562.9892578125</ele>
        <time>2012-05-16T11:25:54Z</time>
      </trkpt>
      <trkpt lat="46.78572" lon="5.66849">
        <ele>562.50854492188</ele>
        <time>2012-05-16T11:25:59Z</time>
      </trkpt>
      <trkpt lat="46.78582" lon="5.66857">
        <ele>562.02807617188</ele>
        <time>2012-05-16T11:26:06Z</time>
      </trkpt>
      <trkpt lat="46.78593" lon="5.66866">
        <ele>564.91186523438</ele>
        <time>2012-05-16T11:26:14Z</time>
      </trkpt>
      <trkpt lat="46.78597" lon="5.66869">
        <ele>565.392578125</ele>
        <time>2012-05-16T11:26:17Z</time>
      </trkpt>
      <trkpt lat="46.78604" lon="5.66875">
        <ele>565.87329101562</ele>
        <time>2012-05-16T11:26:22Z</time>
      </trkpt>
      <trkpt lat="46.78613" lon="5.66885">
        <ele>565.392578125</ele>
        <time>2012-05-16T11:26:28Z</time>
      </trkpt>
      <trkpt lat="46.78614" lon="5.66887">
        <ele>564.91186523438</ele>
        <time>2012-05-16T11:26:29Z</time>
      </trkpt>
      <trkpt lat="46.78625" lon="5.66898">
        <ele>564.43115234375</ele>
        <time>2012-05-16T11:26:35Z</time>
      </trkpt>
      <trkpt lat="46.78637" lon="5.66905">
        <ele>564.43115234375</ele>
        <time>2012-05-16T11:26:40Z</time>
      </trkpt>
      <trkpt lat="46.78646" lon="5.66912">
        <ele>563.95043945312</ele>
        <time>2012-05-16T11:26:44Z</time>
      </trkpt>
      <trkpt lat="46.78648" lon="5.66914">
        <ele>563.95043945312</ele>
        <time>2012-05-16T11:26:45Z</time>
      </trkpt>
      <trkpt lat="46.78658" lon="5.66924">
        <ele>562.9892578125</ele>
        <time>2012-05-16T11:26:50Z</time>
      </trkpt>
      <trkpt lat="46.78665" lon="5.66929">
        <ele>562.9892578125</ele>
        <time>2012-05-16T11:26:53Z</time>
      </trkpt>
      <trkpt lat="46.78679" lon="5.6694">
        <ele>562.50854492188</ele>
        <time>2012-05-16T11:26:59Z</time>
      </trkpt>
      <trkpt lat="46.78693" lon="5.66948">
        <ele>563.46997070312</ele>
        <time>2012-05-16T11:27:05Z</time>
      </trkpt>
      <trkpt lat="46.78702" lon="5.66951">
        <ele>564.43115234375</ele>
        <time>2012-05-16T11:27:09Z</time>
      </trkpt>
      <trkpt lat="46.78713" lon="5.66957">
        <ele>566.35375976562</ele>
        <time>2012-05-16T11:27:16Z</time>
      </trkpt>
      <trkpt lat="46.78724" lon="5.66964">
        <ele>567.79565429688</ele>
        <time>2012-05-16T11:27:23Z</time>
      </trkpt>
      <trkpt lat="46.78733" lon="5.6697">
        <ele>569.23779296875</ele>
        <time>2012-05-16T11:27:29Z</time>
      </trkpt>
      <trkpt lat="46.78745" lon="5.66976">
        <ele>570.6796875</ele>
        <time>2012-05-16T11:27:37Z</time>
      </trkpt>
      <trkpt lat="46.78756" lon="5.66981">
        <ele>571.64086914062</ele>
        <time>2012-05-16T11:27:45Z</time>
      </trkpt>
      <trkpt lat="46.78766" lon="5.66986">
        <ele>572.6025390625</ele>
        <time>2012-05-16T11:27:52Z</time>
      </trkpt>
      <trkpt lat="46.7878" lon="5.66991">
        <ele>575.96704101562</ele>
        <time>2012-05-16T11:28:01Z</time>
      </trkpt>
      <trkpt lat="46.78789" lon="5.66995">
        <ele>575.96704101562</ele>
        <time>2012-05-16T11:28:08Z</time>
      </trkpt>
      <trkpt lat="46.78802" lon="5.67001">
        <ele>575.96704101562</ele>
        <time>2012-05-16T11:28:17Z</time>
      </trkpt>
      <trkpt lat="46.78814" lon="5.67007">
        <ele>576.44775390625</ele>
        <time>2012-05-16T11:28:25Z</time>
      </trkpt>
      <trkpt lat="46.7882" lon="5.6701">
        <ele>576.92846679688</ele>
        <time>2012-05-16T11:28:29Z</time>
      </trkpt>
      <trkpt lat="46.78831" lon="5.67015">
        <ele>576.44775390625</ele>
        <time>2012-05-16T11:28:37Z</time>
      </trkpt>
      <trkpt lat="46.78841" lon="5.67022">
        <ele>576.44775390625</ele>
        <time>2012-05-16T11:28:45Z</time>
      </trkpt>
      <trkpt lat="46.78852" lon="5.67029">
        <ele>577.8896484375</ele>
        <time>2012-05-16T11:28:53Z</time>
      </trkpt>
      <trkpt lat="46.78866" lon="5.67036">
        <ele>578.85107421875</ele>
        <time>2012-05-16T11:29:02Z</time>
      </trkpt>
      <trkpt lat="46.78874" lon="5.6704">
        <ele>578.37036132812</ele>
        <time>2012-05-16T11:29:08Z</time>
      </trkpt>
      <trkpt lat="46.78882" lon="5.67046">
        <ele>579.33154296875</ele>
        <time>2012-05-16T11:29:14Z</time>
      </trkpt>
      <trkpt lat="46.78893" lon="5.67053">
        <ele>580.29296875</ele>
        <time>2012-05-16T11:29:22Z</time>
      </trkpt>
      <trkpt lat="46.78904" lon="5.67062">
        <ele>582.21557617188</ele>
        <time>2012-05-16T11:29:30Z</time>
      </trkpt>
      <trkpt lat="46.78915" lon="5.67071">
        <ele>583.1767578125</ele>
        <time>2012-05-16T11:29:38Z</time>
      </trkpt>
      <trkpt lat="46.78924" lon="5.67078">
        <ele>584.61889648438</ele>
        <time>2012-05-16T11:29:45Z</time>
      </trkpt>
      <trkpt lat="46.78932" lon="5.67085">
        <ele>585.580078125</ele>
        <time>2012-05-16T11:29:51Z</time>
      </trkpt>
      <trkpt lat="46.78946" lon="5.67096">
        <ele>585.580078125</ele>
        <time>2012-05-16T11:30:01Z</time>
      </trkpt>
      <trkpt lat="46.78954" lon="5.67103">
        <ele>586.06079101562</ele>
        <time>2012-05-16T11:30:07Z</time>
      </trkpt>
      <trkpt lat="46.78964" lon="5.67112">
        <ele>587.02197265625</ele>
        <time>2012-05-16T11:30:15Z</time>
      </trkpt>
      <trkpt lat="46.78974" lon="5.6712">
        <ele>587.50268554688</ele>
        <time>2012-05-16T11:30:23Z</time>
      </trkpt>
      <trkpt lat="46.78981" lon="5.67128">
        <ele>587.9833984375</ele>
        <time>2012-05-16T11:30:29Z</time>
      </trkpt>
      <trkpt lat="46.78989" lon="5.67135">
        <ele>588.94506835938</ele>
        <time>2012-05-16T11:30:35Z</time>
      </trkpt>
      <trkpt lat="46.78999" lon="5.67144">
        <ele>587.9833984375</ele>
        <time>2012-05-16T11:30:43Z</time>
      </trkpt>
      <trkpt lat="46.79008" lon="5.67156">
        <ele>587.9833984375</ele>
        <time>2012-05-16T11:30:50Z</time>
      </trkpt>
      <trkpt lat="46.79018" lon="5.67165">
        <ele>587.02197265625</ele>
        <time>2012-05-16T11:30:55Z</time>
      </trkpt>
      <trkpt lat="46.79032" lon="5.67179">
        <ele>585.580078125</ele>
        <time>2012-05-16T11:31:02Z</time>
      </trkpt>
      <trkpt lat="46.79043" lon="5.67191">
        <ele>584.61889648438</ele>
        <time>2012-05-16T11:31:08Z</time>
      </trkpt>
      <trkpt lat="46.79049" lon="5.67198">
        <ele>584.61889648438</ele>
        <time>2012-05-16T11:31:12Z</time>
      </trkpt>
      <trkpt lat="46.79059" lon="5.67207">
        <ele>583.65747070312</ele>
        <time>2012-05-16T11:31:16Z</time>
      </trkpt>
      <trkpt lat="46.79065" lon="5.67212">
        <ele>584.13818359375</ele>
        <time>2012-05-16T11:31:19Z</time>
      </trkpt>
      <trkpt lat="46.79075" lon="5.67223">
        <ele>584.61889648438</ele>
        <time>2012-05-16T11:31:24Z</time>
      </trkpt>
      <trkpt lat="46.79087" lon="5.67236">
        <ele>583.65747070312</ele>
        <time>2012-05-16T11:31:30Z</time>
      </trkpt>
      <trkpt lat="46.79098" lon="5.6725">
        <ele>582.21557617188</ele>
        <time>2012-05-16T11:31:36Z</time>
      </trkpt>
      <trkpt lat="46.79109" lon="5.67258">
        <ele>582.21557617188</ele>
        <time>2012-05-16T11:31:41Z</time>
      </trkpt>
      <trkpt lat="46.79115" lon="5.67265">
        <ele>582.21557617188</ele>
        <time>2012-05-16T11:31:44Z</time>
      </trkpt>
      <trkpt lat="46.79125" lon="5.67273">
        <ele>582.6962890625</ele>
        <time>2012-05-16T11:31:49Z</time>
      </trkpt>
      <trkpt lat="46.79131" lon="5.67279">
        <ele>581.73486328125</ele>
        <time>2012-05-16T11:31:52Z</time>
      </trkpt>
      <trkpt lat="46.79134" lon="5.67283">
        <ele>581.73486328125</ele>
        <time>2012-05-16T11:31:54Z</time>
      </trkpt>
      <trkpt lat="46.79142" lon="5.67289">
        <ele>581.73486328125</ele>
        <time>2012-05-16T11:31:58Z</time>
      </trkpt>
      <trkpt lat="46.79153" lon="5.67299">
        <ele>580.29296875</ele>
        <time>2012-05-16T11:32:04Z</time>
      </trkpt>
      <trkpt lat="46.79162" lon="5.67312">
        <ele>580.29296875</ele>
        <time>2012-05-16T11:32:10Z</time>
      </trkpt>
      <trkpt lat="46.79164" lon="5.67313">
        <ele>580.77368164062</ele>
        <time>2012-05-16T11:32:11Z</time>
      </trkpt>
      <trkpt lat="46.7917" lon="5.67324">
        <ele>581.73486328125</ele>
        <time>2012-05-16T11:32:16Z</time>
      </trkpt>
      <trkpt lat="46.79179" lon="5.67335">
        <ele>581.25439453125</ele>
        <time>2012-05-16T11:32:21Z</time>
      </trkpt>
      <trkpt lat="46.79187" lon="5.67344">
        <ele>579.81225585938</ele>
        <time>2012-05-16T11:32:27Z</time>
      </trkpt>
      <trkpt lat="46.79192" lon="5.6735">
        <ele>578.85107421875</ele>
        <time>2012-05-16T11:32:31Z</time>
      </trkpt>
      <trkpt lat="46.79201" lon="5.67359">
        <ele>579.81225585938</ele>
        <time>2012-05-16T11:32:37Z</time>
      </trkpt>
      <trkpt lat="46.79203" lon="5.67362">
        <ele>580.77368164062</ele>
        <time>2012-05-16T11:32:39Z</time>
      </trkpt>
      <trkpt lat="46.79206" lon="5.67365">
        <ele>581.25439453125</ele>
        <time>2012-05-16T11:32:41Z</time>
      </trkpt>
      <trkpt lat="46.79213" lon="5.67373">
        <ele>581.73486328125</ele>
        <time>2012-05-16T11:32:47Z</time>
      </trkpt>
      <trkpt lat="46.7922" lon="5.67382">
        <ele>584.13818359375</ele>
        <time>2012-05-16T11:32:53Z</time>
      </trkpt>
      <trkpt lat="46.79227" lon="5.6739">
        <ele>584.61889648438</ele>
        <time>2012-05-16T11:32:58Z</time>
      </trkpt>
      <trkpt lat="46.79237" lon="5.67401">
        <ele>587.02197265625</ele>
        <time>2012-05-16T11:33:06Z</time>
      </trkpt>
      <trkpt lat="46.79247" lon="5.67412">
        <ele>589.42553710938</ele>
        <time>2012-05-16T11:33:14Z</time>
      </trkpt>
      <trkpt lat="46.79249" lon="5.67416">
        <ele>589.42553710938</ele>
        <time>2012-05-16T11:33:16Z</time>
      </trkpt>
      <trkpt lat="46.79256" lon="5.67425">
        <ele>590.86743164062</ele>
        <time>2012-05-16T11:33:23Z</time>
      </trkpt>
      <trkpt lat="46.79266" lon="5.67436">
        <ele>591.82885742188</ele>
        <time>2012-05-16T11:33:31Z</time>
      </trkpt>
      <trkpt lat="46.79276" lon="5.6745">
        <ele>592.79028320312</ele>
        <time>2012-05-16T11:33:40Z</time>
      </trkpt>
      <trkpt lat="46.79284" lon="5.6746">
        <ele>593.27075195312</ele>
        <time>2012-05-16T11:33:47Z</time>
      </trkpt>
      <trkpt lat="46.79292" lon="5.6747">
        <ele>594.23217773438</ele>
        <time>2012-05-16T11:33:54Z</time>
      </trkpt>
      <trkpt lat="46.79299" lon="5.67478">
        <ele>595.193359375</ele>
        <time>2012-05-16T11:34:00Z</time>
      </trkpt>
      <trkpt lat="46.79308" lon="5.67487">
        <ele>595.67407226562</ele>
        <time>2012-05-16T11:34:07Z</time>
      </trkpt>
      <trkpt lat="46.79315" lon="5.67495">
        <ele>595.67407226562</ele>
        <time>2012-05-16T11:34:11Z</time>
      </trkpt>
      <trkpt lat="46.79325" lon="5.67507">
        <ele>596.15478515625</ele>
        <time>2012-05-16T11:34:17Z</time>
      </trkpt>
      <trkpt lat="46.79335" lon="5.67519">
        <ele>595.67407226562</ele>
        <time>2012-05-16T11:34:23Z</time>
      </trkpt>
      <trkpt lat="46.79343" lon="5.67529">
        <ele>595.67407226562</ele>
        <time>2012-05-16T11:34:28Z</time>
      </trkpt>
      <trkpt lat="46.79354" lon="5.67542">
        <ele>595.67407226562</ele>
        <time>2012-05-16T11:34:34Z</time>
      </trkpt>
      <trkpt lat="46.79364" lon="5.6755">
        <ele>595.67407226562</ele>
        <time>2012-05-16T11:34:39Z</time>
      </trkpt>
      <trkpt lat="46.79376" lon="5.6756">
        <ele>595.193359375</ele>
        <time>2012-05-16T11:34:45Z</time>
      </trkpt>
      <trkpt lat="46.79392" lon="5.67574">
        <ele>595.67407226562</ele>
        <time>2012-05-16T11:34:53Z</time>
      </trkpt>
      <trkpt lat="46.79401" lon="5.67581">
        <ele>597.11596679688</ele>
        <time>2012-05-16T11:34:59Z</time>
      </trkpt>
      <trkpt lat="46.79411" lon="5.67589">
        <ele>598.07739257812</ele>
        <time>2012-05-16T11:35:06Z</time>
      </trkpt>
      <trkpt lat="46.79424" lon="5.67598">
        <ele>599.51928710938</ele>
        <time>2012-05-16T11:35:15Z</time>
      </trkpt>
      <trkpt lat="46.7943" lon="5.67602">
        <ele>600</ele>
        <time>2012-05-16T11:35:19Z</time>
      </trkpt>
      <trkpt lat="46.79446" lon="5.67615">
        <ele>600.96118164062</ele>
        <time>2012-05-16T11:35:31Z</time>
      </trkpt>
      <trkpt lat="46.79447" lon="5.67616">
        <ele>600.96118164062</ele>
        <time>2012-05-16T11:35:32Z</time>
      </trkpt>
      <trkpt lat="46.79452" lon="5.6762">
        <ele>600.96118164062</ele>
        <time>2012-05-16T11:35:36Z</time>
      </trkpt>
      <trkpt lat="46.79459" lon="5.67627">
        <ele>600.48071289062</ele>
        <time>2012-05-16T11:35:42Z</time>
      </trkpt>
      <trkpt lat="46.79467" lon="5.67635">
        <ele>600</ele>
        <time>2012-05-16T11:35:48Z</time>
      </trkpt>
      <trkpt lat="46.79473" lon="5.6764">
        <ele>599.03857421875</ele>
        <time>2012-05-16T11:35:53Z</time>
      </trkpt>
      <trkpt lat="46.79478" lon="5.67645">
        <ele>599.03857421875</ele>
        <time>2012-05-16T11:35:57Z</time>
      </trkpt>
      <trkpt lat="46.79484" lon="5.67652">
        <ele>599.03857421875</ele>
        <time>2012-05-16T11:36:03Z</time>
      </trkpt>
      <trkpt lat="46.7949" lon="5.67659">
        <ele>599.03857421875</ele>
        <time>2012-05-16T11:36:07Z</time>
      </trkpt>
      <trkpt lat="46.79501" lon="5.67671">
        <ele>599.03857421875</ele>
        <time>2012-05-16T11:36:13Z</time>
      </trkpt>
      <trkpt lat="46.79512" lon="5.67682">
        <ele>599.03857421875</ele>
        <time>2012-05-16T11:36:18Z</time>
      </trkpt>
      <trkpt lat="46.79523" lon="5.67694">
        <ele>599.51928710938</ele>
        <time>2012-05-16T11:36:23Z</time>
      </trkpt>
      <trkpt lat="46.79534" lon="5.67705">
        <ele>600.48071289062</ele>
        <time>2012-05-16T11:36:28Z</time>
      </trkpt>
      <trkpt lat="46.79547" lon="5.67718">
        <ele>601.92260742188</ele>
        <time>2012-05-16T11:36:34Z</time>
      </trkpt>
      <trkpt lat="46.79558" lon="5.6773">
        <ele>601.44189453125</ele>
        <time>2012-05-16T11:36:39Z</time>
      </trkpt>
      <trkpt lat="46.79566" lon="5.67742">
        <ele>600.96118164062</ele>
        <time>2012-05-16T11:36:44Z</time>
      </trkpt>
      <trkpt lat="46.7957" lon="5.67747">
        <ele>600.96118164062</ele>
        <time>2012-05-16T11:36:46Z</time>
      </trkpt>
      <trkpt lat="46.79576" lon="5.67758">
        <ele>600.96118164062</ele>
        <time>2012-05-16T11:36:50Z</time>
      </trkpt>
      <trkpt lat="46.79584" lon="5.67772">
        <ele>599.51928710938</ele>
        <time>2012-05-16T11:36:55Z</time>
      </trkpt>
      <trkpt lat="46.79593" lon="5.67786">
        <ele>598.07739257812</ele>
        <time>2012-05-16T11:37:00Z</time>
      </trkpt>
      <trkpt lat="46.79597" lon="5.67793">
        <ele>598.07739257812</ele>
        <time>2012-05-16T11:37:03Z</time>
      </trkpt>
      <trkpt lat="46.79599" lon="5.67795">
        <ele>598.07739257812</ele>
        <time>2012-05-16T11:37:04Z</time>
      </trkpt>
      <trkpt lat="46.79611" lon="5.67812">
        <ele>598.55786132812</ele>
        <time>2012-05-16T11:37:10Z</time>
      </trkpt>
      <trkpt lat="46.7962" lon="5.67825">
        <ele>598.55786132812</ele>
        <time>2012-05-16T11:37:15Z</time>
      </trkpt>
      <trkpt lat="46.79628" lon="5.67839">
        <ele>597.11596679688</ele>
        <time>2012-05-16T11:37:20Z</time>
      </trkpt>
      <trkpt lat="46.79638" lon="5.67855">
        <ele>594.23217773438</ele>
        <time>2012-05-16T11:37:26Z</time>
      </trkpt>
      <trkpt lat="46.79639" lon="5.67858">
        <ele>594.23217773438</ele>
        <time>2012-05-16T11:37:27Z</time>
      </trkpt>
      <trkpt lat="46.79645" lon="5.67869">
        <ele>593.27075195312</ele>
        <time>2012-05-16T11:37:31Z</time>
      </trkpt>
      <trkpt lat="46.79649" lon="5.67877">
        <ele>593.27075195312</ele>
        <time>2012-05-16T11:37:34Z</time>
      </trkpt>
      <trkpt lat="46.79655" lon="5.67888">
        <ele>592.79028320312</ele>
        <time>2012-05-16T11:37:38Z</time>
      </trkpt>
      <trkpt lat="46.79662" lon="5.67902">
        <ele>592.3095703125</ele>
        <time>2012-05-16T11:37:43Z</time>
      </trkpt>
      <trkpt lat="46.79668" lon="5.67909">
        <ele>591.34814453125</ele>
        <time>2012-05-16T11:37:46Z</time>
      </trkpt>
      <trkpt lat="46.79673" lon="5.6792">
        <ele>590.86743164062</ele>
        <time>2012-05-16T11:37:50Z</time>
      </trkpt>
      <trkpt lat="46.79678" lon="5.67928">
        <ele>590.86743164062</ele>
        <time>2012-05-16T11:37:53Z</time>
      </trkpt>
      <trkpt lat="46.79686" lon="5.67941">
        <ele>591.82885742188</ele>
        <time>2012-05-16T11:37:58Z</time>
      </trkpt>
      <trkpt lat="46.79687" lon="5.67943">
        <ele>591.82885742188</ele>
        <time>2012-05-16T11:37:59Z</time>
      </trkpt>
      <trkpt lat="46.79697" lon="5.67956">
        <ele>591.82885742188</ele>
        <time>2012-05-16T11:38:04Z</time>
      </trkpt>
      <trkpt lat="46.79705" lon="5.67969">
        <ele>592.3095703125</ele>
        <time>2012-05-16T11:38:09Z</time>
      </trkpt>
      <trkpt lat="46.79715" lon="5.67981">
        <ele>591.82885742188</ele>
        <time>2012-05-16T11:38:14Z</time>
      </trkpt>
      <trkpt lat="46.79722" lon="5.67993">
        <ele>591.82885742188</ele>
        <time>2012-05-16T11:38:19Z</time>
      </trkpt>
      <trkpt lat="46.79729" lon="5.68006">
        <ele>590.86743164062</ele>
        <time>2012-05-16T11:38:24Z</time>
      </trkpt>
      <trkpt lat="46.79736" lon="5.6802">
        <ele>590.38696289062</ele>
        <time>2012-05-16T11:38:29Z</time>
      </trkpt>
      <trkpt lat="46.79745" lon="5.68036">
        <ele>589.90625</ele>
        <time>2012-05-16T11:38:35Z</time>
      </trkpt>
      <trkpt lat="46.79752" lon="5.6805">
        <ele>589.42553710938</ele>
        <time>2012-05-16T11:38:40Z</time>
      </trkpt>
      <trkpt lat="46.79758" lon="5.68061">
        <ele>589.42553710938</ele>
        <time>2012-05-16T11:38:44Z</time>
      </trkpt>
      <trkpt lat="46.79766" lon="5.6808">
        <ele>589.42553710938</ele>
        <time>2012-05-16T11:38:50Z</time>
      </trkpt>
      <trkpt lat="46.79774" lon="5.68102">
        <ele>590.38696289062</ele>
        <time>2012-05-16T11:38:57Z</time>
      </trkpt>
      <trkpt lat="46.79782" lon="5.6812">
        <ele>589.90625</ele>
        <time>2012-05-16T11:39:03Z</time>
      </trkpt>
      <trkpt lat="46.7979" lon="5.68133">
        <ele>589.42553710938</ele>
        <time>2012-05-16T11:39:08Z</time>
      </trkpt>
      <trkpt lat="46.79798" lon="5.68144">
        <ele>588.94506835938</ele>
        <time>2012-05-16T11:39:12Z</time>
      </trkpt>
      <trkpt lat="46.79805" lon="5.68154">
        <ele>587.9833984375</ele>
        <time>2012-05-16T11:39:16Z</time>
      </trkpt>
      <trkpt lat="46.79816" lon="5.68164">
        <ele>588.46435546875</ele>
        <time>2012-05-16T11:39:22Z</time>
      </trkpt>
      <trkpt lat="46.7983" lon="5.68172">
        <ele>588.94506835938</ele>
        <time>2012-05-16T11:39:28Z</time>
      </trkpt>
      <trkpt lat="46.79845" lon="5.6818">
        <ele>589.42553710938</ele>
        <time>2012-05-16T11:39:34Z</time>
      </trkpt>
      <trkpt lat="46.79852" lon="5.68185">
        <ele>589.42553710938</ele>
        <time>2012-05-16T11:39:38Z</time>
      </trkpt>
      <trkpt lat="46.79863" lon="5.68193">
        <ele>589.42553710938</ele>
        <time>2012-05-16T11:39:43Z</time>
      </trkpt>
      <trkpt lat="46.79866" lon="5.68194">
        <ele>589.90625</ele>
        <time>2012-05-16T11:39:44Z</time>
      </trkpt>
      <trkpt lat="46.79881" lon="5.68203">
        <ele>588.46435546875</ele>
        <time>2012-05-16T11:39:50Z</time>
      </trkpt>
      <trkpt lat="46.79891" lon="5.68212">
        <ele>588.94506835938</ele>
        <time>2012-05-16T11:39:55Z</time>
      </trkpt>
      <trkpt lat="46.79902" lon="5.6822">
        <ele>587.9833984375</ele>
        <time>2012-05-16T11:40:00Z</time>
      </trkpt>
      <trkpt lat="46.79912" lon="5.6823">
        <ele>585.580078125</ele>
        <time>2012-05-16T11:40:05Z</time>
      </trkpt>
      <trkpt lat="46.79922" lon="5.68236">
        <ele>585.580078125</ele>
        <time>2012-05-16T11:40:09Z</time>
      </trkpt>
      <trkpt lat="46.79934" lon="5.68246">
        <ele>585.580078125</ele>
        <time>2012-05-16T11:40:14Z</time>
      </trkpt>
      <trkpt lat="46.79947" lon="5.68256">
        <ele>583.1767578125</ele>
        <time>2012-05-16T11:40:20Z</time>
      </trkpt>
      <trkpt lat="46.79956" lon="5.68265">
        <ele>582.21557617188</ele>
        <time>2012-05-16T11:40:25Z</time>
      </trkpt>
      <trkpt lat="46.79966" lon="5.68274">
        <ele>580.77368164062</ele>
        <time>2012-05-16T11:40:30Z</time>
      </trkpt>
      <trkpt lat="46.79977" lon="5.68282">
        <ele>580.29296875</ele>
        <time>2012-05-16T11:40:35Z</time>
      </trkpt>
      <trkpt lat="46.79983" lon="5.68287">
        <ele>580.29296875</ele>
        <time>2012-05-16T11:40:38Z</time>
      </trkpt>
      <trkpt lat="46.79992" lon="5.68296">
        <ele>580.29296875</ele>
        <time>2012-05-16T11:40:43Z</time>
      </trkpt>
      <trkpt lat="46.79998" lon="5.683">
        <ele>579.33154296875</ele>
        <time>2012-05-16T11:40:46Z</time>
      </trkpt>
      <trkpt lat="46.80013" lon="5.68311">
        <ele>578.85107421875</ele>
        <time>2012-05-16T11:40:52Z</time>
      </trkpt>
      <trkpt lat="46.8002" lon="5.68317">
        <ele>577.8896484375</ele>
        <time>2012-05-16T11:40:56Z</time>
      </trkpt>
      <trkpt lat="46.80029" lon="5.68327">
        <ele>577.4091796875</ele>
        <time>2012-05-16T11:41:01Z</time>
      </trkpt>
      <trkpt lat="46.80038" lon="5.68337">
        <ele>577.4091796875</ele>
        <time>2012-05-16T11:41:06Z</time>
      </trkpt>
      <trkpt lat="46.80048" lon="5.68353">
        <ele>575.96704101562</ele>
        <time>2012-05-16T11:41:12Z</time>
      </trkpt>
      <trkpt lat="46.80057" lon="5.68369">
        <ele>575.005859375</ele>
        <time>2012-05-16T11:41:17Z</time>
      </trkpt>
      <trkpt lat="46.80064" lon="5.68386">
        <ele>572.6025390625</ele>
        <time>2012-05-16T11:41:22Z</time>
      </trkpt>
      <trkpt lat="46.8007" lon="5.68398">
        <ele>571.64086914062</ele>
        <time>2012-05-16T11:41:26Z</time>
      </trkpt>
      <trkpt lat="46.80078" lon="5.68408">
        <ele>570.19897460938</ele>
        <time>2012-05-16T11:41:30Z</time>
      </trkpt>
      <trkpt lat="46.80088" lon="5.68416">
        <ele>568.75708007812</ele>
        <time>2012-05-16T11:41:35Z</time>
      </trkpt>
      <trkpt lat="46.80097" lon="5.68419">
        <ele>569.23779296875</ele>
        <time>2012-05-16T11:41:39Z</time>
      </trkpt>
      <trkpt lat="46.80108" lon="5.68423">
        <ele>569.23779296875</ele>
        <time>2012-05-16T11:41:44Z</time>
      </trkpt>
      <trkpt lat="46.80119" lon="5.68427">
        <ele>568.75708007812</ele>
        <time>2012-05-16T11:41:49Z</time>
      </trkpt>
      <trkpt lat="46.80121" lon="5.68428">
        <ele>568.75708007812</ele>
        <time>2012-05-16T11:41:50Z</time>
      </trkpt>
      <trkpt lat="46.80136" lon="5.68432">
        <ele>568.75708007812</ele>
        <time>2012-05-16T11:41:56Z</time>
      </trkpt>
      <trkpt lat="46.80147" lon="5.68438">
        <ele>566.83447265625</ele>
        <time>2012-05-16T11:42:01Z</time>
      </trkpt>
      <trkpt lat="46.80159" lon="5.68446">
        <ele>565.392578125</ele>
        <time>2012-05-16T11:42:07Z</time>
      </trkpt>
      <trkpt lat="46.8017" lon="5.6845">
        <ele>565.392578125</ele>
        <time>2012-05-16T11:42:12Z</time>
      </trkpt>
      <trkpt lat="46.80182" lon="5.68453">
        <ele>566.35375976562</ele>
        <time>2012-05-16T11:42:17Z</time>
      </trkpt>
      <trkpt lat="46.80195" lon="5.68458">
        <ele>567.31518554688</ele>
        <time>2012-05-16T11:42:23Z</time>
      </trkpt>
      <trkpt lat="46.80204" lon="5.6846">
        <ele>567.31518554688</ele>
        <time>2012-05-16T11:42:29Z</time>
      </trkpt>
      <trkpt lat="46.80213" lon="5.68463">
        <ele>567.31518554688</ele>
        <time>2012-05-16T11:42:35Z</time>
      </trkpt>
      <trkpt lat="46.80225" lon="5.68463">
        <ele>568.2763671875</ele>
        <time>2012-05-16T11:42:43Z</time>
      </trkpt>
      <trkpt lat="46.80233" lon="5.68461">
        <ele>569.71850585938</ele>
        <time>2012-05-16T11:42:48Z</time>
      </trkpt>
      <trkpt lat="46.80241" lon="5.68459">
        <ele>570.19897460938</ele>
        <time>2012-05-16T11:42:54Z</time>
      </trkpt>
      <trkpt lat="46.80251" lon="5.68458">
        <ele>571.16040039062</ele>
        <time>2012-05-16T11:43:00Z</time>
      </trkpt>
      <trkpt lat="46.80261" lon="5.68457">
        <ele>571.64086914062</ele>
        <time>2012-05-16T11:43:07Z</time>
      </trkpt>
      <trkpt lat="46.80263" lon="5.68457">
        <ele>572.12182617188</ele>
        <time>2012-05-16T11:43:08Z</time>
      </trkpt>
      <trkpt lat="46.80277" lon="5.68455">
        <ele>572.6025390625</ele>
        <time>2012-05-16T11:43:14Z</time>
      </trkpt>
      <trkpt lat="46.80292" lon="5.68451">
        <ele>571.64086914062</ele>
        <time>2012-05-16T11:43:20Z</time>
      </trkpt>
      <trkpt lat="46.80307" lon="5.68448">
        <ele>571.16040039062</ele>
        <time>2012-05-16T11:43:26Z</time>
      </trkpt>
      <trkpt lat="46.80317" lon="5.68448">
        <ele>569.23779296875</ele>
        <time>2012-05-16T11:43:30Z</time>
      </trkpt>
      <trkpt lat="46.8033" lon="5.68444">
        <ele>567.31518554688</ele>
        <time>2012-05-16T11:43:35Z</time>
      </trkpt>
      <trkpt lat="46.80339" lon="5.6844">
        <ele>566.83447265625</ele>
        <time>2012-05-16T11:43:39Z</time>
      </trkpt>
      <trkpt lat="46.80346" lon="5.68436">
        <ele>565.87329101562</ele>
        <time>2012-05-16T11:43:42Z</time>
      </trkpt>
      <trkpt lat="46.80355" lon="5.68429">
        <ele>564.91186523438</ele>
        <time>2012-05-16T11:43:46Z</time>
      </trkpt>
      <trkpt lat="46.80371" lon="5.68418">
        <ele>562.02807617188</ele>
        <time>2012-05-16T11:43:53Z</time>
      </trkpt>
      <trkpt lat="46.80385" lon="5.68406">
        <ele>560.10522460938</ele>
        <time>2012-05-16T11:43:59Z</time>
      </trkpt>
      <trkpt lat="46.80399" lon="5.68394">
        <ele>558.18286132812</ele>
        <time>2012-05-16T11:44:06Z</time>
      </trkpt>
      <trkpt lat="46.80413" lon="5.68386">
        <ele>557.22143554688</ele>
        <time>2012-05-16T11:44:12Z</time>
      </trkpt>
      <trkpt lat="46.80426" lon="5.68385">
        <ele>556.74072265625</ele>
        <time>2012-05-16T11:44:17Z</time>
      </trkpt>
      <trkpt lat="46.80442" lon="5.68388">
        <ele>557.22143554688</ele>
        <time>2012-05-16T11:44:23Z</time>
      </trkpt>
      <trkpt lat="46.80452" lon="5.68391">
        <ele>556.74072265625</ele>
        <time>2012-05-16T11:44:27Z</time>
      </trkpt>
      <trkpt lat="46.80466" lon="5.68395">
        <ele>555.779296875</ele>
        <time>2012-05-16T11:44:33Z</time>
      </trkpt>
      <trkpt lat="46.80476" lon="5.68397">
        <ele>555.779296875</ele>
        <time>2012-05-16T11:44:37Z</time>
      </trkpt>
      <trkpt lat="46.80483" lon="5.68398">
        <ele>555.779296875</ele>
        <time>2012-05-16T11:44:40Z</time>
      </trkpt>
      <trkpt lat="46.80497" lon="5.68399">
        <ele>556.74072265625</ele>
        <time>2012-05-16T11:44:46Z</time>
      </trkpt>
      <trkpt lat="46.80513" lon="5.68401">
        <ele>557.22143554688</ele>
        <time>2012-05-16T11:44:52Z</time>
      </trkpt>
      <trkpt lat="46.80523" lon="5.68401">
        <ele>557.7021484375</ele>
        <time>2012-05-16T11:44:56Z</time>
      </trkpt>
      <trkpt lat="46.80533" lon="5.68403">
        <ele>558.18286132812</ele>
        <time>2012-05-16T11:45:00Z</time>
      </trkpt>
      <trkpt lat="46.80544" lon="5.68404">
        <ele>557.7021484375</ele>
        <time>2012-05-16T11:45:05Z</time>
      </trkpt>
      <trkpt lat="46.80553" lon="5.68405">
        <ele>556.74072265625</ele>
        <time>2012-05-16T11:45:09Z</time>
      </trkpt>
      <trkpt lat="46.80561" lon="5.68404">
        <ele>556.26000976562</ele>
        <time>2012-05-16T11:45:12Z</time>
      </trkpt>
      <trkpt lat="46.80573" lon="5.68404">
        <ele>554.81787109375</ele>
        <time>2012-05-16T11:45:17Z</time>
      </trkpt>
      <trkpt lat="46.80575" lon="5.68404">
        <ele>555.29858398438</ele>
        <time>2012-05-16T11:45:18Z</time>
      </trkpt>
      <trkpt lat="46.80587" lon="5.68406">
        <ele>553.85668945312</ele>
        <time>2012-05-16T11:45:24Z</time>
      </trkpt>
      <trkpt lat="46.80594" lon="5.68407">
        <ele>553.85668945312</ele>
        <time>2012-05-16T11:45:29Z</time>
      </trkpt>
      <trkpt lat="46.80601" lon="5.68408">
        <ele>554.33740234375</ele>
        <time>2012-05-16T11:45:34Z</time>
      </trkpt>
      <trkpt lat="46.80607" lon="5.6841">
        <ele>554.33740234375</ele>
        <time>2012-05-16T11:45:38Z</time>
      </trkpt>
      <trkpt lat="46.80619" lon="5.68411">
        <ele>554.81787109375</ele>
        <time>2012-05-16T11:45:45Z</time>
      </trkpt>
      <trkpt lat="46.80634" lon="5.68412">
        <ele>554.81787109375</ele>
        <time>2012-05-16T11:45:51Z</time>
      </trkpt>
      <trkpt lat="46.80646" lon="5.68412">
        <ele>553.3759765625</ele>
        <time>2012-05-16T11:45:56Z</time>
      </trkpt>
      <trkpt lat="46.80658" lon="5.68414">
        <ele>550.4921875</ele>
        <time>2012-05-16T11:46:01Z</time>
      </trkpt>
      <trkpt lat="46.80669" lon="5.68414">
        <ele>549.53076171875</ele>
        <time>2012-05-16T11:46:05Z</time>
      </trkpt>
      <trkpt lat="46.80682" lon="5.68417">
        <ele>547.60815429688</ele>
        <time>2012-05-16T11:46:10Z</time>
      </trkpt>
      <trkpt lat="46.80694" lon="5.68419">
        <ele>547.12744140625</ele>
        <time>2012-05-16T11:46:15Z</time>
      </trkpt>
      <trkpt lat="46.80704" lon="5.68421">
        <ele>546.64685058594</ele>
        <time>2012-05-16T11:46:19Z</time>
      </trkpt>
      <trkpt lat="46.80711" lon="5.68422">
        <ele>548.0888671875</ele>
        <time>2012-05-16T11:46:22Z</time>
      </trkpt>
      <trkpt lat="46.80725" lon="5.68432">
        <ele>549.53076171875</ele>
        <time>2012-05-16T11:46:28Z</time>
      </trkpt>
      <trkpt lat="46.80736" lon="5.68438">
        <ele>550.4921875</ele>
        <time>2012-05-16T11:46:33Z</time>
      </trkpt>
      <trkpt lat="46.80744" lon="5.68441">
        <ele>550.01147460938</ele>
        <time>2012-05-16T11:46:38Z</time>
      </trkpt>
      <trkpt lat="46.80753" lon="5.68445">
        <ele>550.01147460938</ele>
        <time>2012-05-16T11:46:44Z</time>
      </trkpt>
      <trkpt lat="46.80764" lon="5.68455">
        <ele>550.97265625</ele>
        <time>2012-05-16T11:46:52Z</time>
      </trkpt>
      <trkpt lat="46.80773" lon="5.68467">
        <ele>551.93408203125</ele>
        <time>2012-05-16T11:47:00Z</time>
      </trkpt>
      <trkpt lat="46.80785" lon="5.68487">
        <ele>552.89526367188</ele>
        <time>2012-05-16T11:47:12Z</time>
      </trkpt>
      <trkpt lat="46.80791" lon="5.68498">
        <ele>553.3759765625</ele>
        <time>2012-05-16T11:47:18Z</time>
      </trkpt>
      <trkpt lat="46.80795" lon="5.68505">
        <ele>553.85668945312</ele>
        <time>2012-05-16T11:47:22Z</time>
      </trkpt>
      <trkpt lat="46.80804" lon="5.68517">
        <ele>554.33740234375</ele>
        <time>2012-05-16T11:47:30Z</time>
      </trkpt>
      <trkpt lat="46.8081" lon="5.68523">
        <ele>555.29858398438</ele>
        <time>2012-05-16T11:47:34Z</time>
      </trkpt>
      <trkpt lat="46.80816" lon="5.68528">
        <ele>556.26000976562</ele>
        <time>2012-05-16T11:47:38Z</time>
      </trkpt>
      <trkpt lat="46.80824" lon="5.68535">
        <ele>556.74072265625</ele>
        <time>2012-05-16T11:47:44Z</time>
      </trkpt>
      <trkpt lat="46.8083" lon="5.68543">
        <ele>556.26000976562</ele>
        <time>2012-05-16T11:47:49Z</time>
      </trkpt>
      <trkpt lat="46.80838" lon="5.68551">
        <ele>556.26000976562</ele>
        <time>2012-05-16T11:47:56Z</time>
      </trkpt>
      <trkpt lat="46.80846" lon="5.68559">
        <ele>556.26000976562</ele>
        <time>2012-05-16T11:48:03Z</time>
      </trkpt>
      <trkpt lat="46.80856" lon="5.68568">
        <ele>556.26000976562</ele>
        <time>2012-05-16T11:48:11Z</time>
      </trkpt>
      <trkpt lat="46.80867" lon="5.68574">
        <ele>555.779296875</ele>
        <time>2012-05-16T11:48:19Z</time>
      </trkpt>
      <trkpt lat="46.80878" lon="5.68579">
        <ele>556.74072265625</ele>
        <time>2012-05-16T11:48:26Z</time>
      </trkpt>
      <trkpt lat="46.80894" lon="5.68583">
        <ele>556.74072265625</ele>
        <time>2012-05-16T11:48:32Z</time>
      </trkpt>
      <trkpt lat="46.80912" lon="5.68586">
        <ele>555.779296875</ele>
        <time>2012-05-16T11:48:39Z</time>
      </trkpt>
      <trkpt lat="46.80921" lon="5.6859">
        <ele>555.29858398438</ele>
        <time>2012-05-16T11:48:43Z</time>
      </trkpt>
      <trkpt lat="46.80934" lon="5.68594">
        <ele>555.29858398438</ele>
        <time>2012-05-16T11:48:48Z</time>
      </trkpt>
      <trkpt lat="46.80944" lon="5.68603">
        <ele>555.29858398438</ele>
        <time>2012-05-16T11:48:53Z</time>
      </trkpt>
      <trkpt lat="46.80952" lon="5.68611">
        <ele>554.33740234375</ele>
        <time>2012-05-16T11:48:57Z</time>
      </trkpt>
      <trkpt lat="46.8096" lon="5.6862">
        <ele>553.85668945312</ele>
        <time>2012-05-16T11:49:01Z</time>
      </trkpt>
      <trkpt lat="46.80968" lon="5.68627">
        <ele>554.33740234375</ele>
        <time>2012-05-16T11:49:05Z</time>
      </trkpt>
      <trkpt lat="46.80976" lon="5.68638">
        <ele>555.779296875</ele>
        <time>2012-05-16T11:49:10Z</time>
      </trkpt>
      <trkpt lat="46.80988" lon="5.68651">
        <ele>554.81787109375</ele>
        <time>2012-05-16T11:49:16Z</time>
      </trkpt>
      <trkpt lat="46.80997" lon="5.6866">
        <ele>554.81787109375</ele>
        <time>2012-05-16T11:49:21Z</time>
      </trkpt>
      <trkpt lat="46.81007" lon="5.68669">
        <ele>553.85668945312</ele>
        <time>2012-05-16T11:49:25Z</time>
      </trkpt>
      <trkpt lat="46.81017" lon="5.68679">
        <ele>552.89526367188</ele>
        <time>2012-05-16T11:49:30Z</time>
      </trkpt>
      <trkpt lat="46.81028" lon="5.68687">
        <ele>551.45336914062</ele>
        <time>2012-05-16T11:49:35Z</time>
      </trkpt>
      <trkpt lat="46.8104" lon="5.68695">
        <ele>550.4921875</ele>
        <time>2012-05-16T11:49:40Z</time>
      </trkpt>
      <trkpt lat="46.81048" lon="5.68704">
        <ele>549.53076171875</ele>
        <time>2012-05-16T11:49:44Z</time>
      </trkpt>
      <trkpt lat="46.81059" lon="5.68712">
        <ele>548.5693359375</ele>
        <time>2012-05-16T11:49:49Z</time>
      </trkpt>
      <trkpt lat="46.81069" lon="5.68719">
        <ele>548.5693359375</ele>
        <time>2012-05-16T11:49:54Z</time>
      </trkpt>
      <trkpt lat="46.81071" lon="5.68721">
        <ele>548.5693359375</ele>
        <time>2012-05-16T11:49:55Z</time>
      </trkpt>
      <trkpt lat="46.81079" lon="5.68728">
        <ele>548.5693359375</ele>
        <time>2012-05-16T11:49:59Z</time>
      </trkpt>
      <trkpt lat="46.81094" lon="5.68739">
        <ele>548.5693359375</ele>
        <time>2012-05-16T11:50:06Z</time>
      </trkpt>
      <trkpt lat="46.81101" lon="5.68746">
        <ele>549.53076171875</ele>
        <time>2012-05-16T11:50:10Z</time>
      </trkpt>
      <trkpt lat="46.81111" lon="5.68756">
        <ele>550.01147460938</ele>
        <time>2012-05-16T11:50:15Z</time>
      </trkpt>
      <trkpt lat="46.81115" lon="5.6876">
        <ele>550.01147460938</ele>
        <time>2012-05-16T11:50:17Z</time>
      </trkpt>
      <trkpt lat="46.81126" lon="5.6877">
        <ele>550.01147460938</ele>
        <time>2012-05-16T11:50:22Z</time>
      </trkpt>
      <trkpt lat="46.81133" lon="5.68777">
        <ele>551.45336914062</ele>
        <time>2012-05-16T11:50:26Z</time>
      </trkpt>
      <trkpt lat="46.81137" lon="5.68784">
        <ele>552.41455078125</ele>
        <time>2012-05-16T11:50:29Z</time>
      </trkpt>
      <trkpt lat="46.81149" lon="5.68796">
        <ele>553.3759765625</ele>
        <time>2012-05-16T11:50:35Z</time>
      </trkpt>
      <trkpt lat="46.81161" lon="5.68805">
        <ele>551.45336914062</ele>
        <time>2012-05-16T11:50:41Z</time>
      </trkpt>
      <trkpt lat="46.81173" lon="5.68812">
        <ele>551.45336914062</ele>
        <time>2012-05-16T11:50:46Z</time>
      </trkpt>
      <trkpt lat="46.81182" lon="5.68817">
        <ele>550.97265625</ele>
        <time>2012-05-16T11:50:51Z</time>
      </trkpt>
      <trkpt lat="46.8119" lon="5.68825">
        <ele>551.45336914062</ele>
        <time>2012-05-16T11:50:57Z</time>
      </trkpt>
      <trkpt lat="46.81201" lon="5.68836">
        <ele>550.01147460938</ele>
        <time>2012-05-16T11:51:06Z</time>
      </trkpt>
      <trkpt lat="46.8121" lon="5.68849">
        <ele>550.01147460938</ele>
        <time>2012-05-16T11:51:14Z</time>
      </trkpt>
      <trkpt lat="46.81213" lon="5.68854">
        <ele>550.01147460938</ele>
        <time>2012-05-16T11:51:17Z</time>
      </trkpt>
      <trkpt lat="46.81218" lon="5.68865">
        <ele>550.4921875</ele>
        <time>2012-05-16T11:51:24Z</time>
      </trkpt>
      <trkpt lat="46.81219" lon="5.68866">
        <ele>550.01147460938</ele>
        <time>2012-05-16T11:51:25Z</time>
      </trkpt>
      <trkpt lat="46.81227" lon="5.68873">
        <ele>550.4921875</ele>
        <time>2012-05-16T11:51:32Z</time>
      </trkpt>
      <trkpt lat="46.81223" lon="5.68871">
        <ele>550.97265625</ele>
        <time>2012-05-16T11:51:37Z</time>
      </trkpt>
      <trkpt lat="46.81211" lon="5.68856">
        <ele>550.97265625</ele>
        <time>2012-05-16T11:51:47Z</time>
      </trkpt>
      <trkpt lat="46.8121" lon="5.68852">
        <ele>550.97265625</ele>
        <time>2012-05-16T11:51:49Z</time>
      </trkpt>
      <trkpt lat="46.81207" lon="5.68841">
        <ele>551.93408203125</ele>
        <time>2012-05-16T11:51:54Z</time>
      </trkpt>
      <trkpt lat="46.8121" lon="5.68832">
        <ele>551.93408203125</ele>
        <time>2012-05-16T11:52:00Z</time>
      </trkpt>
      <trkpt lat="46.81213" lon="5.68832">
        <ele>552.41455078125</ele>
        <time>2012-05-16T11:52:02Z</time>
      </trkpt>
      <trkpt lat="46.81215" lon="5.6883">
        <ele>552.41455078125</ele>
        <time>2012-05-16T11:52:09Z</time>
      </trkpt>
      <trkpt lat="46.81216" lon="5.68834">
        <ele>549.05004882812</ele>
        <time>2012-05-16T11:52:23Z</time>
      </trkpt>
      <trkpt lat="46.81219" lon="5.68836">
        <ele>550.01147460938</ele>
        <time>2012-05-16T11:52:26Z</time>
      </trkpt>
      <trkpt lat="46.81229" lon="5.68842">
        <ele>549.53076171875</ele>
        <time>2012-05-16T11:52:31Z</time>
      </trkpt>
      <trkpt lat="46.81238" lon="5.68849">
        <ele>548.5693359375</ele>
        <time>2012-05-16T11:52:35Z</time>
      </trkpt>
      <trkpt lat="46.81244" lon="5.68854">
        <ele>548.0888671875</ele>
        <time>2012-05-16T11:52:38Z</time>
      </trkpt>
      <trkpt lat="46.81258" lon="5.68864">
        <ele>546.64685058594</ele>
        <time>2012-05-16T11:52:45Z</time>
      </trkpt>
      <trkpt lat="46.81267" lon="5.68871">
        <ele>545.20483398438</ele>
        <time>2012-05-16T11:52:50Z</time>
      </trkpt>
      <trkpt lat="46.81276" lon="5.68878">
        <ele>543.76281738281</ele>
        <time>2012-05-16T11:52:55Z</time>
      </trkpt>
      <trkpt lat="46.81289" lon="5.68885">
        <ele>541.84020996094</ele>
        <time>2012-05-16T11:53:00Z</time>
      </trkpt>
      <trkpt lat="46.81298" lon="5.68891">
        <ele>541.35949707031</ele>
        <time>2012-05-16T11:53:04Z</time>
      </trkpt>
      <trkpt lat="46.813" lon="5.68892">
        <ele>540.87890625</ele>
        <time>2012-05-16T11:53:05Z</time>
      </trkpt>
      <trkpt lat="46.8131" lon="5.68901">
        <ele>538.95629882812</ele>
        <time>2012-05-16T11:53:10Z</time>
      </trkpt>
      <trkpt lat="46.81322" lon="5.68915">
        <ele>536.55310058594</ele>
        <time>2012-05-16T11:53:17Z</time>
      </trkpt>
      <trkpt lat="46.81334" lon="5.68924">
        <ele>536.55310058594</ele>
        <time>2012-05-16T11:53:22Z</time>
      </trkpt>
      <trkpt lat="46.81339" lon="5.68926">
        <ele>536.07238769531</ele>
        <time>2012-05-16T11:53:24Z</time>
      </trkpt>
      <trkpt lat="46.81352" lon="5.68938">
        <ele>536.07238769531</ele>
        <time>2012-05-16T11:53:30Z</time>
      </trkpt>
      <trkpt lat="46.81362" lon="5.68945">
        <ele>533.6689453125</ele>
        <time>2012-05-16T11:53:34Z</time>
      </trkpt>
      <trkpt lat="46.8137" lon="5.68951">
        <ele>533.18835449219</ele>
        <time>2012-05-16T11:53:38Z</time>
      </trkpt>
      <trkpt lat="46.81378" lon="5.68958">
        <ele>534.14965820312</ele>
        <time>2012-05-16T11:53:43Z</time>
      </trkpt>
      <trkpt lat="46.81388" lon="5.68967">
        <ele>534.63037109375</ele>
        <time>2012-05-16T11:53:48Z</time>
      </trkpt>
      <trkpt lat="46.81397" lon="5.68981">
        <ele>533.18835449219</ele>
        <time>2012-05-16T11:53:53Z</time>
      </trkpt>
      <trkpt lat="46.81408" lon="5.68991">
        <ele>532.70776367188</ele>
        <time>2012-05-16T11:53:58Z</time>
      </trkpt>
      <trkpt lat="46.81414" lon="5.68997">
        <ele>532.22705078125</ele>
        <time>2012-05-16T11:54:02Z</time>
      </trkpt>
      <trkpt lat="46.81425" lon="5.69008">
        <ele>530.30444335938</ele>
        <time>2012-05-16T11:54:08Z</time>
      </trkpt>
      <trkpt lat="46.81427" lon="5.69009">
        <ele>530.30444335938</ele>
        <time>2012-05-16T11:54:09Z</time>
      </trkpt>
      <trkpt lat="46.81439" lon="5.69016">
        <ele>533.6689453125</ele>
        <time>2012-05-16T11:54:14Z</time>
      </trkpt>
      <trkpt lat="46.81455" lon="5.69028">
        <ele>537.51428222656</ele>
        <time>2012-05-16T11:54:21Z</time>
      </trkpt>
      <trkpt lat="46.81465" lon="5.69042">
        <ele>534.63037109375</ele>
        <time>2012-05-16T11:54:27Z</time>
      </trkpt>
      <trkpt lat="46.81469" lon="5.69049">
        <ele>532.70776367188</ele>
        <time>2012-05-16T11:54:30Z</time>
      </trkpt>
      <trkpt lat="46.81477" lon="5.69063">
        <ele>529.34313964844</ele>
        <time>2012-05-16T11:54:36Z</time>
      </trkpt>
      <trkpt lat="46.81484" lon="5.69071">
        <ele>527.42041015625</ele>
        <time>2012-05-16T11:54:40Z</time>
      </trkpt>
      <trkpt lat="46.81496" lon="5.69081">
        <ele>525.97839355469</ele>
        <time>2012-05-16T11:54:46Z</time>
      </trkpt>
      <trkpt lat="46.81498" lon="5.69083">
        <ele>525.97839355469</ele>
        <time>2012-05-16T11:54:47Z</time>
      </trkpt>
      <trkpt lat="46.81503" lon="5.69092">
        <ele>524.05578613281</ele>
        <time>2012-05-16T11:54:51Z</time>
      </trkpt>
      <trkpt lat="46.81507" lon="5.69097">
        <ele>524.05578613281</ele>
        <time>2012-05-16T11:54:53Z</time>
      </trkpt>
      <trkpt lat="46.81516" lon="5.69105">
        <ele>522.61389160156</ele>
        <time>2012-05-16T11:54:57Z</time>
      </trkpt>
      <trkpt lat="46.81524" lon="5.69115">
        <ele>520.69128417969</ele>
        <time>2012-05-16T11:55:02Z</time>
      </trkpt>
      <trkpt lat="46.81531" lon="5.69125">
        <ele>518.7685546875</ele>
        <time>2012-05-16T11:55:07Z</time>
      </trkpt>
      <trkpt lat="46.81539" lon="5.69135">
        <ele>514.92333984375</ele>
        <time>2012-05-16T11:55:12Z</time>
      </trkpt>
      <trkpt lat="46.81547" lon="5.69147">
        <ele>513.4814453125</ele>
        <time>2012-05-16T11:55:17Z</time>
      </trkpt>
      <trkpt lat="46.81558" lon="5.69161">
        <ele>512.03942871094</ele>
        <time>2012-05-16T11:55:24Z</time>
      </trkpt>
      <trkpt lat="46.81565" lon="5.69172">
        <ele>512.03942871094</ele>
        <time>2012-05-16T11:55:29Z</time>
      </trkpt>
      <trkpt lat="46.81573" lon="5.69179">
        <ele>513.00073242188</ele>
        <time>2012-05-16T11:55:33Z</time>
      </trkpt>
      <trkpt lat="46.81588" lon="5.6919">
        <ele>513.96203613281</ele>
        <time>2012-05-16T11:55:38Z</time>
      </trkpt>
      <trkpt lat="46.8159" lon="5.69192">
        <ele>514.44262695312</ele>
        <time>2012-05-16T11:55:39Z</time>
      </trkpt>
      <trkpt lat="46.816" lon="5.69202">
        <ele>515.40405273438</ele>
        <time>2012-05-16T11:55:44Z</time>
      </trkpt>
      <trkpt lat="46.81604" lon="5.69204">
        <ele>515.40405273438</ele>
        <time>2012-05-16T11:55:46Z</time>
      </trkpt>
      <trkpt lat="46.81611" lon="5.69212">
        <ele>515.40405273438</ele>
        <time>2012-05-16T11:55:50Z</time>
      </trkpt>
      <trkpt lat="46.8162" lon="5.6922">
        <ele>514.44262695312</ele>
        <time>2012-05-16T11:55:55Z</time>
      </trkpt>
      <trkpt lat="46.8163" lon="5.69228">
        <ele>513.96203613281</ele>
        <time>2012-05-16T11:56:00Z</time>
      </trkpt>
      <trkpt lat="46.81641" lon="5.69237">
        <ele>512.03942871094</ele>
        <time>2012-05-16T11:56:06Z</time>
      </trkpt>
      <trkpt lat="46.81644" lon="5.69241">
        <ele>511.07800292969</ele>
        <time>2012-05-16T11:56:08Z</time>
      </trkpt>
      <trkpt lat="46.81654" lon="5.6925">
        <ele>509.63610839844</ele>
        <time>2012-05-16T11:56:14Z</time>
      </trkpt>
      <trkpt lat="46.81656" lon="5.69252">
        <ele>508.67468261719</ele>
        <time>2012-05-16T11:56:15Z</time>
      </trkpt>
      <trkpt lat="46.81667" lon="5.69259">
        <ele>506.271484375</ele>
        <time>2012-05-16T11:56:21Z</time>
      </trkpt>
      <trkpt lat="46.81672" lon="5.69265">
        <ele>504.82946777344</ele>
        <time>2012-05-16T11:56:24Z</time>
      </trkpt>
      <trkpt lat="46.81681" lon="5.69275">
        <ele>504.34887695312</ele>
        <time>2012-05-16T11:56:29Z</time>
      </trkpt>
      <trkpt lat="46.81689" lon="5.69284">
        <ele>503.38745117188</ele>
        <time>2012-05-16T11:56:33Z</time>
      </trkpt>
      <trkpt lat="46.81696" lon="5.69293">
        <ele>501.46484375</ele>
        <time>2012-05-16T11:56:37Z</time>
      </trkpt>
      <trkpt lat="46.81707" lon="5.69307">
        <ele>500.02294921875</ele>
        <time>2012-05-16T11:56:44Z</time>
      </trkpt>
      <trkpt lat="46.81711" lon="5.69314">
        <ele>500.02294921875</ele>
        <time>2012-05-16T11:56:47Z</time>
      </trkpt>
      <trkpt lat="46.81717" lon="5.6932">
        <ele>499.0615234375</ele>
        <time>2012-05-16T11:56:50Z</time>
      </trkpt>
      <trkpt lat="46.81727" lon="5.69333">
        <ele>499.0615234375</ele>
        <time>2012-05-16T11:56:56Z</time>
      </trkpt>
      <trkpt lat="46.81729" lon="5.69335">
        <ele>499.0615234375</ele>
        <time>2012-05-16T11:56:57Z</time>
      </trkpt>
      <trkpt lat="46.81738" lon="5.69343">
        <ele>496.65832519531</ele>
        <time>2012-05-16T11:57:02Z</time>
      </trkpt>
      <trkpt lat="46.81739" lon="5.69345">
        <ele>495.69689941406</ele>
        <time>2012-05-16T11:57:03Z</time>
      </trkpt>
      <trkpt lat="46.81744" lon="5.6935">
        <ele>494.73559570312</ele>
        <time>2012-05-16T11:57:06Z</time>
      </trkpt>
      <trkpt lat="46.81756" lon="5.69362">
        <ele>493.29357910156</ele>
        <time>2012-05-16T11:57:12Z</time>
      </trkpt>
      <trkpt lat="46.81758" lon="5.69363">
        <ele>493.77429199219</ele>
        <time>2012-05-16T11:57:13Z</time>
      </trkpt>
      <trkpt lat="46.81769" lon="5.69374">
        <ele>495.21618652344</ele>
        <time>2012-05-16T11:57:19Z</time>
      </trkpt>
      <trkpt lat="46.81779" lon="5.69384">
        <ele>497.13891601562</ele>
        <time>2012-05-16T11:57:24Z</time>
      </trkpt>
      <trkpt lat="46.81787" lon="5.69389">
        <ele>498.58093261719</ele>
        <time>2012-05-16T11:57:28Z</time>
      </trkpt>
      <trkpt lat="46.81799" lon="5.69396">
        <ele>501.94555664062</ele>
        <time>2012-05-16T11:57:33Z</time>
      </trkpt>
      <trkpt lat="46.81807" lon="5.69408">
        <ele>501.94555664062</ele>
        <time>2012-05-16T11:57:38Z</time>
      </trkpt>
      <trkpt lat="46.81815" lon="5.69419">
        <ele>499.0615234375</ele>
        <time>2012-05-16T11:57:43Z</time>
      </trkpt>
      <trkpt lat="46.81821" lon="5.6943">
        <ele>496.65832519531</ele>
        <time>2012-05-16T11:57:48Z</time>
      </trkpt>
      <trkpt lat="46.81828" lon="5.69442">
        <ele>494.73559570312</ele>
        <time>2012-05-16T11:57:53Z</time>
      </trkpt>
      <trkpt lat="46.81833" lon="5.69448">
        <ele>492.81298828125</ele>
        <time>2012-05-16T11:57:57Z</time>
      </trkpt>
      <trkpt lat="46.81833" lon="5.6945">
        <ele>492.81298828125</ele>
        <time>2012-05-16T11:57:58Z</time>
      </trkpt>
      <trkpt lat="46.8184" lon="5.69456">
        <ele>491.37097167969</ele>
        <time>2012-05-16T11:58:02Z</time>
      </trkpt>
      <trkpt lat="46.81852" lon="5.69471">
        <ele>488.00646972656</ele>
        <time>2012-05-16T11:58:09Z</time>
      </trkpt>
      <trkpt lat="46.81854" lon="5.69478">
        <ele>487.52563476562</ele>
        <time>2012-05-16T11:58:12Z</time>
      </trkpt>
      <trkpt lat="46.81855" lon="5.69486">
        <ele>484.64184570312</ele>
        <time>2012-05-16T11:58:16Z</time>
      </trkpt>
      <trkpt lat="46.81862" lon="5.69497">
        <ele>482.23852539062</ele>
        <time>2012-05-16T11:58:21Z</time>
      </trkpt>
      <trkpt lat="46.81871" lon="5.69512">
        <ele>478.87390136719</ele>
        <time>2012-05-16T11:58:28Z</time>
      </trkpt>
      <trkpt lat="46.81883" lon="5.69519">
        <ele>479.83508300781</ele>
        <time>2012-05-16T11:58:33Z</time>
      </trkpt>
      <trkpt lat="46.81895" lon="5.6953">
        <ele>479.3544921875</ele>
        <time>2012-05-16T11:58:39Z</time>
      </trkpt>
      <trkpt lat="46.81897" lon="5.69531">
        <ele>479.83508300781</ele>
        <time>2012-05-16T11:58:40Z</time>
      </trkpt>
      <trkpt lat="46.81906" lon="5.69539">
        <ele>479.3544921875</ele>
        <time>2012-05-16T11:58:45Z</time>
      </trkpt>
      <trkpt lat="46.81916" lon="5.69549">
        <ele>476.95129394531</ele>
        <time>2012-05-16T11:58:51Z</time>
      </trkpt>
      <trkpt lat="46.81926" lon="5.69557">
        <ele>475.98986816406</ele>
        <time>2012-05-16T11:58:56Z</time>
      </trkpt>
      <trkpt lat="46.81932" lon="5.69562">
        <ele>475.02868652344</ele>
        <time>2012-05-16T11:58:59Z</time>
      </trkpt>
      <trkpt lat="46.81943" lon="5.69572">
        <ele>474.54797363281</ele>
        <time>2012-05-16T11:59:04Z</time>
      </trkpt>
      <trkpt lat="46.81955" lon="5.69583">
        <ele>475.50927734375</ele>
        <time>2012-05-16T11:59:09Z</time>
      </trkpt>
      <trkpt lat="46.81965" lon="5.69593">
        <ele>475.50927734375</ele>
        <time>2012-05-16T11:59:14Z</time>
      </trkpt>
      <trkpt lat="46.81977" lon="5.69604">
        <ele>475.98986816406</ele>
        <time>2012-05-16T11:59:20Z</time>
      </trkpt>
      <trkpt lat="46.81983" lon="5.69611">
        <ele>474.54797363281</ele>
        <time>2012-05-16T11:59:24Z</time>
      </trkpt>
      <trkpt lat="46.81996" lon="5.69625">
        <ele>474.54797363281</ele>
        <time>2012-05-16T11:59:30Z</time>
      </trkpt>
      <trkpt lat="46.82002" lon="5.69633">
        <ele>473.58666992188</ele>
        <time>2012-05-16T11:59:34Z</time>
      </trkpt>
      <trkpt lat="46.8201" lon="5.69643">
        <ele>471.18334960938</ele>
        <time>2012-05-16T11:59:39Z</time>
      </trkpt>
      <trkpt lat="46.82011" lon="5.69645">
        <ele>470.70263671875</ele>
        <time>2012-05-16T11:59:40Z</time>
      </trkpt>
      <trkpt lat="46.82015" lon="5.69652">
        <ele>469.74133300781</ele>
        <time>2012-05-16T11:59:43Z</time>
      </trkpt>
      <trkpt lat="46.8202" lon="5.69666">
        <ele>467.81872558594</ele>
        <time>2012-05-16T11:59:48Z</time>
      </trkpt>
      <trkpt lat="46.82027" lon="5.69679">
        <ele>467.33813476562</ele>
        <time>2012-05-16T11:59:54Z</time>
      </trkpt>
      <trkpt lat="46.82035" lon="5.69694">
        <ele>465.89611816406</ele>
        <time>2012-05-16T12:00:00Z</time>
      </trkpt>
      <trkpt lat="46.82044" lon="5.69708">
        <ele>464.4541015625</ele>
        <time>2012-05-16T12:00:06Z</time>
      </trkpt>
      <trkpt lat="46.82051" lon="5.69721">
        <ele>462.05078125</ele>
        <time>2012-05-16T12:00:11Z</time>
      </trkpt>
      <trkpt lat="46.82055" lon="5.69731">
        <ele>461.08947753906</ele>
        <time>2012-05-16T12:00:14Z</time>
      </trkpt>
      <trkpt lat="46.82063" lon="5.69744">
        <ele>458.68615722656</ele>
        <time>2012-05-16T12:00:19Z</time>
      </trkpt>
      <trkpt lat="46.82065" lon="5.69747">
        <ele>458.20556640625</ele>
        <time>2012-05-16T12:00:20Z</time>
      </trkpt>
      <trkpt lat="46.82072" lon="5.69764">
        <ele>453.39892578125</ele>
        <time>2012-05-16T12:00:26Z</time>
      </trkpt>
      <trkpt lat="46.82074" lon="5.69768">
        <ele>452.91821289062</ele>
        <time>2012-05-16T12:00:28Z</time>
      </trkpt>
      <trkpt lat="46.82079" lon="5.69782">
        <ele>450.99560546875</ele>
        <time>2012-05-16T12:00:33Z</time>
      </trkpt>
      <trkpt lat="46.82084" lon="5.69795">
        <ele>448.59240722656</ele>
        <time>2012-05-16T12:00:37Z</time>
      </trkpt>
      <trkpt lat="46.82088" lon="5.69804">
        <ele>447.15026855469</ele>
        <time>2012-05-16T12:00:41Z</time>
      </trkpt>
      <trkpt lat="46.82093" lon="5.69812">
        <ele>446.18908691406</ele>
        <time>2012-05-16T12:00:44Z</time>
      </trkpt>
      <trkpt lat="46.82099" lon="5.6983">
        <ele>446.18908691406</ele>
        <time>2012-05-16T12:00:50Z</time>
      </trkpt>
      <trkpt lat="46.82106" lon="5.69836">
        <ele>447.15026855469</ele>
        <time>2012-05-16T12:00:55Z</time>
      </trkpt>
      <trkpt lat="46.82115" lon="5.69847">
        <ele>446.66967773438</ele>
        <time>2012-05-16T12:01:02Z</time>
      </trkpt>
      <trkpt lat="46.82118" lon="5.69857">
        <ele>445.70837402344</ele>
        <time>2012-05-16T12:01:07Z</time>
      </trkpt>
      <trkpt lat="46.82122" lon="5.69868">
        <ele>445.22766113281</ele>
        <time>2012-05-16T12:01:13Z</time>
      </trkpt>
      <trkpt lat="46.82124" lon="5.69874">
        <ele>444.7470703125</ele>
        <time>2012-05-16T12:01:16Z</time>
      </trkpt>
      <trkpt lat="46.82125" lon="5.69878">
        <ele>444.26647949219</ele>
        <time>2012-05-16T12:01:18Z</time>
      </trkpt>
      <trkpt lat="46.82129" lon="5.6989">
        <ele>444.7470703125</ele>
        <time>2012-05-16T12:01:24Z</time>
      </trkpt>
      <trkpt lat="46.8213" lon="5.69896">
        <ele>445.70837402344</ele>
        <time>2012-05-16T12:01:27Z</time>
      </trkpt>
      <trkpt lat="46.8213" lon="5.69905">
        <ele>446.18908691406</ele>
        <time>2012-05-16T12:01:32Z</time>
      </trkpt>
      <trkpt lat="46.82131" lon="5.69915">
        <ele>447.15026855469</ele>
        <time>2012-05-16T12:01:37Z</time>
      </trkpt>
      <trkpt lat="46.82133" lon="5.69925">
        <ele>448.11181640625</ele>
        <time>2012-05-16T12:01:41Z</time>
      </trkpt>
      <trkpt lat="46.82134" lon="5.69936">
        <ele>450.51501464844</ele>
        <time>2012-05-16T12:01:46Z</time>
      </trkpt>
      <trkpt lat="46.82135" lon="5.69946">
        <ele>451.95703125</ele>
        <time>2012-05-16T12:01:51Z</time>
      </trkpt>
      <trkpt lat="46.82136" lon="5.69948">
        <ele>452.43762207031</ele>
        <time>2012-05-16T12:01:52Z</time>
      </trkpt>
      <trkpt lat="46.82138" lon="5.69962">
        <ele>454.36022949219</ele>
        <time>2012-05-16T12:01:58Z</time>
      </trkpt>
      <trkpt lat="46.82143" lon="5.69972">
        <ele>455.80224609375</ele>
        <time>2012-05-16T12:02:04Z</time>
      </trkpt>
      <trkpt lat="46.82149" lon="5.69979">
        <ele>456.28295898438</ele>
        <time>2012-05-16T12:02:09Z</time>
      </trkpt>
      <trkpt lat="46.82155" lon="5.6998">
        <ele>458.20556640625</ele>
        <time>2012-05-16T12:02:13Z</time>
      </trkpt>
      <trkpt lat="46.82166" lon="5.6998">
        <ele>461.57019042969</ele>
        <time>2012-05-16T12:02:21Z</time>
      </trkpt>
      <trkpt lat="46.82174" lon="5.69979">
        <ele>463.97338867188</ele>
        <time>2012-05-16T12:02:27Z</time>
      </trkpt>
      <trkpt lat="46.82183" lon="5.69977">
        <ele>466.857421875</ele>
        <time>2012-05-16T12:02:34Z</time>
      </trkpt>
      <trkpt lat="46.82189" lon="5.69977">
        <ele>467.33813476562</ele>
        <time>2012-05-16T12:02:41Z</time>
      </trkpt>
      <trkpt lat="46.82195" lon="5.69976">
        <ele>462.53137207031</ele>
        <time>2012-05-16T12:02:48Z</time>
      </trkpt>
      <trkpt lat="46.82201" lon="5.69979">
        <ele>458.68615722656</ele>
        <time>2012-05-16T12:02:53Z</time>
      </trkpt>
      <trkpt lat="46.8221" lon="5.69979">
        <ele>459.64758300781</ele>
        <time>2012-05-16T12:02:59Z</time>
      </trkpt>
      <trkpt lat="46.82211" lon="5.6998">
        <ele>458.20556640625</ele>
        <time>2012-05-16T12:03:00Z</time>
      </trkpt>
      <trkpt lat="46.82219" lon="5.69983">
        <ele>454.8408203125</ele>
        <time>2012-05-16T12:03:05Z</time>
      </trkpt>
      <trkpt lat="46.82229" lon="5.6999">
        <ele>453.39892578125</ele>
        <time>2012-05-16T12:03:10Z</time>
      </trkpt>
      <trkpt lat="46.82236" lon="5.69997">
        <ele>450.51501464844</ele>
        <time>2012-05-16T12:03:15Z</time>
      </trkpt>
      <trkpt lat="46.82241" lon="5.7">
        <ele>450.03442382812</ele>
        <time>2012-05-16T12:03:17Z</time>
      </trkpt>
      <trkpt lat="46.82251" lon="5.70006">
        <ele>446.66967773438</ele>
        <time>2012-05-16T12:03:23Z</time>
      </trkpt>
      <trkpt lat="46.82262" lon="5.70011">
        <ele>445.70837402344</ele>
        <time>2012-05-16T12:03:28Z</time>
      </trkpt>
      <trkpt lat="46.82273" lon="5.70017">
        <ele>446.18908691406</ele>
        <time>2012-05-16T12:03:34Z</time>
      </trkpt>
      <trkpt lat="46.82282" lon="5.7002">
        <ele>446.66967773438</ele>
        <time>2012-05-16T12:03:39Z</time>
      </trkpt>
      <trkpt lat="46.82294" lon="5.70026">
        <ele>446.18908691406</ele>
        <time>2012-05-16T12:03:44Z</time>
      </trkpt>
      <trkpt lat="46.82313" lon="5.70032">
        <ele>445.22766113281</ele>
        <time>2012-05-16T12:03:53Z</time>
      </trkpt>
      <trkpt lat="46.82323" lon="5.70036">
        <ele>443.78576660156</ele>
        <time>2012-05-16T12:03:58Z</time>
      </trkpt>
      <trkpt lat="46.82331" lon="5.70039">
        <ele>442.82446289062</ele>
        <time>2012-05-16T12:04:03Z</time>
      </trkpt>
      <trkpt lat="46.82339" lon="5.70047">
        <ele>436.57592773438</ele>
        <time>2012-05-16T12:04:08Z</time>
      </trkpt>
      <trkpt lat="46.82344" lon="5.70051">
        <ele>434.6533203125</ele>
        <time>2012-05-16T12:04:11Z</time>
      </trkpt>
      <trkpt lat="46.82351" lon="5.70058">
        <ele>429.84655761719</ele>
        <time>2012-05-16T12:04:16Z</time>
      </trkpt>
      <trkpt lat="46.82361" lon="5.70063">
        <ele>429.36596679688</ele>
        <time>2012-05-16T12:04:22Z</time>
      </trkpt>
      <trkpt lat="46.82366" lon="5.70068">
        <ele>426.00134277344</ele>
        <time>2012-05-16T12:04:27Z</time>
      </trkpt>
      <trkpt lat="46.82369" lon="5.70071">
        <ele>426.00134277344</ele>
        <time>2012-05-16T12:04:30Z</time>
      </trkpt>
      <trkpt lat="46.82381" lon="5.70076">
        <ele>426.96276855469</ele>
        <time>2012-05-16T12:04:36Z</time>
      </trkpt>
      <trkpt lat="46.8239" lon="5.70076">
        <ele>426.96276855469</ele>
        <time>2012-05-16T12:04:41Z</time>
      </trkpt>
      <trkpt lat="46.82402" lon="5.70078">
        <ele>427.92395019531</ele>
        <time>2012-05-16T12:04:46Z</time>
      </trkpt>
      <trkpt lat="46.82415" lon="5.70078">
        <ele>427.92395019531</ele>
        <time>2012-05-16T12:04:52Z</time>
      </trkpt>
      <trkpt lat="46.82423" lon="5.70078">
        <ele>426.48205566406</ele>
        <time>2012-05-16T12:04:56Z</time>
      </trkpt>
      <trkpt lat="46.82425" lon="5.70077">
        <ele>426.00134277344</ele>
        <time>2012-05-16T12:04:57Z</time>
      </trkpt>
      <trkpt lat="46.82438" lon="5.70078">
        <ele>422.63671875</ele>
        <time>2012-05-16T12:05:04Z</time>
      </trkpt>
      <trkpt lat="46.82448" lon="5.70079">
        <ele>418.79150390625</ele>
        <time>2012-05-16T12:05:09Z</time>
      </trkpt>
      <trkpt lat="46.82459" lon="5.7008">
        <ele>416.38818359375</ele>
        <time>2012-05-16T12:05:14Z</time>
      </trkpt>
      <trkpt lat="46.8247" lon="5.70084">
        <ele>413.02355957031</ele>
        <time>2012-05-16T12:05:19Z</time>
      </trkpt>
      <trkpt lat="46.82477" lon="5.70083">
        <ele>411.58166503906</ele>
        <time>2012-05-16T12:05:24Z</time>
      </trkpt>
      <trkpt lat="46.82479" lon="5.70081">
        <ele>410.62023925781</ele>
        <time>2012-05-16T12:05:26Z</time>
      </trkpt>
      <trkpt lat="46.82487" lon="5.70079">
        <ele>408.69763183594</ele>
        <time>2012-05-16T12:05:32Z</time>
      </trkpt>
      <trkpt lat="46.82495" lon="5.70079">
        <ele>406.77490234375</ele>
        <time>2012-05-16T12:05:38Z</time>
      </trkpt>
      <trkpt lat="46.82507" lon="5.70077">
        <ele>402.44909667969</ele>
        <time>2012-05-16T12:05:47Z</time>
      </trkpt>
      <trkpt lat="46.82518" lon="5.70073">
        <ele>399.08435058594</ele>
        <time>2012-05-16T12:05:53Z</time>
      </trkpt>
      <trkpt lat="46.82529" lon="5.70065">
        <ele>396.68115234375</ele>
        <time>2012-05-16T12:05:58Z</time>
      </trkpt>
      <trkpt lat="46.82539" lon="5.70057">
        <ele>395.23913574219</ele>
        <time>2012-05-16T12:06:03Z</time>
      </trkpt>
      <trkpt lat="46.82552" lon="5.70052">
        <ele>393.31652832031</ele>
        <time>2012-05-16T12:06:08Z</time>
      </trkpt>
      <trkpt lat="46.82557" lon="5.70049">
        <ele>392.8359375</ele>
        <time>2012-05-16T12:06:10Z</time>
      </trkpt>
      <trkpt lat="46.82567" lon="5.70047">
        <ele>390.91320800781</ele>
        <time>2012-05-16T12:06:14Z</time>
      </trkpt>
      <trkpt lat="46.82579" lon="5.70043">
        <ele>388.99060058594</ele>
        <time>2012-05-16T12:06:19Z</time>
      </trkpt>
      <trkpt lat="46.82587" lon="5.7004">
        <ele>388.51000976562</ele>
        <time>2012-05-16T12:06:22Z</time>
      </trkpt>
      <trkpt lat="46.82603" lon="5.70033">
        <ele>386.10668945312</ele>
        <time>2012-05-16T12:06:29Z</time>
      </trkpt>
      <trkpt lat="46.82616" lon="5.70029">
        <ele>383.22265625</ele>
        <time>2012-05-16T12:06:35Z</time>
      </trkpt>
      <trkpt lat="46.82628" lon="5.70029">
        <ele>380.81945800781</ele>
        <time>2012-05-16T12:06:40Z</time>
      </trkpt>
      <trkpt lat="46.8264" lon="5.70029">
        <ele>379.85803222656</ele>
        <time>2012-05-16T12:06:45Z</time>
      </trkpt>
      <trkpt lat="46.82653" lon="5.70029">
        <ele>379.37744140625</ele>
        <time>2012-05-16T12:06:50Z</time>
      </trkpt>
      <trkpt lat="46.82665" lon="5.70032">
        <ele>378.89685058594</ele>
        <time>2012-05-16T12:06:55Z</time>
      </trkpt>
      <trkpt lat="46.82679" lon="5.70035">
        <ele>379.37744140625</ele>
        <time>2012-05-16T12:07:00Z</time>
      </trkpt>
      <trkpt lat="46.82691" lon="5.70039">
        <ele>378.41613769531</ele>
        <time>2012-05-16T12:07:05Z</time>
      </trkpt>
      <trkpt lat="46.82701" lon="5.7004">
        <ele>377.93542480469</ele>
        <time>2012-05-16T12:07:08Z</time>
      </trkpt>
      <trkpt lat="46.82711" lon="5.70041">
        <ele>377.45483398438</ele>
        <time>2012-05-16T12:07:12Z</time>
      </trkpt>
      <trkpt lat="46.82721" lon="5.70045">
        <ele>376.49353027344</ele>
        <time>2012-05-16T12:07:16Z</time>
      </trkpt>
      <trkpt lat="46.82735" lon="5.70054">
        <ele>376.01281738281</ele>
        <time>2012-05-16T12:07:22Z</time>
      </trkpt>
      <trkpt lat="46.82751" lon="5.70065">
        <ele>373.12890625</ele>
        <time>2012-05-16T12:07:29Z</time>
      </trkpt>
      <trkpt lat="46.82764" lon="5.70075">
        <ele>371.20629882812</ele>
        <time>2012-05-16T12:07:35Z</time>
      </trkpt>
      <trkpt lat="46.82776" lon="5.70082">
        <ele>370.7255859375</ele>
        <time>2012-05-16T12:07:40Z</time>
      </trkpt>
      <trkpt lat="46.82788" lon="5.70087">
        <ele>369.28369140625</ele>
        <time>2012-05-16T12:07:45Z</time>
      </trkpt>
      <trkpt lat="46.82806" lon="5.70094">
        <ele>368.80297851562</ele>
        <time>2012-05-16T12:07:52Z</time>
      </trkpt>
      <trkpt lat="46.82818" lon="5.701">
        <ele>368.322265625</ele>
        <time>2012-05-16T12:07:57Z</time>
      </trkpt>
      <trkpt lat="46.8283" lon="5.70109">
        <ele>366.88024902344</ele>
        <time>2012-05-16T12:08:02Z</time>
      </trkpt>
      <trkpt lat="46.8284" lon="5.70122">
        <ele>366.39953613281</ele>
        <time>2012-05-16T12:08:07Z</time>
      </trkpt>
      <trkpt lat="46.82848" lon="5.70135">
        <ele>364.95764160156</ele>
        <time>2012-05-16T12:08:12Z</time>
      </trkpt>
      <trkpt lat="46.82858" lon="5.70148">
        <ele>363.99633789062</ele>
        <time>2012-05-16T12:08:17Z</time>
      </trkpt>
      <trkpt lat="46.82869" lon="5.70162">
        <ele>362.55432128906</ele>
        <time>2012-05-16T12:08:22Z</time>
      </trkpt>
      <trkpt lat="46.82877" lon="5.70175">
        <ele>361.11242675781</ele>
        <time>2012-05-16T12:08:27Z</time>
      </trkpt>
      <trkpt lat="46.82885" lon="5.7019">
        <ele>359.67041015625</ele>
        <time>2012-05-16T12:08:32Z</time>
      </trkpt>
      <trkpt lat="46.82894" lon="5.70202">
        <ele>358.708984375</ele>
        <time>2012-05-16T12:08:37Z</time>
      </trkpt>
      <trkpt lat="46.82907" lon="5.70215">
        <ele>358.708984375</ele>
        <time>2012-05-16T12:08:43Z</time>
      </trkpt>
      <trkpt lat="46.82919" lon="5.70227">
        <ele>358.22839355469</ele>
        <time>2012-05-16T12:08:49Z</time>
      </trkpt>
      <trkpt lat="46.82933" lon="5.7024">
        <ele>356.78637695312</ele>
        <time>2012-05-16T12:08:56Z</time>
      </trkpt>
      <trkpt lat="46.82948" lon="5.70249">
        <ele>356.78637695312</ele>
        <time>2012-05-16T12:09:02Z</time>
      </trkpt>
      <trkpt lat="46.8296" lon="5.70258">
        <ele>356.30578613281</ele>
        <time>2012-05-16T12:09:07Z</time>
      </trkpt>
      <trkpt lat="46.82973" lon="5.70267">
        <ele>354.38317871094</ele>
        <time>2012-05-16T12:09:13Z</time>
      </trkpt>
      <trkpt lat="46.82984" lon="5.70276">
        <ele>352.46057128906</ele>
        <time>2012-05-16T12:09:18Z</time>
      </trkpt>
      <trkpt lat="46.82993" lon="5.70283">
        <ele>351.49914550781</ele>
        <time>2012-05-16T12:09:22Z</time>
      </trkpt>
      <trkpt lat="46.83006" lon="5.70293">
        <ele>349.09582519531</ele>
        <time>2012-05-16T12:09:28Z</time>
      </trkpt>
      <trkpt lat="46.83016" lon="5.70302">
        <ele>347.17321777344</ele>
        <time>2012-05-16T12:09:33Z</time>
      </trkpt>
      <trkpt lat="46.83027" lon="5.70316">
        <ele>344.28942871094</ele>
        <time>2012-05-16T12:09:39Z</time>
      </trkpt>
      <trkpt lat="46.83037" lon="5.7033">
        <ele>342.36669921875</ele>
        <time>2012-05-16T12:09:44Z</time>
      </trkpt>
      <trkpt lat="46.83045" lon="5.7034">
        <ele>340.92468261719</ele>
        <time>2012-05-16T12:09:49Z</time>
      </trkpt>
      <trkpt lat="46.83053" lon="5.70349">
        <ele>339.48266601562</ele>
        <time>2012-05-16T12:09:53Z</time>
      </trkpt>
      <trkpt lat="46.83065" lon="5.70364">
        <ele>339.00207519531</ele>
        <time>2012-05-16T12:09:59Z</time>
      </trkpt>
      <trkpt lat="46.83069" lon="5.7037">
        <ele>337.56005859375</ele>
        <time>2012-05-16T12:10:01Z</time>
      </trkpt>
      <trkpt lat="46.83081" lon="5.70384">
        <ele>338.521484375</ele>
        <time>2012-05-16T12:10:06Z</time>
      </trkpt>
      <trkpt lat="46.83091" lon="5.70397">
        <ele>339.48266601562</ele>
        <time>2012-05-16T12:10:11Z</time>
      </trkpt>
      <trkpt lat="46.83093" lon="5.70403">
        <ele>338.521484375</ele>
        <time>2012-05-16T12:10:13Z</time>
      </trkpt>
      <trkpt lat="46.83102" lon="5.70418">
        <ele>335.63732910156</ele>
        <time>2012-05-16T12:10:19Z</time>
      </trkpt>
      <trkpt lat="46.8311" lon="5.70433">
        <ele>333.23413085938</ele>
        <time>2012-05-16T12:10:24Z</time>
      </trkpt>
      <trkpt lat="46.83117" lon="5.70449">
        <ele>329.86950683594</ele>
        <time>2012-05-16T12:10:29Z</time>
      </trkpt>
      <trkpt lat="46.8312" lon="5.70455">
        <ele>329.38891601562</ele>
        <time>2012-05-16T12:10:31Z</time>
      </trkpt>
      <trkpt lat="46.83131" lon="5.70471">
        <ele>328.90832519531</ele>
        <time>2012-05-16T12:10:37Z</time>
      </trkpt>
      <trkpt lat="46.83138" lon="5.70478">
        <ele>329.38891601562</ele>
        <time>2012-05-16T12:10:40Z</time>
      </trkpt>
      <trkpt lat="46.83147" lon="5.70491">
        <ele>329.38891601562</ele>
        <time>2012-05-16T12:10:45Z</time>
      </trkpt>
      <trkpt lat="46.83151" lon="5.70503">
        <ele>328.90832519531</ele>
        <time>2012-05-16T12:10:49Z</time>
      </trkpt>
      <trkpt lat="46.83158" lon="5.70513">
        <ele>328.90832519531</ele>
        <time>2012-05-16T12:10:53Z</time>
      </trkpt>
      <trkpt lat="46.8317" lon="5.70527">
        <ele>329.38891601562</ele>
        <time>2012-05-16T12:10:59Z</time>
      </trkpt>
      <trkpt lat="46.83172" lon="5.70533">
        <ele>329.86950683594</ele>
        <time>2012-05-16T12:11:01Z</time>
      </trkpt>
      <trkpt lat="46.83184" lon="5.70553">
        <ele>331.3115234375</ele>
        <time>2012-05-16T12:11:08Z</time>
      </trkpt>
      <trkpt lat="46.83192" lon="5.70567">
        <ele>331.3115234375</ele>
        <time>2012-05-16T12:11:13Z</time>
      </trkpt>
      <trkpt lat="46.83201" lon="5.7058">
        <ele>329.38891601562</ele>
        <time>2012-05-16T12:11:18Z</time>
      </trkpt>
      <trkpt lat="46.83208" lon="5.70592">
        <ele>328.90832519531</ele>
        <time>2012-05-16T12:11:23Z</time>
      </trkpt>
      <trkpt lat="46.83218" lon="5.70608">
        <ele>327.94677734375</ele>
        <time>2012-05-16T12:11:29Z</time>
      </trkpt>
      <trkpt lat="46.83227" lon="5.70623">
        <ele>327.94677734375</ele>
        <time>2012-05-16T12:11:34Z</time>
      </trkpt>
      <trkpt lat="46.83232" lon="5.70637">
        <ele>327.46618652344</ele>
        <time>2012-05-16T12:11:38Z</time>
      </trkpt>
      <trkpt lat="46.83235" lon="5.70643">
        <ele>328.42761230469</ele>
        <time>2012-05-16T12:11:40Z</time>
      </trkpt>
      <trkpt lat="46.83243" lon="5.70654">
        <ele>330.35021972656</ele>
        <time>2012-05-16T12:11:45Z</time>
      </trkpt>
      <trkpt lat="46.8325" lon="5.70666">
        <ele>331.3115234375</ele>
        <time>2012-05-16T12:11:52Z</time>
      </trkpt>
      <trkpt lat="46.83256" lon="5.70675">
        <ele>331.3115234375</ele>
        <time>2012-05-16T12:11:58Z</time>
      </trkpt>
      <trkpt lat="46.83263" lon="5.70683">
        <ele>331.79211425781</ele>
        <time>2012-05-16T12:12:03Z</time>
      </trkpt>
      <trkpt lat="46.83272" lon="5.70694">
        <ele>333.71472167969</ele>
        <time>2012-05-16T12:12:10Z</time>
      </trkpt>
      <trkpt lat="46.83278" lon="5.70705">
        <ele>336.59887695312</ele>
        <time>2012-05-16T12:12:17Z</time>
      </trkpt>
      <trkpt lat="46.83282" lon="5.70709">
        <ele>337.56005859375</ele>
        <time>2012-05-16T12:12:21Z</time>
      </trkpt>
      <trkpt lat="46.83283" lon="5.70711">
        <ele>338.04077148438</ele>
        <time>2012-05-16T12:12:22Z</time>
      </trkpt>
      <trkpt lat="46.8329" lon="5.70722">
        <ele>334.19543457031</ele>
        <time>2012-05-16T12:12:29Z</time>
      </trkpt>
      <trkpt lat="46.83295" lon="5.70733">
        <ele>332.75354003906</ele>
        <time>2012-05-16T12:12:35Z</time>
      </trkpt>
      <trkpt lat="46.83301" lon="5.70741">
        <ele>334.67614746094</ele>
        <time>2012-05-16T12:12:40Z</time>
      </trkpt>
      <trkpt lat="46.83308" lon="5.70752">
        <ele>336.1181640625</ele>
        <time>2012-05-16T12:12:46Z</time>
      </trkpt>
      <trkpt lat="46.83315" lon="5.70763">
        <ele>336.1181640625</ele>
        <time>2012-05-16T12:12:52Z</time>
      </trkpt>
      <trkpt lat="46.83322" lon="5.70777">
        <ele>335.63732910156</ele>
        <time>2012-05-16T12:12:57Z</time>
      </trkpt>
      <trkpt lat="46.83332" lon="5.70794">
        <ele>335.15673828125</ele>
        <time>2012-05-16T12:13:03Z</time>
      </trkpt>
      <trkpt lat="46.83339" lon="5.70804">
        <ele>336.59887695312</ele>
        <time>2012-05-16T12:13:07Z</time>
      </trkpt>
      <trkpt lat="46.83344" lon="5.70812">
        <ele>336.59887695312</ele>
        <time>2012-05-16T12:13:10Z</time>
      </trkpt>
      <trkpt lat="46.83352" lon="5.70825">
        <ele>336.1181640625</ele>
        <time>2012-05-16T12:13:15Z</time>
      </trkpt>
      <trkpt lat="46.83355" lon="5.7083">
        <ele>335.63732910156</ele>
        <time>2012-05-16T12:13:17Z</time>
      </trkpt>
      <trkpt lat="46.83362" lon="5.70844">
        <ele>334.19543457031</ele>
        <time>2012-05-16T12:13:22Z</time>
      </trkpt>
      <trkpt lat="46.8337" lon="5.70853">
        <ele>335.63732910156</ele>
        <time>2012-05-16T12:13:26Z</time>
      </trkpt>
      <trkpt lat="46.83379" lon="5.70864">
        <ele>337.56005859375</ele>
        <time>2012-05-16T12:13:31Z</time>
      </trkpt>
      <trkpt lat="46.8339" lon="5.7087">
        <ele>342.36669921875</ele>
        <time>2012-05-16T12:13:36Z</time>
      </trkpt>
      <trkpt lat="46.83394" lon="5.70872">
        <ele>345.73132324219</ele>
        <time>2012-05-16T12:13:40Z</time>
      </trkpt>
      <trkpt lat="46.83398" lon="5.70875">
        <ele>345.73132324219</ele>
        <time>2012-05-16T12:13:43Z</time>
      </trkpt>
      <trkpt lat="46.83402" lon="5.70873">
        <ele>342.36669921875</ele>
        <time>2012-05-16T12:13:49Z</time>
      </trkpt>
      <trkpt lat="46.83405" lon="5.70876">
        <ele>342.84729003906</ele>
        <time>2012-05-16T12:13:52Z</time>
      </trkpt>
      <trkpt lat="46.83418" lon="5.70879">
        <ele>346.21203613281</ele>
        <time>2012-05-16T12:13:59Z</time>
      </trkpt>
      <trkpt lat="46.83423" lon="5.70874">
        <ele>345.25061035156</ele>
        <time>2012-05-16T12:14:02Z</time>
      </trkpt>
      <trkpt lat="46.83427" lon="5.70868">
        <ele>343.32788085938</ele>
        <time>2012-05-16T12:14:05Z</time>
      </trkpt>
      <trkpt lat="46.83428" lon="5.70864">
        <ele>343.32788085938</ele>
        <time>2012-05-16T12:14:07Z</time>
      </trkpt>
      <trkpt lat="46.83435" lon="5.70855">
        <ele>340.92468261719</ele>
        <time>2012-05-16T12:14:13Z</time>
      </trkpt>
      <trkpt lat="46.83447" lon="5.7085">
        <ele>338.04077148438</ele>
        <time>2012-05-16T12:14:22Z</time>
      </trkpt>
      <trkpt lat="46.83455" lon="5.70849">
        <ele>336.59887695312</ele>
        <time>2012-05-16T12:14:27Z</time>
      </trkpt>
      <trkpt lat="46.83462" lon="5.70851">
        <ele>337.56005859375</ele>
        <time>2012-05-16T12:14:33Z</time>
      </trkpt>
      <trkpt lat="46.83468" lon="5.70855">
        <ele>337.07946777344</ele>
        <time>2012-05-16T12:14:38Z</time>
      </trkpt>
      <trkpt lat="46.83469" lon="5.70856">
        <ele>337.07946777344</ele>
        <time>2012-05-16T12:14:39Z</time>
      </trkpt>
      <trkpt lat="46.83475" lon="5.70867">
        <ele>335.15673828125</ele>
        <time>2012-05-16T12:14:44Z</time>
      </trkpt>
      <trkpt lat="46.83482" lon="5.70877">
        <ele>334.67614746094</ele>
        <time>2012-05-16T12:14:48Z</time>
      </trkpt>
      <trkpt lat="46.83487" lon="5.70881">
        <ele>336.59887695312</ele>
        <time>2012-05-16T12:14:50Z</time>
      </trkpt>
      <trkpt lat="46.83498" lon="5.70893">
        <ele>338.04077148438</ele>
        <time>2012-05-16T12:14:55Z</time>
      </trkpt>
      <trkpt lat="46.83505" lon="5.70901">
        <ele>339.96337890625</ele>
        <time>2012-05-16T12:14:59Z</time>
      </trkpt>
      <trkpt lat="46.83513" lon="5.70911">
        <ele>339.48266601562</ele>
        <time>2012-05-16T12:15:04Z</time>
      </trkpt>
      <trkpt lat="46.83524" lon="5.70918">
        <ele>340.92468261719</ele>
        <time>2012-05-16T12:15:09Z</time>
      </trkpt>
      <trkpt lat="46.83533" lon="5.70924">
        <ele>340.44409179688</ele>
        <time>2012-05-16T12:15:13Z</time>
      </trkpt>
      <trkpt lat="46.83536" lon="5.70924">
        <ele>340.44409179688</ele>
        <time>2012-05-16T12:15:14Z</time>
      </trkpt>
      <trkpt lat="46.83547" lon="5.70926">
        <ele>340.92468261719</ele>
        <time>2012-05-16T12:15:19Z</time>
      </trkpt>
      <trkpt lat="46.83562" lon="5.70933">
        <ele>341.4052734375</ele>
        <time>2012-05-16T12:15:25Z</time>
      </trkpt>
      <trkpt lat="46.83577" lon="5.70938">
        <ele>338.521484375</ele>
        <time>2012-05-16T12:15:31Z</time>
      </trkpt>
      <trkpt lat="46.8359" lon="5.70942">
        <ele>336.59887695312</ele>
        <time>2012-05-16T12:15:36Z</time>
      </trkpt>
      <trkpt lat="46.83603" lon="5.70946">
        <ele>335.63732910156</ele>
        <time>2012-05-16T12:15:41Z</time>
      </trkpt>
      <trkpt lat="46.83614" lon="5.7095">
        <ele>338.04077148438</ele>
        <time>2012-05-16T12:15:46Z</time>
      </trkpt>
      <trkpt lat="46.83628" lon="5.70954">
        <ele>336.59887695312</ele>
        <time>2012-05-16T12:15:51Z</time>
      </trkpt>
      <trkpt lat="46.83639" lon="5.70958">
        <ele>334.19543457031</ele>
        <time>2012-05-16T12:15:55Z</time>
      </trkpt>
      <trkpt lat="46.83649" lon="5.70961">
        <ele>336.59887695312</ele>
        <time>2012-05-16T12:16:00Z</time>
      </trkpt>
      <trkpt lat="46.83658" lon="5.70968">
        <ele>337.56005859375</ele>
        <time>2012-05-16T12:16:05Z</time>
      </trkpt>
      <trkpt lat="46.83673" lon="5.70972">
        <ele>338.521484375</ele>
        <time>2012-05-16T12:16:11Z</time>
      </trkpt>
      <trkpt lat="46.83686" lon="5.70977">
        <ele>338.521484375</ele>
        <time>2012-05-16T12:16:16Z</time>
      </trkpt>
      <trkpt lat="46.83699" lon="5.70982">
        <ele>339.96337890625</ele>
        <time>2012-05-16T12:16:21Z</time>
      </trkpt>
      <trkpt lat="46.83707" lon="5.70984">
        <ele>342.84729003906</ele>
        <time>2012-05-16T12:16:25Z</time>
      </trkpt>
      <trkpt lat="46.83718" lon="5.70989">
        <ele>339.96337890625</ele>
        <time>2012-05-16T12:16:30Z</time>
      </trkpt>
      <trkpt lat="46.83731" lon="5.70999">
        <ele>339.48266601562</ele>
        <time>2012-05-16T12:16:35Z</time>
      </trkpt>
      <trkpt lat="46.83736" lon="5.71001">
        <ele>339.48266601562</ele>
        <time>2012-05-16T12:16:37Z</time>
      </trkpt>
      <trkpt lat="46.83752" lon="5.71011">
        <ele>334.67614746094</ele>
        <time>2012-05-16T12:16:44Z</time>
      </trkpt>
      <trkpt lat="46.83763" lon="5.71014">
        <ele>333.23413085938</ele>
        <time>2012-05-16T12:16:48Z</time>
      </trkpt>
      <trkpt lat="46.83779" lon="5.71019">
        <ele>330.35021972656</ele>
        <time>2012-05-16T12:16:54Z</time>
      </trkpt>
      <trkpt lat="46.83792" lon="5.71022">
        <ele>332.27282714844</ele>
        <time>2012-05-16T12:17:00Z</time>
      </trkpt>
      <trkpt lat="46.83804" lon="5.71026">
        <ele>329.86950683594</ele>
        <time>2012-05-16T12:17:05Z</time>
      </trkpt>
      <trkpt lat="46.83807" lon="5.71027">
        <ele>329.86950683594</ele>
        <time>2012-05-16T12:17:06Z</time>
      </trkpt>
      <trkpt lat="46.83824" lon="5.71026">
        <ele>332.27282714844</ele>
        <time>2012-05-16T12:17:13Z</time>
      </trkpt>
      <trkpt lat="46.83839" lon="5.71029">
        <ele>334.19543457031</ele>
        <time>2012-05-16T12:17:19Z</time>
      </trkpt>
      <trkpt lat="46.83852" lon="5.71033">
        <ele>336.59887695312</ele>
        <time>2012-05-16T12:17:24Z</time>
      </trkpt>
      <trkpt lat="46.83861" lon="5.71036">
        <ele>336.59887695312</ele>
        <time>2012-05-16T12:17:29Z</time>
      </trkpt>
      <trkpt lat="46.83864" lon="5.7104">
        <ele>332.75354003906</ele>
        <time>2012-05-16T12:17:33Z</time>
      </trkpt>
      <trkpt lat="46.83871" lon="5.71041">
        <ele>329.86950683594</ele>
        <time>2012-05-16T12:17:38Z</time>
      </trkpt>
      <trkpt lat="46.83883" lon="5.71045">
        <ele>326.5048828125</ele>
        <time>2012-05-16T12:17:46Z</time>
      </trkpt>
      <trkpt lat="46.83886" lon="5.71051">
        <ele>323.62097167969</ele>
        <time>2012-05-16T12:17:49Z</time>
      </trkpt>
      <trkpt lat="46.83887" lon="5.71063">
        <ele>318.81433105469</ele>
        <time>2012-05-16T12:17:54Z</time>
      </trkpt>
      <trkpt lat="46.83886" lon="5.71068">
        <ele>317.37243652344</ele>
        <time>2012-05-16T12:17:56Z</time>
      </trkpt>
      <trkpt lat="46.83884" lon="5.71079">
        <ele>315.93041992188</ele>
        <time>2012-05-16T12:18:01Z</time>
      </trkpt>
      <trkpt lat="46.8388" lon="5.7109">
        <ele>315.44982910156</ele>
        <time>2012-05-16T12:18:06Z</time>
      </trkpt>
      <trkpt lat="46.83878" lon="5.71094">
        <ele>315.93041992188</ele>
        <time>2012-05-16T12:18:08Z</time>
      </trkpt>
      <trkpt lat="46.83874" lon="5.71109">
        <ele>317.37243652344</ele>
        <time>2012-05-16T12:18:16Z</time>
      </trkpt>
      <trkpt lat="46.83873" lon="5.71113">
        <ele>317.85302734375</ele>
        <time>2012-05-16T12:18:18Z</time>
      </trkpt>
      <trkpt lat="46.83877" lon="5.71119">
        <ele>317.85302734375</ele>
        <time>2012-05-16T12:18:22Z</time>
      </trkpt>
      <trkpt lat="46.83881" lon="5.71118">
        <ele>319.29504394531</ele>
        <time>2012-05-16T12:18:25Z</time>
      </trkpt>
      <trkpt lat="46.83894" lon="5.71111">
        <ele>322.17895507812</ele>
        <time>2012-05-16T12:18:32Z</time>
      </trkpt>
      <trkpt lat="46.839" lon="5.71106">
        <ele>326.02416992188</ele>
        <time>2012-05-16T12:18:37Z</time>
      </trkpt>
      <trkpt lat="46.83905" lon="5.71102">
        <ele>326.02416992188</ele>
        <time>2012-05-16T12:18:42Z</time>
      </trkpt>
      <trkpt lat="46.83916" lon="5.71096">
        <ele>327.46618652344</ele>
        <time>2012-05-16T12:18:50Z</time>
      </trkpt>
      <trkpt lat="46.8392" lon="5.71093">
        <ele>326.5048828125</ele>
        <time>2012-05-16T12:18:53Z</time>
      </trkpt>
      <trkpt lat="46.83928" lon="5.71089">
        <ele>326.98559570312</ele>
        <time>2012-05-16T12:18:59Z</time>
      </trkpt>
      <trkpt lat="46.83932" lon="5.71096">
        <ele>326.5048828125</ele>
        <time>2012-05-16T12:19:05Z</time>
      </trkpt>
      <trkpt lat="46.83938" lon="5.71107">
        <ele>326.02416992188</ele>
        <time>2012-05-16T12:19:12Z</time>
      </trkpt>
      <trkpt lat="46.83939" lon="5.71107">
        <ele>326.02416992188</ele>
        <time>2012-05-16T12:19:13Z</time>
      </trkpt>
      <trkpt lat="46.83947" lon="5.71114">
        <ele>326.5048828125</ele>
        <time>2012-05-16T12:19:21Z</time>
      </trkpt>
      <trkpt lat="46.83955" lon="5.7112">
        <ele>327.94677734375</ele>
        <time>2012-05-16T12:19:27Z</time>
      </trkpt>
      <trkpt lat="46.83963" lon="5.71125">
        <ele>329.86950683594</ele>
        <time>2012-05-16T12:19:34Z</time>
      </trkpt>
      <trkpt lat="46.83974" lon="5.71131">
        <ele>332.75354003906</ele>
        <time>2012-05-16T12:19:44Z</time>
      </trkpt>
      <trkpt lat="46.83984" lon="5.71135">
        <ele>335.15673828125</ele>
        <time>2012-05-16T12:19:51Z</time>
      </trkpt>
      <trkpt lat="46.83988" lon="5.71138">
        <ele>336.59887695312</ele>
        <time>2012-05-16T12:19:55Z</time>
      </trkpt>
      <trkpt lat="46.83999" lon="5.71142">
        <ele>339.48266601562</ele>
        <time>2012-05-16T12:20:04Z</time>
      </trkpt>
      <trkpt lat="46.84008" lon="5.71146">
        <ele>341.88598632812</ele>
        <time>2012-05-16T12:20:11Z</time>
      </trkpt>
      <trkpt lat="46.84015" lon="5.71149">
        <ele>342.84729003906</ele>
        <time>2012-05-16T12:20:17Z</time>
      </trkpt>
      <trkpt lat="46.84023" lon="5.71154">
        <ele>344.77001953125</ele>
        <time>2012-05-16T12:20:24Z</time>
      </trkpt>
      <trkpt lat="46.8403" lon="5.71158">
        <ele>346.69262695312</ele>
        <time>2012-05-16T12:20:30Z</time>
      </trkpt>
      <trkpt lat="46.84037" lon="5.71163">
        <ele>347.65393066406</ele>
        <time>2012-05-16T12:20:37Z</time>
      </trkpt>
      <trkpt lat="46.84039" lon="5.71163">
        <ele>348.13464355469</ele>
        <time>2012-05-16T12:20:38Z</time>
      </trkpt>
      <trkpt lat="46.84044" lon="5.7117">
        <ele>349.09582519531</ele>
        <time>2012-05-16T12:20:44Z</time>
      </trkpt>
      <trkpt lat="46.84046" lon="5.71172">
        <ele>349.57653808594</ele>
        <time>2012-05-16T12:20:46Z</time>
      </trkpt>
      <trkpt lat="46.84049" lon="5.71177">
        <ele>350.53784179688</ele>
        <time>2012-05-16T12:20:51Z</time>
      </trkpt>
      <trkpt lat="46.84055" lon="5.71182">
        <ele>352.46057128906</ele>
        <time>2012-05-16T12:20:57Z</time>
      </trkpt>
      <trkpt lat="46.84056" lon="5.71184">
        <ele>352.46057128906</ele>
        <time>2012-05-16T12:20:59Z</time>
      </trkpt>
      <trkpt lat="46.84059" lon="5.71186">
        <ele>352.94116210938</ele>
        <time>2012-05-16T12:21:02Z</time>
      </trkpt>
      <trkpt lat="46.84065" lon="5.71189">
        <ele>353.90258789062</ele>
        <time>2012-05-16T12:21:08Z</time>
      </trkpt>
      <trkpt lat="46.84068" lon="5.7119">
        <ele>353.90258789062</ele>
        <time>2012-05-16T12:21:11Z</time>
      </trkpt>
      <trkpt lat="46.84071" lon="5.7119">
        <ele>353.421875</ele>
        <time>2012-05-16T12:21:14Z</time>
      </trkpt>
      <trkpt lat="46.84072" lon="5.7119">
        <ele>353.421875</ele>
        <time>2012-05-16T12:21:16Z</time>
      </trkpt>
      <trkpt lat="46.84082" lon="5.71191">
        <ele>354.86376953125</ele>
        <time>2012-05-16T12:21:23Z</time>
      </trkpt>
      <trkpt lat="46.84083" lon="5.71191">
        <ele>354.86376953125</ele>
        <time>2012-05-16T12:21:24Z</time>
      </trkpt>
      <trkpt lat="46.84095" lon="5.71192">
        <ele>356.30578613281</ele>
        <time>2012-05-16T12:21:32Z</time>
      </trkpt>
      <trkpt lat="46.84101" lon="5.71194">
        <ele>357.26708984375</ele>
        <time>2012-05-16T12:21:37Z</time>
      </trkpt>
      <trkpt lat="46.84108" lon="5.71195">
        <ele>358.22839355469</ele>
        <time>2012-05-16T12:21:43Z</time>
      </trkpt>
      <trkpt lat="46.8411" lon="5.71195">
        <ele>358.708984375</ele>
        <time>2012-05-16T12:21:45Z</time>
      </trkpt>
      <trkpt lat="46.84109" lon="5.71196">
        <ele>358.708984375</ele>
        <time>2012-05-16T12:21:50Z</time>
      </trkpt>
      <trkpt lat="46.84108" lon="5.71195">
        <ele>358.22839355469</ele>
        <time>2012-05-16T12:21:55Z</time>
      </trkpt>
      <trkpt lat="46.84116" lon="5.71193">
        <ele>358.708984375</ele>
        <time>2012-05-16T12:22:01Z</time>
      </trkpt>
      <trkpt lat="46.84124" lon="5.71193">
        <ele>358.708984375</ele>
        <time>2012-05-16T12:22:07Z</time>
      </trkpt>
      <trkpt lat="46.84132" lon="5.71192">
        <ele>358.22839355469</ele>
        <time>2012-05-16T12:22:15Z</time>
      </trkpt>
      <trkpt lat="46.84129" lon="5.71192">
        <ele>358.22839355469</ele>
        <time>2012-05-16T12:22:20Z</time>
      </trkpt>
      <trkpt lat="46.84124" lon="5.71193">
        <ele>357.26708984375</ele>
        <time>2012-05-16T12:22:24Z</time>
      </trkpt>
      <trkpt lat="46.8412" lon="5.71193">
        <ele>355.8251953125</ele>
        <time>2012-05-16T12:22:28Z</time>
      </trkpt>
      <trkpt lat="46.8411" lon="5.71194">
        <ele>354.38317871094</ele>
        <time>2012-05-16T12:22:35Z</time>
      </trkpt>
      <trkpt lat="46.84097" lon="5.71193">
        <ele>353.421875</ele>
        <time>2012-05-16T12:22:41Z</time>
      </trkpt>
      <trkpt lat="46.84081" lon="5.71191">
        <ele>352.46057128906</ele>
        <time>2012-05-16T12:22:48Z</time>
      </trkpt>
      <trkpt lat="46.84067" lon="5.71188">
        <ele>351.01843261719</ele>
        <time>2012-05-16T12:22:54Z</time>
      </trkpt>
      <trkpt lat="46.8405" lon="5.71183">
        <ele>349.09582519531</ele>
        <time>2012-05-16T12:23:02Z</time>
      </trkpt>
      <trkpt lat="46.84044" lon="5.7119">
        <ele>348.13464355469</ele>
        <time>2012-05-16T12:23:07Z</time>
      </trkpt>
      <trkpt lat="46.84043" lon="5.71196">
        <ele>348.615234375</ele>
        <time>2012-05-16T12:23:10Z</time>
      </trkpt>
      <trkpt lat="46.8404" lon="5.71213">
        <ele>349.57653808594</ele>
        <time>2012-05-16T12:23:20Z</time>
      </trkpt>
      <trkpt lat="46.8404" lon="5.71214">
        <ele>350.05725097656</ele>
        <time>2012-05-16T12:23:21Z</time>
      </trkpt>
      <trkpt lat="46.84035" lon="5.71228">
        <ele>351.01843261719</ele>
        <time>2012-05-16T12:23:29Z</time>
      </trkpt>
      <trkpt lat="46.84033" lon="5.71235">
        <ele>351.97985839844</ele>
        <time>2012-05-16T12:23:34Z</time>
      </trkpt>
      <trkpt lat="46.84031" lon="5.71241">
        <ele>353.421875</ele>
        <time>2012-05-16T12:23:38Z</time>
      </trkpt>
      <trkpt lat="46.84027" lon="5.7125">
        <ele>355.8251953125</ele>
        <time>2012-05-16T12:23:44Z</time>
      </trkpt>
      <trkpt lat="46.84025" lon="5.71257">
        <ele>358.22839355469</ele>
        <time>2012-05-16T12:23:49Z</time>
      </trkpt>
      <trkpt lat="46.84025" lon="5.71264">
        <ele>360.15112304688</ele>
        <time>2012-05-16T12:23:53Z</time>
      </trkpt>
      <trkpt lat="46.84024" lon="5.71269">
        <ele>361.11242675781</ele>
        <time>2012-05-16T12:23:56Z</time>
      </trkpt>
      <trkpt lat="46.84023" lon="5.71275">
        <ele>362.07373046875</ele>
        <time>2012-05-16T12:24:00Z</time>
      </trkpt>
      <trkpt lat="46.84023" lon="5.7128">
        <ele>363.03503417969</ele>
        <time>2012-05-16T12:24:03Z</time>
      </trkpt>
      <trkpt lat="46.84023" lon="5.71286">
        <ele>363.99633789062</ele>
        <time>2012-05-16T12:24:07Z</time>
      </trkpt>
      <trkpt lat="46.84024" lon="5.7129">
        <ele>363.99633789062</ele>
        <time>2012-05-16T12:24:10Z</time>
      </trkpt>
      <trkpt lat="46.84023" lon="5.71293">
        <ele>364.47692871094</ele>
        <time>2012-05-16T12:24:12Z</time>
      </trkpt>
      <trkpt lat="46.84025" lon="5.71299">
        <ele>364.95764160156</ele>
        <time>2012-05-16T12:24:17Z</time>
      </trkpt>
      <trkpt lat="46.84026" lon="5.713">
        <ele>364.95764160156</ele>
        <time>2012-05-16T12:24:18Z</time>
      </trkpt>
      <trkpt lat="46.84029" lon="5.71305">
        <ele>364.95764160156</ele>
        <time>2012-05-16T12:24:22Z</time>
      </trkpt>
      <trkpt lat="46.84035" lon="5.71311">
        <ele>366.39953613281</ele>
        <time>2012-05-16T12:24:28Z</time>
      </trkpt>
      <trkpt lat="46.84038" lon="5.71313">
        <ele>367.36096191406</ele>
        <time>2012-05-16T12:24:32Z</time>
      </trkpt>
      <trkpt lat="46.84039" lon="5.71313">
        <ele>367.84155273438</ele>
        <time>2012-05-16T12:24:33Z</time>
      </trkpt>
      <trkpt lat="46.84042" lon="5.71315">
        <ele>368.322265625</ele>
        <time>2012-05-16T12:24:36Z</time>
      </trkpt>
      <trkpt lat="46.8405" lon="5.71318">
        <ele>369.76428222656</ele>
        <time>2012-05-16T12:24:43Z</time>
      </trkpt>
      <trkpt lat="46.84058" lon="5.71321">
        <ele>370.7255859375</ele>
        <time>2012-05-16T12:24:50Z</time>
      </trkpt>
      <trkpt lat="46.84066" lon="5.71323">
        <ele>372.64819335938</ele>
        <time>2012-05-16T12:24:55Z</time>
      </trkpt>
      <trkpt lat="46.84072" lon="5.71326">
        <ele>373.60949707031</ele>
        <time>2012-05-16T12:25:00Z</time>
      </trkpt>
      <trkpt lat="46.84085" lon="5.7133">
        <ele>375.53210449219</ele>
        <time>2012-05-16T12:25:09Z</time>
      </trkpt>
      <trkpt lat="46.84095" lon="5.71333">
        <ele>376.01281738281</ele>
        <time>2012-05-16T12:25:16Z</time>
      </trkpt>
      <trkpt lat="46.84098" lon="5.71335">
        <ele>376.01281738281</ele>
        <time>2012-05-16T12:25:20Z</time>
      </trkpt>
      <trkpt lat="46.84107" lon="5.71339">
        <ele>375.53210449219</ele>
        <time>2012-05-16T12:25:27Z</time>
      </trkpt>
      <trkpt lat="46.84116" lon="5.71342">
        <ele>377.45483398438</ele>
        <time>2012-05-16T12:25:33Z</time>
      </trkpt>
      <trkpt lat="46.84124" lon="5.71346">
        <ele>378.41613769531</ele>
        <time>2012-05-16T12:25:39Z</time>
      </trkpt>
      <trkpt lat="46.84134" lon="5.71353">
        <ele>379.85803222656</ele>
        <time>2012-05-16T12:25:47Z</time>
      </trkpt>
      <trkpt lat="46.84145" lon="5.7136">
        <ele>380.81945800781</ele>
        <time>2012-05-16T12:25:55Z</time>
      </trkpt>
      <trkpt lat="46.84154" lon="5.71366">
        <ele>381.78063964844</ele>
        <time>2012-05-16T12:26:02Z</time>
      </trkpt>
      <trkpt lat="46.84164" lon="5.71374">
        <ele>382.26135253906</ele>
        <time>2012-05-16T12:26:10Z</time>
      </trkpt>
      <trkpt lat="46.84172" lon="5.7138">
        <ele>383.70324707031</ele>
        <time>2012-05-16T12:26:16Z</time>
      </trkpt>
      <trkpt lat="46.8418" lon="5.71387">
        <ele>385.14538574219</ele>
        <time>2012-05-16T12:26:23Z</time>
      </trkpt>
      <trkpt lat="46.84182" lon="5.71389">
        <ele>385.14538574219</ele>
        <time>2012-05-16T12:26:24Z</time>
      </trkpt>
      <trkpt lat="46.8419" lon="5.71398">
        <ele>386.10668945312</ele>
        <time>2012-05-16T12:26:31Z</time>
      </trkpt>
      <trkpt lat="46.84198" lon="5.71406">
        <ele>386.10668945312</ele>
        <time>2012-05-16T12:26:38Z</time>
      </trkpt>
      <trkpt lat="46.84204" lon="5.71412">
        <ele>387.06799316406</ele>
        <time>2012-05-16T12:26:44Z</time>
      </trkpt>
      <trkpt lat="46.84211" lon="5.71417">
        <ele>388.029296875</ele>
        <time>2012-05-16T12:26:49Z</time>
      </trkpt>
      <trkpt lat="46.84217" lon="5.71422">
        <ele>388.99060058594</ele>
        <time>2012-05-16T12:26:54Z</time>
      </trkpt>
      <trkpt lat="46.84225" lon="5.7143">
        <ele>389.47119140625</ele>
        <time>2012-05-16T12:27:01Z</time>
      </trkpt>
      <trkpt lat="46.84232" lon="5.71434">
        <ele>390.91320800781</ele>
        <time>2012-05-16T12:27:06Z</time>
      </trkpt>
      <trkpt lat="46.8424" lon="5.7144">
        <ele>390.91320800781</ele>
        <time>2012-05-16T12:27:12Z</time>
      </trkpt>
      <trkpt lat="46.84248" lon="5.71448">
        <ele>390.4326171875</ele>
        <time>2012-05-16T12:27:17Z</time>
      </trkpt>
      <trkpt lat="46.84261" lon="5.71462">
        <ele>391.87451171875</ele>
        <time>2012-05-16T12:27:24Z</time>
      </trkpt>
      <trkpt lat="46.84274" lon="5.71478">
        <ele>392.8359375</ele>
        <time>2012-05-16T12:27:32Z</time>
      </trkpt>
      <trkpt lat="46.84285" lon="5.71492">
        <ele>392.8359375</ele>
        <time>2012-05-16T12:27:39Z</time>
      </trkpt>
      <trkpt lat="46.84295" lon="5.71503">
        <ele>394.75854492188</ele>
        <time>2012-05-16T12:27:45Z</time>
      </trkpt>
      <trkpt lat="46.84304" lon="5.71516">
        <ele>395.23913574219</ele>
        <time>2012-05-16T12:27:51Z</time>
      </trkpt>
      <trkpt lat="46.84311" lon="5.71527">
        <ele>394.75854492188</ele>
        <time>2012-05-16T12:27:57Z</time>
      </trkpt>
      <trkpt lat="46.84319" lon="5.71539">
        <ele>394.75854492188</ele>
        <time>2012-05-16T12:28:05Z</time>
      </trkpt>
      <trkpt lat="46.84325" lon="5.7155">
        <ele>395.23913574219</ele>
        <time>2012-05-16T12:28:12Z</time>
      </trkpt>
      <trkpt lat="46.84332" lon="5.7156">
        <ele>394.27795410156</ele>
        <time>2012-05-16T12:28:19Z</time>
      </trkpt>
      <trkpt lat="46.84339" lon="5.71571">
        <ele>393.79724121094</ele>
        <time>2012-05-16T12:28:26Z</time>
      </trkpt>
      <trkpt lat="46.84346" lon="5.71583">
        <ele>394.27795410156</ele>
        <time>2012-05-16T12:28:33Z</time>
      </trkpt>
      <trkpt lat="46.84356" lon="5.71598">
        <ele>395.23913574219</ele>
        <time>2012-05-16T12:28:43Z</time>
      </trkpt>
      <trkpt lat="46.84363" lon="5.71611">
        <ele>395.23913574219</ele>
        <time>2012-05-16T12:28:52Z</time>
      </trkpt>
      <trkpt lat="46.84368" lon="5.71621">
        <ele>394.75854492188</ele>
        <time>2012-05-16T12:28:58Z</time>
      </trkpt>
      <trkpt lat="46.84373" lon="5.71634">
        <ele>393.79724121094</ele>
        <time>2012-05-16T12:29:06Z</time>
      </trkpt>
      <trkpt lat="46.8438" lon="5.71643">
        <ele>396.20056152344</ele>
        <time>2012-05-16T12:29:13Z</time>
      </trkpt>
      <trkpt lat="46.84381" lon="5.71645">
        <ele>399.08435058594</ele>
        <time>2012-05-16T12:29:15Z</time>
      </trkpt>
      <trkpt lat="46.84388" lon="5.71654">
        <ele>401.96850585938</ele>
        <time>2012-05-16T12:29:21Z</time>
      </trkpt>
      <trkpt lat="46.84388" lon="5.71656">
        <ele>401.96850585938</ele>
        <time>2012-05-16T12:29:22Z</time>
      </trkpt>
      <trkpt lat="46.84394" lon="5.71668">
        <ele>402.9296875</ele>
        <time>2012-05-16T12:29:30Z</time>
      </trkpt>
      <trkpt lat="46.844" lon="5.71672">
        <ele>406.29431152344</ele>
        <time>2012-05-16T12:29:34Z</time>
      </trkpt>
      <trkpt lat="46.84403" lon="5.71677">
        <ele>405.81372070312</ele>
        <time>2012-05-16T12:29:38Z</time>
      </trkpt>
      <trkpt lat="46.8441" lon="5.71686">
        <ele>404.37170410156</ele>
        <time>2012-05-16T12:29:45Z</time>
      </trkpt>
      <trkpt lat="46.84417" lon="5.71697">
        <ele>404.37170410156</ele>
        <time>2012-05-16T12:29:51Z</time>
      </trkpt>
      <trkpt lat="46.84422" lon="5.71705">
        <ele>403.89111328125</ele>
        <time>2012-05-16T12:29:55Z</time>
      </trkpt>
      <trkpt lat="46.84428" lon="5.7172">
        <ele>402.9296875</ele>
        <time>2012-05-16T12:30:01Z</time>
      </trkpt>
      <trkpt lat="46.8443" lon="5.71728">
        <ele>403.41040039062</ele>
        <time>2012-05-16T12:30:04Z</time>
      </trkpt>
      <trkpt lat="46.84435" lon="5.71739">
        <ele>404.37170410156</ele>
        <time>2012-05-16T12:30:09Z</time>
      </trkpt>
      <trkpt lat="46.84438" lon="5.71744">
        <ele>405.3330078125</ele>
        <time>2012-05-16T12:30:11Z</time>
      </trkpt>
      <trkpt lat="46.84448" lon="5.7176">
        <ele>409.65905761719</ele>
        <time>2012-05-16T12:30:19Z</time>
      </trkpt>
      <trkpt lat="46.84452" lon="5.71773">
        <ele>412.54284667969</ele>
        <time>2012-05-16T12:30:26Z</time>
      </trkpt>
      <trkpt lat="46.84455" lon="5.71781">
        <ele>416.38818359375</ele>
        <time>2012-05-16T12:30:32Z</time>
      </trkpt>
      <trkpt lat="46.8446" lon="5.71781">
        <ele>421.67541503906</ele>
        <time>2012-05-16T12:30:37Z</time>
      </trkpt>
      <trkpt lat="46.84465" lon="5.7178">
        <ele>433.69189453125</ele>
        <time>2012-05-16T12:30:48Z</time>
      </trkpt>
      <trkpt lat="46.84457" lon="5.71777">
        <ele>425.52075195312</ele>
        <time>2012-05-16T12:30:55Z</time>
      </trkpt>
      <trkpt lat="46.8445" lon="5.71771">
        <ele>419.75280761719</ele>
        <time>2012-05-16T12:31:00Z</time>
      </trkpt>
      <trkpt lat="46.84445" lon="5.71766">
        <ele>418.79150390625</ele>
        <time>2012-05-16T12:31:03Z</time>
      </trkpt>
      <trkpt lat="46.84437" lon="5.71762">
        <ele>414.46545410156</ele>
        <time>2012-05-16T12:31:08Z</time>
      </trkpt>
      <trkpt lat="46.84431" lon="5.7175">
        <ele>418.31079101562</ele>
        <time>2012-05-16T12:31:14Z</time>
      </trkpt>
      <trkpt lat="46.84427" lon="5.71743">
        <ele>419.75280761719</ele>
        <time>2012-05-16T12:31:19Z</time>
      </trkpt>
      <trkpt lat="46.84424" lon="5.71738">
        <ele>424.07873535156</ele>
        <time>2012-05-16T12:31:23Z</time>
      </trkpt>
      <trkpt lat="46.84417" lon="5.71728">
        <ele>423.59802246094</ele>
        <time>2012-05-16T12:31:31Z</time>
      </trkpt>
      <trkpt lat="46.84412" lon="5.71722">
        <ele>422.63671875</ele>
        <time>2012-05-16T12:31:36Z</time>
      </trkpt>
      <trkpt lat="46.84411" lon="5.71721">
        <ele>422.15600585938</ele>
        <time>2012-05-16T12:31:37Z</time>
      </trkpt>
      <trkpt lat="46.84404" lon="5.71721">
        <ele>422.15600585938</ele>
        <time>2012-05-16T12:31:42Z</time>
      </trkpt>
      <trkpt lat="46.84405" lon="5.71724">
        <ele>424.07873535156</ele>
        <time>2012-05-16T12:31:45Z</time>
      </trkpt>
      <trkpt lat="46.84406" lon="5.71727">
        <ele>424.07873535156</ele>
        <time>2012-05-16T12:31:48Z</time>
      </trkpt>
      <trkpt lat="46.84406" lon="5.71732">
        <ele>426.48205566406</ele>
        <time>2012-05-16T12:31:53Z</time>
      </trkpt>
      <trkpt lat="46.84406" lon="5.71738">
        <ele>430.32727050781</ele>
        <time>2012-05-16T12:31:58Z</time>
      </trkpt>
      <trkpt lat="46.84407" lon="5.71745">
        <ele>433.21130371094</ele>
        <time>2012-05-16T12:32:03Z</time>
      </trkpt>
      <trkpt lat="46.84408" lon="5.71749">
        <ele>435.13391113281</ele>
        <time>2012-05-16T12:32:06Z</time>
      </trkpt>
      <trkpt lat="46.8441" lon="5.71759">
        <ele>434.17260742188</ele>
        <time>2012-05-16T12:32:13Z</time>
      </trkpt>
      <trkpt lat="46.84409" lon="5.71761">
        <ele>432.73071289062</ele>
        <time>2012-05-16T12:32:14Z</time>
      </trkpt>
      <trkpt lat="46.84413" lon="5.71768">
        <ele>431.76916503906</ele>
        <time>2012-05-16T12:32:21Z</time>
      </trkpt>
      <trkpt lat="46.84414" lon="5.71775">
        <ele>433.69189453125</ele>
        <time>2012-05-16T12:32:25Z</time>
      </trkpt>
      <trkpt lat="46.8441" lon="5.71777">
        <ele>433.69189453125</ele>
        <time>2012-05-16T12:32:29Z</time>
      </trkpt>
      <trkpt lat="46.84403" lon="5.71776">
        <ele>432.25</ele>
        <time>2012-05-16T12:32:34Z</time>
      </trkpt>
      <trkpt lat="46.84398" lon="5.71773">
        <ele>430.32727050781</ele>
        <time>2012-05-16T12:32:38Z</time>
      </trkpt>
      <trkpt lat="46.84391" lon="5.71769">
        <ele>429.84655761719</ele>
        <time>2012-05-16T12:32:47Z</time>
      </trkpt>
      <trkpt lat="46.84387" lon="5.71768">
        <ele>429.84655761719</ele>
        <time>2012-05-16T12:32:53Z</time>
      </trkpt>
      <trkpt lat="46.84381" lon="5.71766">
        <ele>432.73071289062</ele>
        <time>2012-05-16T12:32:59Z</time>
      </trkpt>
      <trkpt lat="46.84379" lon="5.71766">
        <ele>436.09521484375</ele>
        <time>2012-05-16T12:33:03Z</time>
      </trkpt>
      <trkpt lat="46.84377" lon="5.71768">
        <ele>439.9404296875</ele>
        <time>2012-05-16T12:33:07Z</time>
      </trkpt>
      <trkpt lat="46.84379" lon="5.7177">
        <ele>444.26647949219</ele>
        <time>2012-05-16T12:33:12Z</time>
      </trkpt>
      <trkpt lat="46.84384" lon="5.71778">
        <ele>446.18908691406</ele>
        <time>2012-05-16T12:33:20Z</time>
      </trkpt>
      <trkpt lat="46.84386" lon="5.71782">
        <ele>447.63098144531</ele>
        <time>2012-05-16T12:33:23Z</time>
      </trkpt>
      <trkpt lat="46.84388" lon="5.71789">
        <ele>446.18908691406</ele>
        <time>2012-05-16T12:33:30Z</time>
      </trkpt>
      <trkpt lat="46.84391" lon="5.71793">
        <ele>447.63098144531</ele>
        <time>2012-05-16T12:33:35Z</time>
      </trkpt>
      <trkpt lat="46.84391" lon="5.71793">
        <ele>450.99560546875</ele>
        <time>2012-05-16T12:33:39Z</time>
      </trkpt>
      <trkpt lat="46.84384" lon="5.7179">
        <ele>450.51501464844</ele>
        <time>2012-05-16T12:33:46Z</time>
      </trkpt>
      <trkpt lat="46.84378" lon="5.7179">
        <ele>449.07299804688</ele>
        <time>2012-05-16T12:33:53Z</time>
      </trkpt>
      <trkpt lat="46.84379" lon="5.71799">
        <ele>454.36022949219</ele>
        <time>2012-05-16T12:34:12Z</time>
      </trkpt>
      <trkpt lat="46.84378" lon="5.71799">
        <ele>457.24426269531</ele>
        <time>2012-05-16T12:34:19Z</time>
      </trkpt>
      <trkpt lat="46.84381" lon="5.7181">
        <ele>461.57019042969</ele>
        <time>2012-05-16T12:34:37Z</time>
      </trkpt>
      <trkpt lat="46.84381" lon="5.71808">
        <ele>465.89611816406</ele>
        <time>2012-05-16T12:34:42Z</time>
      </trkpt>
      <trkpt lat="46.84379" lon="5.7181">
        <ele>463.49279785156</ele>
        <time>2012-05-16T12:34:50Z</time>
      </trkpt>
      <trkpt lat="46.84373" lon="5.71807">
        <ele>464.93481445312</ele>
        <time>2012-05-16T12:34:54Z</time>
      </trkpt>
      <trkpt lat="46.84368" lon="5.71807">
        <ele>464.93481445312</ele>
        <time>2012-05-16T12:35:00Z</time>
      </trkpt>
      <trkpt lat="46.84373" lon="5.71809">
        <ele>470.70263671875</ele>
        <time>2012-05-16T12:35:08Z</time>
      </trkpt>
      <trkpt lat="46.84375" lon="5.71813">
        <ele>479.83508300781</ele>
        <time>2012-05-16T12:35:16Z</time>
      </trkpt>
      <trkpt lat="46.84377" lon="5.71812">
        <ele>492.33239746094</ele>
        <time>2012-05-16T12:35:26Z</time>
      </trkpt>
      <trkpt lat="46.8437" lon="5.71813">
        <ele>487.52563476562</ele>
        <time>2012-05-16T12:35:34Z</time>
      </trkpt>
      <trkpt lat="46.84367" lon="5.71814">
        <ele>487.04504394531</ele>
        <time>2012-05-16T12:35:40Z</time>
      </trkpt>
      <trkpt lat="46.84368" lon="5.71817">
        <ele>487.04504394531</ele>
        <time>2012-05-16T12:35:46Z</time>
      </trkpt>
      <trkpt lat="46.84368" lon="5.7182">
        <ele>483.68041992188</ele>
        <time>2012-05-16T12:35:51Z</time>
      </trkpt>
      <trkpt lat="46.84367" lon="5.71824">
        <ele>481.27722167969</ele>
        <time>2012-05-16T12:35:57Z</time>
      </trkpt>
      <trkpt lat="46.84369" lon="5.71828">
        <ele>483.19982910156</ele>
        <time>2012-05-16T12:36:02Z</time>
      </trkpt>
      <trkpt lat="46.8437" lon="5.71832">
        <ele>483.68041992188</ele>
        <time>2012-05-16T12:36:06Z</time>
      </trkpt>
      <trkpt lat="46.8437" lon="5.71841">
        <ele>483.68041992188</ele>
        <time>2012-05-16T12:36:13Z</time>
      </trkpt>
      <trkpt lat="46.84373" lon="5.71842">
        <ele>480.79663085938</ele>
        <time>2012-05-16T12:36:20Z</time>
      </trkpt>
      <trkpt lat="46.84373" lon="5.71843">
        <ele>484.1611328125</ele>
        <time>2012-05-16T12:36:29Z</time>
      </trkpt>
      <trkpt lat="46.8437" lon="5.71842">
        <ele>483.19982910156</ele>
        <time>2012-05-16T12:36:36Z</time>
      </trkpt>
      <trkpt lat="46.84365" lon="5.71839">
        <ele>478.39318847656</ele>
        <time>2012-05-16T12:36:42Z</time>
      </trkpt>
      <trkpt lat="46.84364" lon="5.71836">
        <ele>476.95129394531</ele>
        <time>2012-05-16T12:36:45Z</time>
      </trkpt>
      <trkpt lat="46.84358" lon="5.71826">
        <ele>475.98986816406</ele>
        <time>2012-05-16T12:36:51Z</time>
      </trkpt>
      <trkpt lat="46.84355" lon="5.71818">
        <ele>473.58666992188</ele>
        <time>2012-05-16T12:36:55Z</time>
      </trkpt>
      <trkpt lat="46.84352" lon="5.71809">
        <ele>474.06726074219</ele>
        <time>2012-05-16T12:36:59Z</time>
      </trkpt>
      <trkpt lat="46.84346" lon="5.71797">
        <ele>474.54797363281</ele>
        <time>2012-05-16T12:37:06Z</time>
      </trkpt>
      <trkpt lat="46.84341" lon="5.71788">
        <ele>476.95129394531</ele>
        <time>2012-05-16T12:37:13Z</time>
      </trkpt>
      <trkpt lat="46.84338" lon="5.71785">
        <ele>479.3544921875</ele>
        <time>2012-05-16T12:37:17Z</time>
      </trkpt>
      <trkpt lat="46.84335" lon="5.71783">
        <ele>479.83508300781</ele>
        <time>2012-05-16T12:37:19Z</time>
      </trkpt>
      <trkpt lat="46.84331" lon="5.71779">
        <ele>480.31591796875</ele>
        <time>2012-05-16T12:37:23Z</time>
      </trkpt>
      <trkpt lat="46.84322" lon="5.7177">
        <ele>482.23852539062</ele>
        <time>2012-05-16T12:37:28Z</time>
      </trkpt>
      <trkpt lat="46.84311" lon="5.71759">
        <ele>482.23852539062</ele>
        <time>2012-05-16T12:37:33Z</time>
      </trkpt>
      <trkpt lat="46.84302" lon="5.71752">
        <ele>485.60302734375</ele>
        <time>2012-05-16T12:37:38Z</time>
      </trkpt>
      <trkpt lat="46.84296" lon="5.71742">
        <ele>482.71923828125</ele>
        <time>2012-05-16T12:37:43Z</time>
      </trkpt>
      <trkpt lat="46.84285" lon="5.7173">
        <ele>482.23852539062</ele>
        <time>2012-05-16T12:37:48Z</time>
      </trkpt>
      <trkpt lat="46.84283" lon="5.71728">
        <ele>481.27722167969</ele>
        <time>2012-05-16T12:37:49Z</time>
      </trkpt>
      <trkpt lat="46.8427" lon="5.71716">
        <ele>479.3544921875</ele>
        <time>2012-05-16T12:37:55Z</time>
      </trkpt>
      <trkpt lat="46.84262" lon="5.7171">
        <ele>476.95129394531</ele>
        <time>2012-05-16T12:37:59Z</time>
      </trkpt>
      <trkpt lat="46.84254" lon="5.71702">
        <ele>476.95129394531</ele>
        <time>2012-05-16T12:38:04Z</time>
      </trkpt>
      <trkpt lat="46.84252" lon="5.71701">
        <ele>476.47058105469</ele>
        <time>2012-05-16T12:38:05Z</time>
      </trkpt>
      <trkpt lat="46.84242" lon="5.71693">
        <ele>473.58666992188</ele>
        <time>2012-05-16T12:38:11Z</time>
      </trkpt>
      <trkpt lat="46.8424" lon="5.7169">
        <ele>472.62536621094</ele>
        <time>2012-05-16T12:38:13Z</time>
      </trkpt>
      <trkpt lat="46.84237" lon="5.71687">
        <ele>472.62536621094</ele>
        <time>2012-05-16T12:38:16Z</time>
      </trkpt>
      <trkpt lat="46.84237" lon="5.71674">
        <ele>472.14465332031</ele>
        <time>2012-05-16T12:38:23Z</time>
      </trkpt>
      <trkpt lat="46.84239" lon="5.71669">
        <ele>471.66394042969</ele>
        <time>2012-05-16T12:38:27Z</time>
      </trkpt>
      <trkpt lat="46.84242" lon="5.71664">
        <ele>469.74133300781</ele>
        <time>2012-05-16T12:38:31Z</time>
      </trkpt>
      <trkpt lat="46.84242" lon="5.71662">
        <ele>469.74133300781</ele>
        <time>2012-05-16T12:38:33Z</time>
      </trkpt>
      <trkpt lat="46.84241" lon="5.71661">
        <ele>468.78002929688</ele>
        <time>2012-05-16T12:38:42Z</time>
      </trkpt>
      <trkpt lat="46.84241" lon="5.71665">
        <ele>470.70263671875</ele>
        <time>2012-05-16T12:38:48Z</time>
      </trkpt>
      <trkpt lat="46.84241" lon="5.71667">
        <ele>471.18334960938</ele>
        <time>2012-05-16T12:38:49Z</time>
      </trkpt>
      <trkpt lat="46.8424" lon="5.71676">
        <ele>473.10607910156</ele>
        <time>2012-05-16T12:38:55Z</time>
      </trkpt>
      <trkpt lat="46.8424" lon="5.71679">
        <ele>474.54797363281</ele>
        <time>2012-05-16T12:38:57Z</time>
      </trkpt>
      <trkpt lat="46.84238" lon="5.71684">
        <ele>479.3544921875</ele>
        <time>2012-05-16T12:39:02Z</time>
      </trkpt>
      <trkpt lat="46.84227" lon="5.71681">
        <ele>475.98986816406</ele>
        <time>2012-05-16T12:39:08Z</time>
      </trkpt>
      <trkpt lat="46.84219" lon="5.71676">
        <ele>476.95129394531</ele>
        <time>2012-05-16T12:39:12Z</time>
      </trkpt>
      <trkpt lat="46.84208" lon="5.71671">
        <ele>474.54797363281</ele>
        <time>2012-05-16T12:39:18Z</time>
      </trkpt>
      <trkpt lat="46.84198" lon="5.71667">
        <ele>475.02868652344</ele>
        <time>2012-05-16T12:39:23Z</time>
      </trkpt>
      <trkpt lat="46.8419" lon="5.71661">
        <ele>473.58666992188</ele>
        <time>2012-05-16T12:39:28Z</time>
      </trkpt>
      <trkpt lat="46.84182" lon="5.71655">
        <ele>474.06726074219</ele>
        <time>2012-05-16T12:39:33Z</time>
      </trkpt>
      <trkpt lat="46.84174" lon="5.7165">
        <ele>473.10607910156</ele>
        <time>2012-05-16T12:39:37Z</time>
      </trkpt>
      <trkpt lat="46.84166" lon="5.71648">
        <ele>474.06726074219</ele>
        <time>2012-05-16T12:39:41Z</time>
      </trkpt>
      <trkpt lat="46.84162" lon="5.71646">
        <ele>474.06726074219</ele>
        <time>2012-05-16T12:39:43Z</time>
      </trkpt>
      <trkpt lat="46.84149" lon="5.71641">
        <ele>474.06726074219</ele>
        <time>2012-05-16T12:39:49Z</time>
      </trkpt>
      <trkpt lat="46.84141" lon="5.71632">
        <ele>475.02868652344</ele>
        <time>2012-05-16T12:39:54Z</time>
      </trkpt>
      <trkpt lat="46.84135" lon="5.71623">
        <ele>474.54797363281</ele>
        <time>2012-05-16T12:39:59Z</time>
      </trkpt>
      <trkpt lat="46.84122" lon="5.71619">
        <ele>469.2607421875</ele>
        <time>2012-05-16T12:40:05Z</time>
      </trkpt>
      <trkpt lat="46.84116" lon="5.71618">
        <ele>469.2607421875</ele>
        <time>2012-05-16T12:40:08Z</time>
      </trkpt>
      <trkpt lat="46.84106" lon="5.71618">
        <ele>465.89611816406</ele>
        <time>2012-05-16T12:40:14Z</time>
      </trkpt>
      <trkpt lat="46.84104" lon="5.71619">
        <ele>463.01208496094</ele>
        <time>2012-05-16T12:40:16Z</time>
      </trkpt>
      <trkpt lat="46.84101" lon="5.71619">
        <ele>464.93481445312</ele>
        <time>2012-05-16T12:40:18Z</time>
      </trkpt>
      <trkpt lat="46.84092" lon="5.7161">
        <ele>467.33813476562</ele>
        <time>2012-05-16T12:40:24Z</time>
      </trkpt>
      <trkpt lat="46.84085" lon="5.716">
        <ele>471.18334960938</ele>
        <time>2012-05-16T12:40:30Z</time>
      </trkpt>
      <trkpt lat="46.84077" lon="5.71593">
        <ele>473.58666992188</ele>
        <time>2012-05-16T12:40:37Z</time>
      </trkpt>
      <trkpt lat="46.84069" lon="5.71588">
        <ele>469.2607421875</ele>
        <time>2012-05-16T12:40:45Z</time>
      </trkpt>
      <trkpt lat="46.84062" lon="5.71586">
        <ele>468.78002929688</ele>
        <time>2012-05-16T12:40:52Z</time>
      </trkpt>
      <trkpt lat="46.84056" lon="5.71584">
        <ele>467.33813476562</ele>
        <time>2012-05-16T12:40:57Z</time>
      </trkpt>
      <trkpt lat="46.84053" lon="5.71584">
        <ele>467.33813476562</ele>
        <time>2012-05-16T12:41:00Z</time>
      </trkpt>
      <trkpt lat="46.84044" lon="5.71581">
        <ele>467.33813476562</ele>
        <time>2012-05-16T12:41:06Z</time>
      </trkpt>
      <trkpt lat="46.84036" lon="5.71577">
        <ele>470.22192382812</ele>
        <time>2012-05-16T12:41:12Z</time>
      </trkpt>
      <trkpt lat="46.84032" lon="5.71579">
        <ele>472.14465332031</ele>
        <time>2012-05-16T12:41:17Z</time>
      </trkpt>
      <trkpt lat="46.84028" lon="5.71582">
        <ele>474.06726074219</ele>
        <time>2012-05-16T12:41:22Z</time>
      </trkpt>
      <trkpt lat="46.84026" lon="5.71586">
        <ele>477.91247558594</ele>
        <time>2012-05-16T12:41:25Z</time>
      </trkpt>
      <trkpt lat="46.84024" lon="5.71596">
        <ele>487.04504394531</ele>
        <time>2012-05-16T12:41:31Z</time>
      </trkpt>
      <trkpt lat="46.84022" lon="5.71599">
        <ele>492.33239746094</ele>
        <time>2012-05-16T12:41:35Z</time>
      </trkpt>
      <trkpt lat="46.84012" lon="5.71597">
        <ele>494.25500488281</ele>
        <time>2012-05-16T12:41:41Z</time>
      </trkpt>
      <trkpt lat="46.84009" lon="5.71595">
        <ele>492.33239746094</ele>
        <time>2012-05-16T12:41:43Z</time>
      </trkpt>
      <trkpt lat="46.84" lon="5.71585">
        <ele>495.21618652344</ele>
        <time>2012-05-16T12:41:50Z</time>
      </trkpt>
      <trkpt lat="46.83997" lon="5.71575">
        <ele>494.73559570312</ele>
        <time>2012-05-16T12:41:54Z</time>
      </trkpt>
      <trkpt lat="46.8399" lon="5.71572">
        <ele>495.21618652344</ele>
        <time>2012-05-16T12:41:59Z</time>
      </trkpt>
      <trkpt lat="46.83985" lon="5.71572">
        <ele>497.61962890625</ele>
        <time>2012-05-16T12:42:03Z</time>
      </trkpt>
      <trkpt lat="46.83976" lon="5.71573">
        <ele>500.98413085938</ele>
        <time>2012-05-16T12:42:11Z</time>
      </trkpt>
      <trkpt lat="46.8397" lon="5.71575">
        <ele>502.90673828125</ele>
        <time>2012-05-16T12:42:16Z</time>
      </trkpt>
      <trkpt lat="46.83964" lon="5.71575">
        <ele>503.8681640625</ele>
        <time>2012-05-16T12:42:22Z</time>
      </trkpt>
      <trkpt lat="46.83956" lon="5.71576">
        <ele>498.58093261719</ele>
        <time>2012-05-16T12:42:28Z</time>
      </trkpt>
      <trkpt lat="46.83952" lon="5.71577">
        <ele>497.61962890625</ele>
        <time>2012-05-16T12:42:32Z</time>
      </trkpt>
      <trkpt lat="46.83946" lon="5.71575">
        <ele>501.46484375</ele>
        <time>2012-05-16T12:42:36Z</time>
      </trkpt>
      <trkpt lat="46.83937" lon="5.71576">
        <ele>501.94555664062</ele>
        <time>2012-05-16T12:42:43Z</time>
      </trkpt>
      <trkpt lat="46.83935" lon="5.71576">
        <ele>502.42614746094</ele>
        <time>2012-05-16T12:42:45Z</time>
      </trkpt>
      <trkpt lat="46.83926" lon="5.71576">
        <ele>499.0615234375</ele>
        <time>2012-05-16T12:42:52Z</time>
      </trkpt>
      <trkpt lat="46.83925" lon="5.71576">
        <ele>499.0615234375</ele>
        <time>2012-05-16T12:42:54Z</time>
      </trkpt>
      <trkpt lat="46.83918" lon="5.7157">
        <ele>497.61962890625</ele>
        <time>2012-05-16T12:43:01Z</time>
      </trkpt>
      <trkpt lat="46.83915" lon="5.71567">
        <ele>497.13891601562</ele>
        <time>2012-05-16T12:43:04Z</time>
      </trkpt>
      <trkpt lat="46.83911" lon="5.71566">
        <ele>494.73559570312</ele>
        <time>2012-05-16T12:43:08Z</time>
      </trkpt>
      <trkpt lat="46.83902" lon="5.71561">
        <ele>498.10034179688</ele>
        <time>2012-05-16T12:43:15Z</time>
      </trkpt>
      <trkpt lat="46.83896" lon="5.71556">
        <ele>496.177734375</ele>
        <time>2012-05-16T12:43:20Z</time>
      </trkpt>
      <trkpt lat="46.83887" lon="5.7155">
        <ele>492.33239746094</ele>
        <time>2012-05-16T12:43:28Z</time>
      </trkpt>
      <trkpt lat="46.83882" lon="5.71548">
        <ele>491.85168457031</ele>
        <time>2012-05-16T12:43:33Z</time>
      </trkpt>
      <trkpt lat="46.8388" lon="5.71548">
        <ele>491.85168457031</ele>
        <time>2012-05-16T12:43:35Z</time>
      </trkpt>
      <trkpt lat="46.8387" lon="5.71553">
        <ele>498.58093261719</ele>
        <time>2012-05-16T12:43:43Z</time>
      </trkpt>
      <trkpt lat="46.83855" lon="5.71555">
        <ele>497.13891601562</ele>
        <time>2012-05-16T12:43:51Z</time>
      </trkpt>
      <trkpt lat="46.83847" lon="5.71553">
        <ele>496.177734375</ele>
        <time>2012-05-16T12:43:57Z</time>
      </trkpt>
      <trkpt lat="46.83839" lon="5.71552">
        <ele>496.177734375</ele>
        <time>2012-05-16T12:44:03Z</time>
      </trkpt>
      <trkpt lat="46.83827" lon="5.7155">
        <ele>498.58093261719</ele>
        <time>2012-05-16T12:44:11Z</time>
      </trkpt>
      <trkpt lat="46.83823" lon="5.71554">
        <ele>499.54223632812</ele>
        <time>2012-05-16T12:44:16Z</time>
      </trkpt>
      <trkpt lat="46.83821" lon="5.71559">
        <ele>501.94555664062</ele>
        <time>2012-05-16T12:44:20Z</time>
      </trkpt>
      <trkpt lat="46.83818" lon="5.71566">
        <ele>500.98413085938</ele>
        <time>2012-05-16T12:44:25Z</time>
      </trkpt>
      <trkpt lat="46.83812" lon="5.71572">
        <ele>499.54223632812</ele>
        <time>2012-05-16T12:44:32Z</time>
      </trkpt>
      <trkpt lat="46.83811" lon="5.71573">
        <ele>499.54223632812</ele>
        <time>2012-05-16T12:44:33Z</time>
      </trkpt>
      <trkpt lat="46.83806" lon="5.71576">
        <ele>500.50354003906</ele>
        <time>2012-05-16T12:44:39Z</time>
      </trkpt>
      <trkpt lat="46.83799" lon="5.71578">
        <ele>499.0615234375</ele>
        <time>2012-05-16T12:44:45Z</time>
      </trkpt>
      <trkpt lat="46.83785" lon="5.71575">
        <ele>496.65832519531</ele>
        <time>2012-05-16T12:44:52Z</time>
      </trkpt>
      <trkpt lat="46.83777" lon="5.71578">
        <ele>497.13891601562</ele>
        <time>2012-05-16T12:44:57Z</time>
      </trkpt>
      <trkpt lat="46.83768" lon="5.71577">
        <ele>499.54223632812</ele>
        <time>2012-05-16T12:45:04Z</time>
      </trkpt>
      <trkpt lat="46.83767" lon="5.71577">
        <ele>499.54223632812</ele>
        <time>2012-05-16T12:45:05Z</time>
      </trkpt>
      <trkpt lat="46.83754" lon="5.71577">
        <ele>503.8681640625</ele>
        <time>2012-05-16T12:45:13Z</time>
      </trkpt>
      <trkpt lat="46.83751" lon="5.71581">
        <ele>506.271484375</ele>
        <time>2012-05-16T12:45:17Z</time>
      </trkpt>
      <trkpt lat="46.83747" lon="5.71586">
        <ele>507.23278808594</ele>
        <time>2012-05-16T12:45:22Z</time>
      </trkpt>
      <trkpt lat="46.83745" lon="5.71589">
        <ele>506.75207519531</ele>
        <time>2012-05-16T12:45:25Z</time>
      </trkpt>
      <trkpt lat="46.83736" lon="5.71591">
        <ele>506.75207519531</ele>
        <time>2012-05-16T12:45:33Z</time>
      </trkpt>
      <trkpt lat="46.83735" lon="5.71592">
        <ele>507.23278808594</ele>
        <time>2012-05-16T12:45:34Z</time>
      </trkpt>
      <trkpt lat="46.83727" lon="5.71598">
        <ele>508.67468261719</ele>
        <time>2012-05-16T12:45:41Z</time>
      </trkpt>
      <trkpt lat="46.83722" lon="5.71594">
        <ele>508.67468261719</ele>
        <time>2012-05-16T12:45:46Z</time>
      </trkpt>
      <trkpt lat="46.83718" lon="5.71593">
        <ele>510.11669921875</ele>
        <time>2012-05-16T12:45:49Z</time>
      </trkpt>
      <trkpt lat="46.83709" lon="5.71593">
        <ele>511.55871582031</ele>
        <time>2012-05-16T12:45:56Z</time>
      </trkpt>
      <trkpt lat="46.83706" lon="5.71592">
        <ele>512.52001953125</ele>
        <time>2012-05-16T12:46:02Z</time>
      </trkpt>
      <trkpt lat="46.83704" lon="5.71592">
        <ele>512.52001953125</ele>
        <time>2012-05-16T12:46:07Z</time>
      </trkpt>
      <trkpt lat="46.83705" lon="5.71593">
        <ele>512.52001953125</ele>
        <time>2012-05-16T12:46:11Z</time>
      </trkpt>
      <trkpt lat="46.83707" lon="5.71593">
        <ele>513.00073242188</ele>
        <time>2012-05-16T12:46:18Z</time>
      </trkpt>
      <trkpt lat="46.83706" lon="5.71598">
        <ele>511.07800292969</ele>
        <time>2012-05-16T12:46:47Z</time>
      </trkpt>
      <trkpt lat="46.83705" lon="5.71598">
        <ele>511.07800292969</ele>
        <time>2012-05-16T12:47:12Z</time>
      </trkpt>
      <trkpt lat="46.83704" lon="5.71597">
        <ele>511.07800292969</ele>
        <time>2012-05-16T12:47:43Z</time>
      </trkpt>
      <trkpt lat="46.83704" lon="5.71596">
        <ele>512.52001953125</ele>
        <time>2012-05-16T12:48:23Z</time>
      </trkpt>
      <trkpt lat="46.83705" lon="5.71597">
        <ele>512.03942871094</ele>
        <time>2012-05-16T12:48:29Z</time>
      </trkpt>
      <trkpt lat="46.83705" lon="5.71597">
        <ele>513.00073242188</ele>
        <time>2012-05-16T12:48:37Z</time>
      </trkpt>
      <trkpt lat="46.83706" lon="5.71596">
        <ele>517.32666015625</ele>
        <time>2012-05-16T12:49:17Z</time>
      </trkpt>
      <trkpt lat="46.8371" lon="5.71596">
        <ele>516.84594726562</ele>
        <time>2012-05-16T12:49:27Z</time>
      </trkpt>
      <trkpt lat="46.83717" lon="5.71594">
        <ele>515.40405273438</ele>
        <time>2012-05-16T12:49:34Z</time>
      </trkpt>
      <trkpt lat="46.83718" lon="5.71595">
        <ele>515.40405273438</ele>
        <time>2012-05-16T12:49:35Z</time>
      </trkpt>
      <trkpt lat="46.83725" lon="5.716">
        <ele>513.96203613281</ele>
        <time>2012-05-16T12:49:39Z</time>
      </trkpt>
      <trkpt lat="46.83734" lon="5.71595">
        <ele>512.03942871094</ele>
        <time>2012-05-16T12:49:44Z</time>
      </trkpt>
      <trkpt lat="46.83741" lon="5.71594">
        <ele>511.07800292969</ele>
        <time>2012-05-16T12:49:49Z</time>
      </trkpt>
      <trkpt lat="46.83744" lon="5.7159">
        <ele>510.11669921875</ele>
        <time>2012-05-16T12:49:53Z</time>
      </trkpt>
      <trkpt lat="46.83748" lon="5.71583">
        <ele>509.15539550781</ele>
        <time>2012-05-16T12:49:56Z</time>
      </trkpt>
      <trkpt lat="46.8376" lon="5.71579">
        <ele>508.19409179688</ele>
        <time>2012-05-16T12:50:02Z</time>
      </trkpt>
      <trkpt lat="46.83762" lon="5.7158">
        <ele>507.71350097656</ele>
        <time>2012-05-16T12:50:03Z</time>
      </trkpt>
      <trkpt lat="46.83766" lon="5.71582">
        <ele>507.23278808594</ele>
        <time>2012-05-16T12:50:05Z</time>
      </trkpt>
      <trkpt lat="46.83772" lon="5.71581">
        <ele>506.271484375</ele>
        <time>2012-05-16T12:50:09Z</time>
      </trkpt>
      <trkpt lat="46.83778" lon="5.7158">
        <ele>505.31018066406</ele>
        <time>2012-05-16T12:50:12Z</time>
      </trkpt>
      <trkpt lat="46.83786" lon="5.71582">
        <ele>504.34887695312</ele>
        <time>2012-05-16T12:50:16Z</time>
      </trkpt>
      <trkpt lat="46.83795" lon="5.71582">
        <ele>502.42614746094</ele>
        <time>2012-05-16T12:50:22Z</time>
      </trkpt>
      <trkpt lat="46.83801" lon="5.71574">
        <ele>499.0615234375</ele>
        <time>2012-05-16T12:50:28Z</time>
      </trkpt>
      <trkpt lat="46.83806" lon="5.71571">
        <ele>496.65832519531</ele>
        <time>2012-05-16T12:50:31Z</time>
      </trkpt>
      <trkpt lat="46.8381" lon="5.71566">
        <ele>494.25500488281</ele>
        <time>2012-05-16T12:50:35Z</time>
      </trkpt>
      <trkpt lat="46.8382" lon="5.71557">
        <ele>492.33239746094</ele>
        <time>2012-05-16T12:50:41Z</time>
      </trkpt>
      <trkpt lat="46.83828" lon="5.71558">
        <ele>489.92907714844</ele>
        <time>2012-05-16T12:50:45Z</time>
      </trkpt>
      <trkpt lat="46.83831" lon="5.71558">
        <ele>489.92907714844</ele>
        <time>2012-05-16T12:50:46Z</time>
      </trkpt>
      <trkpt lat="46.83845" lon="5.7156">
        <ele>488.9677734375</ele>
        <time>2012-05-16T12:50:53Z</time>
      </trkpt>
      <trkpt lat="46.83855" lon="5.71557">
        <ele>487.04504394531</ele>
        <time>2012-05-16T12:50:58Z</time>
      </trkpt>
      <trkpt lat="46.83862" lon="5.71554">
        <ele>486.08374023438</ele>
        <time>2012-05-16T12:51:02Z</time>
      </trkpt>
      <trkpt lat="46.83878" lon="5.71553">
        <ele>485.60302734375</ele>
        <time>2012-05-16T12:51:08Z</time>
      </trkpt>
      <trkpt lat="46.8389" lon="5.71559">
        <ele>486.08374023438</ele>
        <time>2012-05-16T12:51:13Z</time>
      </trkpt>
      <trkpt lat="46.83896" lon="5.71564">
        <ele>488.48718261719</ele>
        <time>2012-05-16T12:51:16Z</time>
      </trkpt>
      <trkpt lat="46.83908" lon="5.71564">
        <ele>490.40979003906</ele>
        <time>2012-05-16T12:51:21Z</time>
      </trkpt>
      <trkpt lat="46.83918" lon="5.71569">
        <ele>492.81298828125</ele>
        <time>2012-05-16T12:51:26Z</time>
      </trkpt>
      <trkpt lat="46.83924" lon="5.71574">
        <ele>493.77429199219</ele>
        <time>2012-05-16T12:51:29Z</time>
      </trkpt>
      <trkpt lat="46.83933" lon="5.71574">
        <ele>492.33239746094</ele>
        <time>2012-05-16T12:51:35Z</time>
      </trkpt>
      <trkpt lat="46.83936" lon="5.71575">
        <ele>491.37097167969</ele>
        <time>2012-05-16T12:51:40Z</time>
      </trkpt>
      <trkpt lat="46.83931" lon="5.71578">
        <ele>496.177734375</ele>
        <time>2012-05-16T12:51:47Z</time>
      </trkpt>
      <trkpt lat="46.8393" lon="5.71578">
        <ele>496.65832519531</ele>
        <time>2012-05-16T12:51:48Z</time>
      </trkpt>
      <trkpt lat="46.83928" lon="5.71576">
        <ele>500.02294921875</ele>
        <time>2012-05-16T12:51:56Z</time>
      </trkpt>
      <trkpt lat="46.83932" lon="5.71576">
        <ele>496.65832519531</ele>
        <time>2012-05-16T12:52:07Z</time>
      </trkpt>
      <trkpt lat="46.83934" lon="5.71575">
        <ele>495.21618652344</ele>
        <time>2012-05-16T12:52:09Z</time>
      </trkpt>
      <trkpt lat="46.83947" lon="5.71575">
        <ele>491.37097167969</ele>
        <time>2012-05-16T12:52:15Z</time>
      </trkpt>
      <trkpt lat="46.83951" lon="5.71577">
        <ele>489.44836425781</ele>
        <time>2012-05-16T12:52:18Z</time>
      </trkpt>
      <trkpt lat="46.83958" lon="5.71576">
        <ele>487.52563476562</ele>
        <time>2012-05-16T12:52:23Z</time>
      </trkpt>
      <trkpt lat="46.83962" lon="5.71576">
        <ele>486.08374023438</ele>
        <time>2012-05-16T12:52:26Z</time>
      </trkpt>
      <trkpt lat="46.83973" lon="5.71574">
        <ele>482.23852539062</ele>
        <time>2012-05-16T12:52:32Z</time>
      </trkpt>
      <trkpt lat="46.83981" lon="5.71572">
        <ele>479.3544921875</ele>
        <time>2012-05-16T12:52:36Z</time>
      </trkpt>
      <trkpt lat="46.83988" lon="5.71573">
        <ele>478.39318847656</ele>
        <time>2012-05-16T12:52:39Z</time>
      </trkpt>
      <trkpt lat="46.83997" lon="5.71584">
        <ele>477.91247558594</ele>
        <time>2012-05-16T12:52:44Z</time>
      </trkpt>
      <trkpt lat="46.84008" lon="5.71595">
        <ele>478.39318847656</ele>
        <time>2012-05-16T12:52:50Z</time>
      </trkpt>
      <trkpt lat="46.84011" lon="5.71597">
        <ele>479.3544921875</ele>
        <time>2012-05-16T12:52:52Z</time>
      </trkpt>
      <trkpt lat="46.84017" lon="5.7159">
        <ele>476.95129394531</ele>
        <time>2012-05-16T12:52:58Z</time>
      </trkpt>
      <trkpt lat="46.84018" lon="5.71579">
        <ele>475.02868652344</ele>
        <time>2012-05-16T12:53:02Z</time>
      </trkpt>
      <trkpt lat="46.84024" lon="5.71574">
        <ele>473.10607910156</ele>
        <time>2012-05-16T12:53:06Z</time>
      </trkpt>
      <trkpt lat="46.84035" lon="5.71576">
        <ele>472.62536621094</ele>
        <time>2012-05-16T12:53:11Z</time>
      </trkpt>
      <trkpt lat="46.84041" lon="5.71577">
        <ele>473.10607910156</ele>
        <time>2012-05-16T12:53:14Z</time>
      </trkpt>
      <trkpt lat="46.84053" lon="5.71582">
        <ele>470.70263671875</ele>
        <time>2012-05-16T12:53:20Z</time>
      </trkpt>
      <trkpt lat="46.84063" lon="5.71585">
        <ele>471.66394042969</ele>
        <time>2012-05-16T12:53:24Z</time>
      </trkpt>
      <trkpt lat="46.84074" lon="5.7159">
        <ele>473.10607910156</ele>
        <time>2012-05-16T12:53:29Z</time>
      </trkpt>
      <trkpt lat="46.84076" lon="5.71591">
        <ele>472.62536621094</ele>
        <time>2012-05-16T12:53:30Z</time>
      </trkpt>
      <trkpt lat="46.8408" lon="5.71596">
        <ele>472.14465332031</ele>
        <time>2012-05-16T12:53:33Z</time>
      </trkpt>
      <trkpt lat="46.84089" lon="5.71611">
        <ele>471.66394042969</ele>
        <time>2012-05-16T12:53:39Z</time>
      </trkpt>
      <trkpt lat="46.84093" lon="5.71613">
        <ele>472.62536621094</ele>
        <time>2012-05-16T12:53:41Z</time>
      </trkpt>
      <trkpt lat="46.84104" lon="5.71613">
        <ele>472.14465332031</ele>
        <time>2012-05-16T12:53:47Z</time>
      </trkpt>
      <trkpt lat="46.84105" lon="5.71613">
        <ele>471.66394042969</ele>
        <time>2012-05-16T12:53:48Z</time>
      </trkpt>
      <trkpt lat="46.84116" lon="5.71613">
        <ele>470.70263671875</ele>
        <time>2012-05-16T12:53:54Z</time>
      </trkpt>
      <trkpt lat="46.84118" lon="5.71614">
        <ele>470.22192382812</ele>
        <time>2012-05-16T12:53:55Z</time>
      </trkpt>
      <trkpt lat="46.8413" lon="5.71624">
        <ele>471.18334960938</ele>
        <time>2012-05-16T12:54:02Z</time>
      </trkpt>
      <trkpt lat="46.84132" lon="5.71629">
        <ele>471.18334960938</ele>
        <time>2012-05-16T12:54:04Z</time>
      </trkpt>
      <trkpt lat="46.84144" lon="5.71639">
        <ele>471.18334960938</ele>
        <time>2012-05-16T12:54:10Z</time>
      </trkpt>
      <trkpt lat="46.84159" lon="5.71645">
        <ele>472.14465332031</ele>
        <time>2012-05-16T12:54:17Z</time>
      </trkpt>
      <trkpt lat="46.84169" lon="5.71649">
        <ele>473.10607910156</ele>
        <time>2012-05-16T12:54:22Z</time>
      </trkpt>
      <trkpt lat="46.84176" lon="5.71656">
        <ele>473.58666992188</ele>
        <time>2012-05-16T12:54:26Z</time>
      </trkpt>
      <trkpt lat="46.84184" lon="5.71659">
        <ele>473.10607910156</ele>
        <time>2012-05-16T12:54:30Z</time>
      </trkpt>
      <trkpt lat="46.84196" lon="5.71664">
        <ele>472.62536621094</ele>
        <time>2012-05-16T12:54:35Z</time>
      </trkpt>
      <trkpt lat="46.84201" lon="5.71666">
        <ele>471.66394042969</ele>
        <time>2012-05-16T12:54:38Z</time>
      </trkpt>
      <trkpt lat="46.84211" lon="5.7167">
        <ele>470.70263671875</ele>
        <time>2012-05-16T12:54:43Z</time>
      </trkpt>
      <trkpt lat="46.84213" lon="5.71671">
        <ele>470.22192382812</ele>
        <time>2012-05-16T12:54:44Z</time>
      </trkpt>
      <trkpt lat="46.84224" lon="5.71679">
        <ele>469.74133300781</ele>
        <time>2012-05-16T12:54:49Z</time>
      </trkpt>
      <trkpt lat="46.84235" lon="5.71686">
        <ele>468.78002929688</ele>
        <time>2012-05-16T12:54:54Z</time>
      </trkpt>
      <trkpt lat="46.84243" lon="5.7169">
        <ele>468.29931640625</ele>
        <time>2012-05-16T12:54:59Z</time>
      </trkpt>
      <trkpt lat="46.84253" lon="5.71701">
        <ele>466.857421875</ele>
        <time>2012-05-16T12:55:05Z</time>
      </trkpt>
      <trkpt lat="46.84266" lon="5.71712">
        <ele>466.857421875</ele>
        <time>2012-05-16T12:55:11Z</time>
      </trkpt>
      <trkpt lat="46.84275" lon="5.71723">
        <ele>468.78002929688</ele>
        <time>2012-05-16T12:55:17Z</time>
      </trkpt>
      <trkpt lat="46.84277" lon="5.71725">
        <ele>469.74133300781</ele>
        <time>2012-05-16T12:55:19Z</time>
      </trkpt>
      <trkpt lat="46.8428" lon="5.71729">
        <ele>470.70263671875</ele>
        <time>2012-05-16T12:55:23Z</time>
      </trkpt>
      <trkpt lat="46.84286" lon="5.71737">
        <ele>472.62536621094</ele>
        <time>2012-05-16T12:55:28Z</time>
      </trkpt>
      <trkpt lat="46.84292" lon="5.71745">
        <ele>476.95129394531</ele>
        <time>2012-05-16T12:55:33Z</time>
      </trkpt>
      <trkpt lat="46.84293" lon="5.71746">
        <ele>476.47058105469</ele>
        <time>2012-05-16T12:55:34Z</time>
      </trkpt>
      <trkpt lat="46.84297" lon="5.71747">
        <ele>476.95129394531</ele>
        <time>2012-05-16T12:55:36Z</time>
      </trkpt>
      <trkpt lat="46.843" lon="5.71747">
        <ele>477.43188476562</ele>
        <time>2012-05-16T12:55:38Z</time>
      </trkpt>
      <trkpt lat="46.84309" lon="5.71757">
        <ele>479.3544921875</ele>
        <time>2012-05-16T12:55:45Z</time>
      </trkpt>
      <trkpt lat="46.84315" lon="5.71763">
        <ele>481.27722167969</ele>
        <time>2012-05-16T12:55:50Z</time>
      </trkpt>
      <trkpt lat="46.84325" lon="5.71773">
        <ele>483.68041992188</ele>
        <time>2012-05-16T12:55:57Z</time>
      </trkpt>
      <trkpt lat="46.84332" lon="5.71778">
        <ele>480.79663085938</ele>
        <time>2012-05-16T12:56:05Z</time>
      </trkpt>
      <trkpt lat="46.8434" lon="5.71784">
        <ele>480.79663085938</ele>
        <time>2012-05-16T12:56:10Z</time>
      </trkpt>
      <trkpt lat="46.84348" lon="5.71796">
        <ele>480.31591796875</ele>
        <time>2012-05-16T12:56:15Z</time>
      </trkpt>
      <trkpt lat="46.84354" lon="5.71811">
        <ele>481.7578125</ele>
        <time>2012-05-16T12:56:20Z</time>
      </trkpt>
      <trkpt lat="46.84354" lon="5.71818">
        <ele>484.64184570312</ele>
        <time>2012-05-16T12:56:23Z</time>
      </trkpt>
      <trkpt lat="46.84359" lon="5.71827">
        <ele>488.00646972656</ele>
        <time>2012-05-16T12:56:28Z</time>
      </trkpt>
      <trkpt lat="46.84364" lon="5.71831">
        <ele>487.04504394531</ele>
        <time>2012-05-16T12:56:33Z</time>
      </trkpt>
      <trkpt lat="46.84366" lon="5.71833">
        <ele>485.12243652344</ele>
        <time>2012-05-16T12:56:36Z</time>
      </trkpt>
      <trkpt lat="46.84371" lon="5.71839">
        <ele>482.71923828125</ele>
        <time>2012-05-16T12:56:41Z</time>
      </trkpt>
      <trkpt lat="46.84374" lon="5.71843">
        <ele>478.87390136719</ele>
        <time>2012-05-16T12:56:45Z</time>
      </trkpt>
      <trkpt lat="46.8438" lon="5.71848">
        <ele>475.98986816406</ele>
        <time>2012-05-16T12:56:51Z</time>
      </trkpt>
      <trkpt lat="46.8438" lon="5.71849">
        <ele>475.50927734375</ele>
        <time>2012-05-16T12:56:52Z</time>
      </trkpt>
      <trkpt lat="46.84383" lon="5.71851">
        <ele>474.54797363281</ele>
        <time>2012-05-16T12:56:55Z</time>
      </trkpt>
      <trkpt lat="46.84388" lon="5.71846">
        <ele>472.14465332031</ele>
        <time>2012-05-16T12:57:02Z</time>
      </trkpt>
      <trkpt lat="46.84389" lon="5.71844">
        <ele>471.66394042969</ele>
        <time>2012-05-16T12:57:04Z</time>
      </trkpt>
      <trkpt lat="46.84398" lon="5.71851">
        <ele>468.78002929688</ele>
        <time>2012-05-16T12:57:11Z</time>
      </trkpt>
      <trkpt lat="46.84405" lon="5.71859">
        <ele>466.857421875</ele>
        <time>2012-05-16T12:57:17Z</time>
      </trkpt>
      <trkpt lat="46.84407" lon="5.71865">
        <ele>467.33813476562</ele>
        <time>2012-05-16T12:57:20Z</time>
      </trkpt>
      <trkpt lat="46.8441" lon="5.71872">
        <ele>467.81872558594</ele>
        <time>2012-05-16T12:57:24Z</time>
      </trkpt>
      <trkpt lat="46.84418" lon="5.71883">
        <ele>468.78002929688</ele>
        <time>2012-05-16T12:57:32Z</time>
      </trkpt>
      <trkpt lat="46.84428" lon="5.71896">
        <ele>468.78002929688</ele>
        <time>2012-05-16T12:57:38Z</time>
      </trkpt>
      <trkpt lat="46.84433" lon="5.71898">
        <ele>468.29931640625</ele>
        <time>2012-05-16T12:57:41Z</time>
      </trkpt>
      <trkpt lat="46.84439" lon="5.71907">
        <ele>468.29931640625</ele>
        <time>2012-05-16T12:57:45Z</time>
      </trkpt>
      <trkpt lat="46.84449" lon="5.71914">
        <ele>469.2607421875</ele>
        <time>2012-05-16T12:57:49Z</time>
      </trkpt>
      <trkpt lat="46.84454" lon="5.71922">
        <ele>469.2607421875</ele>
        <time>2012-05-16T12:57:53Z</time>
      </trkpt>
      <trkpt lat="46.84465" lon="5.7193">
        <ele>470.70263671875</ele>
        <time>2012-05-16T12:57:58Z</time>
      </trkpt>
      <trkpt lat="46.84474" lon="5.71935">
        <ele>470.22192382812</ele>
        <time>2012-05-16T12:58:02Z</time>
      </trkpt>
      <trkpt lat="46.84484" lon="5.71944">
        <ele>471.18334960938</ele>
        <time>2012-05-16T12:58:08Z</time>
      </trkpt>
      <trkpt lat="46.84492" lon="5.7195">
        <ele>472.62536621094</ele>
        <time>2012-05-16T12:58:11Z</time>
      </trkpt>
      <trkpt lat="46.84508" lon="5.71961">
        <ele>473.58666992188</ele>
        <time>2012-05-16T12:58:17Z</time>
      </trkpt>
      <trkpt lat="46.84519" lon="5.71968">
        <ele>473.10607910156</ele>
        <time>2012-05-16T12:58:22Z</time>
      </trkpt>
      <trkpt lat="46.84528" lon="5.71976">
        <ele>473.10607910156</ele>
        <time>2012-05-16T12:58:27Z</time>
      </trkpt>
      <trkpt lat="46.84533" lon="5.71981">
        <ele>472.62536621094</ele>
        <time>2012-05-16T12:58:30Z</time>
      </trkpt>
      <trkpt lat="46.84542" lon="5.71991">
        <ele>473.58666992188</ele>
        <time>2012-05-16T12:58:35Z</time>
      </trkpt>
      <trkpt lat="46.84544" lon="5.71994">
        <ele>474.06726074219</ele>
        <time>2012-05-16T12:58:36Z</time>
      </trkpt>
      <trkpt lat="46.84551" lon="5.7201">
        <ele>476.95129394531</ele>
        <time>2012-05-16T12:58:42Z</time>
      </trkpt>
      <trkpt lat="46.84556" lon="5.72021">
        <ele>476.95129394531</ele>
        <time>2012-05-16T12:58:47Z</time>
      </trkpt>
      <trkpt lat="46.84559" lon="5.72025">
        <ele>477.91247558594</ele>
        <time>2012-05-16T12:58:49Z</time>
      </trkpt>
      <trkpt lat="46.84568" lon="5.72035">
        <ele>475.02868652344</ele>
        <time>2012-05-16T12:58:55Z</time>
      </trkpt>
      <trkpt lat="46.84579" lon="5.72045">
        <ele>474.54797363281</ele>
        <time>2012-05-16T12:59:00Z</time>
      </trkpt>
      <trkpt lat="46.84586" lon="5.72058">
        <ele>475.50927734375</ele>
        <time>2012-05-16T12:59:05Z</time>
      </trkpt>
      <trkpt lat="46.84595" lon="5.72074">
        <ele>476.47058105469</ele>
        <time>2012-05-16T12:59:11Z</time>
      </trkpt>
      <trkpt lat="46.84595" lon="5.72076">
        <ele>476.95129394531</ele>
        <time>2012-05-16T12:59:12Z</time>
      </trkpt>
      <trkpt lat="46.846" lon="5.72084">
        <ele>477.91247558594</ele>
        <time>2012-05-16T12:59:17Z</time>
      </trkpt>
      <trkpt lat="46.84605" lon="5.72093">
        <ele>476.47058105469</ele>
        <time>2012-05-16T12:59:23Z</time>
      </trkpt>
      <trkpt lat="46.84609" lon="5.721">
        <ele>475.02868652344</ele>
        <time>2012-05-16T12:59:28Z</time>
      </trkpt>
      <trkpt lat="46.84612" lon="5.72105">
        <ele>472.62536621094</ele>
        <time>2012-05-16T12:59:35Z</time>
      </trkpt>
      <trkpt lat="46.84616" lon="5.72111">
        <ele>473.58666992188</ele>
        <time>2012-05-16T12:59:39Z</time>
      </trkpt>
      <trkpt lat="46.84618" lon="5.72114">
        <ele>474.06726074219</ele>
        <time>2012-05-16T12:59:41Z</time>
      </trkpt>
      <trkpt lat="46.84625" lon="5.72122">
        <ele>473.10607910156</ele>
        <time>2012-05-16T12:59:48Z</time>
      </trkpt>
      <trkpt lat="46.84632" lon="5.7213">
        <ele>473.10607910156</ele>
        <time>2012-05-16T12:59:53Z</time>
      </trkpt>
      <trkpt lat="46.84637" lon="5.72137">
        <ele>473.58666992188</ele>
        <time>2012-05-16T12:59:58Z</time>
      </trkpt>
      <trkpt lat="46.84637" lon="5.7214">
        <ele>473.58666992188</ele>
        <time>2012-05-16T13:00:00Z</time>
      </trkpt>
      <trkpt lat="46.8464" lon="5.72147">
        <ele>473.58666992188</ele>
        <time>2012-05-16T13:00:05Z</time>
      </trkpt>
      <trkpt lat="46.84644" lon="5.72154">
        <ele>472.14465332031</ele>
        <time>2012-05-16T13:00:12Z</time>
      </trkpt>
      <trkpt lat="46.84643" lon="5.72152">
        <ele>470.70263671875</ele>
        <time>2012-05-16T13:00:17Z</time>
      </trkpt>
      <trkpt lat="46.84641" lon="5.72149">
        <ele>468.29931640625</ele>
        <time>2012-05-16T13:00:22Z</time>
      </trkpt>
      <trkpt lat="46.84639" lon="5.72143">
        <ele>467.33813476562</ele>
        <time>2012-05-16T13:00:27Z</time>
      </trkpt>
      <trkpt lat="46.84637" lon="5.72138">
        <ele>464.93481445312</ele>
        <time>2012-05-16T13:00:32Z</time>
      </trkpt>
      <trkpt lat="46.84636" lon="5.72131">
        <ele>468.29931640625</ele>
        <time>2012-05-16T13:00:36Z</time>
      </trkpt>
      <trkpt lat="46.84634" lon="5.72128">
        <ele>469.2607421875</ele>
        <time>2012-05-16T13:00:38Z</time>
      </trkpt>
      <trkpt lat="46.84638" lon="5.72123">
        <ele>467.33813476562</ele>
        <time>2012-05-16T13:00:43Z</time>
      </trkpt>
      <trkpt lat="46.8464" lon="5.72122">
        <ele>464.93481445312</ele>
        <time>2012-05-16T13:00:45Z</time>
      </trkpt>
      <trkpt lat="46.8465" lon="5.72129">
        <ele>464.93481445312</ele>
        <time>2012-05-16T13:00:54Z</time>
      </trkpt>
      <trkpt lat="46.84657" lon="5.72137">
        <ele>465.89611816406</ele>
        <time>2012-05-16T13:00:58Z</time>
      </trkpt>
      <trkpt lat="46.84666" lon="5.72144">
        <ele>464.93481445312</ele>
        <time>2012-05-16T13:01:03Z</time>
      </trkpt>
      <trkpt lat="46.84667" lon="5.72146">
        <ele>465.41552734375</ele>
        <time>2012-05-16T13:01:04Z</time>
      </trkpt>
      <trkpt lat="46.84679" lon="5.72152">
        <ele>463.49279785156</ele>
        <time>2012-05-16T13:01:11Z</time>
      </trkpt>
      <trkpt lat="46.84688" lon="5.72159">
        <ele>461.57019042969</ele>
        <time>2012-05-16T13:01:16Z</time>
      </trkpt>
      <trkpt lat="46.84698" lon="5.72164">
        <ele>460.12817382812</ele>
        <time>2012-05-16T13:01:21Z</time>
      </trkpt>
      <trkpt lat="46.84706" lon="5.72172">
        <ele>458.68615722656</ele>
        <time>2012-05-16T13:01:26Z</time>
      </trkpt>
      <trkpt lat="46.84707" lon="5.72173">
        <ele>458.20556640625</ele>
        <time>2012-05-16T13:01:27Z</time>
      </trkpt>
      <trkpt lat="46.84713" lon="5.72179">
        <ele>456.76354980469</ele>
        <time>2012-05-16T13:01:31Z</time>
      </trkpt>
      <trkpt lat="46.84716" lon="5.72182">
        <ele>455.80224609375</ele>
        <time>2012-05-16T13:01:34Z</time>
      </trkpt>
      <trkpt lat="46.8472" lon="5.72183">
        <ele>453.39892578125</ele>
        <time>2012-05-16T13:01:37Z</time>
      </trkpt>
      <trkpt lat="46.8472" lon="5.72176">
        <ele>450.99560546875</ele>
        <time>2012-05-16T13:01:41Z</time>
      </trkpt>
      <trkpt lat="46.84713" lon="5.7217">
        <ele>448.11181640625</ele>
        <time>2012-05-16T13:01:47Z</time>
      </trkpt>
      <trkpt lat="46.84708" lon="5.72165">
        <ele>449.07299804688</ele>
        <time>2012-05-16T13:01:56Z</time>
      </trkpt>
      <trkpt lat="46.84707" lon="5.72162">
        <ele>449.07299804688</ele>
        <time>2012-05-16T13:01:59Z</time>
      </trkpt>
      <trkpt lat="46.84701" lon="5.72152">
        <ele>450.03442382812</ele>
        <time>2012-05-16T13:02:05Z</time>
      </trkpt>
      <trkpt lat="46.84697" lon="5.72145">
        <ele>447.15026855469</ele>
        <time>2012-05-16T13:02:09Z</time>
      </trkpt>
      <trkpt lat="46.84688" lon="5.72137">
        <ele>447.15026855469</ele>
        <time>2012-05-16T13:02:13Z</time>
      </trkpt>
      <trkpt lat="46.84679" lon="5.72119">
        <ele>447.63098144531</ele>
        <time>2012-05-16T13:02:21Z</time>
      </trkpt>
      <trkpt lat="46.84671" lon="5.72108">
        <ele>446.66967773438</ele>
        <time>2012-05-16T13:02:27Z</time>
      </trkpt>
      <trkpt lat="46.84663" lon="5.72097">
        <ele>444.7470703125</ele>
        <time>2012-05-16T13:02:32Z</time>
      </trkpt>
      <trkpt lat="46.84659" lon="5.72091">
        <ele>443.78576660156</ele>
        <time>2012-05-16T13:02:35Z</time>
      </trkpt>
      <trkpt lat="46.8465" lon="5.72077">
        <ele>441.38244628906</ele>
        <time>2012-05-16T13:02:42Z</time>
      </trkpt>
      <trkpt lat="46.84645" lon="5.72064">
        <ele>441.86315917969</ele>
        <time>2012-05-16T13:02:47Z</time>
      </trkpt>
      <trkpt lat="46.84639" lon="5.72046">
        <ele>439.45971679688</ele>
        <time>2012-05-16T13:02:54Z</time>
      </trkpt>
      <trkpt lat="46.84639" lon="5.7204">
        <ele>439.45971679688</ele>
        <time>2012-05-16T13:02:56Z</time>
      </trkpt>
      <trkpt lat="46.84636" lon="5.72031">
        <ele>438.01782226562</ele>
        <time>2012-05-16T13:03:00Z</time>
      </trkpt>
      <trkpt lat="46.84626" lon="5.72019">
        <ele>436.09521484375</ele>
        <time>2012-05-16T13:03:07Z</time>
      </trkpt>
      <trkpt lat="46.84624" lon="5.72016">
        <ele>436.57592773438</ele>
        <time>2012-05-16T13:03:08Z</time>
      </trkpt>
      <trkpt lat="46.84616" lon="5.72003">
        <ele>437.05651855469</ele>
        <time>2012-05-16T13:03:14Z</time>
      </trkpt>
      <trkpt lat="46.84611" lon="5.71991">
        <ele>437.05651855469</ele>
        <time>2012-05-16T13:03:19Z</time>
      </trkpt>
      <trkpt lat="46.84606" lon="5.7198">
        <ele>437.05651855469</ele>
        <time>2012-05-16T13:03:23Z</time>
      </trkpt>
      <trkpt lat="46.84597" lon="5.71966">
        <ele>433.69189453125</ele>
        <time>2012-05-16T13:03:29Z</time>
      </trkpt>
      <trkpt lat="46.84592" lon="5.71956">
        <ele>433.69189453125</ele>
        <time>2012-05-16T13:03:33Z</time>
      </trkpt>
      <trkpt lat="46.84584" lon="5.71942">
        <ele>433.21130371094</ele>
        <time>2012-05-16T13:03:39Z</time>
      </trkpt>
      <trkpt lat="46.84575" lon="5.71933">
        <ele>431.76916503906</ele>
        <time>2012-05-16T13:03:44Z</time>
      </trkpt>
      <trkpt lat="46.8457" lon="5.71924">
        <ele>430.32727050781</ele>
        <time>2012-05-16T13:03:48Z</time>
      </trkpt>
      <trkpt lat="46.84568" lon="5.71922">
        <ele>430.32727050781</ele>
        <time>2012-05-16T13:03:49Z</time>
      </trkpt>
      <trkpt lat="46.84558" lon="5.71909">
        <ele>428.40466308594</ele>
        <time>2012-05-16T13:03:54Z</time>
      </trkpt>
      <trkpt lat="46.8455" lon="5.71894">
        <ele>429.84655761719</ele>
        <time>2012-05-16T13:04:00Z</time>
      </trkpt>
      <trkpt lat="46.84549" lon="5.71891">
        <ele>430.32727050781</ele>
        <time>2012-05-16T13:04:01Z</time>
      </trkpt>
      <trkpt lat="46.8455" lon="5.71887">
        <ele>428.40466308594</ele>
        <time>2012-05-16T13:04:05Z</time>
      </trkpt>
      <trkpt lat="46.84554" lon="5.7189">
        <ele>425.52075195312</ele>
        <time>2012-05-16T13:04:09Z</time>
      </trkpt>
      <trkpt lat="46.8456" lon="5.71897">
        <ele>420.71411132812</ele>
        <time>2012-05-16T13:04:15Z</time>
      </trkpt>
      <trkpt lat="46.84575" lon="5.71912">
        <ele>418.79150390625</ele>
        <time>2012-05-16T13:04:23Z</time>
      </trkpt>
      <trkpt lat="46.84584" lon="5.71923">
        <ele>417.349609375</ele>
        <time>2012-05-16T13:04:28Z</time>
      </trkpt>
      <trkpt lat="46.84589" lon="5.71932">
        <ele>415.90747070312</ele>
        <time>2012-05-16T13:04:32Z</time>
      </trkpt>
      <trkpt lat="46.84595" lon="5.71947">
        <ele>413.98486328125</ele>
        <time>2012-05-16T13:04:38Z</time>
      </trkpt>
      <trkpt lat="46.84599" lon="5.71957">
        <ele>412.54284667969</ele>
        <time>2012-05-16T13:04:43Z</time>
      </trkpt>
      <trkpt lat="46.84608" lon="5.71968">
        <ele>412.54284667969</ele>
        <time>2012-05-16T13:04:48Z</time>
      </trkpt>
      <trkpt lat="46.84617" lon="5.7198">
        <ele>413.02355957031</ele>
        <time>2012-05-16T13:04:54Z</time>
      </trkpt>
      <trkpt lat="46.84622" lon="5.71984">
        <ele>413.50427246094</ele>
        <time>2012-05-16T13:04:56Z</time>
      </trkpt>
      <trkpt lat="46.84631" lon="5.71992">
        <ele>416.86889648438</ele>
        <time>2012-05-16T13:05:01Z</time>
      </trkpt>
      <trkpt lat="46.84639" lon="5.72">
        <ele>417.349609375</ele>
        <time>2012-05-16T13:05:05Z</time>
      </trkpt>
      <trkpt lat="46.84647" lon="5.72007">
        <ele>418.31079101562</ele>
        <time>2012-05-16T13:05:09Z</time>
      </trkpt>
      <trkpt lat="46.84652" lon="5.72015">
        <ele>418.79150390625</ele>
        <time>2012-05-16T13:05:14Z</time>
      </trkpt>
      <trkpt lat="46.84652" lon="5.72016">
        <ele>418.79150390625</ele>
        <time>2012-05-16T13:05:15Z</time>
      </trkpt>
      <trkpt lat="46.84658" lon="5.72024">
        <ele>418.79150390625</ele>
        <time>2012-05-16T13:05:22Z</time>
      </trkpt>
      <trkpt lat="46.84661" lon="5.72032">
        <ele>418.31079101562</ele>
        <time>2012-05-16T13:05:28Z</time>
      </trkpt>
      <trkpt lat="46.84668" lon="5.72041">
        <ele>418.79150390625</ele>
        <time>2012-05-16T13:05:34Z</time>
      </trkpt>
      <trkpt lat="46.84679" lon="5.72053">
        <ele>420.2333984375</ele>
        <time>2012-05-16T13:05:42Z</time>
      </trkpt>
      <trkpt lat="46.84689" lon="5.72064">
        <ele>421.67541503906</ele>
        <time>2012-05-16T13:05:49Z</time>
      </trkpt>
      <trkpt lat="46.84695" lon="5.72075">
        <ele>422.15600585938</ele>
        <time>2012-05-16T13:05:56Z</time>
      </trkpt>
      <trkpt lat="46.84697" lon="5.72077">
        <ele>421.67541503906</ele>
        <time>2012-05-16T13:05:59Z</time>
      </trkpt>
      <trkpt lat="46.84708" lon="5.72087">
        <ele>423.59802246094</ele>
        <time>2012-05-16T13:06:06Z</time>
      </trkpt>
      <trkpt lat="46.84709" lon="5.72089">
        <ele>423.59802246094</ele>
        <time>2012-05-16T13:06:07Z</time>
      </trkpt>
      <trkpt lat="46.84716" lon="5.72098">
        <ele>424.55944824219</ele>
        <time>2012-05-16T13:06:13Z</time>
      </trkpt>
      <trkpt lat="46.84718" lon="5.72103">
        <ele>424.55944824219</ele>
        <time>2012-05-16T13:06:16Z</time>
      </trkpt>
      <trkpt lat="46.84725" lon="5.72109">
        <ele>424.07873535156</ele>
        <time>2012-05-16T13:06:20Z</time>
      </trkpt>
      <trkpt lat="46.84739" lon="5.72119">
        <ele>420.2333984375</ele>
        <time>2012-05-16T13:06:27Z</time>
      </trkpt>
      <trkpt lat="46.84752" lon="5.72131">
        <ele>417.83020019531</ele>
        <time>2012-05-16T13:06:33Z</time>
      </trkpt>
      <trkpt lat="46.84764" lon="5.72144">
        <ele>417.83020019531</ele>
        <time>2012-05-16T13:06:39Z</time>
      </trkpt>
      <trkpt lat="46.84774" lon="5.72155">
        <ele>418.79150390625</ele>
        <time>2012-05-16T13:06:44Z</time>
      </trkpt>
      <trkpt lat="46.84781" lon="5.72168">
        <ele>417.349609375</ele>
        <time>2012-05-16T13:06:49Z</time>
      </trkpt>
      <trkpt lat="46.84789" lon="5.72182">
        <ele>418.31079101562</ele>
        <time>2012-05-16T13:06:54Z</time>
      </trkpt>
      <trkpt lat="46.84795" lon="5.72187">
        <ele>419.75280761719</ele>
        <time>2012-05-16T13:06:56Z</time>
      </trkpt>
      <trkpt lat="46.84804" lon="5.72204">
        <ele>423.11743164062</ele>
        <time>2012-05-16T13:07:02Z</time>
      </trkpt>
      <trkpt lat="46.84813" lon="5.72219">
        <ele>425.52075195312</ele>
        <time>2012-05-16T13:07:07Z</time>
      </trkpt>
      <trkpt lat="46.84821" lon="5.72232">
        <ele>425.52075195312</ele>
        <time>2012-05-16T13:07:12Z</time>
      </trkpt>
      <trkpt lat="46.84829" lon="5.72243">
        <ele>425.52075195312</ele>
        <time>2012-05-16T13:07:16Z</time>
      </trkpt>
      <trkpt lat="46.8483" lon="5.72245">
        <ele>425.52075195312</ele>
        <time>2012-05-16T13:07:17Z</time>
      </trkpt>
      <trkpt lat="46.84837" lon="5.72258">
        <ele>425.52075195312</ele>
        <time>2012-05-16T13:07:22Z</time>
      </trkpt>
      <trkpt lat="46.84845" lon="5.7227">
        <ele>424.55944824219</ele>
        <time>2012-05-16T13:07:27Z</time>
      </trkpt>
      <trkpt lat="46.84853" lon="5.7228">
        <ele>426.48205566406</ele>
        <time>2012-05-16T13:07:31Z</time>
      </trkpt>
      <trkpt lat="46.8486" lon="5.72292">
        <ele>427.443359375</ele>
        <time>2012-05-16T13:07:36Z</time>
      </trkpt>
      <trkpt lat="46.84869" lon="5.72304">
        <ele>427.443359375</ele>
        <time>2012-05-16T13:07:41Z</time>
      </trkpt>
      <trkpt lat="46.84879" lon="5.72315">
        <ele>427.443359375</ele>
        <time>2012-05-16T13:07:46Z</time>
      </trkpt>
      <trkpt lat="46.84885" lon="5.72327">
        <ele>426.48205566406</ele>
        <time>2012-05-16T13:07:51Z</time>
      </trkpt>
      <trkpt lat="46.8489" lon="5.72336">
        <ele>426.48205566406</ele>
        <time>2012-05-16T13:07:55Z</time>
      </trkpt>
      <trkpt lat="46.84898" lon="5.7235">
        <ele>425.04016113281</ele>
        <time>2012-05-16T13:08:00Z</time>
      </trkpt>
      <trkpt lat="46.84912" lon="5.7236">
        <ele>426.00134277344</ele>
        <time>2012-05-16T13:08:05Z</time>
      </trkpt>
      <trkpt lat="46.8492" lon="5.72374">
        <ele>423.59802246094</ele>
        <time>2012-05-16T13:08:11Z</time>
      </trkpt>
      <trkpt lat="46.84927" lon="5.72385">
        <ele>423.59802246094</ele>
        <time>2012-05-16T13:08:16Z</time>
      </trkpt>
      <trkpt lat="46.84937" lon="5.72398">
        <ele>421.19482421875</ele>
        <time>2012-05-16T13:08:22Z</time>
      </trkpt>
      <trkpt lat="46.84945" lon="5.72406">
        <ele>419.75280761719</ele>
        <time>2012-05-16T13:08:27Z</time>
      </trkpt>
      <trkpt lat="46.84956" lon="5.72418">
        <ele>420.2333984375</ele>
        <time>2012-05-16T13:08:32Z</time>
      </trkpt>
      <trkpt lat="46.84966" lon="5.72429">
        <ele>420.2333984375</ele>
        <time>2012-05-16T13:08:37Z</time>
      </trkpt>
      <trkpt lat="46.84974" lon="5.7244">
        <ele>418.31079101562</ele>
        <time>2012-05-16T13:08:43Z</time>
      </trkpt>
      <trkpt lat="46.84985" lon="5.72449">
        <ele>417.349609375</ele>
        <time>2012-05-16T13:08:48Z</time>
      </trkpt>
      <trkpt lat="46.84993" lon="5.72459">
        <ele>416.86889648438</ele>
        <time>2012-05-16T13:08:53Z</time>
      </trkpt>
      <trkpt lat="46.85001" lon="5.72468">
        <ele>417.349609375</ele>
        <time>2012-05-16T13:08:58Z</time>
      </trkpt>
      <trkpt lat="46.85007" lon="5.72475">
        <ele>417.83020019531</ele>
        <time>2012-05-16T13:09:03Z</time>
      </trkpt>
      <trkpt lat="46.85017" lon="5.7248">
        <ele>417.83020019531</ele>
        <time>2012-05-16T13:09:07Z</time>
      </trkpt>
      <trkpt lat="46.85021" lon="5.72483">
        <ele>418.31079101562</ele>
        <time>2012-05-16T13:09:09Z</time>
      </trkpt>
      <trkpt lat="46.85027" lon="5.72485">
        <ele>417.83020019531</ele>
        <time>2012-05-16T13:09:14Z</time>
      </trkpt>
      <trkpt lat="46.85038" lon="5.72492">
        <ele>416.86889648438</ele>
        <time>2012-05-16T13:09:18Z</time>
      </trkpt>
      <trkpt lat="46.85047" lon="5.72497">
        <ele>414.94616699219</ele>
        <time>2012-05-16T13:09:22Z</time>
      </trkpt>
      <trkpt lat="46.85053" lon="5.725">
        <ele>413.50427246094</ele>
        <time>2012-05-16T13:09:25Z</time>
      </trkpt>
      <trkpt lat="46.85061" lon="5.72507">
        <ele>413.02355957031</ele>
        <time>2012-05-16T13:09:29Z</time>
      </trkpt>
      <trkpt lat="46.85062" lon="5.72509">
        <ele>412.06225585938</ele>
        <time>2012-05-16T13:09:30Z</time>
      </trkpt>
      <trkpt lat="46.85073" lon="5.72522">
        <ele>409.65905761719</ele>
        <time>2012-05-16T13:09:36Z</time>
      </trkpt>
      <trkpt lat="46.85085" lon="5.72535">
        <ele>408.21704101562</ele>
        <time>2012-05-16T13:09:42Z</time>
      </trkpt>
      <trkpt lat="46.85094" lon="5.7255">
        <ele>408.21704101562</ele>
        <time>2012-05-16T13:09:48Z</time>
      </trkpt>
      <trkpt lat="46.85104" lon="5.72563">
        <ele>408.69763183594</ele>
        <time>2012-05-16T13:09:53Z</time>
      </trkpt>
      <trkpt lat="46.85107" lon="5.72568">
        <ele>408.69763183594</ele>
        <time>2012-05-16T13:09:55Z</time>
      </trkpt>
      <trkpt lat="46.85117" lon="5.72578">
        <ele>410.1396484375</ele>
        <time>2012-05-16T13:09:59Z</time>
      </trkpt>
      <trkpt lat="46.85123" lon="5.72585">
        <ele>409.17834472656</ele>
        <time>2012-05-16T13:10:02Z</time>
      </trkpt>
      <trkpt lat="46.85125" lon="5.72593">
        <ele>408.69763183594</ele>
        <time>2012-05-16T13:10:05Z</time>
      </trkpt>
      <trkpt lat="46.85128" lon="5.72601">
        <ele>408.21704101562</ele>
        <time>2012-05-16T13:10:08Z</time>
      </trkpt>
      <trkpt lat="46.85137" lon="5.72614">
        <ele>407.25561523438</ele>
        <time>2012-05-16T13:10:13Z</time>
      </trkpt>
      <trkpt lat="46.85149" lon="5.72623">
        <ele>408.21704101562</ele>
        <time>2012-05-16T13:10:17Z</time>
      </trkpt>
      <trkpt lat="46.85153" lon="5.72628">
        <ele>409.17834472656</ele>
        <time>2012-05-16T13:10:19Z</time>
      </trkpt>
      <trkpt lat="46.85158" lon="5.72634">
        <ele>408.69763183594</ele>
        <time>2012-05-16T13:10:22Z</time>
      </trkpt>
      <trkpt lat="46.85163" lon="5.72643">
        <ele>408.21704101562</ele>
        <time>2012-05-16T13:10:26Z</time>
      </trkpt>
      <trkpt lat="46.8517" lon="5.7265">
        <ele>410.1396484375</ele>
        <time>2012-05-16T13:10:29Z</time>
      </trkpt>
      <trkpt lat="46.85175" lon="5.72665">
        <ele>409.65905761719</ele>
        <time>2012-05-16T13:10:34Z</time>
      </trkpt>
      <trkpt lat="46.85185" lon="5.72681">
        <ele>409.65905761719</ele>
        <time>2012-05-16T13:10:41Z</time>
      </trkpt>
      <trkpt lat="46.85193" lon="5.72693">
        <ele>412.06225585938</ele>
        <time>2012-05-16T13:10:46Z</time>
      </trkpt>
      <trkpt lat="46.85202" lon="5.72705">
        <ele>413.50427246094</ele>
        <time>2012-05-16T13:10:51Z</time>
      </trkpt>
      <trkpt lat="46.85203" lon="5.72708">
        <ele>413.50427246094</ele>
        <time>2012-05-16T13:10:52Z</time>
      </trkpt>
      <trkpt lat="46.85213" lon="5.72721">
        <ele>417.349609375</ele>
        <time>2012-05-16T13:10:58Z</time>
      </trkpt>
      <trkpt lat="46.8522" lon="5.7273">
        <ele>417.83020019531</ele>
        <time>2012-05-16T13:11:02Z</time>
      </trkpt>
      <trkpt lat="46.85224" lon="5.72744">
        <ele>415.90747070312</ele>
        <time>2012-05-16T13:11:07Z</time>
      </trkpt>
      <trkpt lat="46.85231" lon="5.72754">
        <ele>415.90747070312</ele>
        <time>2012-05-16T13:11:11Z</time>
      </trkpt>
      <trkpt lat="46.85236" lon="5.72758">
        <ele>416.38818359375</ele>
        <time>2012-05-16T13:11:14Z</time>
      </trkpt>
      <trkpt lat="46.85245" lon="5.72763">
        <ele>416.38818359375</ele>
        <time>2012-05-16T13:11:21Z</time>
      </trkpt>
      <trkpt lat="46.85255" lon="5.72768">
        <ele>416.86889648438</ele>
        <time>2012-05-16T13:11:27Z</time>
      </trkpt>
      <trkpt lat="46.85262" lon="5.72772">
        <ele>418.31079101562</ele>
        <time>2012-05-16T13:11:32Z</time>
      </trkpt>
      <trkpt lat="46.85266" lon="5.72774">
        <ele>417.83020019531</ele>
        <time>2012-05-16T13:11:36Z</time>
      </trkpt>
      <trkpt lat="46.85273" lon="5.72776">
        <ele>417.349609375</ele>
        <time>2012-05-16T13:11:42Z</time>
      </trkpt>
      <trkpt lat="46.85275" lon="5.72776">
        <ele>416.86889648438</ele>
        <time>2012-05-16T13:11:47Z</time>
      </trkpt>
      <trkpt lat="46.85283" lon="5.72779">
        <ele>416.38818359375</ele>
        <time>2012-05-16T13:11:51Z</time>
      </trkpt>
      <trkpt lat="46.85292" lon="5.72781">
        <ele>414.94616699219</ele>
        <time>2012-05-16T13:11:57Z</time>
      </trkpt>
      <trkpt lat="46.85295" lon="5.72781">
        <ele>415.42687988281</ele>
        <time>2012-05-16T13:12:00Z</time>
      </trkpt>
      <trkpt lat="46.85303" lon="5.72783">
        <ele>414.94616699219</ele>
        <time>2012-05-16T13:12:06Z</time>
      </trkpt>
      <trkpt lat="46.8531" lon="5.72783">
        <ele>413.98486328125</ele>
        <time>2012-05-16T13:12:11Z</time>
      </trkpt>
      <trkpt lat="46.85317" lon="5.72782">
        <ele>413.98486328125</ele>
        <time>2012-05-16T13:12:15Z</time>
      </trkpt>
      <trkpt lat="46.85324" lon="5.72784">
        <ele>414.46545410156</ele>
        <time>2012-05-16T13:12:21Z</time>
      </trkpt>
      <trkpt lat="46.85329" lon="5.72782">
        <ele>414.94616699219</ele>
        <time>2012-05-16T13:12:24Z</time>
      </trkpt>
      <trkpt lat="46.85338" lon="5.72778">
        <ele>415.42687988281</ele>
        <time>2012-05-16T13:12:30Z</time>
      </trkpt>
      <trkpt lat="46.85346" lon="5.72773">
        <ele>416.38818359375</ele>
        <time>2012-05-16T13:12:36Z</time>
      </trkpt>
      <trkpt lat="46.85348" lon="5.72771">
        <ele>417.83020019531</ele>
        <time>2012-05-16T13:12:39Z</time>
      </trkpt>
      <trkpt lat="46.85357" lon="5.72764">
        <ele>418.79150390625</ele>
        <time>2012-05-16T13:12:46Z</time>
      </trkpt>
      <trkpt lat="46.85361" lon="5.7276">
        <ele>418.79150390625</ele>
        <time>2012-05-16T13:12:50Z</time>
      </trkpt>
      <trkpt lat="46.85363" lon="5.72759">
        <ele>418.31079101562</ele>
        <time>2012-05-16T13:12:52Z</time>
      </trkpt>
      <trkpt lat="46.85371" lon="5.72752">
        <ele>419.75280761719</ele>
        <time>2012-05-16T13:12:59Z</time>
      </trkpt>
      <trkpt lat="46.85373" lon="5.72751">
        <ele>419.75280761719</ele>
        <time>2012-05-16T13:13:00Z</time>
      </trkpt>
      <trkpt lat="46.85381" lon="5.72742">
        <ele>418.31079101562</ele>
        <time>2012-05-16T13:13:07Z</time>
      </trkpt>
      <trkpt lat="46.85386" lon="5.72736">
        <ele>417.83020019531</ele>
        <time>2012-05-16T13:13:12Z</time>
      </trkpt>
      <trkpt lat="46.85392" lon="5.72732">
        <ele>416.86889648438</ele>
        <time>2012-05-16T13:13:17Z</time>
      </trkpt>
      <trkpt lat="46.85402" lon="5.72726">
        <ele>418.31079101562</ele>
        <time>2012-05-16T13:13:25Z</time>
      </trkpt>
      <trkpt lat="46.85408" lon="5.72725">
        <ele>418.31079101562</ele>
        <time>2012-05-16T13:13:30Z</time>
      </trkpt>
      <trkpt lat="46.8542" lon="5.72727">
        <ele>420.71411132812</ele>
        <time>2012-05-16T13:13:38Z</time>
      </trkpt>
      <trkpt lat="46.85421" lon="5.72728">
        <ele>421.19482421875</ele>
        <time>2012-05-16T13:13:39Z</time>
      </trkpt>
      <trkpt lat="46.85429" lon="5.72731">
        <ele>422.63671875</ele>
        <time>2012-05-16T13:13:44Z</time>
      </trkpt>
      <trkpt lat="46.85439" lon="5.72735">
        <ele>424.55944824219</ele>
        <time>2012-05-16T13:13:51Z</time>
      </trkpt>
      <trkpt lat="46.85449" lon="5.72743">
        <ele>426.00134277344</ele>
        <time>2012-05-16T13:13:59Z</time>
      </trkpt>
      <trkpt lat="46.85456" lon="5.72747">
        <ele>427.92395019531</ele>
        <time>2012-05-16T13:14:04Z</time>
      </trkpt>
      <trkpt lat="46.85463" lon="5.72751">
        <ele>429.84655761719</ele>
        <time>2012-05-16T13:14:10Z</time>
      </trkpt>
      <trkpt lat="46.85475" lon="5.72758">
        <ele>431.76916503906</ele>
        <time>2012-05-16T13:14:19Z</time>
      </trkpt>
      <trkpt lat="46.85483" lon="5.72765">
        <ele>433.21130371094</ele>
        <time>2012-05-16T13:14:26Z</time>
      </trkpt>
      <trkpt lat="46.85492" lon="5.72773">
        <ele>435.13391113281</ele>
        <time>2012-05-16T13:14:34Z</time>
      </trkpt>
      <trkpt lat="46.85496" lon="5.72776">
        <ele>436.57592773438</ele>
        <time>2012-05-16T13:14:37Z</time>
      </trkpt>
      <trkpt lat="46.85505" lon="5.72785">
        <ele>439.45971679688</ele>
        <time>2012-05-16T13:14:45Z</time>
      </trkpt>
      <trkpt lat="46.85513" lon="5.72793">
        <ele>441.38244628906</ele>
        <time>2012-05-16T13:14:53Z</time>
      </trkpt>
      <trkpt lat="46.85519" lon="5.728">
        <ele>443.78576660156</ele>
        <time>2012-05-16T13:14:58Z</time>
      </trkpt>
      <trkpt lat="46.85529" lon="5.72811">
        <ele>445.70837402344</ele>
        <time>2012-05-16T13:15:07Z</time>
      </trkpt>
      <trkpt lat="46.85537" lon="5.72819">
        <ele>445.70837402344</ele>
        <time>2012-05-16T13:15:15Z</time>
      </trkpt>
      <trkpt lat="46.85546" lon="5.72827">
        <ele>445.70837402344</ele>
        <time>2012-05-16T13:15:23Z</time>
      </trkpt>
      <trkpt lat="46.85556" lon="5.72833">
        <ele>445.70837402344</ele>
        <time>2012-05-16T13:15:31Z</time>
      </trkpt>
      <trkpt lat="46.85567" lon="5.72841">
        <ele>446.66967773438</ele>
        <time>2012-05-16T13:15:40Z</time>
      </trkpt>
      <trkpt lat="46.85577" lon="5.72849">
        <ele>447.63098144531</ele>
        <time>2012-05-16T13:15:49Z</time>
      </trkpt>
      <trkpt lat="46.85585" lon="5.72857">
        <ele>448.59240722656</ele>
        <time>2012-05-16T13:15:56Z</time>
      </trkpt>
      <trkpt lat="46.85589" lon="5.72861">
        <ele>449.5537109375</ele>
        <time>2012-05-16T13:16:00Z</time>
      </trkpt>
      <trkpt lat="46.85595" lon="5.72865">
        <ele>449.5537109375</ele>
        <time>2012-05-16T13:16:07Z</time>
      </trkpt>
      <trkpt lat="46.85603" lon="5.7287">
        <ele>450.03442382812</ele>
        <time>2012-05-16T13:16:13Z</time>
      </trkpt>
      <trkpt lat="46.85611" lon="5.72873">
        <ele>451.47631835938</ele>
        <time>2012-05-16T13:16:20Z</time>
      </trkpt>
      <trkpt lat="46.85618" lon="5.72877">
        <ele>450.51501464844</ele>
        <time>2012-05-16T13:16:27Z</time>
      </trkpt>
      <trkpt lat="46.85625" lon="5.72882">
        <ele>449.5537109375</ele>
        <time>2012-05-16T13:16:33Z</time>
      </trkpt>
      <trkpt lat="46.85634" lon="5.72887">
        <ele>450.51501464844</ele>
        <time>2012-05-16T13:16:39Z</time>
      </trkpt>
      <trkpt lat="46.85646" lon="5.72893">
        <ele>451.95703125</ele>
        <time>2012-05-16T13:16:48Z</time>
      </trkpt>
      <trkpt lat="46.85656" lon="5.72899">
        <ele>453.39892578125</ele>
        <time>2012-05-16T13:16:55Z</time>
      </trkpt>
      <trkpt lat="46.85666" lon="5.72903">
        <ele>454.8408203125</ele>
        <time>2012-05-16T13:17:03Z</time>
      </trkpt>
      <trkpt lat="46.85675" lon="5.7291">
        <ele>455.80224609375</ele>
        <time>2012-05-16T13:17:11Z</time>
      </trkpt>
      <trkpt lat="46.85685" lon="5.72915">
        <ele>456.76354980469</ele>
        <time>2012-05-16T13:17:19Z</time>
      </trkpt>
      <trkpt lat="46.85688" lon="5.72918">
        <ele>456.28295898438</ele>
        <time>2012-05-16T13:17:22Z</time>
      </trkpt>
      <trkpt lat="46.85698" lon="5.72925">
        <ele>457.24426269531</ele>
        <time>2012-05-16T13:17:30Z</time>
      </trkpt>
      <trkpt lat="46.85707" lon="5.72931">
        <ele>457.24426269531</ele>
        <time>2012-05-16T13:17:37Z</time>
      </trkpt>
      <trkpt lat="46.85715" lon="5.72937">
        <ele>457.24426269531</ele>
        <time>2012-05-16T13:17:43Z</time>
      </trkpt>
      <trkpt lat="46.85722" lon="5.72941">
        <ele>457.24426269531</ele>
        <time>2012-05-16T13:17:49Z</time>
      </trkpt>
      <trkpt lat="46.85729" lon="5.72944">
        <ele>456.76354980469</ele>
        <time>2012-05-16T13:17:55Z</time>
      </trkpt>
      <trkpt lat="46.85739" lon="5.72949">
        <ele>457.24426269531</ele>
        <time>2012-05-16T13:18:03Z</time>
      </trkpt>
      <trkpt lat="46.85747" lon="5.72955">
        <ele>457.72497558594</ele>
        <time>2012-05-16T13:18:09Z</time>
      </trkpt>
      <trkpt lat="46.85749" lon="5.72957">
        <ele>458.20556640625</ele>
        <time>2012-05-16T13:18:11Z</time>
      </trkpt>
      <trkpt lat="46.85761" lon="5.72967">
        <ele>459.16687011719</ele>
        <time>2012-05-16T13:18:17Z</time>
      </trkpt>
      <trkpt lat="46.85775" lon="5.7298">
        <ele>460.60876464844</ele>
        <time>2012-05-16T13:18:23Z</time>
      </trkpt>
      <trkpt lat="46.85781" lon="5.72989">
        <ele>461.57019042969</ele>
        <time>2012-05-16T13:18:27Z</time>
      </trkpt>
      <trkpt lat="46.85788" lon="5.72996">
        <ele>463.01208496094</ele>
        <time>2012-05-16T13:18:32Z</time>
      </trkpt>
      <trkpt lat="46.858" lon="5.73005">
        <ele>463.49279785156</ele>
        <time>2012-05-16T13:18:40Z</time>
      </trkpt>
      <trkpt lat="46.8581" lon="5.73013">
        <ele>465.41552734375</ele>
        <time>2012-05-16T13:18:47Z</time>
      </trkpt>
      <trkpt lat="46.8582" lon="5.73017">
        <ele>466.37670898438</ele>
        <time>2012-05-16T13:18:54Z</time>
      </trkpt>
      <trkpt lat="46.8583" lon="5.73023">
        <ele>466.37670898438</ele>
        <time>2012-05-16T13:19:01Z</time>
      </trkpt>
      <trkpt lat="46.85836" lon="5.73026">
        <ele>466.37670898438</ele>
        <time>2012-05-16T13:19:06Z</time>
      </trkpt>
      <trkpt lat="46.85841" lon="5.73032">
        <ele>466.37670898438</ele>
        <time>2012-05-16T13:19:10Z</time>
      </trkpt>
      <trkpt lat="46.85851" lon="5.73037">
        <ele>465.41552734375</ele>
        <time>2012-05-16T13:19:16Z</time>
      </trkpt>
      <trkpt lat="46.85859" lon="5.7304">
        <ele>463.97338867188</ele>
        <time>2012-05-16T13:19:20Z</time>
      </trkpt>
      <trkpt lat="46.85867" lon="5.73048">
        <ele>463.01208496094</ele>
        <time>2012-05-16T13:19:26Z</time>
      </trkpt>
      <trkpt lat="46.85868" lon="5.73049">
        <ele>463.01208496094</ele>
        <time>2012-05-16T13:19:27Z</time>
      </trkpt>
      <trkpt lat="46.85879" lon="5.73056">
        <ele>462.05078125</ele>
        <time>2012-05-16T13:19:34Z</time>
      </trkpt>
      <trkpt lat="46.85887" lon="5.73063">
        <ele>463.01208496094</ele>
        <time>2012-05-16T13:19:40Z</time>
      </trkpt>
      <trkpt lat="46.85894" lon="5.7307">
        <ele>462.53137207031</ele>
        <time>2012-05-16T13:19:47Z</time>
      </trkpt>
      <trkpt lat="46.85903" lon="5.73079">
        <ele>464.4541015625</ele>
        <time>2012-05-16T13:19:55Z</time>
      </trkpt>
      <trkpt lat="46.85913" lon="5.73087">
        <ele>464.4541015625</ele>
        <time>2012-05-16T13:20:03Z</time>
      </trkpt>
      <trkpt lat="46.85914" lon="5.73089">
        <ele>464.4541015625</ele>
        <time>2012-05-16T13:20:04Z</time>
      </trkpt>
      <trkpt lat="46.85924" lon="5.73097">
        <ele>468.29931640625</ele>
        <time>2012-05-16T13:20:12Z</time>
      </trkpt>
      <trkpt lat="46.85937" lon="5.73108">
        <ele>470.22192382812</ele>
        <time>2012-05-16T13:20:22Z</time>
      </trkpt>
      <trkpt lat="46.85947" lon="5.73116">
        <ele>470.70263671875</ele>
        <time>2012-05-16T13:20:27Z</time>
      </trkpt>
      <trkpt lat="46.85957" lon="5.73125">
        <ele>470.70263671875</ele>
        <time>2012-05-16T13:20:32Z</time>
      </trkpt>
      <trkpt lat="46.85967" lon="5.73136">
        <ele>469.2607421875</ele>
        <time>2012-05-16T13:20:38Z</time>
      </trkpt>
      <trkpt lat="46.85979" lon="5.73148">
        <ele>468.29931640625</ele>
        <time>2012-05-16T13:20:44Z</time>
      </trkpt>
      <trkpt lat="46.85989" lon="5.7316">
        <ele>468.29931640625</ele>
        <time>2012-05-16T13:20:50Z</time>
      </trkpt>
      <trkpt lat="46.85999" lon="5.73169">
        <ele>470.22192382812</ele>
        <time>2012-05-16T13:20:56Z</time>
      </trkpt>
      <trkpt lat="46.8601" lon="5.73178">
        <ele>468.78002929688</ele>
        <time>2012-05-16T13:21:02Z</time>
      </trkpt>
      <trkpt lat="46.86018" lon="5.73186">
        <ele>468.78002929688</ele>
        <time>2012-05-16T13:21:07Z</time>
      </trkpt>
      <trkpt lat="46.86028" lon="5.73197">
        <ele>467.81872558594</ele>
        <time>2012-05-16T13:21:12Z</time>
      </trkpt>
      <trkpt lat="46.86036" lon="5.73207">
        <ele>466.857421875</ele>
        <time>2012-05-16T13:21:16Z</time>
      </trkpt>
      <trkpt lat="46.86038" lon="5.73209">
        <ele>466.857421875</ele>
        <time>2012-05-16T13:21:17Z</time>
      </trkpt>
      <trkpt lat="46.86047" lon="5.73223">
        <ele>465.41552734375</ele>
        <time>2012-05-16T13:21:23Z</time>
      </trkpt>
      <trkpt lat="46.86053" lon="5.73231">
        <ele>464.4541015625</ele>
        <time>2012-05-16T13:21:26Z</time>
      </trkpt>
      <trkpt lat="46.86055" lon="5.73233">
        <ele>463.97338867188</ele>
        <time>2012-05-16T13:21:27Z</time>
      </trkpt>
      <trkpt lat="46.8606" lon="5.7324">
        <ele>464.4541015625</ele>
        <time>2012-05-16T13:21:30Z</time>
      </trkpt>
      <trkpt lat="46.86071" lon="5.73252">
        <ele>466.37670898438</ele>
        <time>2012-05-16T13:21:35Z</time>
      </trkpt>
      <trkpt lat="46.86081" lon="5.73264">
        <ele>468.29931640625</ele>
        <time>2012-05-16T13:21:41Z</time>
      </trkpt>
      <trkpt lat="46.86087" lon="5.73272">
        <ele>468.78002929688</ele>
        <time>2012-05-16T13:21:46Z</time>
      </trkpt>
      <trkpt lat="46.86098" lon="5.73283">
        <ele>470.70263671875</ele>
        <time>2012-05-16T13:21:51Z</time>
      </trkpt>
      <trkpt lat="46.86108" lon="5.73293">
        <ele>471.18334960938</ele>
        <time>2012-05-16T13:21:56Z</time>
      </trkpt>
      <trkpt lat="46.86115" lon="5.73302">
        <ele>471.66394042969</ele>
        <time>2012-05-16T13:22:00Z</time>
      </trkpt>
      <trkpt lat="46.86125" lon="5.73311">
        <ele>472.14465332031</ele>
        <time>2012-05-16T13:22:05Z</time>
      </trkpt>
      <trkpt lat="46.86134" lon="5.73324">
        <ele>471.18334960938</ele>
        <time>2012-05-16T13:22:10Z</time>
      </trkpt>
      <trkpt lat="46.8614" lon="5.73337">
        <ele>469.74133300781</ele>
        <time>2012-05-16T13:22:15Z</time>
      </trkpt>
      <trkpt lat="46.86147" lon="5.73348">
        <ele>469.74133300781</ele>
        <time>2012-05-16T13:22:20Z</time>
      </trkpt>
      <trkpt lat="46.8615" lon="5.73354">
        <ele>469.2607421875</ele>
        <time>2012-05-16T13:22:25Z</time>
      </trkpt>
      <trkpt lat="46.86155" lon="5.73364">
        <ele>468.29931640625</ele>
        <time>2012-05-16T13:22:31Z</time>
      </trkpt>
      <trkpt lat="46.86163" lon="5.73375">
        <ele>468.78002929688</ele>
        <time>2012-05-16T13:22:38Z</time>
      </trkpt>
      <trkpt lat="46.86171" lon="5.73384">
        <ele>471.18334960938</ele>
        <time>2012-05-16T13:22:44Z</time>
      </trkpt>
      <trkpt lat="46.86177" lon="5.73391">
        <ele>472.14465332031</ele>
        <time>2012-05-16T13:22:49Z</time>
      </trkpt>
      <trkpt lat="46.86178" lon="5.73392">
        <ele>471.66394042969</ele>
        <time>2012-05-16T13:22:50Z</time>
      </trkpt>
      <trkpt lat="46.86181" lon="5.73397">
        <ele>470.70263671875</ele>
        <time>2012-05-16T13:22:53Z</time>
      </trkpt>
      <trkpt lat="46.86181" lon="5.73409">
        <ele>469.2607421875</ele>
        <time>2012-05-16T13:22:59Z</time>
      </trkpt>
      <trkpt lat="46.8618" lon="5.7342">
        <ele>470.22192382812</ele>
        <time>2012-05-16T13:23:05Z</time>
      </trkpt>
      <trkpt lat="46.8618" lon="5.73432">
        <ele>473.58666992188</ele>
        <time>2012-05-16T13:23:11Z</time>
      </trkpt>
      <trkpt lat="46.86183" lon="5.7344">
        <ele>475.50927734375</ele>
        <time>2012-05-16T13:23:15Z</time>
      </trkpt>
      <trkpt lat="46.86185" lon="5.73452">
        <ele>477.91247558594</ele>
        <time>2012-05-16T13:23:21Z</time>
      </trkpt>
      <trkpt lat="46.86185" lon="5.73454">
        <ele>477.91247558594</ele>
        <time>2012-05-16T13:23:22Z</time>
      </trkpt>
      <trkpt lat="46.86189" lon="5.73463">
        <ele>479.3544921875</ele>
        <time>2012-05-16T13:23:27Z</time>
      </trkpt>
      <trkpt lat="46.86192" lon="5.73468">
        <ele>479.83508300781</ele>
        <time>2012-05-16T13:23:30Z</time>
      </trkpt>
      <trkpt lat="46.86193" lon="5.73478">
        <ele>479.83508300781</ele>
        <time>2012-05-16T13:23:35Z</time>
      </trkpt>
      <trkpt lat="46.86195" lon="5.73489">
        <ele>479.83508300781</ele>
        <time>2012-05-16T13:23:42Z</time>
      </trkpt>
      <trkpt lat="46.86195" lon="5.73493">
        <ele>479.83508300781</ele>
        <time>2012-05-16T13:23:44Z</time>
      </trkpt>
      <trkpt lat="46.86195" lon="5.73496">
        <ele>479.83508300781</ele>
        <time>2012-05-16T13:23:46Z</time>
      </trkpt>
      <trkpt lat="46.86193" lon="5.73506">
        <ele>482.23852539062</ele>
        <time>2012-05-16T13:23:52Z</time>
      </trkpt>
      <trkpt lat="46.86191" lon="5.73515">
        <ele>485.12243652344</ele>
        <time>2012-05-16T13:23:58Z</time>
      </trkpt>
      <trkpt lat="46.86186" lon="5.73519">
        <ele>487.52563476562</ele>
        <time>2012-05-16T13:24:03Z</time>
      </trkpt>
      <trkpt lat="46.86184" lon="5.73519">
        <ele>488.48718261719</ele>
        <time>2012-05-16T13:24:05Z</time>
      </trkpt>
      <trkpt lat="46.8618" lon="5.73518">
        <ele>488.9677734375</ele>
        <time>2012-05-16T13:24:09Z</time>
      </trkpt>
      <trkpt lat="46.86173" lon="5.73516">
        <ele>488.48718261719</ele>
        <time>2012-05-16T13:24:16Z</time>
      </trkpt>
      <trkpt lat="46.86166" lon="5.73513">
        <ele>488.9677734375</ele>
        <time>2012-05-16T13:24:21Z</time>
      </trkpt>
      <trkpt lat="46.86163" lon="5.73513">
        <ele>489.44836425781</ele>
        <time>2012-05-16T13:24:25Z</time>
      </trkpt>
      <trkpt lat="46.86159" lon="5.73509">
        <ele>488.48718261719</ele>
        <time>2012-05-16T13:24:30Z</time>
      </trkpt>
      <trkpt lat="46.86151" lon="5.73507">
        <ele>492.33239746094</ele>
        <time>2012-05-16T13:24:37Z</time>
      </trkpt>
      <trkpt lat="46.86146" lon="5.73505">
        <ele>493.77429199219</ele>
        <time>2012-05-16T13:24:43Z</time>
      </trkpt>
      <trkpt lat="46.86139" lon="5.73504">
        <ele>495.21618652344</ele>
        <time>2012-05-16T13:24:49Z</time>
      </trkpt>
      <trkpt lat="46.86134" lon="5.73503">
        <ele>497.13891601562</ele>
        <time>2012-05-16T13:24:54Z</time>
      </trkpt>
      <trkpt lat="46.86122" lon="5.73502">
        <ele>500.50354003906</ele>
        <time>2012-05-16T13:25:03Z</time>
      </trkpt>
      <trkpt lat="46.86118" lon="5.73501">
        <ele>501.94555664062</ele>
        <time>2012-05-16T13:25:06Z</time>
      </trkpt>
      <trkpt lat="46.86113" lon="5.735">
        <ele>501.94555664062</ele>
        <time>2012-05-16T13:25:11Z</time>
      </trkpt>
      <trkpt lat="46.86105" lon="5.73501">
        <ele>502.90673828125</ele>
        <time>2012-05-16T13:25:17Z</time>
      </trkpt>
      <trkpt lat="46.86096" lon="5.735">
        <ele>504.82946777344</ele>
        <time>2012-05-16T13:25:24Z</time>
      </trkpt>
      <trkpt lat="46.86093" lon="5.73499">
        <ele>505.79089355469</ele>
        <time>2012-05-16T13:25:28Z</time>
      </trkpt>
      <trkpt lat="46.86088" lon="5.73502">
        <ele>509.63610839844</ele>
        <time>2012-05-16T13:25:35Z</time>
      </trkpt>
      <trkpt lat="46.86086" lon="5.73505">
        <ele>510.11669921875</ele>
        <time>2012-05-16T13:25:37Z</time>
      </trkpt>
      <trkpt lat="46.86084" lon="5.73515">
        <ele>510.59729003906</ele>
        <time>2012-05-16T13:25:44Z</time>
      </trkpt>
      <trkpt lat="46.86084" lon="5.73518">
        <ele>510.11669921875</ele>
        <time>2012-05-16T13:25:46Z</time>
      </trkpt>
      <trkpt lat="46.86088" lon="5.73526">
        <ele>509.15539550781</ele>
        <time>2012-05-16T13:25:52Z</time>
      </trkpt>
      <trkpt lat="46.86094" lon="5.73535">
        <ele>510.11669921875</ele>
        <time>2012-05-16T13:25:59Z</time>
      </trkpt>
      <trkpt lat="46.86097" lon="5.73542">
        <ele>510.59729003906</ele>
        <time>2012-05-16T13:26:04Z</time>
      </trkpt>
      <trkpt lat="46.86097" lon="5.73545">
        <ele>510.59729003906</ele>
        <time>2012-05-16T13:26:06Z</time>
      </trkpt>
      <trkpt lat="46.86091" lon="5.73553">
        <ele>513.96203613281</ele>
        <time>2012-05-16T13:26:13Z</time>
      </trkpt>
      <trkpt lat="46.86087" lon="5.73553">
        <ele>516.365234375</ele>
        <time>2012-05-16T13:26:18Z</time>
      </trkpt>
      <trkpt lat="46.86081" lon="5.73548">
        <ele>516.365234375</ele>
        <time>2012-05-16T13:26:24Z</time>
      </trkpt>
      <trkpt lat="46.86077" lon="5.73546">
        <ele>517.80725097656</ele>
        <time>2012-05-16T13:26:27Z</time>
      </trkpt>
      <trkpt lat="46.86069" lon="5.73545">
        <ele>520.69128417969</ele>
        <time>2012-05-16T13:26:33Z</time>
      </trkpt>
      <trkpt lat="46.86065" lon="5.73545">
        <ele>523.09460449219</ele>
        <time>2012-05-16T13:26:37Z</time>
      </trkpt>
      <trkpt lat="46.86057" lon="5.73539">
        <ele>524.05578613281</ele>
        <time>2012-05-16T13:26:45Z</time>
      </trkpt>
      <trkpt lat="46.8605" lon="5.73535">
        <ele>525.49780273438</ele>
        <time>2012-05-16T13:26:52Z</time>
      </trkpt>
      <trkpt lat="46.86047" lon="5.73533">
        <ele>525.97839355469</ele>
        <time>2012-05-16T13:26:54Z</time>
      </trkpt>
      <trkpt lat="46.86042" lon="5.73532">
        <ele>525.49780273438</ele>
        <time>2012-05-16T13:26:58Z</time>
      </trkpt>
      <trkpt lat="46.86034" lon="5.73528">
        <ele>526.45910644531</ele>
        <time>2012-05-16T13:27:04Z</time>
      </trkpt>
      <trkpt lat="46.86028" lon="5.73526">
        <ele>525.97839355469</ele>
        <time>2012-05-16T13:27:09Z</time>
      </trkpt>
      <trkpt lat="46.86025" lon="5.73526">
        <ele>524.53649902344</ele>
        <time>2012-05-16T13:27:11Z</time>
      </trkpt>
      <trkpt lat="46.86018" lon="5.73522">
        <ele>527.90100097656</ele>
        <time>2012-05-16T13:27:18Z</time>
      </trkpt>
      <trkpt lat="46.86011" lon="5.73518">
        <ele>526.93981933594</ele>
        <time>2012-05-16T13:27:25Z</time>
      </trkpt>
      <trkpt lat="46.86005" lon="5.73515">
        <ele>527.90100097656</ele>
        <time>2012-05-16T13:27:30Z</time>
      </trkpt>
      <trkpt lat="46.85998" lon="5.73514">
        <ele>529.82373046875</ele>
        <time>2012-05-16T13:27:36Z</time>
      </trkpt>
      <trkpt lat="46.8599" lon="5.7351">
        <ele>531.26574707031</ele>
        <time>2012-05-16T13:27:41Z</time>
      </trkpt>
      <trkpt lat="46.85983" lon="5.73506">
        <ele>531.74633789062</ele>
        <time>2012-05-16T13:27:47Z</time>
      </trkpt>
      <trkpt lat="46.8598" lon="5.73504">
        <ele>532.22705078125</ele>
        <time>2012-05-16T13:27:49Z</time>
      </trkpt>
      <trkpt lat="46.85973" lon="5.73502">
        <ele>532.22705078125</ele>
        <time>2012-05-16T13:27:55Z</time>
      </trkpt>
      <trkpt lat="46.85967" lon="5.73497">
        <ele>532.70776367188</ele>
        <time>2012-05-16T13:28:00Z</time>
      </trkpt>
      <trkpt lat="46.85962" lon="5.73495">
        <ele>532.70776367188</ele>
        <time>2012-05-16T13:28:04Z</time>
      </trkpt>
      <trkpt lat="46.85958" lon="5.73494">
        <ele>533.18835449219</ele>
        <time>2012-05-16T13:28:07Z</time>
      </trkpt>
      <trkpt lat="46.85955" lon="5.73491">
        <ele>536.55310058594</ele>
        <time>2012-05-16T13:28:12Z</time>
      </trkpt>
      <trkpt lat="46.85952" lon="5.7349">
        <ele>537.51428222656</ele>
        <time>2012-05-16T13:28:14Z</time>
      </trkpt>
      <trkpt lat="46.85946" lon="5.73488">
        <ele>537.51428222656</ele>
        <time>2012-05-16T13:28:19Z</time>
      </trkpt>
      <trkpt lat="46.85939" lon="5.73486">
        <ele>537.99499511719</ele>
        <time>2012-05-16T13:28:25Z</time>
      </trkpt>
      <trkpt lat="46.85934" lon="5.73484">
        <ele>537.99499511719</ele>
        <time>2012-05-16T13:28:30Z</time>
      </trkpt>
      <trkpt lat="46.85931" lon="5.73485">
        <ele>538.95629882812</ele>
        <time>2012-05-16T13:28:33Z</time>
      </trkpt>
      <trkpt lat="46.85926" lon="5.73484">
        <ele>541.35949707031</ele>
        <time>2012-05-16T13:28:38Z</time>
      </trkpt>
      <trkpt lat="46.85923" lon="5.73482">
        <ele>542.80151367188</ele>
        <time>2012-05-16T13:28:42Z</time>
      </trkpt>
      <trkpt lat="46.85918" lon="5.73483">
        <ele>544.72424316406</ele>
        <time>2012-05-16T13:28:46Z</time>
      </trkpt>
      <trkpt lat="46.85913" lon="5.73484">
        <ele>546.16625976562</ele>
        <time>2012-05-16T13:28:50Z</time>
      </trkpt>
      <trkpt lat="46.8591" lon="5.73485">
        <ele>546.64685058594</ele>
        <time>2012-05-16T13:28:52Z</time>
      </trkpt>
      <trkpt lat="46.85907" lon="5.73487">
        <ele>547.12744140625</ele>
        <time>2012-05-16T13:28:55Z</time>
      </trkpt>
      <trkpt lat="46.85904" lon="5.73493">
        <ele>550.01147460938</ele>
        <time>2012-05-16T13:29:01Z</time>
      </trkpt>
      <trkpt lat="46.85906" lon="5.73502">
        <ele>547.60815429688</ele>
        <time>2012-05-16T13:29:08Z</time>
      </trkpt>
      <trkpt lat="46.85909" lon="5.73505">
        <ele>546.64685058594</ele>
        <time>2012-05-16T13:29:12Z</time>
      </trkpt>
      <trkpt lat="46.85912" lon="5.73512">
        <ele>545.685546875</ele>
        <time>2012-05-16T13:29:19Z</time>
      </trkpt>
      <trkpt lat="46.85916" lon="5.73517">
        <ele>546.16625976562</ele>
        <time>2012-05-16T13:29:25Z</time>
      </trkpt>
      <trkpt lat="46.8592" lon="5.73522">
        <ele>545.20483398438</ele>
        <time>2012-05-16T13:29:31Z</time>
      </trkpt>
      <trkpt lat="46.85922" lon="5.73523">
        <ele>545.685546875</ele>
        <time>2012-05-16T13:29:33Z</time>
      </trkpt>
      <trkpt lat="46.85927" lon="5.73528">
        <ele>548.0888671875</ele>
        <time>2012-05-16T13:29:37Z</time>
      </trkpt>
      <trkpt lat="46.85936" lon="5.73536">
        <ele>552.89526367188</ele>
        <time>2012-05-16T13:29:45Z</time>
      </trkpt>
      <trkpt lat="46.85939" lon="5.7354">
        <ele>553.3759765625</ele>
        <time>2012-05-16T13:29:49Z</time>
      </trkpt>
      <trkpt lat="46.85945" lon="5.73545">
        <ele>554.33740234375</ele>
        <time>2012-05-16T13:29:55Z</time>
      </trkpt>
      <trkpt lat="46.85946" lon="5.73547">
        <ele>554.81787109375</ele>
        <time>2012-05-16T13:29:59Z</time>
      </trkpt>
      <trkpt lat="46.85948" lon="5.73548">
        <ele>557.22143554688</ele>
        <time>2012-05-16T13:30:12Z</time>
      </trkpt>
      <trkpt lat="46.85952" lon="5.73551">
        <ele>556.74072265625</ele>
        <time>2012-05-16T13:30:19Z</time>
      </trkpt>
      <trkpt lat="46.85957" lon="5.73555">
        <ele>555.779296875</ele>
        <time>2012-05-16T13:30:24Z</time>
      </trkpt>
      <trkpt lat="46.85962" lon="5.73561">
        <ele>554.33740234375</ele>
        <time>2012-05-16T13:30:29Z</time>
      </trkpt>
      <trkpt lat="46.85968" lon="5.73566">
        <ele>553.85668945312</ele>
        <time>2012-05-16T13:30:35Z</time>
      </trkpt>
      <trkpt lat="46.85973" lon="5.7357">
        <ele>553.85668945312</ele>
        <time>2012-05-16T13:30:40Z</time>
      </trkpt>
      <trkpt lat="46.85975" lon="5.73571">
        <ele>554.33740234375</ele>
        <time>2012-05-16T13:30:41Z</time>
      </trkpt>
      <trkpt lat="46.85983" lon="5.73576">
        <ele>554.33740234375</ele>
        <time>2012-05-16T13:30:47Z</time>
      </trkpt>
      <trkpt lat="46.85989" lon="5.7358">
        <ele>555.29858398438</ele>
        <time>2012-05-16T13:30:52Z</time>
      </trkpt>
      <trkpt lat="46.85995" lon="5.73585">
        <ele>555.779296875</ele>
        <time>2012-05-16T13:30:58Z</time>
      </trkpt>
      <trkpt lat="46.85996" lon="5.73586">
        <ele>555.779296875</ele>
        <time>2012-05-16T13:30:59Z</time>
      </trkpt>
      <trkpt lat="46.86004" lon="5.73596">
        <ele>556.26000976562</ele>
        <time>2012-05-16T13:31:06Z</time>
      </trkpt>
      <trkpt lat="46.86009" lon="5.736">
        <ele>556.74072265625</ele>
        <time>2012-05-16T13:31:09Z</time>
      </trkpt>
      <trkpt lat="46.86019" lon="5.73606">
        <ele>560.10522460938</ele>
        <time>2012-05-16T13:31:15Z</time>
      </trkpt>
      <trkpt lat="46.86025" lon="5.73612">
        <ele>559.62475585938</ele>
        <time>2012-05-16T13:31:21Z</time>
      </trkpt>
      <trkpt lat="46.8603" lon="5.73617">
        <ele>559.14404296875</ele>
        <time>2012-05-16T13:31:26Z</time>
      </trkpt>
      <trkpt lat="46.86036" lon="5.73622">
        <ele>560.10522460938</ele>
        <time>2012-05-16T13:31:31Z</time>
      </trkpt>
      <trkpt lat="46.86043" lon="5.73628">
        <ele>561.06665039062</ele>
        <time>2012-05-16T13:31:36Z</time>
      </trkpt>
      <trkpt lat="46.86044" lon="5.73629">
        <ele>561.06665039062</ele>
        <time>2012-05-16T13:31:37Z</time>
      </trkpt>
      <trkpt lat="46.86053" lon="5.73639">
        <ele>562.02807617188</ele>
        <time>2012-05-16T13:31:45Z</time>
      </trkpt>
      <trkpt lat="46.8606" lon="5.73644">
        <ele>562.9892578125</ele>
        <time>2012-05-16T13:31:50Z</time>
      </trkpt>
      <trkpt lat="46.86063" lon="5.73648">
        <ele>561.54736328125</ele>
        <time>2012-05-16T13:31:54Z</time>
      </trkpt>
      <trkpt lat="46.86067" lon="5.73653">
        <ele>559.62475585938</ele>
        <time>2012-05-16T13:31:58Z</time>
      </trkpt>
      <trkpt lat="46.8607" lon="5.73657">
        <ele>558.18286132812</ele>
        <time>2012-05-16T13:32:02Z</time>
      </trkpt>
      <trkpt lat="46.86078" lon="5.73665">
        <ele>558.66333007812</ele>
        <time>2012-05-16T13:32:09Z</time>
      </trkpt>
      <trkpt lat="46.86083" lon="5.7367">
        <ele>558.66333007812</ele>
        <time>2012-05-16T13:32:13Z</time>
      </trkpt>
      <trkpt lat="46.86092" lon="5.73682">
        <ele>560.10522460938</ele>
        <time>2012-05-16T13:32:21Z</time>
      </trkpt>
      <trkpt lat="46.86095" lon="5.73689">
        <ele>559.14404296875</ele>
        <time>2012-05-16T13:32:25Z</time>
      </trkpt>
      <trkpt lat="46.86097" lon="5.73699">
        <ele>557.22143554688</ele>
        <time>2012-05-16T13:32:30Z</time>
      </trkpt>
      <trkpt lat="46.86098" lon="5.73706">
        <ele>555.29858398438</ele>
        <time>2012-05-16T13:32:34Z</time>
      </trkpt>
      <trkpt lat="46.86096" lon="5.73718">
        <ele>555.779296875</ele>
        <time>2012-05-16T13:32:42Z</time>
      </trkpt>
      <trkpt lat="46.86094" lon="5.73723">
        <ele>558.18286132812</ele>
        <time>2012-05-16T13:32:48Z</time>
      </trkpt>
      <trkpt lat="46.86093" lon="5.73732">
        <ele>559.62475585938</ele>
        <time>2012-05-16T13:32:55Z</time>
      </trkpt>
      <trkpt lat="46.86097" lon="5.73745">
        <ele>567.31518554688</ele>
        <time>2012-05-16T13:33:08Z</time>
      </trkpt>
      <trkpt lat="46.861" lon="5.73753">
        <ele>567.79565429688</ele>
        <time>2012-05-16T13:33:14Z</time>
      </trkpt>
      <trkpt lat="46.86107" lon="5.73768">
        <ele>564.43115234375</ele>
        <time>2012-05-16T13:33:23Z</time>
      </trkpt>
      <trkpt lat="46.86113" lon="5.73777">
        <ele>562.9892578125</ele>
        <time>2012-05-16T13:33:28Z</time>
      </trkpt>
      <trkpt lat="46.86117" lon="5.73784">
        <ele>564.91186523438</ele>
        <time>2012-05-16T13:33:32Z</time>
      </trkpt>
      <trkpt lat="46.86123" lon="5.73793">
        <ele>565.87329101562</ele>
        <time>2012-05-16T13:33:39Z</time>
      </trkpt>
      <trkpt lat="46.8613" lon="5.73802">
        <ele>564.91186523438</ele>
        <time>2012-05-16T13:33:45Z</time>
      </trkpt>
      <trkpt lat="46.86136" lon="5.73809">
        <ele>565.87329101562</ele>
        <time>2012-05-16T13:33:50Z</time>
      </trkpt>
      <trkpt lat="46.86143" lon="5.73817">
        <ele>567.79565429688</ele>
        <time>2012-05-16T13:33:56Z</time>
      </trkpt>
      <trkpt lat="46.86149" lon="5.73823">
        <ele>568.2763671875</ele>
        <time>2012-05-16T13:34:01Z</time>
      </trkpt>
      <trkpt lat="46.86155" lon="5.7383">
        <ele>567.79565429688</ele>
        <time>2012-05-16T13:34:07Z</time>
      </trkpt>
      <trkpt lat="46.8616" lon="5.73836">
        <ele>567.31518554688</ele>
        <time>2012-05-16T13:34:12Z</time>
      </trkpt>
      <trkpt lat="46.86167" lon="5.73847">
        <ele>568.2763671875</ele>
        <time>2012-05-16T13:34:20Z</time>
      </trkpt>
      <trkpt lat="46.86174" lon="5.73857">
        <ele>570.19897460938</ele>
        <time>2012-05-16T13:34:27Z</time>
      </trkpt>
      <trkpt lat="46.86181" lon="5.73864">
        <ele>571.64086914062</ele>
        <time>2012-05-16T13:34:33Z</time>
      </trkpt>
      <trkpt lat="46.86183" lon="5.73868">
        <ele>572.12182617188</ele>
        <time>2012-05-16T13:34:36Z</time>
      </trkpt>
      <trkpt lat="46.86189" lon="5.73877">
        <ele>572.12182617188</ele>
        <time>2012-05-16T13:34:41Z</time>
      </trkpt>
      <trkpt lat="46.86195" lon="5.73895">
        <ele>573.56396484375</ele>
        <time>2012-05-16T13:34:48Z</time>
      </trkpt>
      <trkpt lat="46.862" lon="5.73908">
        <ele>574.04443359375</ele>
        <time>2012-05-16T13:34:53Z</time>
      </trkpt>
      <trkpt lat="46.86205" lon="5.73916">
        <ele>577.4091796875</ele>
        <time>2012-05-16T13:34:58Z</time>
      </trkpt>
      <trkpt lat="46.8621" lon="5.73925">
        <ele>577.8896484375</ele>
        <time>2012-05-16T13:35:04Z</time>
      </trkpt>
      <trkpt lat="46.86212" lon="5.73929">
        <ele>578.37036132812</ele>
        <time>2012-05-16T13:35:07Z</time>
      </trkpt>
      <trkpt lat="46.86215" lon="5.73937">
        <ele>579.81225585938</ele>
        <time>2012-05-16T13:35:11Z</time>
      </trkpt>
      <trkpt lat="46.86224" lon="5.73956">
        <ele>582.21557617188</ele>
        <time>2012-05-16T13:35:21Z</time>
      </trkpt>
      <trkpt lat="46.86233" lon="5.73968">
        <ele>583.65747070312</ele>
        <time>2012-05-16T13:35:29Z</time>
      </trkpt>
      <trkpt lat="46.86236" lon="5.73976">
        <ele>584.61889648438</ele>
        <time>2012-05-16T13:35:34Z</time>
      </trkpt>
      <trkpt lat="46.86241" lon="5.73981">
        <ele>585.580078125</ele>
        <time>2012-05-16T13:35:39Z</time>
      </trkpt>
      <trkpt lat="46.86246" lon="5.73985">
        <ele>584.13818359375</ele>
        <time>2012-05-16T13:35:45Z</time>
      </trkpt>
      <trkpt lat="46.86251" lon="5.73993">
        <ele>579.81225585938</ele>
        <time>2012-05-16T13:35:52Z</time>
      </trkpt>
      <trkpt lat="46.86252" lon="5.73994">
        <ele>578.85107421875</ele>
        <time>2012-05-16T13:35:53Z</time>
      </trkpt>
      <trkpt lat="46.86255" lon="5.74001">
        <ele>575.96704101562</ele>
        <time>2012-05-16T13:35:59Z</time>
      </trkpt>
      <trkpt lat="46.86263" lon="5.74009">
        <ele>575.486328125</ele>
        <time>2012-05-16T13:36:06Z</time>
      </trkpt>
      <trkpt lat="46.86272" lon="5.74015">
        <ele>577.8896484375</ele>
        <time>2012-05-16T13:36:11Z</time>
      </trkpt>
      <trkpt lat="46.86282" lon="5.74025">
        <ele>578.85107421875</ele>
        <time>2012-05-16T13:36:15Z</time>
      </trkpt>
      <trkpt lat="46.86288" lon="5.7403">
        <ele>580.77368164062</ele>
        <time>2012-05-16T13:36:17Z</time>
      </trkpt>
      <trkpt lat="46.86304" lon="5.74043">
        <ele>585.099609375</ele>
        <time>2012-05-16T13:36:23Z</time>
      </trkpt>
      <trkpt lat="46.86313" lon="5.74052">
        <ele>587.02197265625</ele>
        <time>2012-05-16T13:36:27Z</time>
      </trkpt>
      <trkpt lat="46.86324" lon="5.74063">
        <ele>588.94506835938</ele>
        <time>2012-05-16T13:36:32Z</time>
      </trkpt>
      <trkpt lat="46.86333" lon="5.7407">
        <ele>589.42553710938</ele>
        <time>2012-05-16T13:36:37Z</time>
      </trkpt>
      <trkpt lat="46.8634" lon="5.74075">
        <ele>588.94506835938</ele>
        <time>2012-05-16T13:36:43Z</time>
      </trkpt>
      <trkpt lat="46.86345" lon="5.74081">
        <ele>586.54150390625</ele>
        <time>2012-05-16T13:36:47Z</time>
      </trkpt>
      <trkpt lat="46.86349" lon="5.74086">
        <ele>586.54150390625</ele>
        <time>2012-05-16T13:36:50Z</time>
      </trkpt>
      <trkpt lat="46.86349" lon="5.74088">
        <ele>586.06079101562</ele>
        <time>2012-05-16T13:36:52Z</time>
      </trkpt>
      <trkpt lat="46.86354" lon="5.74097">
        <ele>585.099609375</ele>
        <time>2012-05-16T13:36:59Z</time>
      </trkpt>
      <trkpt lat="46.86361" lon="5.74107">
        <ele>582.21557617188</ele>
        <time>2012-05-16T13:37:06Z</time>
      </trkpt>
      <trkpt lat="46.86367" lon="5.74113">
        <ele>580.77368164062</ele>
        <time>2012-05-16T13:37:12Z</time>
      </trkpt>
      <trkpt lat="46.86369" lon="5.74118">
        <ele>579.81225585938</ele>
        <time>2012-05-16T13:37:16Z</time>
      </trkpt>
      <trkpt lat="46.86375" lon="5.74123">
        <ele>578.37036132812</ele>
        <time>2012-05-16T13:37:21Z</time>
      </trkpt>
      <trkpt lat="46.8638" lon="5.74127">
        <ele>579.33154296875</ele>
        <time>2012-05-16T13:37:25Z</time>
      </trkpt>
      <trkpt lat="46.86384" lon="5.74132">
        <ele>579.81225585938</ele>
        <time>2012-05-16T13:37:30Z</time>
      </trkpt>
      <trkpt lat="46.86392" lon="5.74141">
        <ele>580.29296875</ele>
        <time>2012-05-16T13:37:36Z</time>
      </trkpt>
      <trkpt lat="46.86399" lon="5.7415">
        <ele>581.25439453125</ele>
        <time>2012-05-16T13:37:40Z</time>
      </trkpt>
      <trkpt lat="46.86406" lon="5.74161">
        <ele>578.85107421875</ele>
        <time>2012-05-16T13:37:45Z</time>
      </trkpt>
      <trkpt lat="46.86411" lon="5.74172">
        <ele>576.92846679688</ele>
        <time>2012-05-16T13:37:50Z</time>
      </trkpt>
      <trkpt lat="46.86422" lon="5.74187">
        <ele>577.4091796875</ele>
        <time>2012-05-16T13:37:56Z</time>
      </trkpt>
      <trkpt lat="46.8643" lon="5.74199">
        <ele>575.96704101562</ele>
        <time>2012-05-16T13:38:01Z</time>
      </trkpt>
      <trkpt lat="46.8644" lon="5.74208">
        <ele>575.96704101562</ele>
        <time>2012-05-16T13:38:05Z</time>
      </trkpt>
      <trkpt lat="46.86449" lon="5.74214">
        <ele>574.52514648438</ele>
        <time>2012-05-16T13:38:09Z</time>
      </trkpt>
      <trkpt lat="46.86459" lon="5.74227">
        <ele>573.56396484375</ele>
        <time>2012-05-16T13:38:15Z</time>
      </trkpt>
      <trkpt lat="46.86466" lon="5.74234">
        <ele>573.56396484375</ele>
        <time>2012-05-16T13:38:19Z</time>
      </trkpt>
      <trkpt lat="46.86477" lon="5.74245">
        <ele>574.52514648438</ele>
        <time>2012-05-16T13:38:24Z</time>
      </trkpt>
      <trkpt lat="46.86488" lon="5.74254">
        <ele>575.96704101562</ele>
        <time>2012-05-16T13:38:30Z</time>
      </trkpt>
      <trkpt lat="46.86497" lon="5.74259">
        <ele>576.92846679688</ele>
        <time>2012-05-16T13:38:35Z</time>
      </trkpt>
      <trkpt lat="46.86498" lon="5.74259">
        <ele>576.92846679688</ele>
        <time>2012-05-16T13:38:36Z</time>
      </trkpt>
      <trkpt lat="46.86501" lon="5.74264">
        <ele>575.96704101562</ele>
        <time>2012-05-16T13:38:38Z</time>
      </trkpt>
      <trkpt lat="46.86514" lon="5.74271">
        <ele>575.486328125</ele>
        <time>2012-05-16T13:38:44Z</time>
      </trkpt>
      <trkpt lat="46.86526" lon="5.74269">
        <ele>574.52514648438</ele>
        <time>2012-05-16T13:38:49Z</time>
      </trkpt>
      <trkpt lat="46.86535" lon="5.74273">
        <ele>573.56396484375</ele>
        <time>2012-05-16T13:38:53Z</time>
      </trkpt>
      <trkpt lat="46.86543" lon="5.74283">
        <ele>573.08325195312</ele>
        <time>2012-05-16T13:38:58Z</time>
      </trkpt>
      <trkpt lat="46.86546" lon="5.74296">
        <ele>572.12182617188</ele>
        <time>2012-05-16T13:39:02Z</time>
      </trkpt>
      <trkpt lat="46.86551" lon="5.74317">
        <ele>571.16040039062</ele>
        <time>2012-05-16T13:39:09Z</time>
      </trkpt>
      <trkpt lat="46.86558" lon="5.74329">
        <ele>570.6796875</ele>
        <time>2012-05-16T13:39:13Z</time>
      </trkpt>
      <trkpt lat="46.86559" lon="5.74332">
        <ele>570.6796875</ele>
        <time>2012-05-16T13:39:14Z</time>
      </trkpt>
      <trkpt lat="46.86567" lon="5.74352">
        <ele>570.6796875</ele>
        <time>2012-05-16T13:39:21Z</time>
      </trkpt>
      <trkpt lat="46.8657" lon="5.74364">
        <ele>571.16040039062</ele>
        <time>2012-05-16T13:39:26Z</time>
      </trkpt>
      <trkpt lat="46.86574" lon="5.7438">
        <ele>571.16040039062</ele>
        <time>2012-05-16T13:39:32Z</time>
      </trkpt>
      <trkpt lat="46.86582" lon="5.74397">
        <ele>570.6796875</ele>
        <time>2012-05-16T13:39:38Z</time>
      </trkpt>
      <trkpt lat="46.8659" lon="5.74414">
        <ele>570.6796875</ele>
        <time>2012-05-16T13:39:45Z</time>
      </trkpt>
      <trkpt lat="46.86598" lon="5.74429">
        <ele>572.6025390625</ele>
        <time>2012-05-16T13:39:51Z</time>
      </trkpt>
      <trkpt lat="46.86606" lon="5.74443">
        <ele>575.005859375</ele>
        <time>2012-05-16T13:39:56Z</time>
      </trkpt>
      <trkpt lat="46.8661" lon="5.74455">
        <ele>574.52514648438</ele>
        <time>2012-05-16T13:40:02Z</time>
      </trkpt>
      <trkpt lat="46.86613" lon="5.74465">
        <ele>574.04443359375</ele>
        <time>2012-05-16T13:40:08Z</time>
      </trkpt>
      <trkpt lat="46.86614" lon="5.74469">
        <ele>574.52514648438</ele>
        <time>2012-05-16T13:40:12Z</time>
      </trkpt>
      <trkpt lat="46.86617" lon="5.74475">
        <ele>573.08325195312</ele>
        <time>2012-05-16T13:40:16Z</time>
      </trkpt>
      <trkpt lat="46.86626" lon="5.74485">
        <ele>575.005859375</ele>
        <time>2012-05-16T13:40:22Z</time>
      </trkpt>
      <trkpt lat="46.86633" lon="5.74496">
        <ele>573.08325195312</ele>
        <time>2012-05-16T13:40:29Z</time>
      </trkpt>
      <trkpt lat="46.86637" lon="5.74504">
        <ele>570.19897460938</ele>
        <time>2012-05-16T13:40:34Z</time>
      </trkpt>
      <trkpt lat="46.86641" lon="5.74509">
        <ele>569.71850585938</ele>
        <time>2012-05-16T13:40:38Z</time>
      </trkpt>
      <trkpt lat="46.86656" lon="5.74521">
        <ele>569.71850585938</ele>
        <time>2012-05-16T13:40:45Z</time>
      </trkpt>
      <trkpt lat="46.86668" lon="5.74529">
        <ele>571.64086914062</ele>
        <time>2012-05-16T13:40:49Z</time>
      </trkpt>
      <trkpt lat="46.86677" lon="5.74535">
        <ele>572.12182617188</ele>
        <time>2012-05-16T13:40:53Z</time>
      </trkpt>
      <trkpt lat="46.86684" lon="5.74543">
        <ele>570.6796875</ele>
        <time>2012-05-16T13:40:57Z</time>
      </trkpt>
      <trkpt lat="46.86694" lon="5.74554">
        <ele>568.2763671875</ele>
        <time>2012-05-16T13:41:03Z</time>
      </trkpt>
      <trkpt lat="46.86703" lon="5.74564">
        <ele>566.35375976562</ele>
        <time>2012-05-16T13:41:08Z</time>
      </trkpt>
      <trkpt lat="46.86716" lon="5.74577">
        <ele>564.43115234375</ele>
        <time>2012-05-16T13:41:15Z</time>
      </trkpt>
      <trkpt lat="46.86728" lon="5.74592">
        <ele>562.02807617188</ele>
        <time>2012-05-16T13:41:22Z</time>
      </trkpt>
      <trkpt lat="46.86738" lon="5.74602">
        <ele>560.5859375</ele>
        <time>2012-05-16T13:41:28Z</time>
      </trkpt>
      <trkpt lat="46.86748" lon="5.74613">
        <ele>559.62475585938</ele>
        <time>2012-05-16T13:41:33Z</time>
      </trkpt>
      <trkpt lat="46.86758" lon="5.74625">
        <ele>559.14404296875</ele>
        <time>2012-05-16T13:41:39Z</time>
      </trkpt>
      <trkpt lat="46.86765" lon="5.74633">
        <ele>558.66333007812</ele>
        <time>2012-05-16T13:41:44Z</time>
      </trkpt>
      <trkpt lat="46.86768" lon="5.74637">
        <ele>557.7021484375</ele>
        <time>2012-05-16T13:41:46Z</time>
      </trkpt>
      <trkpt lat="46.86779" lon="5.74646">
        <ele>557.22143554688</ele>
        <time>2012-05-16T13:41:52Z</time>
      </trkpt>
      <trkpt lat="46.86785" lon="5.74652">
        <ele>555.779296875</ele>
        <time>2012-05-16T13:41:56Z</time>
      </trkpt>
      <trkpt lat="46.86787" lon="5.74655">
        <ele>555.779296875</ele>
        <time>2012-05-16T13:41:57Z</time>
      </trkpt>
      <trkpt lat="46.86794" lon="5.74659">
        <ele>556.26000976562</ele>
        <time>2012-05-16T13:42:00Z</time>
      </trkpt>
      <trkpt lat="46.86804" lon="5.7467">
        <ele>556.74072265625</ele>
        <time>2012-05-16T13:42:05Z</time>
      </trkpt>
      <trkpt lat="46.86814" lon="5.74677">
        <ele>557.7021484375</ele>
        <time>2012-05-16T13:42:10Z</time>
      </trkpt>
      <trkpt lat="46.86824" lon="5.74682">
        <ele>555.29858398438</ele>
        <time>2012-05-16T13:42:16Z</time>
      </trkpt>
      <trkpt lat="46.86837" lon="5.7469">
        <ele>554.81787109375</ele>
        <time>2012-05-16T13:42:22Z</time>
      </trkpt>
      <trkpt lat="46.86848" lon="5.74698">
        <ele>554.81787109375</ele>
        <time>2012-05-16T13:42:27Z</time>
      </trkpt>
      <trkpt lat="46.86867" lon="5.74705">
        <ele>563.46997070312</ele>
        <time>2012-05-16T13:42:32Z</time>
      </trkpt>
      <trkpt lat="46.86876" lon="5.7471">
        <ele>563.95043945312</ele>
        <time>2012-05-16T13:42:36Z</time>
      </trkpt>
      <trkpt lat="46.86885" lon="5.74717">
        <ele>560.5859375</ele>
        <time>2012-05-16T13:42:42Z</time>
      </trkpt>
      <trkpt lat="46.86894" lon="5.74722">
        <ele>558.66333007812</ele>
        <time>2012-05-16T13:42:47Z</time>
      </trkpt>
      <trkpt lat="46.86901" lon="5.74726">
        <ele>556.26000976562</ele>
        <time>2012-05-16T13:42:52Z</time>
      </trkpt>
      <trkpt lat="46.86909" lon="5.74734">
        <ele>552.89526367188</ele>
        <time>2012-05-16T13:42:58Z</time>
      </trkpt>
      <trkpt lat="46.86911" lon="5.74735">
        <ele>550.97265625</ele>
        <time>2012-05-16T13:43:00Z</time>
      </trkpt>
      <trkpt lat="46.86924" lon="5.7474">
        <ele>547.60815429688</ele>
        <time>2012-05-16T13:43:06Z</time>
      </trkpt>
      <trkpt lat="46.86929" lon="5.74744">
        <ele>549.05004882812</ele>
        <time>2012-05-16T13:43:08Z</time>
      </trkpt>
      <trkpt lat="46.86943" lon="5.74754">
        <ele>552.41455078125</ele>
        <time>2012-05-16T13:43:13Z</time>
      </trkpt>
      <trkpt lat="46.86954" lon="5.74764">
        <ele>552.41455078125</ele>
        <time>2012-05-16T13:43:19Z</time>
      </trkpt>
      <trkpt lat="46.86964" lon="5.74775">
        <ele>550.4921875</ele>
        <time>2012-05-16T13:43:24Z</time>
      </trkpt>
      <trkpt lat="46.86972" lon="5.74783">
        <ele>548.5693359375</ele>
        <time>2012-05-16T13:43:28Z</time>
      </trkpt>
      <trkpt lat="46.86983" lon="5.74791">
        <ele>548.5693359375</ele>
        <time>2012-05-16T13:43:33Z</time>
      </trkpt>
      <trkpt lat="46.86987" lon="5.74797">
        <ele>546.64685058594</ele>
        <time>2012-05-16T13:43:36Z</time>
      </trkpt>
      <trkpt lat="46.86995" lon="5.74806">
        <ele>544.72424316406</ele>
        <time>2012-05-16T13:43:41Z</time>
      </trkpt>
      <trkpt lat="46.87005" lon="5.74819">
        <ele>544.72424316406</ele>
        <time>2012-05-16T13:43:46Z</time>
      </trkpt>
      <trkpt lat="46.87014" lon="5.74831">
        <ele>539.91760253906</ele>
        <time>2012-05-16T13:43:52Z</time>
      </trkpt>
      <trkpt lat="46.87022" lon="5.74838">
        <ele>539.91760253906</ele>
        <time>2012-05-16T13:43:56Z</time>
      </trkpt>
      <trkpt lat="46.87033" lon="5.74852">
        <ele>542.80151367188</ele>
        <time>2012-05-16T13:44:01Z</time>
      </trkpt>
      <trkpt lat="46.87041" lon="5.74862">
        <ele>542.80151367188</ele>
        <time>2012-05-16T13:44:06Z</time>
      </trkpt>
      <trkpt lat="46.8705" lon="5.74874">
        <ele>543.76281738281</ele>
        <time>2012-05-16T13:44:11Z</time>
      </trkpt>
      <trkpt lat="46.87055" lon="5.74878">
        <ele>542.80151367188</ele>
        <time>2012-05-16T13:44:14Z</time>
      </trkpt>
      <trkpt lat="46.87061" lon="5.74886">
        <ele>541.84020996094</ele>
        <time>2012-05-16T13:44:19Z</time>
      </trkpt>
      <trkpt lat="46.87066" lon="5.74892">
        <ele>539.43688964844</ele>
        <time>2012-05-16T13:44:22Z</time>
      </trkpt>
      <trkpt lat="46.87071" lon="5.74901">
        <ele>537.03369140625</ele>
        <time>2012-05-16T13:44:26Z</time>
      </trkpt>
      <trkpt lat="46.87075" lon="5.74907">
        <ele>535.59155273438</ele>
        <time>2012-05-16T13:44:29Z</time>
      </trkpt>
      <trkpt lat="46.87083" lon="5.74912">
        <ele>535.11096191406</ele>
        <time>2012-05-16T13:44:33Z</time>
      </trkpt>
      <trkpt lat="46.87092" lon="5.74922">
        <ele>532.70776367188</ele>
        <time>2012-05-16T13:44:39Z</time>
      </trkpt>
      <trkpt lat="46.87101" lon="5.74933">
        <ele>529.82373046875</ele>
        <time>2012-05-16T13:44:44Z</time>
      </trkpt>
      <trkpt lat="46.87106" lon="5.74941">
        <ele>528.3818359375</ele>
        <time>2012-05-16T13:44:47Z</time>
      </trkpt>
      <trkpt lat="46.87119" lon="5.74961">
        <ele>527.42041015625</ele>
        <time>2012-05-16T13:44:54Z</time>
      </trkpt>
      <trkpt lat="46.87121" lon="5.74963">
        <ele>527.90100097656</ele>
        <time>2012-05-16T13:44:55Z</time>
      </trkpt>
      <trkpt lat="46.8713" lon="5.74978">
        <ele>526.45910644531</ele>
        <time>2012-05-16T13:45:02Z</time>
      </trkpt>
      <trkpt lat="46.8714" lon="5.74986">
        <ele>527.42041015625</ele>
        <time>2012-05-16T13:45:06Z</time>
      </trkpt>
      <trkpt lat="46.87144" lon="5.74998">
        <ele>530.30444335938</ele>
        <time>2012-05-16T13:45:11Z</time>
      </trkpt>
      <trkpt lat="46.87149" lon="5.7501">
        <ele>532.70776367188</ele>
        <time>2012-05-16T13:45:17Z</time>
      </trkpt>
      <trkpt lat="46.87153" lon="5.75016">
        <ele>530.78515625</ele>
        <time>2012-05-16T13:45:21Z</time>
      </trkpt>
      <trkpt lat="46.87155" lon="5.7502">
        <ele>530.78515625</ele>
        <time>2012-05-16T13:45:23Z</time>
      </trkpt>
      <trkpt lat="46.87159" lon="5.75022">
        <ele>531.26574707031</ele>
        <time>2012-05-16T13:45:25Z</time>
      </trkpt>
      <trkpt lat="46.87163" lon="5.75031">
        <ele>530.30444335938</ele>
        <time>2012-05-16T13:45:33Z</time>
      </trkpt>
      <trkpt lat="46.87167" lon="5.75039">
        <ele>528.86254882812</ele>
        <time>2012-05-16T13:45:38Z</time>
      </trkpt>
      <trkpt lat="46.8717" lon="5.75046">
        <ele>528.3818359375</ele>
        <time>2012-05-16T13:45:42Z</time>
      </trkpt>
      <trkpt lat="46.87175" lon="5.75053">
        <ele>527.90100097656</ele>
        <time>2012-05-16T13:45:46Z</time>
      </trkpt>
      <trkpt lat="46.87181" lon="5.75063">
        <ele>527.42041015625</ele>
        <time>2012-05-16T13:45:50Z</time>
      </trkpt>
      <trkpt lat="46.87186" lon="5.75075">
        <ele>527.90100097656</ele>
        <time>2012-05-16T13:45:56Z</time>
      </trkpt>
      <trkpt lat="46.87193" lon="5.7509">
        <ele>526.45910644531</ele>
        <time>2012-05-16T13:46:02Z</time>
      </trkpt>
      <trkpt lat="46.87198" lon="5.75103">
        <ele>525.49780273438</ele>
        <time>2012-05-16T13:46:07Z</time>
      </trkpt>
      <trkpt lat="46.87204" lon="5.75116">
        <ele>525.49780273438</ele>
        <time>2012-05-16T13:46:12Z</time>
      </trkpt>
      <trkpt lat="46.87211" lon="5.75132">
        <ele>525.97839355469</ele>
        <time>2012-05-16T13:46:18Z</time>
      </trkpt>
      <trkpt lat="46.87212" lon="5.75134">
        <ele>525.49780273438</ele>
        <time>2012-05-16T13:46:20Z</time>
      </trkpt>
      <trkpt lat="46.87215" lon="5.75141">
        <ele>526.93981933594</ele>
        <time>2012-05-16T13:46:25Z</time>
      </trkpt>
      <trkpt lat="46.87218" lon="5.75146">
        <ele>525.49780273438</ele>
        <time>2012-05-16T13:46:29Z</time>
      </trkpt>
      <trkpt lat="46.87223" lon="5.75151">
        <ele>525.97839355469</ele>
        <time>2012-05-16T13:46:33Z</time>
      </trkpt>
      <trkpt lat="46.87229" lon="5.75162">
        <ele>527.90100097656</ele>
        <time>2012-05-16T13:46:39Z</time>
      </trkpt>
      <trkpt lat="46.87234" lon="5.75169">
        <ele>526.93981933594</ele>
        <time>2012-05-16T13:46:45Z</time>
      </trkpt>
      <trkpt lat="46.87239" lon="5.75181">
        <ele>528.3818359375</ele>
        <time>2012-05-16T13:46:52Z</time>
      </trkpt>
      <trkpt lat="46.87246" lon="5.75189">
        <ele>531.74633789062</ele>
        <time>2012-05-16T13:46:57Z</time>
      </trkpt>
      <trkpt lat="46.87249" lon="5.75195">
        <ele>533.6689453125</ele>
        <time>2012-05-16T13:47:00Z</time>
      </trkpt>
      <trkpt lat="46.87257" lon="5.75203">
        <ele>537.51428222656</ele>
        <time>2012-05-16T13:47:05Z</time>
      </trkpt>
      <trkpt lat="46.87261" lon="5.7521">
        <ele>538.95629882812</ele>
        <time>2012-05-16T13:47:10Z</time>
      </trkpt>
      <trkpt lat="46.87262" lon="5.75212">
        <ele>538.95629882812</ele>
        <time>2012-05-16T13:47:11Z</time>
      </trkpt>
      <trkpt lat="46.87262" lon="5.75216">
        <ele>538.95629882812</ele>
        <time>2012-05-16T13:47:13Z</time>
      </trkpt>
      <trkpt lat="46.87263" lon="5.75223">
        <ele>539.91760253906</ele>
        <time>2012-05-16T13:47:18Z</time>
      </trkpt>
      <trkpt lat="46.87263" lon="5.7523">
        <ele>539.91760253906</ele>
        <time>2012-05-16T13:47:23Z</time>
      </trkpt>
      <trkpt lat="46.87263" lon="5.75241">
        <ele>539.91760253906</ele>
        <time>2012-05-16T13:47:29Z</time>
      </trkpt>
      <trkpt lat="46.87264" lon="5.75243">
        <ele>539.91760253906</ele>
        <time>2012-05-16T13:47:31Z</time>
      </trkpt>
      <trkpt lat="46.87265" lon="5.75253">
        <ele>538.95629882812</ele>
        <time>2012-05-16T13:47:37Z</time>
      </trkpt>
      <trkpt lat="46.87265" lon="5.75255">
        <ele>538.47570800781</ele>
        <time>2012-05-16T13:47:39Z</time>
      </trkpt>
      <trkpt lat="46.87265" lon="5.75265">
        <ele>535.11096191406</ele>
        <time>2012-05-16T13:47:46Z</time>
      </trkpt>
      <trkpt lat="46.87265" lon="5.75272">
        <ele>535.11096191406</ele>
        <time>2012-05-16T13:47:51Z</time>
      </trkpt>
      <trkpt lat="46.87263" lon="5.75274">
        <ele>534.63037109375</ele>
        <time>2012-05-16T13:47:53Z</time>
      </trkpt>
      <trkpt lat="46.87262" lon="5.75286">
        <ele>532.70776367188</ele>
        <time>2012-05-16T13:48:00Z</time>
      </trkpt>
      <trkpt lat="46.87263" lon="5.75302">
        <ele>537.51428222656</ele>
        <time>2012-05-16T13:48:07Z</time>
      </trkpt>
      <trkpt lat="46.87261" lon="5.75308">
        <ele>539.43688964844</ele>
        <time>2012-05-16T13:48:10Z</time>
      </trkpt>
      <trkpt lat="46.8726" lon="5.75315">
        <ele>540.39831542969</ele>
        <time>2012-05-16T13:48:14Z</time>
      </trkpt>
      <trkpt lat="46.87258" lon="5.75318">
        <ele>538.95629882812</ele>
        <time>2012-05-16T13:48:17Z</time>
      </trkpt>
      <trkpt lat="46.87258" lon="5.75321">
        <ele>546.16625976562</ele>
        <time>2012-05-16T13:48:24Z</time>
      </trkpt>
      <trkpt lat="46.87263" lon="5.75327">
        <ele>547.60815429688</ele>
        <time>2012-05-16T13:48:30Z</time>
      </trkpt>
      <trkpt lat="46.87271" lon="5.75332">
        <ele>547.12744140625</ele>
        <time>2012-05-16T13:48:37Z</time>
      </trkpt>
      <trkpt lat="46.87279" lon="5.75336">
        <ele>546.64685058594</ele>
        <time>2012-05-16T13:48:42Z</time>
      </trkpt>
      <trkpt lat="46.8728" lon="5.75336">
        <ele>546.64685058594</ele>
        <time>2012-05-16T13:48:43Z</time>
      </trkpt>
      <trkpt lat="46.8729" lon="5.75342">
        <ele>547.60815429688</ele>
        <time>2012-05-16T13:48:49Z</time>
      </trkpt>
      <trkpt lat="46.87297" lon="5.75343">
        <ele>546.64685058594</ele>
        <time>2012-05-16T13:48:52Z</time>
      </trkpt>
      <trkpt lat="46.87301" lon="5.75344">
        <ele>546.64685058594</ele>
        <time>2012-05-16T13:48:54Z</time>
      </trkpt>
      <trkpt lat="46.87313" lon="5.75347">
        <ele>545.20483398438</ele>
        <time>2012-05-16T13:48:59Z</time>
      </trkpt>
      <trkpt lat="46.87321" lon="5.75347">
        <ele>543.28210449219</ele>
        <time>2012-05-16T13:49:03Z</time>
      </trkpt>
      <trkpt lat="46.87337" lon="5.75352">
        <ele>542.80151367188</ele>
        <time>2012-05-16T13:49:09Z</time>
      </trkpt>
      <trkpt lat="46.87347" lon="5.75357">
        <ele>541.84020996094</ele>
        <time>2012-05-16T13:49:13Z</time>
      </trkpt>
      <trkpt lat="46.87355" lon="5.75362">
        <ele>541.35949707031</ele>
        <time>2012-05-16T13:49:17Z</time>
      </trkpt>
      <trkpt lat="46.87365" lon="5.75365">
        <ele>541.35949707031</ele>
        <time>2012-05-16T13:49:21Z</time>
      </trkpt>
      <trkpt lat="46.87369" lon="5.75366">
        <ele>540.87890625</ele>
        <time>2012-05-16T13:49:23Z</time>
      </trkpt>
      <trkpt lat="46.87381" lon="5.75362">
        <ele>540.39831542969</ele>
        <time>2012-05-16T13:49:28Z</time>
      </trkpt>
      <trkpt lat="46.87394" lon="5.7536">
        <ele>538.95629882812</ele>
        <time>2012-05-16T13:49:33Z</time>
      </trkpt>
      <trkpt lat="46.87403" lon="5.75363">
        <ele>538.47570800781</ele>
        <time>2012-05-16T13:49:37Z</time>
      </trkpt>
      <trkpt lat="46.87409" lon="5.75369">
        <ele>537.99499511719</ele>
        <time>2012-05-16T13:49:40Z</time>
      </trkpt>
      <trkpt lat="46.87419" lon="5.7538">
        <ele>536.55310058594</ele>
        <time>2012-05-16T13:49:45Z</time>
      </trkpt>
      <trkpt lat="46.87424" lon="5.75389">
        <ele>534.14965820312</ele>
        <time>2012-05-16T13:49:49Z</time>
      </trkpt>
      <trkpt lat="46.87432" lon="5.75404">
        <ele>531.74633789062</ele>
        <time>2012-05-16T13:49:55Z</time>
      </trkpt>
      <trkpt lat="46.87438" lon="5.75418">
        <ele>528.3818359375</ele>
        <time>2012-05-16T13:50:00Z</time>
      </trkpt>
      <trkpt lat="46.87439" lon="5.75421">
        <ele>527.90100097656</ele>
        <time>2012-05-16T13:50:01Z</time>
      </trkpt>
      <trkpt lat="46.87444" lon="5.7543">
        <ele>525.97839355469</ele>
        <time>2012-05-16T13:50:05Z</time>
      </trkpt>
      <trkpt lat="46.87458" lon="5.75448">
        <ele>525.49780273438</ele>
        <time>2012-05-16T13:50:13Z</time>
      </trkpt>
      <trkpt lat="46.87463" lon="5.75458">
        <ele>525.01721191406</ele>
        <time>2012-05-16T13:50:17Z</time>
      </trkpt>
      <trkpt lat="46.87466" lon="5.75462">
        <ele>524.05578613281</ele>
        <time>2012-05-16T13:50:19Z</time>
      </trkpt>
      <trkpt lat="46.87477" lon="5.75475">
        <ele>520.21057128906</ele>
        <time>2012-05-16T13:50:25Z</time>
      </trkpt>
      <trkpt lat="46.87482" lon="5.75487">
        <ele>520.69128417969</ele>
        <time>2012-05-16T13:50:29Z</time>
      </trkpt>
      <trkpt lat="46.87489" lon="5.75499">
        <ele>518.28784179688</ele>
        <time>2012-05-16T13:50:34Z</time>
      </trkpt>
      <trkpt lat="46.87491" lon="5.75501">
        <ele>517.80725097656</ele>
        <time>2012-05-16T13:50:36Z</time>
      </trkpt>
      <trkpt lat="46.87501" lon="5.75511">
        <ele>514.44262695312</ele>
        <time>2012-05-16T13:50:42Z</time>
      </trkpt>
      <trkpt lat="46.87511" lon="5.75518">
        <ele>513.4814453125</ele>
        <time>2012-05-16T13:50:46Z</time>
      </trkpt>
      <trkpt lat="46.87521" lon="5.75524">
        <ele>512.52001953125</ele>
        <time>2012-05-16T13:50:50Z</time>
      </trkpt>
      <trkpt lat="46.87534" lon="5.75528">
        <ele>510.11669921875</ele>
        <time>2012-05-16T13:50:55Z</time>
      </trkpt>
      <trkpt lat="46.87544" lon="5.75529">
        <ele>508.19409179688</ele>
        <time>2012-05-16T13:50:59Z</time>
      </trkpt>
      <trkpt lat="46.87553" lon="5.7553">
        <ele>505.79089355469</ele>
        <time>2012-05-16T13:51:03Z</time>
      </trkpt>
      <trkpt lat="46.87559" lon="5.75528">
        <ele>504.82946777344</ele>
        <time>2012-05-16T13:51:05Z</time>
      </trkpt>
      <trkpt lat="46.87571" lon="5.75527">
        <ele>502.90673828125</ele>
        <time>2012-05-16T13:51:10Z</time>
      </trkpt>
      <trkpt lat="46.87582" lon="5.75527">
        <ele>501.94555664062</ele>
        <time>2012-05-16T13:51:14Z</time>
      </trkpt>
      <trkpt lat="46.87595" lon="5.75526">
        <ele>500.02294921875</ele>
        <time>2012-05-16T13:51:19Z</time>
      </trkpt>
      <trkpt lat="46.87605" lon="5.75527">
        <ele>498.58093261719</ele>
        <time>2012-05-16T13:51:23Z</time>
      </trkpt>
      <trkpt lat="46.87617" lon="5.75529">
        <ele>498.10034179688</ele>
        <time>2012-05-16T13:51:28Z</time>
      </trkpt>
      <trkpt lat="46.8763" lon="5.75532">
        <ele>495.69689941406</ele>
        <time>2012-05-16T13:51:33Z</time>
      </trkpt>
      <trkpt lat="46.87642" lon="5.75533">
        <ele>495.21618652344</ele>
        <time>2012-05-16T13:51:38Z</time>
      </trkpt>
      <trkpt lat="46.87653" lon="5.75532">
        <ele>495.69689941406</ele>
        <time>2012-05-16T13:51:42Z</time>
      </trkpt>
      <trkpt lat="46.87663" lon="5.75533">
        <ele>494.73559570312</ele>
        <time>2012-05-16T13:51:47Z</time>
      </trkpt>
      <trkpt lat="46.87678" lon="5.75536">
        <ele>492.33239746094</ele>
        <time>2012-05-16T13:51:54Z</time>
      </trkpt>
      <trkpt lat="46.8769" lon="5.75539">
        <ele>491.37097167969</ele>
        <time>2012-05-16T13:51:59Z</time>
      </trkpt>
      <trkpt lat="46.877" lon="5.75537">
        <ele>490.89038085938</ele>
        <time>2012-05-16T13:52:03Z</time>
      </trkpt>
      <trkpt lat="46.87711" lon="5.75531">
        <ele>491.37097167969</ele>
        <time>2012-05-16T13:52:08Z</time>
      </trkpt>
      <trkpt lat="46.87721" lon="5.75523">
        <ele>490.40979003906</ele>
        <time>2012-05-16T13:52:12Z</time>
      </trkpt>
      <trkpt lat="46.8773" lon="5.75517">
        <ele>489.92907714844</ele>
        <time>2012-05-16T13:52:16Z</time>
      </trkpt>
      <trkpt lat="46.8774" lon="5.75508">
        <ele>489.92907714844</ele>
        <time>2012-05-16T13:52:20Z</time>
      </trkpt>
      <trkpt lat="46.87754" lon="5.75497">
        <ele>488.48718261719</ele>
        <time>2012-05-16T13:52:26Z</time>
      </trkpt>
      <trkpt lat="46.87769" lon="5.75488">
        <ele>487.52563476562</ele>
        <time>2012-05-16T13:52:32Z</time>
      </trkpt>
      <trkpt lat="46.87782" lon="5.75481">
        <ele>486.564453125</ele>
        <time>2012-05-16T13:52:37Z</time>
      </trkpt>
      <trkpt lat="46.87796" lon="5.75475">
        <ele>486.564453125</ele>
        <time>2012-05-16T13:52:43Z</time>
      </trkpt>
      <trkpt lat="46.87806" lon="5.75475">
        <ele>486.08374023438</ele>
        <time>2012-05-16T13:52:47Z</time>
      </trkpt>
      <trkpt lat="46.87818" lon="5.75478">
        <ele>484.64184570312</ele>
        <time>2012-05-16T13:52:52Z</time>
      </trkpt>
      <trkpt lat="46.87831" lon="5.75484">
        <ele>483.19982910156</ele>
        <time>2012-05-16T13:52:57Z</time>
      </trkpt>
      <trkpt lat="46.87833" lon="5.75484">
        <ele>483.68041992188</ele>
        <time>2012-05-16T13:52:58Z</time>
      </trkpt>
      <trkpt lat="46.87848" lon="5.75492">
        <ele>484.64184570312</ele>
        <time>2012-05-16T13:53:04Z</time>
      </trkpt>
      <trkpt lat="46.8786" lon="5.755">
        <ele>486.08374023438</ele>
        <time>2012-05-16T13:53:09Z</time>
      </trkpt>
      <trkpt lat="46.87871" lon="5.7551">
        <ele>486.564453125</ele>
        <time>2012-05-16T13:53:14Z</time>
      </trkpt>
      <trkpt lat="46.87878" lon="5.75516">
        <ele>485.60302734375</ele>
        <time>2012-05-16T13:53:18Z</time>
      </trkpt>
      <trkpt lat="46.87884" lon="5.75521">
        <ele>483.68041992188</ele>
        <time>2012-05-16T13:53:24Z</time>
      </trkpt>
      <trkpt lat="46.87892" lon="5.75527">
        <ele>481.7578125</ele>
        <time>2012-05-16T13:53:32Z</time>
      </trkpt>
      <trkpt lat="46.879" lon="5.75531">
        <ele>480.31591796875</ele>
        <time>2012-05-16T13:53:39Z</time>
      </trkpt>
      <trkpt lat="46.87907" lon="5.75531">
        <ele>479.83508300781</ele>
        <time>2012-05-16T13:53:45Z</time>
      </trkpt>
      <trkpt lat="46.87911" lon="5.75531">
        <ele>479.3544921875</ele>
        <time>2012-05-16T13:53:48Z</time>
      </trkpt>
      <trkpt lat="46.87922" lon="5.75539">
        <ele>477.91247558594</ele>
        <time>2012-05-16T13:53:56Z</time>
      </trkpt>
      <trkpt lat="46.87935" lon="5.75549">
        <ele>477.43188476562</ele>
        <time>2012-05-16T13:54:02Z</time>
      </trkpt>
      <trkpt lat="46.87949" lon="5.75558">
        <ele>478.39318847656</ele>
        <time>2012-05-16T13:54:08Z</time>
      </trkpt>
      <trkpt lat="46.87968" lon="5.75573">
        <ele>479.83508300781</ele>
        <time>2012-05-16T13:54:16Z</time>
      </trkpt>
      <trkpt lat="46.87979" lon="5.75583">
        <ele>480.79663085938</ele>
        <time>2012-05-16T13:54:21Z</time>
      </trkpt>
      <trkpt lat="46.87989" lon="5.7559">
        <ele>481.7578125</ele>
        <time>2012-05-16T13:54:25Z</time>
      </trkpt>
      <trkpt lat="46.88004" lon="5.75602">
        <ele>481.7578125</ele>
        <time>2012-05-16T13:54:32Z</time>
      </trkpt>
      <trkpt lat="46.88013" lon="5.75611">
        <ele>479.83508300781</ele>
        <time>2012-05-16T13:54:37Z</time>
      </trkpt>
      <trkpt lat="46.88022" lon="5.75621">
        <ele>478.87390136719</ele>
        <time>2012-05-16T13:54:42Z</time>
      </trkpt>
      <trkpt lat="46.88034" lon="5.75632">
        <ele>478.87390136719</ele>
        <time>2012-05-16T13:54:48Z</time>
      </trkpt>
      <trkpt lat="46.88044" lon="5.75641">
        <ele>477.91247558594</ele>
        <time>2012-05-16T13:54:53Z</time>
      </trkpt>
      <trkpt lat="46.88054" lon="5.75651">
        <ele>477.91247558594</ele>
        <time>2012-05-16T13:54:58Z</time>
      </trkpt>
      <trkpt lat="46.88062" lon="5.75659">
        <ele>478.39318847656</ele>
        <time>2012-05-16T13:55:02Z</time>
      </trkpt>
      <trkpt lat="46.88075" lon="5.7567">
        <ele>478.87390136719</ele>
        <time>2012-05-16T13:55:08Z</time>
      </trkpt>
      <trkpt lat="46.88086" lon="5.75679">
        <ele>477.91247558594</ele>
        <time>2012-05-16T13:55:13Z</time>
      </trkpt>
      <trkpt lat="46.88095" lon="5.7569">
        <ele>477.91247558594</ele>
        <time>2012-05-16T13:55:18Z</time>
      </trkpt>
      <trkpt lat="46.88104" lon="5.75699">
        <ele>475.98986816406</ele>
        <time>2012-05-16T13:55:23Z</time>
      </trkpt>
      <trkpt lat="46.88114" lon="5.75709">
        <ele>473.10607910156</ele>
        <time>2012-05-16T13:55:28Z</time>
      </trkpt>
      <trkpt lat="46.88123" lon="5.7572">
        <ele>470.22192382812</ele>
        <time>2012-05-16T13:55:33Z</time>
      </trkpt>
      <trkpt lat="46.88137" lon="5.75733">
        <ele>469.74133300781</ele>
        <time>2012-05-16T13:55:39Z</time>
      </trkpt>
      <trkpt lat="46.88139" lon="5.75736">
        <ele>468.78002929688</ele>
        <time>2012-05-16T13:55:40Z</time>
      </trkpt>
      <trkpt lat="46.88148" lon="5.75747">
        <ele>465.89611816406</ele>
        <time>2012-05-16T13:55:45Z</time>
      </trkpt>
      <trkpt lat="46.88158" lon="5.75757">
        <ele>462.53137207031</ele>
        <time>2012-05-16T13:55:50Z</time>
      </trkpt>
      <trkpt lat="46.88166" lon="5.75767">
        <ele>461.57019042969</ele>
        <time>2012-05-16T13:55:54Z</time>
      </trkpt>
      <trkpt lat="46.88173" lon="5.75779">
        <ele>459.64758300781</ele>
        <time>2012-05-16T13:55:58Z</time>
      </trkpt>
      <trkpt lat="46.88177" lon="5.75784">
        <ele>458.20556640625</ele>
        <time>2012-05-16T13:56:00Z</time>
      </trkpt>
      <trkpt lat="46.88185" lon="5.75794">
        <ele>456.76354980469</ele>
        <time>2012-05-16T13:56:04Z</time>
      </trkpt>
      <trkpt lat="46.88192" lon="5.75806">
        <ele>455.80224609375</ele>
        <time>2012-05-16T13:56:08Z</time>
      </trkpt>
      <trkpt lat="46.882" lon="5.75818">
        <ele>454.36022949219</ele>
        <time>2012-05-16T13:56:13Z</time>
      </trkpt>
      <trkpt lat="46.88202" lon="5.75821">
        <ele>453.87963867188</ele>
        <time>2012-05-16T13:56:14Z</time>
      </trkpt>
      <trkpt lat="46.88211" lon="5.75831">
        <ele>450.99560546875</ele>
        <time>2012-05-16T13:56:18Z</time>
      </trkpt>
      <trkpt lat="46.88215" lon="5.75836">
        <ele>451.47631835938</ele>
        <time>2012-05-16T13:56:20Z</time>
      </trkpt>
      <trkpt lat="46.88225" lon="5.75851">
        <ele>451.95703125</ele>
        <time>2012-05-16T13:56:25Z</time>
      </trkpt>
      <trkpt lat="46.88232" lon="5.75862">
        <ele>452.43762207031</ele>
        <time>2012-05-16T13:56:29Z</time>
      </trkpt>
      <trkpt lat="46.88243" lon="5.75879">
        <ele>452.91821289062</ele>
        <time>2012-05-16T13:56:35Z</time>
      </trkpt>
      <trkpt lat="46.88255" lon="5.75896">
        <ele>452.91821289062</ele>
        <time>2012-05-16T13:56:41Z</time>
      </trkpt>
      <trkpt lat="46.88263" lon="5.75909">
        <ele>452.43762207031</ele>
        <time>2012-05-16T13:56:46Z</time>
      </trkpt>
      <trkpt lat="46.88263" lon="5.75912">
        <ele>452.43762207031</ele>
        <time>2012-05-16T13:56:47Z</time>
      </trkpt>
      <trkpt lat="46.8827" lon="5.75921">
        <ele>451.47631835938</ele>
        <time>2012-05-16T13:56:51Z</time>
      </trkpt>
      <trkpt lat="46.88277" lon="5.75932">
        <ele>451.47631835938</ele>
        <time>2012-05-16T13:56:55Z</time>
      </trkpt>
      <trkpt lat="46.88283" lon="5.75941">
        <ele>451.95703125</ele>
        <time>2012-05-16T13:56:59Z</time>
      </trkpt>
      <trkpt lat="46.88288" lon="5.7595">
        <ele>451.47631835938</ele>
        <time>2012-05-16T13:57:02Z</time>
      </trkpt>
      <trkpt lat="46.88297" lon="5.75965">
        <ele>447.63098144531</ele>
        <time>2012-05-16T13:57:07Z</time>
      </trkpt>
      <trkpt lat="46.88305" lon="5.75978">
        <ele>449.5537109375</ele>
        <time>2012-05-16T13:57:12Z</time>
      </trkpt>
      <trkpt lat="46.88317" lon="5.75987">
        <ele>450.51501464844</ele>
        <time>2012-05-16T13:57:16Z</time>
      </trkpt>
      <trkpt lat="46.8832" lon="5.75992">
        <ele>450.03442382812</ele>
        <time>2012-05-16T13:57:19Z</time>
      </trkpt>
      <trkpt lat="46.88321" lon="5.75993">
        <ele>449.5537109375</ele>
        <time>2012-05-16T13:57:21Z</time>
      </trkpt>
      <trkpt lat="46.88324" lon="5.75999">
        <ele>449.5537109375</ele>
        <time>2012-05-16T13:57:25Z</time>
      </trkpt>
      <trkpt lat="46.88328" lon="5.76012">
        <ele>450.99560546875</ele>
        <time>2012-05-16T13:57:33Z</time>
      </trkpt>
      <trkpt lat="46.88328" lon="5.76011">
        <ele>450.99560546875</ele>
        <time>2012-05-16T13:57:36Z</time>
      </trkpt>
      <trkpt lat="46.88327" lon="5.76009">
        <ele>450.99560546875</ele>
        <time>2012-05-16T13:57:44Z</time>
      </trkpt>
      <trkpt lat="46.88327" lon="5.76015">
        <ele>451.47631835938</ele>
        <time>2012-05-16T13:57:49Z</time>
      </trkpt>
      <trkpt lat="46.88329" lon="5.76022">
        <ele>452.43762207031</ele>
        <time>2012-05-16T13:57:53Z</time>
      </trkpt>
      <trkpt lat="46.88334" lon="5.76036">
        <ele>452.91821289062</ele>
        <time>2012-05-16T13:58:00Z</time>
      </trkpt>
      <trkpt lat="46.88335" lon="5.7604">
        <ele>453.39892578125</ele>
        <time>2012-05-16T13:58:02Z</time>
      </trkpt>
      <trkpt lat="46.88338" lon="5.76056">
        <ele>455.80224609375</ele>
        <time>2012-05-16T13:58:10Z</time>
      </trkpt>
      <trkpt lat="46.88339" lon="5.76068">
        <ele>457.72497558594</ele>
        <time>2012-05-16T13:58:16Z</time>
      </trkpt>
      <trkpt lat="46.88339" lon="5.76085">
        <ele>458.68615722656</ele>
        <time>2012-05-16T13:58:24Z</time>
      </trkpt>
      <trkpt lat="46.88338" lon="5.76098">
        <ele>458.68615722656</ele>
        <time>2012-05-16T13:58:30Z</time>
      </trkpt>
      <trkpt lat="46.8834" lon="5.76112">
        <ele>457.72497558594</ele>
        <time>2012-05-16T13:58:37Z</time>
      </trkpt>
      <trkpt lat="46.88342" lon="5.76123">
        <ele>456.76354980469</ele>
        <time>2012-05-16T13:58:43Z</time>
      </trkpt>
      <trkpt lat="46.88346" lon="5.76132">
        <ele>454.36022949219</ele>
        <time>2012-05-16T13:58:48Z</time>
      </trkpt>
      <trkpt lat="46.88346" lon="5.76141">
        <ele>456.28295898438</ele>
        <time>2012-05-16T13:58:52Z</time>
      </trkpt>
      <trkpt lat="46.88346" lon="5.76155">
        <ele>461.57019042969</ele>
        <time>2012-05-16T13:58:58Z</time>
      </trkpt>
      <trkpt lat="46.88346" lon="5.76171">
        <ele>462.53137207031</ele>
        <time>2012-05-16T13:59:05Z</time>
      </trkpt>
      <trkpt lat="46.88346" lon="5.76174">
        <ele>463.01208496094</ele>
        <time>2012-05-16T13:59:07Z</time>
      </trkpt>
      <trkpt lat="46.88346" lon="5.76183">
        <ele>464.4541015625</ele>
        <time>2012-05-16T13:59:12Z</time>
      </trkpt>
      <trkpt lat="46.88348" lon="5.76186">
        <ele>464.93481445312</ele>
        <time>2012-05-16T13:59:14Z</time>
      </trkpt>
      <trkpt lat="46.88356" lon="5.76192">
        <ele>469.74133300781</ele>
        <time>2012-05-16T13:59:21Z</time>
      </trkpt>
      <trkpt lat="46.88362" lon="5.76191">
        <ele>472.62536621094</ele>
        <time>2012-05-16T13:59:26Z</time>
      </trkpt>
      <trkpt lat="46.88371" lon="5.76195">
        <ele>471.66394042969</ele>
        <time>2012-05-16T13:59:33Z</time>
      </trkpt>
      <trkpt lat="46.88379" lon="5.762">
        <ele>472.14465332031</ele>
        <time>2012-05-16T13:59:40Z</time>
      </trkpt>
      <trkpt lat="46.88386" lon="5.76207">
        <ele>472.62536621094</ele>
        <time>2012-05-16T13:59:47Z</time>
      </trkpt>
      <trkpt lat="46.88394" lon="5.76214">
        <ele>473.58666992188</ele>
        <time>2012-05-16T13:59:54Z</time>
      </trkpt>
      <trkpt lat="46.884" lon="5.7622">
        <ele>475.02868652344</ele>
        <time>2012-05-16T14:00:00Z</time>
      </trkpt>
      <trkpt lat="46.88403" lon="5.76222">
        <ele>475.98986816406</ele>
        <time>2012-05-16T14:00:03Z</time>
      </trkpt>
      <trkpt lat="46.88412" lon="5.7623">
        <ele>477.43188476562</ele>
        <time>2012-05-16T14:00:11Z</time>
      </trkpt>
      <trkpt lat="46.88414" lon="5.76232">
        <ele>477.91247558594</ele>
        <time>2012-05-16T14:00:14Z</time>
      </trkpt>
      <trkpt lat="46.8842" lon="5.7624">
        <ele>477.91247558594</ele>
        <time>2012-05-16T14:00:21Z</time>
      </trkpt>
      <trkpt lat="46.88426" lon="5.76248">
        <ele>477.43188476562</ele>
        <time>2012-05-16T14:00:27Z</time>
      </trkpt>
      <trkpt lat="46.88431" lon="5.76255">
        <ele>476.95129394531</ele>
        <time>2012-05-16T14:00:32Z</time>
      </trkpt>
      <trkpt lat="46.88435" lon="5.76266">
        <ele>477.91247558594</ele>
        <time>2012-05-16T14:00:38Z</time>
      </trkpt>
      <trkpt lat="46.88439" lon="5.76276">
        <ele>478.87390136719</ele>
        <time>2012-05-16T14:00:44Z</time>
      </trkpt>
      <trkpt lat="46.8844" lon="5.76279">
        <ele>479.3544921875</ele>
        <time>2012-05-16T14:00:46Z</time>
      </trkpt>
      <trkpt lat="46.88443" lon="5.76288">
        <ele>480.31591796875</ele>
        <time>2012-05-16T14:00:51Z</time>
      </trkpt>
      <trkpt lat="46.88445" lon="5.76292">
        <ele>480.31591796875</ele>
        <time>2012-05-16T14:00:54Z</time>
      </trkpt>
      <trkpt lat="46.88449" lon="5.76302">
        <ele>481.27722167969</ele>
        <time>2012-05-16T14:01:01Z</time>
      </trkpt>
      <trkpt lat="46.88454" lon="5.76313">
        <ele>482.71923828125</ele>
        <time>2012-05-16T14:01:08Z</time>
      </trkpt>
      <trkpt lat="46.88461" lon="5.76326">
        <ele>483.68041992188</ele>
        <time>2012-05-16T14:01:16Z</time>
      </trkpt>
      <trkpt lat="46.88468" lon="5.76337">
        <ele>483.68041992188</ele>
        <time>2012-05-16T14:01:23Z</time>
      </trkpt>
      <trkpt lat="46.88476" lon="5.76347">
        <ele>486.08374023438</ele>
        <time>2012-05-16T14:01:30Z</time>
      </trkpt>
      <trkpt lat="46.88479" lon="5.76352">
        <ele>486.564453125</ele>
        <time>2012-05-16T14:01:33Z</time>
      </trkpt>
      <trkpt lat="46.88481" lon="5.76356">
        <ele>486.564453125</ele>
        <time>2012-05-16T14:01:36Z</time>
      </trkpt>
      <trkpt lat="46.88485" lon="5.76363">
        <ele>487.04504394531</ele>
        <time>2012-05-16T14:01:42Z</time>
      </trkpt>
      <trkpt lat="46.88486" lon="5.76369">
        <ele>486.564453125</ele>
        <time>2012-05-16T14:01:45Z</time>
      </trkpt>
      <trkpt lat="46.88488" lon="5.76376">
        <ele>485.60302734375</ele>
        <time>2012-05-16T14:01:51Z</time>
      </trkpt>
      <trkpt lat="46.88494" lon="5.76387">
        <ele>484.64184570312</ele>
        <time>2012-05-16T14:01:58Z</time>
      </trkpt>
      <trkpt lat="46.88502" lon="5.76397">
        <ele>485.12243652344</ele>
        <time>2012-05-16T14:02:05Z</time>
      </trkpt>
      <trkpt lat="46.88511" lon="5.7641">
        <ele>487.52563476562</ele>
        <time>2012-05-16T14:02:13Z</time>
      </trkpt>
      <trkpt lat="46.88518" lon="5.76418">
        <ele>490.40979003906</ele>
        <time>2012-05-16T14:02:19Z</time>
      </trkpt>
      <trkpt lat="46.88519" lon="5.76419">
        <ele>490.40979003906</ele>
        <time>2012-05-16T14:02:20Z</time>
      </trkpt>
      <trkpt lat="46.88524" lon="5.76428">
        <ele>491.37097167969</ele>
        <time>2012-05-16T14:02:26Z</time>
      </trkpt>
      <trkpt lat="46.88527" lon="5.76433">
        <ele>491.85168457031</ele>
        <time>2012-05-16T14:02:30Z</time>
      </trkpt>
      <trkpt lat="46.8853" lon="5.76438">
        <ele>492.33239746094</ele>
        <time>2012-05-16T14:02:35Z</time>
      </trkpt>
      <trkpt lat="46.88535" lon="5.76451">
        <ele>494.73559570312</ele>
        <time>2012-05-16T14:02:43Z</time>
      </trkpt>
      <trkpt lat="46.8854" lon="5.76458">
        <ele>495.69689941406</ele>
        <time>2012-05-16T14:02:48Z</time>
      </trkpt>
      <trkpt lat="46.88541" lon="5.76469">
        <ele>497.13891601562</ele>
        <time>2012-05-16T14:02:54Z</time>
      </trkpt>
      <trkpt lat="46.88541" lon="5.76477">
        <ele>498.10034179688</ele>
        <time>2012-05-16T14:02:59Z</time>
      </trkpt>
      <trkpt lat="46.88541" lon="5.76485">
        <ele>500.50354003906</ele>
        <time>2012-05-16T14:03:04Z</time>
      </trkpt>
      <trkpt lat="46.88542" lon="5.76496">
        <ele>500.02294921875</ele>
        <time>2012-05-16T14:03:11Z</time>
      </trkpt>
      <trkpt lat="46.88543" lon="5.76511">
        <ele>502.90673828125</ele>
        <time>2012-05-16T14:03:19Z</time>
      </trkpt>
      <trkpt lat="46.88542" lon="5.76513">
        <ele>503.38745117188</ele>
        <time>2012-05-16T14:03:20Z</time>
      </trkpt>
      <trkpt lat="46.88543" lon="5.76523">
        <ele>505.31018066406</ele>
        <time>2012-05-16T14:03:25Z</time>
      </trkpt>
      <trkpt lat="46.88546" lon="5.76538">
        <ele>506.75207519531</ele>
        <time>2012-05-16T14:03:33Z</time>
      </trkpt>
      <trkpt lat="46.88551" lon="5.76551">
        <ele>506.75207519531</ele>
        <time>2012-05-16T14:03:40Z</time>
      </trkpt>
      <trkpt lat="46.88554" lon="5.76563">
        <ele>506.271484375</ele>
        <time>2012-05-16T14:03:46Z</time>
      </trkpt>
      <trkpt lat="46.88553" lon="5.76579">
        <ele>507.23278808594</ele>
        <time>2012-05-16T14:03:54Z</time>
      </trkpt>
      <trkpt lat="46.88553" lon="5.76582">
        <ele>507.23278808594</ele>
        <time>2012-05-16T14:03:56Z</time>
      </trkpt>
      <trkpt lat="46.88552" lon="5.76583">
        <ele>507.23278808594</ele>
        <time>2012-05-16T14:04:04Z</time>
      </trkpt>
      <trkpt lat="46.88552" lon="5.76584">
        <ele>506.75207519531</ele>
        <time>2012-05-16T14:04:13Z</time>
      </trkpt>
      <trkpt lat="46.88554" lon="5.76584">
        <ele>506.75207519531</ele>
        <time>2012-05-16T14:04:16Z</time>
      </trkpt>
      <trkpt lat="46.88565" lon="5.76587">
        <ele>505.31018066406</ele>
        <time>2012-05-16T14:04:23Z</time>
      </trkpt>
      <trkpt lat="46.88579" lon="5.76591">
        <ele>502.42614746094</ele>
        <time>2012-05-16T14:04:29Z</time>
      </trkpt>
      <trkpt lat="46.8859" lon="5.76594">
        <ele>500.50354003906</ele>
        <time>2012-05-16T14:04:34Z</time>
      </trkpt>
      <trkpt lat="46.88594" lon="5.76595">
        <ele>500.02294921875</ele>
        <time>2012-05-16T14:04:36Z</time>
      </trkpt>
      <trkpt lat="46.88604" lon="5.76589">
        <ele>499.54223632812</ele>
        <time>2012-05-16T14:04:42Z</time>
      </trkpt>
      <trkpt lat="46.88607" lon="5.76584">
        <ele>499.0615234375</ele>
        <time>2012-05-16T14:04:44Z</time>
      </trkpt>
      <trkpt lat="46.88612" lon="5.76577">
        <ele>498.10034179688</ele>
        <time>2012-05-16T14:04:47Z</time>
      </trkpt>
      <trkpt lat="46.8862" lon="5.7657">
        <ele>495.69689941406</ele>
        <time>2012-05-16T14:04:53Z</time>
      </trkpt>
      <trkpt lat="46.88631" lon="5.76571">
        <ele>493.77429199219</ele>
        <time>2012-05-16T14:04:59Z</time>
      </trkpt>
      <trkpt lat="46.88636" lon="5.76572">
        <ele>493.77429199219</ele>
        <time>2012-05-16T14:05:01Z</time>
      </trkpt>
      <trkpt lat="46.88646" lon="5.76576">
        <ele>491.37097167969</ele>
        <time>2012-05-16T14:05:06Z</time>
      </trkpt>
      <trkpt lat="46.88653" lon="5.7658">
        <ele>489.44836425781</ele>
        <time>2012-05-16T14:05:10Z</time>
      </trkpt>
      <trkpt lat="46.88655" lon="5.76581">
        <ele>489.44836425781</ele>
        <time>2012-05-16T14:05:11Z</time>
      </trkpt>
      <trkpt lat="46.88662" lon="5.76582">
        <ele>489.44836425781</ele>
        <time>2012-05-16T14:05:14Z</time>
      </trkpt>
      <trkpt lat="46.88671" lon="5.76585">
        <ele>489.44836425781</ele>
        <time>2012-05-16T14:05:19Z</time>
      </trkpt>
      <trkpt lat="46.88683" lon="5.76592">
        <ele>488.9677734375</ele>
        <time>2012-05-16T14:05:24Z</time>
      </trkpt>
      <trkpt lat="46.88696" lon="5.76602">
        <ele>488.00646972656</ele>
        <time>2012-05-16T14:05:30Z</time>
      </trkpt>
      <trkpt lat="46.88709" lon="5.76608">
        <ele>487.04504394531</ele>
        <time>2012-05-16T14:05:35Z</time>
      </trkpt>
      <trkpt lat="46.8872" lon="5.76613">
        <ele>486.564453125</ele>
        <time>2012-05-16T14:05:40Z</time>
      </trkpt>
      <trkpt lat="46.88731" lon="5.76617">
        <ele>485.12243652344</ele>
        <time>2012-05-16T14:05:45Z</time>
      </trkpt>
      <trkpt lat="46.88738" lon="5.76619">
        <ele>484.64184570312</ele>
        <time>2012-05-16T14:05:48Z</time>
      </trkpt>
      <trkpt lat="46.88745" lon="5.76621">
        <ele>484.1611328125</ele>
        <time>2012-05-16T14:05:52Z</time>
      </trkpt>
      <trkpt lat="46.88756" lon="5.76628">
        <ele>481.7578125</ele>
        <time>2012-05-16T14:05:57Z</time>
      </trkpt>
      <trkpt lat="46.88765" lon="5.76637">
        <ele>478.87390136719</ele>
        <time>2012-05-16T14:06:01Z</time>
      </trkpt>
      <trkpt lat="46.88766" lon="5.7664">
        <ele>477.91247558594</ele>
        <time>2012-05-16T14:06:02Z</time>
      </trkpt>
      <trkpt lat="46.88771" lon="5.76651">
        <ele>475.02868652344</ele>
        <time>2012-05-16T14:06:06Z</time>
      </trkpt>
      <trkpt lat="46.88772" lon="5.76671">
        <ele>470.22192382812</ele>
        <time>2012-05-16T14:06:14Z</time>
      </trkpt>
      <trkpt lat="46.88772" lon="5.76681">
        <ele>468.78002929688</ele>
        <time>2012-05-16T14:06:17Z</time>
      </trkpt>
      <trkpt lat="46.88775" lon="5.76694">
        <ele>467.33813476562</ele>
        <time>2012-05-16T14:06:22Z</time>
      </trkpt>
      <trkpt lat="46.88781" lon="5.76712">
        <ele>465.41552734375</ele>
        <time>2012-05-16T14:06:28Z</time>
      </trkpt>
      <trkpt lat="46.88779" lon="5.76726">
        <ele>461.57019042969</ele>
        <time>2012-05-16T14:06:33Z</time>
      </trkpt>
      <trkpt lat="46.88777" lon="5.76741">
        <ele>456.76354980469</ele>
        <time>2012-05-16T14:06:39Z</time>
      </trkpt>
      <trkpt lat="46.88777" lon="5.76756">
        <ele>462.05078125</ele>
        <time>2012-05-16T14:06:43Z</time>
      </trkpt>
      <trkpt lat="46.88782" lon="5.76764">
        <ele>459.64758300781</ele>
        <time>2012-05-16T14:06:47Z</time>
      </trkpt>
      <trkpt lat="46.88789" lon="5.76767">
        <ele>457.72497558594</ele>
        <time>2012-05-16T14:06:52Z</time>
      </trkpt>
      <trkpt lat="46.88796" lon="5.76765">
        <ele>456.76354980469</ele>
        <time>2012-05-16T14:06:56Z</time>
      </trkpt>
      <trkpt lat="46.88805" lon="5.76765">
        <ele>455.32153320312</ele>
        <time>2012-05-16T14:07:01Z</time>
      </trkpt>
      <trkpt lat="46.8881" lon="5.76762">
        <ele>455.32153320312</ele>
        <time>2012-05-16T14:07:04Z</time>
      </trkpt>
      <trkpt lat="46.88822" lon="5.7675">
        <ele>454.36022949219</ele>
        <time>2012-05-16T14:07:11Z</time>
      </trkpt>
      <trkpt lat="46.88825" lon="5.76748">
        <ele>454.8408203125</ele>
        <time>2012-05-16T14:07:13Z</time>
      </trkpt>
      <trkpt lat="46.88835" lon="5.76746">
        <ele>453.87963867188</ele>
        <time>2012-05-16T14:07:18Z</time>
      </trkpt>
      <trkpt lat="46.88844" lon="5.76749">
        <ele>451.95703125</ele>
        <time>2012-05-16T14:07:22Z</time>
      </trkpt>
      <trkpt lat="46.88847" lon="5.76757">
        <ele>448.59240722656</ele>
        <time>2012-05-16T14:07:25Z</time>
      </trkpt>
      <trkpt lat="46.88855" lon="5.76777">
        <ele>443.78576660156</ele>
        <time>2012-05-16T14:07:32Z</time>
      </trkpt>
      <trkpt lat="46.88859" lon="5.76789">
        <ele>441.38244628906</ele>
        <time>2012-05-16T14:07:36Z</time>
      </trkpt>
      <trkpt lat="46.88866" lon="5.76803">
        <ele>438.01782226562</ele>
        <time>2012-05-16T14:07:41Z</time>
      </trkpt>
      <trkpt lat="46.88871" lon="5.76817">
        <ele>433.69189453125</ele>
        <time>2012-05-16T14:07:47Z</time>
      </trkpt>
      <trkpt lat="46.88879" lon="5.76832">
        <ele>430.32727050781</ele>
        <time>2012-05-16T14:07:53Z</time>
      </trkpt>
      <trkpt lat="46.88885" lon="5.76851">
        <ele>427.443359375</ele>
        <time>2012-05-16T14:08:00Z</time>
      </trkpt>
      <trkpt lat="46.88891" lon="5.7687">
        <ele>427.443359375</ele>
        <time>2012-05-16T14:08:06Z</time>
      </trkpt>
      <trkpt lat="46.88893" lon="5.7688">
        <ele>426.00134277344</ele>
        <time>2012-05-16T14:08:09Z</time>
      </trkpt>
      <trkpt lat="46.88898" lon="5.76896">
        <ele>425.04016113281</ele>
        <time>2012-05-16T14:08:14Z</time>
      </trkpt>
      <trkpt lat="46.88902" lon="5.76913">
        <ele>425.04016113281</ele>
        <time>2012-05-16T14:08:19Z</time>
      </trkpt>
      <trkpt lat="46.88904" lon="5.76929">
        <ele>424.55944824219</ele>
        <time>2012-05-16T14:08:24Z</time>
      </trkpt>
      <trkpt lat="46.88907" lon="5.76946">
        <ele>427.92395019531</ele>
        <time>2012-05-16T14:08:29Z</time>
      </trkpt>
      <trkpt lat="46.88909" lon="5.76949">
        <ele>427.92395019531</ele>
        <time>2012-05-16T14:08:30Z</time>
      </trkpt>
      <trkpt lat="46.8891" lon="5.76952">
        <ele>426.96276855469</ele>
        <time>2012-05-16T14:08:32Z</time>
      </trkpt>
      <trkpt lat="46.88919" lon="5.76959">
        <ele>428.40466308594</ele>
        <time>2012-05-16T14:08:39Z</time>
      </trkpt>
      <trkpt lat="46.88919" lon="5.76959">
        <ele>427.92395019531</ele>
        <time>2012-05-16T14:08:40Z</time>
      </trkpt>
      <trkpt lat="46.88921" lon="5.76959">
        <ele>427.92395019531</ele>
        <time>2012-05-16T14:08:43Z</time>
      </trkpt>
      <trkpt lat="46.88929" lon="5.76959">
        <ele>427.443359375</ele>
        <time>2012-05-16T14:08:49Z</time>
      </trkpt>
      <trkpt lat="46.88941" lon="5.76961">
        <ele>425.04016113281</ele>
        <time>2012-05-16T14:08:55Z</time>
      </trkpt>
      <trkpt lat="46.88945" lon="5.76963">
        <ele>423.59802246094</ele>
        <time>2012-05-16T14:08:58Z</time>
      </trkpt>
      <trkpt lat="46.8895" lon="5.76963">
        <ele>420.71411132812</ele>
        <time>2012-05-16T14:09:02Z</time>
      </trkpt>
      <trkpt lat="46.88962" lon="5.76958">
        <ele>416.86889648438</ele>
        <time>2012-05-16T14:09:08Z</time>
      </trkpt>
      <trkpt lat="46.88965" lon="5.76958">
        <ele>416.86889648438</ele>
        <time>2012-05-16T14:09:09Z</time>
      </trkpt>
      <trkpt lat="46.88982" lon="5.76949">
        <ele>413.98486328125</ele>
        <time>2012-05-16T14:09:16Z</time>
      </trkpt>
      <trkpt lat="46.88991" lon="5.76941">
        <ele>411.58166503906</ele>
        <time>2012-05-16T14:09:21Z</time>
      </trkpt>
      <trkpt lat="46.88994" lon="5.76929">
        <ele>407.25561523438</ele>
        <time>2012-05-16T14:09:26Z</time>
      </trkpt>
      <trkpt lat="46.8899" lon="5.76911">
        <ele>405.3330078125</ele>
        <time>2012-05-16T14:09:31Z</time>
      </trkpt>
      <trkpt lat="46.8899" lon="5.76907">
        <ele>404.85229492188</ele>
        <time>2012-05-16T14:09:32Z</time>
      </trkpt>
      <trkpt lat="46.88984" lon="5.76887">
        <ele>402.9296875</ele>
        <time>2012-05-16T14:09:38Z</time>
      </trkpt>
      <trkpt lat="46.88981" lon="5.76882">
        <ele>401.96850585938</ele>
        <time>2012-05-16T14:09:40Z</time>
      </trkpt>
      <trkpt lat="46.88972" lon="5.7687">
        <ele>401.00708007812</ele>
        <time>2012-05-16T14:09:46Z</time>
      </trkpt>
      <trkpt lat="46.88966" lon="5.76858">
        <ele>401.48779296875</ele>
        <time>2012-05-16T14:09:51Z</time>
      </trkpt>
      <trkpt lat="46.88961" lon="5.76843">
        <ele>401.96850585938</ele>
        <time>2012-05-16T14:09:56Z</time>
      </trkpt>
      <trkpt lat="46.88955" lon="5.76821">
        <ele>401.00708007812</ele>
        <time>2012-05-16T14:10:02Z</time>
      </trkpt>
      <trkpt lat="46.88955" lon="5.76807">
        <ele>398.12316894531</ele>
        <time>2012-05-16T14:10:07Z</time>
      </trkpt>
      <trkpt lat="46.88955" lon="5.76797">
        <ele>395.23913574219</ele>
        <time>2012-05-16T14:10:10Z</time>
      </trkpt>
      <trkpt lat="46.8896" lon="5.76784">
        <ele>390.91320800781</ele>
        <time>2012-05-16T14:10:15Z</time>
      </trkpt>
      <trkpt lat="46.88961" lon="5.7678">
        <ele>390.4326171875</ele>
        <time>2012-05-16T14:10:16Z</time>
      </trkpt>
      <trkpt lat="46.8897" lon="5.76767">
        <ele>388.51000976562</ele>
        <time>2012-05-16T14:10:21Z</time>
      </trkpt>
      <trkpt lat="46.88973" lon="5.76761">
        <ele>390.4326171875</ele>
        <time>2012-05-16T14:10:23Z</time>
      </trkpt>
      <trkpt lat="46.88978" lon="5.76739">
        <ele>397.64245605469</ele>
        <time>2012-05-16T14:10:28Z</time>
      </trkpt>
      <trkpt lat="46.88982" lon="5.76727">
        <ele>396.68115234375</ele>
        <time>2012-05-16T14:10:32Z</time>
      </trkpt>
      <trkpt lat="46.88982" lon="5.76715">
        <ele>394.27795410156</ele>
        <time>2012-05-16T14:10:37Z</time>
      </trkpt>
      <trkpt lat="46.88977" lon="5.76698">
        <ele>390.91320800781</ele>
        <time>2012-05-16T14:10:42Z</time>
      </trkpt>
      <trkpt lat="46.88971" lon="5.76678">
        <ele>388.99060058594</ele>
        <time>2012-05-16T14:10:48Z</time>
      </trkpt>
      <trkpt lat="46.88966" lon="5.76662">
        <ele>385.6259765625</ele>
        <time>2012-05-16T14:10:54Z</time>
      </trkpt>
      <trkpt lat="46.88958" lon="5.76646">
        <ele>383.70324707031</ele>
        <time>2012-05-16T14:10:59Z</time>
      </trkpt>
      <trkpt lat="46.88952" lon="5.76633">
        <ele>384.18408203125</ele>
        <time>2012-05-16T14:11:04Z</time>
      </trkpt>
      <trkpt lat="46.88947" lon="5.76616">
        <ele>384.66479492188</ele>
        <time>2012-05-16T14:11:09Z</time>
      </trkpt>
      <trkpt lat="46.88942" lon="5.76591">
        <ele>388.029296875</ele>
        <time>2012-05-16T14:11:16Z</time>
      </trkpt>
      <trkpt lat="46.88941" lon="5.76572">
        <ele>391.39379882812</ele>
        <time>2012-05-16T14:11:20Z</time>
      </trkpt>
      <trkpt lat="46.88942" lon="5.76565">
        <ele>393.31652832031</ele>
        <time>2012-05-16T14:11:22Z</time>
      </trkpt>
      <trkpt lat="46.88942" lon="5.76552">
        <ele>400.0458984375</ele>
        <time>2012-05-16T14:11:28Z</time>
      </trkpt>
      <trkpt lat="46.88943" lon="5.7655">
        <ele>400.0458984375</ele>
        <time>2012-05-16T14:11:29Z</time>
      </trkpt>
      <trkpt lat="46.8895" lon="5.76545">
        <ele>400.52648925781</ele>
        <time>2012-05-16T14:11:36Z</time>
      </trkpt>
      <trkpt lat="46.88955" lon="5.76551">
        <ele>396.68115234375</ele>
        <time>2012-05-16T14:11:39Z</time>
      </trkpt>
      <trkpt lat="46.88964" lon="5.76558">
        <ele>391.87451171875</ele>
        <time>2012-05-16T14:11:44Z</time>
      </trkpt>
      <trkpt lat="46.88974" lon="5.76563">
        <ele>390.4326171875</ele>
        <time>2012-05-16T14:11:49Z</time>
      </trkpt>
      <trkpt lat="46.88982" lon="5.76565">
        <ele>388.51000976562</ele>
        <time>2012-05-16T14:11:52Z</time>
      </trkpt>
      <trkpt lat="46.88993" lon="5.76566">
        <ele>386.10668945312</ele>
        <time>2012-05-16T14:11:57Z</time>
      </trkpt>
      <trkpt lat="46.89004" lon="5.76569">
        <ele>385.6259765625</ele>
        <time>2012-05-16T14:12:02Z</time>
      </trkpt>
      <trkpt lat="46.89012" lon="5.76572">
        <ele>384.66479492188</ele>
        <time>2012-05-16T14:12:06Z</time>
      </trkpt>
      <trkpt lat="46.89021" lon="5.76577">
        <ele>381.30004882812</ele>
        <time>2012-05-16T14:12:10Z</time>
      </trkpt>
      <trkpt lat="46.89033" lon="5.76582">
        <ele>377.93542480469</ele>
        <time>2012-05-16T14:12:15Z</time>
      </trkpt>
      <trkpt lat="46.89045" lon="5.76594">
        <ele>374.57080078125</ele>
        <time>2012-05-16T14:12:20Z</time>
      </trkpt>
      <trkpt lat="46.89057" lon="5.76607">
        <ele>372.16748046875</ele>
        <time>2012-05-16T14:12:26Z</time>
      </trkpt>
      <trkpt lat="46.89064" lon="5.76613">
        <ele>371.20629882812</ele>
        <time>2012-05-16T14:12:29Z</time>
      </trkpt>
      <trkpt lat="46.89082" lon="5.76625">
        <ele>369.76428222656</ele>
        <time>2012-05-16T14:12:36Z</time>
      </trkpt>
      <trkpt lat="46.89091" lon="5.76633">
        <ele>370.24487304688</ele>
        <time>2012-05-16T14:12:40Z</time>
      </trkpt>
      <trkpt lat="46.89097" lon="5.76637">
        <ele>369.76428222656</ele>
        <time>2012-05-16T14:12:43Z</time>
      </trkpt>
      <trkpt lat="46.89108" lon="5.76645">
        <ele>366.39953613281</ele>
        <time>2012-05-16T14:12:48Z</time>
      </trkpt>
      <trkpt lat="46.89119" lon="5.76652">
        <ele>363.03503417969</ele>
        <time>2012-05-16T14:12:53Z</time>
      </trkpt>
      <trkpt lat="46.8913" lon="5.76659">
        <ele>360.15112304688</ele>
        <time>2012-05-16T14:12:58Z</time>
      </trkpt>
      <trkpt lat="46.8914" lon="5.76669">
        <ele>358.22839355469</ele>
        <time>2012-05-16T14:13:03Z</time>
      </trkpt>
      <trkpt lat="46.89151" lon="5.76677">
        <ele>356.30578613281</ele>
        <time>2012-05-16T14:13:08Z</time>
      </trkpt>
      <trkpt lat="46.89161" lon="5.76681">
        <ele>355.34448242188</ele>
        <time>2012-05-16T14:13:12Z</time>
      </trkpt>
      <trkpt lat="46.89163" lon="5.76682">
        <ele>355.34448242188</ele>
        <time>2012-05-16T14:13:13Z</time>
      </trkpt>
      <trkpt lat="46.89175" lon="5.76693">
        <ele>354.38317871094</ele>
        <time>2012-05-16T14:13:18Z</time>
      </trkpt>
      <trkpt lat="46.89178" lon="5.76697">
        <ele>353.90258789062</ele>
        <time>2012-05-16T14:13:20Z</time>
      </trkpt>
      <trkpt lat="46.89186" lon="5.76701">
        <ele>351.97985839844</ele>
        <time>2012-05-16T14:13:24Z</time>
      </trkpt>
      <trkpt lat="46.89194" lon="5.7671">
        <ele>352.46057128906</ele>
        <time>2012-05-16T14:13:29Z</time>
      </trkpt>
      <trkpt lat="46.89205" lon="5.76719">
        <ele>351.49914550781</ele>
        <time>2012-05-16T14:13:34Z</time>
      </trkpt>
      <trkpt lat="46.89209" lon="5.76728">
        <ele>349.09582519531</ele>
        <time>2012-05-16T14:13:39Z</time>
      </trkpt>
      <trkpt lat="46.89213" lon="5.76742">
        <ele>349.09582519531</ele>
        <time>2012-05-16T14:13:44Z</time>
      </trkpt>
      <trkpt lat="46.89221" lon="5.76754">
        <ele>347.65393066406</ele>
        <time>2012-05-16T14:13:49Z</time>
      </trkpt>
      <trkpt lat="46.89227" lon="5.76763">
        <ele>345.25061035156</ele>
        <time>2012-05-16T14:13:53Z</time>
      </trkpt>
      <trkpt lat="46.89228" lon="5.76765">
        <ele>343.80859375</ele>
        <time>2012-05-16T14:13:54Z</time>
      </trkpt>
      <trkpt lat="46.89233" lon="5.7677">
        <ele>342.36669921875</ele>
        <time>2012-05-16T14:13:57Z</time>
      </trkpt>
      <trkpt lat="46.89243" lon="5.76779">
        <ele>339.96337890625</ele>
        <time>2012-05-16T14:14:02Z</time>
      </trkpt>
      <trkpt lat="46.89251" lon="5.76789">
        <ele>337.07946777344</ele>
        <time>2012-05-16T14:14:07Z</time>
      </trkpt>
      <trkpt lat="46.89259" lon="5.76795">
        <ele>334.19543457031</ele>
        <time>2012-05-16T14:14:12Z</time>
      </trkpt>
      <trkpt lat="46.89262" lon="5.76797">
        <ele>333.71472167969</ele>
        <time>2012-05-16T14:14:13Z</time>
      </trkpt>
      <trkpt lat="46.89266" lon="5.768">
        <ele>332.75354003906</ele>
        <time>2012-05-16T14:14:15Z</time>
      </trkpt>
      <trkpt lat="46.89276" lon="5.7681">
        <ele>331.79211425781</ele>
        <time>2012-05-16T14:14:20Z</time>
      </trkpt>
      <trkpt lat="46.89284" lon="5.76818">
        <ele>331.3115234375</ele>
        <time>2012-05-16T14:14:24Z</time>
      </trkpt>
      <trkpt lat="46.8929" lon="5.76824">
        <ele>329.86950683594</ele>
        <time>2012-05-16T14:14:27Z</time>
      </trkpt>
      <trkpt lat="46.89302" lon="5.76832">
        <ele>328.42761230469</ele>
        <time>2012-05-16T14:14:32Z</time>
      </trkpt>
      <trkpt lat="46.89313" lon="5.7684">
        <ele>326.98559570312</ele>
        <time>2012-05-16T14:14:37Z</time>
      </trkpt>
      <trkpt lat="46.89325" lon="5.76845">
        <ele>326.02416992188</ele>
        <time>2012-05-16T14:14:41Z</time>
      </trkpt>
      <trkpt lat="46.89335" lon="5.76852">
        <ele>325.54357910156</ele>
        <time>2012-05-16T14:14:45Z</time>
      </trkpt>
      <trkpt lat="46.89342" lon="5.7686">
        <ele>324.58227539062</ele>
        <time>2012-05-16T14:14:49Z</time>
      </trkpt>
      <trkpt lat="46.89359" lon="5.76872">
        <ele>322.65966796875</ele>
        <time>2012-05-16T14:14:56Z</time>
      </trkpt>
      <trkpt lat="46.89367" lon="5.76877">
        <ele>321.69836425781</ele>
        <time>2012-05-16T14:14:59Z</time>
      </trkpt>
      <trkpt lat="46.8938" lon="5.76885">
        <ele>320.25634765625</ele>
        <time>2012-05-16T14:15:04Z</time>
      </trkpt>
      <trkpt lat="46.89392" lon="5.76894">
        <ele>318.81433105469</ele>
        <time>2012-05-16T14:15:09Z</time>
      </trkpt>
      <trkpt lat="46.89404" lon="5.76901">
        <ele>317.37243652344</ele>
        <time>2012-05-16T14:15:14Z</time>
      </trkpt>
      <trkpt lat="46.89418" lon="5.76909">
        <ele>316.89172363281</ele>
        <time>2012-05-16T14:15:20Z</time>
      </trkpt>
      <trkpt lat="46.8942" lon="5.76911">
        <ele>316.89172363281</ele>
        <time>2012-05-16T14:15:21Z</time>
      </trkpt>
      <trkpt lat="46.89436" lon="5.76914">
        <ele>315.93041992188</ele>
        <time>2012-05-16T14:15:26Z</time>
      </trkpt>
      <trkpt lat="46.89446" lon="5.76919">
        <ele>316.41101074219</ele>
        <time>2012-05-16T14:15:30Z</time>
      </trkpt>
      <trkpt lat="46.89455" lon="5.76928">
        <ele>314.0078125</ele>
        <time>2012-05-16T14:15:35Z</time>
      </trkpt>
      <trkpt lat="46.89464" lon="5.76934">
        <ele>313.04650878906</ele>
        <time>2012-05-16T14:15:39Z</time>
      </trkpt>
      <trkpt lat="46.89466" lon="5.76936">
        <ele>313.04650878906</ele>
        <time>2012-05-16T14:15:40Z</time>
      </trkpt>
      <trkpt lat="46.89479" lon="5.76947">
        <ele>311.12377929688</ele>
        <time>2012-05-16T14:15:46Z</time>
      </trkpt>
      <trkpt lat="46.8949" lon="5.76955">
        <ele>310.64306640625</ele>
        <time>2012-05-16T14:15:51Z</time>
      </trkpt>
      <trkpt lat="46.895" lon="5.76961">
        <ele>310.16247558594</ele>
        <time>2012-05-16T14:15:55Z</time>
      </trkpt>
      <trkpt lat="46.89508" lon="5.76969">
        <ele>309.68188476562</ele>
        <time>2012-05-16T14:15:59Z</time>
      </trkpt>
      <trkpt lat="46.8952" lon="5.76978">
        <ele>310.16247558594</ele>
        <time>2012-05-16T14:16:04Z</time>
      </trkpt>
      <trkpt lat="46.89529" lon="5.76986">
        <ele>310.16247558594</ele>
        <time>2012-05-16T14:16:08Z</time>
      </trkpt>
      <trkpt lat="46.89538" lon="5.76996">
        <ele>310.64306640625</ele>
        <time>2012-05-16T14:16:13Z</time>
      </trkpt>
      <trkpt lat="46.89549" lon="5.77006">
        <ele>310.64306640625</ele>
        <time>2012-05-16T14:16:18Z</time>
      </trkpt>
      <trkpt lat="46.89557" lon="5.77015">
        <ele>310.64306640625</ele>
        <time>2012-05-16T14:16:22Z</time>
      </trkpt>
      <trkpt lat="46.89566" lon="5.77026">
        <ele>309.201171875</ele>
        <time>2012-05-16T14:16:27Z</time>
      </trkpt>
      <trkpt lat="46.89569" lon="5.77028">
        <ele>309.201171875</ele>
        <time>2012-05-16T14:16:28Z</time>
      </trkpt>
      <trkpt lat="46.89576" lon="5.77036">
        <ele>308.23986816406</ele>
        <time>2012-05-16T14:16:32Z</time>
      </trkpt>
      <trkpt lat="46.89586" lon="5.77045">
        <ele>307.27856445312</ele>
        <time>2012-05-16T14:16:37Z</time>
      </trkpt>
      <trkpt lat="46.89598" lon="5.77057">
        <ele>306.7978515625</ele>
        <time>2012-05-16T14:16:43Z</time>
      </trkpt>
      <trkpt lat="46.89603" lon="5.7706">
        <ele>305.83666992188</ele>
        <time>2012-05-16T14:16:45Z</time>
      </trkpt>
      <trkpt lat="46.89612" lon="5.77067">
        <ele>305.35595703125</ele>
        <time>2012-05-16T14:16:49Z</time>
      </trkpt>
      <trkpt lat="46.89621" lon="5.77073">
        <ele>305.35595703125</ele>
        <time>2012-05-16T14:16:53Z</time>
      </trkpt>
      <trkpt lat="46.89624" lon="5.77074">
        <ele>305.35595703125</ele>
        <time>2012-05-16T14:16:54Z</time>
      </trkpt>
      <trkpt lat="46.89629" lon="5.77078">
        <ele>305.35595703125</ele>
        <time>2012-05-16T14:16:56Z</time>
      </trkpt>
      <trkpt lat="46.89642" lon="5.77083">
        <ele>304.39465332031</ele>
        <time>2012-05-16T14:17:01Z</time>
      </trkpt>
      <trkpt lat="46.89654" lon="5.7709">
        <ele>304.87524414062</ele>
        <time>2012-05-16T14:17:06Z</time>
      </trkpt>
      <trkpt lat="46.89669" lon="5.77096">
        <ele>304.87524414062</ele>
        <time>2012-05-16T14:17:12Z</time>
      </trkpt>
      <trkpt lat="46.89682" lon="5.77099">
        <ele>303.91394042969</ele>
        <time>2012-05-16T14:17:16Z</time>
      </trkpt>
      <trkpt lat="46.89692" lon="5.77102">
        <ele>304.39465332031</ele>
        <time>2012-05-16T14:17:20Z</time>
      </trkpt>
      <trkpt lat="46.89703" lon="5.77108">
        <ele>303.91394042969</ele>
        <time>2012-05-16T14:17:25Z</time>
      </trkpt>
      <trkpt lat="46.89713" lon="5.77111">
        <ele>303.43322753906</ele>
        <time>2012-05-16T14:17:29Z</time>
      </trkpt>
      <trkpt lat="46.89721" lon="5.77114">
        <ele>302.95251464844</ele>
        <time>2012-05-16T14:17:32Z</time>
      </trkpt>
      <trkpt lat="46.89735" lon="5.77121">
        <ele>302.95251464844</ele>
        <time>2012-05-16T14:17:38Z</time>
      </trkpt>
      <trkpt lat="46.89745" lon="5.77127">
        <ele>302.47192382812</ele>
        <time>2012-05-16T14:17:42Z</time>
      </trkpt>
      <trkpt lat="46.8975" lon="5.77131">
        <ele>301.99133300781</ele>
        <time>2012-05-16T14:17:44Z</time>
      </trkpt>
      <trkpt lat="46.89764" lon="5.77139">
        <ele>301.02990722656</ele>
        <time>2012-05-16T14:17:50Z</time>
      </trkpt>
      <trkpt lat="46.89776" lon="5.77145">
        <ele>300.54931640625</ele>
        <time>2012-05-16T14:17:55Z</time>
      </trkpt>
      <trkpt lat="46.89786" lon="5.77151">
        <ele>300.54931640625</ele>
        <time>2012-05-16T14:17:59Z</time>
      </trkpt>
      <trkpt lat="46.89799" lon="5.77161">
        <ele>300.06872558594</ele>
        <time>2012-05-16T14:18:05Z</time>
      </trkpt>
      <trkpt lat="46.89811" lon="5.77172">
        <ele>299.58801269531</ele>
        <time>2012-05-16T14:18:11Z</time>
      </trkpt>
      <trkpt lat="46.89822" lon="5.77181">
        <ele>299.58801269531</ele>
        <time>2012-05-16T14:18:16Z</time>
      </trkpt>
      <trkpt lat="46.89832" lon="5.7719">
        <ele>300.54931640625</ele>
        <time>2012-05-16T14:18:21Z</time>
      </trkpt>
      <trkpt lat="46.89842" lon="5.77198">
        <ele>300.54931640625</ele>
        <time>2012-05-16T14:18:26Z</time>
      </trkpt>
      <trkpt lat="46.89855" lon="5.77202">
        <ele>299.10729980469</ele>
        <time>2012-05-16T14:18:31Z</time>
      </trkpt>
      <trkpt lat="46.89862" lon="5.77205">
        <ele>298.62670898438</ele>
        <time>2012-05-16T14:18:34Z</time>
      </trkpt>
      <trkpt lat="46.89873" lon="5.77209">
        <ele>298.14611816406</ele>
        <time>2012-05-16T14:18:39Z</time>
      </trkpt>
      <trkpt lat="46.89883" lon="5.77212">
        <ele>298.62670898438</ele>
        <time>2012-05-16T14:18:43Z</time>
      </trkpt>
      <trkpt lat="46.89896" lon="5.77215">
        <ele>298.62670898438</ele>
        <time>2012-05-16T14:18:48Z</time>
      </trkpt>
      <trkpt lat="46.89906" lon="5.77216">
        <ele>299.58801269531</ele>
        <time>2012-05-16T14:18:52Z</time>
      </trkpt>
      <trkpt lat="46.89922" lon="5.77216">
        <ele>300.54931640625</ele>
        <time>2012-05-16T14:18:58Z</time>
      </trkpt>
      <trkpt lat="46.89935" lon="5.77213">
        <ele>300.54931640625</ele>
        <time>2012-05-16T14:19:02Z</time>
      </trkpt>
      <trkpt lat="46.89943" lon="5.77214">
        <ele>300.54931640625</ele>
        <time>2012-05-16T14:19:05Z</time>
      </trkpt>
      <trkpt lat="46.89952" lon="5.77215">
        <ele>300.06872558594</ele>
        <time>2012-05-16T14:19:10Z</time>
      </trkpt>
      <trkpt lat="46.89961" lon="5.77214">
        <ele>300.06872558594</ele>
        <time>2012-05-16T14:19:16Z</time>
      </trkpt>
      <trkpt lat="46.89969" lon="5.77213">
        <ele>300.54931640625</ele>
        <time>2012-05-16T14:19:22Z</time>
      </trkpt>
      <trkpt lat="46.89985" lon="5.77209">
        <ele>303.91394042969</ele>
        <time>2012-05-16T14:19:32Z</time>
      </trkpt>
      <trkpt lat="46.89998" lon="5.77203">
        <ele>308.72045898438</ele>
        <time>2012-05-16T14:19:41Z</time>
      </trkpt>
      <trkpt lat="46.90015" lon="5.77203">
        <ele>308.23986816406</ele>
        <time>2012-05-16T14:19:52Z</time>
      </trkpt>
      <trkpt lat="46.9002" lon="5.77203">
        <ele>307.75927734375</ele>
        <time>2012-05-16T14:19:55Z</time>
      </trkpt>
      <trkpt lat="46.90035" lon="5.77198">
        <ele>306.31726074219</ele>
        <time>2012-05-16T14:20:04Z</time>
      </trkpt>
      <trkpt lat="46.90046" lon="5.7719">
        <ele>304.39465332031</ele>
        <time>2012-05-16T14:20:09Z</time>
      </trkpt>
      <trkpt lat="46.90055" lon="5.77185">
        <ele>301.99133300781</ele>
        <time>2012-05-16T14:20:13Z</time>
      </trkpt>
      <trkpt lat="46.90063" lon="5.77176">
        <ele>301.51062011719</ele>
        <time>2012-05-16T14:20:18Z</time>
      </trkpt>
      <trkpt lat="46.90074" lon="5.77164">
        <ele>301.99133300781</ele>
        <time>2012-05-16T14:20:23Z</time>
      </trkpt>
      <trkpt lat="46.90082" lon="5.77156">
        <ele>301.99133300781</ele>
        <time>2012-05-16T14:20:28Z</time>
      </trkpt>
      <trkpt lat="46.90094" lon="5.77151">
        <ele>303.91394042969</ele>
        <time>2012-05-16T14:20:36Z</time>
      </trkpt>
      <trkpt lat="46.90097" lon="5.77151">
        <ele>303.43322753906</ele>
        <time>2012-05-16T14:20:38Z</time>
      </trkpt>
      <trkpt lat="46.90104" lon="5.77158">
        <ele>301.02990722656</ele>
        <time>2012-05-16T14:20:42Z</time>
      </trkpt>
      <trkpt lat="46.90112" lon="5.77168">
        <ele>299.58801269531</ele>
        <time>2012-05-16T14:20:46Z</time>
      </trkpt>
      <trkpt lat="46.90121" lon="5.77185">
        <ele>297.18469238281</ele>
        <time>2012-05-16T14:20:52Z</time>
      </trkpt>
      <trkpt lat="46.90123" lon="5.77187">
        <ele>296.22351074219</ele>
        <time>2012-05-16T14:20:53Z</time>
      </trkpt>
      <trkpt lat="46.90128" lon="5.77195">
        <ele>295.26196289062</ele>
        <time>2012-05-16T14:20:57Z</time>
      </trkpt>
      <trkpt lat="46.90133" lon="5.77192">
        <ele>293.82006835938</ele>
        <time>2012-05-16T14:21:01Z</time>
      </trkpt>
      <trkpt lat="46.9014" lon="5.77181">
        <ele>295.74267578125</ele>
        <time>2012-05-16T14:21:07Z</time>
      </trkpt>
      <trkpt lat="46.90145" lon="5.77173">
        <ele>296.7041015625</ele>
        <time>2012-05-16T14:21:11Z</time>
      </trkpt>
      <trkpt lat="46.90152" lon="5.77166">
        <ele>297.18469238281</ele>
        <time>2012-05-16T14:21:17Z</time>
      </trkpt>
      <trkpt lat="46.9016" lon="5.77159">
        <ele>296.22351074219</ele>
        <time>2012-05-16T14:21:23Z</time>
      </trkpt>
      <trkpt lat="46.90166" lon="5.77153">
        <ele>295.26196289062</ele>
        <time>2012-05-16T14:21:28Z</time>
      </trkpt>
      <trkpt lat="46.9017" lon="5.77143">
        <ele>293.82006835938</ele>
        <time>2012-05-16T14:21:34Z</time>
      </trkpt>
      <trkpt lat="46.90171" lon="5.77128">
        <ele>295.74267578125</ele>
        <time>2012-05-16T14:21:41Z</time>
      </trkpt>
      <trkpt lat="46.90171" lon="5.77124">
        <ele>295.74267578125</ele>
        <time>2012-05-16T14:21:43Z</time>
      </trkpt>
      <trkpt lat="46.90179" lon="5.77108">
        <ele>293.82006835938</ele>
        <time>2012-05-16T14:21:49Z</time>
      </trkpt>
      <trkpt lat="46.90191" lon="5.77093">
        <ele>292.37817382812</ele>
        <time>2012-05-16T14:21:55Z</time>
      </trkpt>
      <trkpt lat="46.90204" lon="5.77074">
        <ele>290.45556640625</ele>
        <time>2012-05-16T14:22:02Z</time>
      </trkpt>
      <trkpt lat="46.90213" lon="5.77067">
        <ele>289.01354980469</ele>
        <time>2012-05-16T14:22:06Z</time>
      </trkpt>
      <trkpt lat="46.90225" lon="5.7706">
        <ele>289.01354980469</ele>
        <time>2012-05-16T14:22:11Z</time>
      </trkpt>
      <trkpt lat="46.90234" lon="5.77052">
        <ele>289.01354980469</ele>
        <time>2012-05-16T14:22:15Z</time>
      </trkpt>
      <trkpt lat="46.90242" lon="5.77041">
        <ele>289.01354980469</ele>
        <time>2012-05-16T14:22:19Z</time>
      </trkpt>
      <trkpt lat="46.90246" lon="5.77023">
        <ele>288.05224609375</ele>
        <time>2012-05-16T14:22:24Z</time>
      </trkpt>
      <trkpt lat="46.9025" lon="5.77003">
        <ele>286.61022949219</ele>
        <time>2012-05-16T14:22:30Z</time>
      </trkpt>
      <trkpt lat="46.90251" lon="5.76984">
        <ele>284.68762207031</ele>
        <time>2012-05-16T14:22:35Z</time>
      </trkpt>
      <trkpt lat="46.90248" lon="5.76962">
        <ele>283.24560546875</ele>
        <time>2012-05-16T14:22:41Z</time>
      </trkpt>
      <trkpt lat="46.90246" lon="5.76944">
        <ele>283.24560546875</ele>
        <time>2012-05-16T14:22:46Z</time>
      </trkpt>
      <trkpt lat="46.90245" lon="5.76932">
        <ele>284.20690917969</ele>
        <time>2012-05-16T14:22:51Z</time>
      </trkpt>
      <trkpt lat="46.90245" lon="5.76923">
        <ele>286.12951660156</ele>
        <time>2012-05-16T14:22:56Z</time>
      </trkpt>
      <trkpt lat="46.90243" lon="5.76917">
        <ele>287.0908203125</ele>
        <time>2012-05-16T14:23:03Z</time>
      </trkpt>
      <trkpt lat="46.90247" lon="5.76921">
        <ele>287.0908203125</ele>
        <time>2012-05-16T14:23:08Z</time>
      </trkpt>
      <trkpt lat="46.90257" lon="5.76922">
        <ele>287.57141113281</ele>
        <time>2012-05-16T14:23:14Z</time>
      </trkpt>
      <trkpt lat="46.90273" lon="5.76921">
        <ele>287.0908203125</ele>
        <time>2012-05-16T14:23:20Z</time>
      </trkpt>
      <trkpt lat="46.90285" lon="5.76921">
        <ele>285.64880371094</ele>
        <time>2012-05-16T14:23:25Z</time>
      </trkpt>
      <trkpt lat="46.90297" lon="5.76917">
        <ele>284.68762207031</ele>
        <time>2012-05-16T14:23:30Z</time>
      </trkpt>
      <trkpt lat="46.90314" lon="5.7691">
        <ele>283.72619628906</ele>
        <time>2012-05-16T14:23:37Z</time>
      </trkpt>
      <trkpt lat="46.90328" lon="5.76902">
        <ele>284.20690917969</ele>
        <time>2012-05-16T14:23:43Z</time>
      </trkpt>
      <trkpt lat="46.90339" lon="5.76894">
        <ele>285.64880371094</ele>
        <time>2012-05-16T14:23:48Z</time>
      </trkpt>
      <trkpt lat="46.9035" lon="5.76887">
        <ele>286.12951660156</ele>
        <time>2012-05-16T14:23:53Z</time>
      </trkpt>
      <trkpt lat="46.9036" lon="5.76884">
        <ele>285.16821289062</ele>
        <time>2012-05-16T14:23:57Z</time>
      </trkpt>
      <trkpt lat="46.90373" lon="5.7688">
        <ele>283.24560546875</ele>
        <time>2012-05-16T14:24:02Z</time>
      </trkpt>
      <trkpt lat="46.90386" lon="5.76875">
        <ele>281.32299804688</ele>
        <time>2012-05-16T14:24:07Z</time>
      </trkpt>
      <trkpt lat="46.90398" lon="5.76871">
        <ele>279.880859375</ele>
        <time>2012-05-16T14:24:12Z</time>
      </trkpt>
      <trkpt lat="46.90413" lon="5.76867">
        <ele>279.880859375</ele>
        <time>2012-05-16T14:24:18Z</time>
      </trkpt>
      <trkpt lat="46.90422" lon="5.76864">
        <ele>279.40026855469</ele>
        <time>2012-05-16T14:24:22Z</time>
      </trkpt>
      <trkpt lat="46.90435" lon="5.76861">
        <ele>278.91967773438</ele>
        <time>2012-05-16T14:24:27Z</time>
      </trkpt>
      <trkpt lat="46.90445" lon="5.76858">
        <ele>279.40026855469</ele>
        <time>2012-05-16T14:24:31Z</time>
      </trkpt>
      <trkpt lat="46.90452" lon="5.76854">
        <ele>279.880859375</ele>
        <time>2012-05-16T14:24:34Z</time>
      </trkpt>
      <trkpt lat="46.90463" lon="5.76848">
        <ele>280.36169433594</ele>
        <time>2012-05-16T14:24:39Z</time>
      </trkpt>
      <trkpt lat="46.90467" lon="5.76847">
        <ele>280.36169433594</ele>
        <time>2012-05-16T14:24:41Z</time>
      </trkpt>
      <trkpt lat="46.90477" lon="5.76856">
        <ele>280.36169433594</ele>
        <time>2012-05-16T14:24:46Z</time>
      </trkpt>
      <trkpt lat="46.90478" lon="5.76858">
        <ele>279.880859375</ele>
        <time>2012-05-16T14:24:47Z</time>
      </trkpt>
      <trkpt lat="46.90487" lon="5.76858">
        <ele>277.47766113281</ele>
        <time>2012-05-16T14:24:52Z</time>
      </trkpt>
      <trkpt lat="46.90497" lon="5.76857">
        <ele>276.51635742188</ele>
        <time>2012-05-16T14:24:56Z</time>
      </trkpt>
      <trkpt lat="46.905" lon="5.76857">
        <ele>276.51635742188</ele>
        <time>2012-05-16T14:24:57Z</time>
      </trkpt>
      <trkpt lat="46.90514" lon="5.76853">
        <ele>277.95825195312</ele>
        <time>2012-05-16T14:25:02Z</time>
      </trkpt>
      <trkpt lat="46.90529" lon="5.76849">
        <ele>277.95825195312</ele>
        <time>2012-05-16T14:25:08Z</time>
      </trkpt>
      <trkpt lat="46.9054" lon="5.76847">
        <ele>277.47766113281</ele>
        <time>2012-05-16T14:25:13Z</time>
      </trkpt>
      <trkpt lat="46.9055" lon="5.76845">
        <ele>277.95825195312</ele>
        <time>2012-05-16T14:25:17Z</time>
      </trkpt>
      <trkpt lat="46.90559" lon="5.76844">
        <ele>277.95825195312</ele>
        <time>2012-05-16T14:25:21Z</time>
      </trkpt>
      <trkpt lat="46.90565" lon="5.76842">
        <ele>276.9970703125</ele>
        <time>2012-05-16T14:25:26Z</time>
      </trkpt>
      <trkpt lat="46.90565" lon="5.76832">
        <ele>276.51635742188</ele>
        <time>2012-05-16T14:25:32Z</time>
      </trkpt>
      <trkpt lat="46.90564" lon="5.76822">
        <ele>276.9970703125</ele>
        <time>2012-05-16T14:25:38Z</time>
      </trkpt>
      <trkpt lat="46.90562" lon="5.76814">
        <ele>278.43896484375</ele>
        <time>2012-05-16T14:25:42Z</time>
      </trkpt>
      <trkpt lat="46.90562" lon="5.76806">
        <ele>278.91967773438</ele>
        <time>2012-05-16T14:25:47Z</time>
      </trkpt>
      <trkpt lat="46.90566" lon="5.76804">
        <ele>278.91967773438</ele>
        <time>2012-05-16T14:25:50Z</time>
      </trkpt>
      <trkpt lat="46.90579" lon="5.76803">
        <ele>278.91967773438</ele>
        <time>2012-05-16T14:25:59Z</time>
      </trkpt>
      <trkpt lat="46.90588" lon="5.76802">
        <ele>280.36169433594</ele>
        <time>2012-05-16T14:26:05Z</time>
      </trkpt>
      <trkpt lat="46.90596" lon="5.76801">
        <ele>280.36169433594</ele>
        <time>2012-05-16T14:26:11Z</time>
      </trkpt>
      <trkpt lat="46.90608" lon="5.76805">
        <ele>280.36169433594</ele>
        <time>2012-05-16T14:26:19Z</time>
      </trkpt>
      <trkpt lat="46.90621" lon="5.76813">
        <ele>279.40026855469</ele>
        <time>2012-05-16T14:26:25Z</time>
      </trkpt>
      <trkpt lat="46.9063" lon="5.7682">
        <ele>278.91967773438</ele>
        <time>2012-05-16T14:26:29Z</time>
      </trkpt>
      <trkpt lat="46.90638" lon="5.76833">
        <ele>279.40026855469</ele>
        <time>2012-05-16T14:26:34Z</time>
      </trkpt>
      <trkpt lat="46.90648" lon="5.76847">
        <ele>278.91967773438</ele>
        <time>2012-05-16T14:26:39Z</time>
      </trkpt>
      <trkpt lat="46.90649" lon="5.7685">
        <ele>278.91967773438</ele>
        <time>2012-05-16T14:26:40Z</time>
      </trkpt>
      <trkpt lat="46.90661" lon="5.76865">
        <ele>278.43896484375</ele>
        <time>2012-05-16T14:26:46Z</time>
      </trkpt>
      <trkpt lat="46.90671" lon="5.76877">
        <ele>276.9970703125</ele>
        <time>2012-05-16T14:26:51Z</time>
      </trkpt>
      <trkpt lat="46.90675" lon="5.76885">
        <ele>276.03564453125</ele>
        <time>2012-05-16T14:26:54Z</time>
      </trkpt>
      <trkpt lat="46.90681" lon="5.76897">
        <ele>275.07446289062</ele>
        <time>2012-05-16T14:26:58Z</time>
      </trkpt>
      <trkpt lat="46.90689" lon="5.76905">
        <ele>274.11303710938</ele>
        <time>2012-05-16T14:27:02Z</time>
      </trkpt>
      <trkpt lat="46.9069" lon="5.76912">
        <ele>274.11303710938</ele>
        <time>2012-05-16T14:27:04Z</time>
      </trkpt>
      <trkpt lat="46.90696" lon="5.76927">
        <ele>273.63244628906</ele>
        <time>2012-05-16T14:27:10Z</time>
      </trkpt>
      <trkpt lat="46.90699" lon="5.76934">
        <ele>272.67114257812</ele>
        <time>2012-05-16T14:27:15Z</time>
      </trkpt>
      <trkpt lat="46.90702" lon="5.7694">
        <ele>273.15185546875</ele>
        <time>2012-05-16T14:27:19Z</time>
      </trkpt>
      <trkpt lat="46.90702" lon="5.76942">
        <ele>273.15185546875</ele>
        <time>2012-05-16T14:27:21Z</time>
      </trkpt>
      <trkpt lat="46.90705" lon="5.76944">
        <ele>276.9970703125</ele>
        <time>2012-05-16T14:27:24Z</time>
      </trkpt>
      <trkpt lat="46.90716" lon="5.76945">
        <ele>282.76501464844</ele>
        <time>2012-05-16T14:27:32Z</time>
      </trkpt>
      <trkpt lat="46.90723" lon="5.76945">
        <ele>284.20690917969</ele>
        <time>2012-05-16T14:27:36Z</time>
      </trkpt>
      <trkpt lat="46.90732" lon="5.76946">
        <ele>287.0908203125</ele>
        <time>2012-05-16T14:27:40Z</time>
      </trkpt>
      <trkpt lat="46.90742" lon="5.76949">
        <ele>286.61022949219</ele>
        <time>2012-05-16T14:27:45Z</time>
      </trkpt>
      <trkpt lat="46.90754" lon="5.7695">
        <ele>286.12951660156</ele>
        <time>2012-05-16T14:27:50Z</time>
      </trkpt>
      <trkpt lat="46.90757" lon="5.7695">
        <ele>286.12951660156</ele>
        <time>2012-05-16T14:27:51Z</time>
      </trkpt>
      <trkpt lat="46.90771" lon="5.76944">
        <ele>285.16821289062</ele>
        <time>2012-05-16T14:27:56Z</time>
      </trkpt>
      <trkpt lat="46.90776" lon="5.76945">
        <ele>286.12951660156</ele>
        <time>2012-05-16T14:27:58Z</time>
      </trkpt>
      <trkpt lat="46.9079" lon="5.76935">
        <ele>286.61022949219</ele>
        <time>2012-05-16T14:28:04Z</time>
      </trkpt>
      <trkpt lat="46.90804" lon="5.7693">
        <ele>287.0908203125</ele>
        <time>2012-05-16T14:28:09Z</time>
      </trkpt>
      <trkpt lat="46.90817" lon="5.76927">
        <ele>287.0908203125</ele>
        <time>2012-05-16T14:28:14Z</time>
      </trkpt>
      <trkpt lat="46.90831" lon="5.76923">
        <ele>287.57141113281</ele>
        <time>2012-05-16T14:28:19Z</time>
      </trkpt>
      <trkpt lat="46.90837" lon="5.76922">
        <ele>287.57141113281</ele>
        <time>2012-05-16T14:28:21Z</time>
      </trkpt>
      <trkpt lat="46.90854" lon="5.7692">
        <ele>287.57141113281</ele>
        <time>2012-05-16T14:28:27Z</time>
      </trkpt>
      <trkpt lat="46.90863" lon="5.76916">
        <ele>288.53295898438</ele>
        <time>2012-05-16T14:28:31Z</time>
      </trkpt>
      <trkpt lat="46.90872" lon="5.76911">
        <ele>288.05224609375</ele>
        <time>2012-05-16T14:28:36Z</time>
      </trkpt>
      <trkpt lat="46.90888" lon="5.76909">
        <ele>289.01354980469</ele>
        <time>2012-05-16T14:28:42Z</time>
      </trkpt>
      <trkpt lat="46.90895" lon="5.76901">
        <ele>287.0908203125</ele>
        <time>2012-05-16T14:28:45Z</time>
      </trkpt>
      <trkpt lat="46.90908" lon="5.76889">
        <ele>285.64880371094</ele>
        <time>2012-05-16T14:28:51Z</time>
      </trkpt>
      <trkpt lat="46.90918" lon="5.7688">
        <ele>282.76501464844</ele>
        <time>2012-05-16T14:28:55Z</time>
      </trkpt>
      <trkpt lat="46.90926" lon="5.76872">
        <ele>280.36169433594</ele>
        <time>2012-05-16T14:28:59Z</time>
      </trkpt>
      <trkpt lat="46.90932" lon="5.76857">
        <ele>276.51635742188</ele>
        <time>2012-05-16T14:29:05Z</time>
      </trkpt>
      <trkpt lat="46.90934" lon="5.76855">
        <ele>276.03564453125</ele>
        <time>2012-05-16T14:29:06Z</time>
      </trkpt>
      <trkpt lat="46.90945" lon="5.76834">
        <ele>273.63244628906</ele>
        <time>2012-05-16T14:29:13Z</time>
      </trkpt>
      <trkpt lat="46.90951" lon="5.76822">
        <ele>273.63244628906</ele>
        <time>2012-05-16T14:29:17Z</time>
      </trkpt>
      <trkpt lat="46.90956" lon="5.76807">
        <ele>272.1904296875</ele>
        <time>2012-05-16T14:29:21Z</time>
      </trkpt>
      <trkpt lat="46.90963" lon="5.76792">
        <ele>273.63244628906</ele>
        <time>2012-05-16T14:29:26Z</time>
      </trkpt>
      <trkpt lat="46.9097" lon="5.76775">
        <ele>275.07446289062</ele>
        <time>2012-05-16T14:29:31Z</time>
      </trkpt>
      <trkpt lat="46.90975" lon="5.7676">
        <ele>275.55505371094</ele>
        <time>2012-05-16T14:29:35Z</time>
      </trkpt>
      <trkpt lat="46.90978" lon="5.76753">
        <ele>275.55505371094</ele>
        <time>2012-05-16T14:29:37Z</time>
      </trkpt>
      <trkpt lat="46.90985" lon="5.7674">
        <ele>274.59375</ele>
        <time>2012-05-16T14:29:42Z</time>
      </trkpt>
      <trkpt lat="46.90992" lon="5.76724">
        <ele>274.59375</ele>
        <time>2012-05-16T14:29:47Z</time>
      </trkpt>
      <trkpt lat="46.90995" lon="5.76718">
        <ele>274.11303710938</ele>
        <time>2012-05-16T14:29:49Z</time>
      </trkpt>
      <trkpt lat="46.91002" lon="5.76696">
        <ele>273.63244628906</ele>
        <time>2012-05-16T14:29:56Z</time>
      </trkpt>
      <trkpt lat="46.91009" lon="5.76679">
        <ele>275.55505371094</ele>
        <time>2012-05-16T14:30:01Z</time>
      </trkpt>
      <trkpt lat="46.91016" lon="5.76664">
        <ele>276.51635742188</ele>
        <time>2012-05-16T14:30:06Z</time>
      </trkpt>
      <trkpt lat="46.91021" lon="5.76651">
        <ele>277.47766113281</ele>
        <time>2012-05-16T14:30:10Z</time>
      </trkpt>
      <trkpt lat="46.91028" lon="5.7664">
        <ele>277.47766113281</ele>
        <time>2012-05-16T14:30:14Z</time>
      </trkpt>
      <trkpt lat="46.9103" lon="5.76637">
        <ele>277.47766113281</ele>
        <time>2012-05-16T14:30:15Z</time>
      </trkpt>
      <trkpt lat="46.91034" lon="5.76626">
        <ele>276.9970703125</ele>
        <time>2012-05-16T14:30:19Z</time>
      </trkpt>
      <trkpt lat="46.91042" lon="5.76607">
        <ele>276.9970703125</ele>
        <time>2012-05-16T14:30:25Z</time>
      </trkpt>
      <trkpt lat="46.91044" lon="5.76605">
        <ele>276.9970703125</ele>
        <time>2012-05-16T14:30:26Z</time>
      </trkpt>
      <trkpt lat="46.9105" lon="5.76592">
        <ele>276.9970703125</ele>
        <time>2012-05-16T14:30:30Z</time>
      </trkpt>
      <trkpt lat="46.91058" lon="5.76586">
        <ele>277.47766113281</ele>
        <time>2012-05-16T14:30:34Z</time>
      </trkpt>
      <trkpt lat="46.91066" lon="5.76567">
        <ele>278.43896484375</ele>
        <time>2012-05-16T14:30:40Z</time>
      </trkpt>
      <trkpt lat="46.91074" lon="5.76551">
        <ele>278.43896484375</ele>
        <time>2012-05-16T14:30:45Z</time>
      </trkpt>
      <trkpt lat="46.91078" lon="5.76547">
        <ele>278.91967773438</ele>
        <time>2012-05-16T14:30:47Z</time>
      </trkpt>
      <trkpt lat="46.91084" lon="5.76535">
        <ele>279.40026855469</ele>
        <time>2012-05-16T14:30:51Z</time>
      </trkpt>
      <trkpt lat="46.91086" lon="5.76528">
        <ele>279.40026855469</ele>
        <time>2012-05-16T14:30:53Z</time>
      </trkpt>
      <trkpt lat="46.91095" lon="5.7652">
        <ele>279.40026855469</ele>
        <time>2012-05-16T14:30:58Z</time>
      </trkpt>
      <trkpt lat="46.91109" lon="5.76518">
        <ele>277.47766113281</ele>
        <time>2012-05-16T14:31:04Z</time>
      </trkpt>
      <trkpt lat="46.91119" lon="5.76515">
        <ele>277.47766113281</ele>
        <time>2012-05-16T14:31:08Z</time>
      </trkpt>
      <trkpt lat="46.91136" lon="5.76514">
        <ele>276.51635742188</ele>
        <time>2012-05-16T14:31:15Z</time>
      </trkpt>
      <trkpt lat="46.91151" lon="5.76511">
        <ele>276.9970703125</ele>
        <time>2012-05-16T14:31:21Z</time>
      </trkpt>
      <trkpt lat="46.91161" lon="5.7651">
        <ele>277.47766113281</ele>
        <time>2012-05-16T14:31:25Z</time>
      </trkpt>
      <trkpt lat="46.91171" lon="5.76507">
        <ele>276.9970703125</ele>
        <time>2012-05-16T14:31:29Z</time>
      </trkpt>
      <trkpt lat="46.91182" lon="5.76505">
        <ele>277.47766113281</ele>
        <time>2012-05-16T14:31:33Z</time>
      </trkpt>
      <trkpt lat="46.91194" lon="5.76502">
        <ele>277.95825195312</ele>
        <time>2012-05-16T14:31:38Z</time>
      </trkpt>
      <trkpt lat="46.91196" lon="5.76501">
        <ele>277.95825195312</ele>
        <time>2012-05-16T14:31:39Z</time>
      </trkpt>
      <trkpt lat="46.91209" lon="5.76501">
        <ele>277.95825195312</ele>
        <time>2012-05-16T14:31:44Z</time>
      </trkpt>
      <trkpt lat="46.91225" lon="5.76504">
        <ele>277.47766113281</ele>
        <time>2012-05-16T14:31:51Z</time>
      </trkpt>
      <trkpt lat="46.91227" lon="5.76505">
        <ele>276.9970703125</ele>
        <time>2012-05-16T14:31:53Z</time>
      </trkpt>
    </trkseg>
  </trk>
</gpx>